<?xml version="1.0" encoding="UTF-8" standalone="no" ?>
<gpx xmlns="http://www.topografix.com/GPX/1/1" xmlns:xsi="http://www.w3.org/2001/XMLSchema-instance" xsi:schemaLocation="http://www.topografix.com/GPX/1/1 http://www.topografix.com/GPX/1/1/gpx.xsd" version="1.1" creator="VisuGPX - https://www.visugpx.com">
  <metadata>
    <name>Brèche de Roland / Cabane des Soldats</name>
    <desc><![CDATA[[url]https://plus.google.com/photos/105108571230570121986/albums/5886751887366718785?banner=pwa[/url]
[img]https://lh6.googleusercontent.com/-Hqb8FkDfLbw/UbHyXHEwTZI/AAAAAAAAMKY/FvXBUSLRyS0/w702-h527-no/2013.06.07 Breche de Roland %25283%2529.jpg[/img]]]></desc>
  </metadata>
  <trk>
    <name><![CDATA[Brèche de Roland  Cabane des Soldats]]></name>
    <trkseg>
      <trkpt lat="42.72724" lon="-0.04108">
        <ele>1877</ele>
        <time>2013-06-07T03:48:08Z</time>
      </trkpt>
      <trkpt lat="42.72724" lon="-0.04109">
        <ele>1881</ele>
        <time>2013-06-07T03:48:11Z</time>
      </trkpt>
      <trkpt lat="42.72724" lon="-0.04109">
        <ele>1885</ele>
        <time>2013-06-07T03:48:14Z</time>
      </trkpt>
      <trkpt lat="42.72724" lon="-0.04109">
        <ele>1889</ele>
        <time>2013-06-07T03:48:17Z</time>
      </trkpt>
      <trkpt lat="42.72724" lon="-0.0411">
        <ele>1892</ele>
        <time>2013-06-07T03:48:20Z</time>
      </trkpt>
      <trkpt lat="42.72724" lon="-0.0411">
        <ele>1896</ele>
        <time>2013-06-07T03:48:24Z</time>
      </trkpt>
      <trkpt lat="42.72724" lon="-0.0411">
        <ele>1899</ele>
        <time>2013-06-07T03:48:28Z</time>
      </trkpt>
      <trkpt lat="42.72723" lon="-0.04111">
        <ele>1903</ele>
        <time>2013-06-07T03:48:33Z</time>
      </trkpt>
      <trkpt lat="42.72723" lon="-0.04111">
        <ele>1903</ele>
        <time>2013-06-07T03:48:34Z</time>
      </trkpt>
      <trkpt lat="42.72724" lon="-0.0411">
        <ele>1906</ele>
        <time>2013-06-07T03:48:38Z</time>
      </trkpt>
      <trkpt lat="42.72724" lon="-0.0411">
        <ele>1905</ele>
        <time>2013-06-07T03:48:39Z</time>
      </trkpt>
      <trkpt lat="42.72724" lon="-0.04109">
        <ele>1909</ele>
        <time>2013-06-07T03:48:45Z</time>
      </trkpt>
      <trkpt lat="42.72726" lon="-0.04108">
        <ele>1912</ele>
        <time>2013-06-07T03:48:51Z</time>
      </trkpt>
      <trkpt lat="42.72726" lon="-0.04108">
        <ele>1915</ele>
        <time>2013-06-07T03:49:01Z</time>
      </trkpt>
      <trkpt lat="42.72728" lon="-0.04108">
        <ele>1918</ele>
        <time>2013-06-07T03:49:10Z</time>
      </trkpt>
      <trkpt lat="42.72727" lon="-0.04109">
        <ele>1919</ele>
        <time>2013-06-07T03:49:18Z</time>
      </trkpt>
      <trkpt lat="42.72726" lon="-0.0411">
        <ele>1922</ele>
        <time>2013-06-07T03:49:40Z</time>
      </trkpt>
      <trkpt lat="42.72726" lon="-0.04109">
        <ele>1926</ele>
        <time>2013-06-07T03:49:56Z</time>
      </trkpt>
      <trkpt lat="42.72725" lon="-0.04107">
        <ele>1925</ele>
        <time>2013-06-07T03:50:06Z</time>
      </trkpt>
      <trkpt lat="42.72725" lon="-0.04108">
        <ele>1925</ele>
        <time>2013-06-07T03:50:18Z</time>
      </trkpt>
      <trkpt lat="42.72726" lon="-0.04108">
        <ele>1924</ele>
        <time>2013-06-07T03:50:26Z</time>
      </trkpt>
      <trkpt lat="42.72725" lon="-0.04107">
        <ele>1924</ele>
        <time>2013-06-07T03:50:38Z</time>
      </trkpt>
      <trkpt lat="42.72725" lon="-0.04107">
        <ele>1924</ele>
        <time>2013-06-07T03:50:53Z</time>
      </trkpt>
      <trkpt lat="42.72726" lon="-0.04109">
        <ele>1924</ele>
        <time>2013-06-07T03:51:12Z</time>
      </trkpt>
      <trkpt lat="42.72726" lon="-0.0411">
        <ele>1924</ele>
        <time>2013-06-07T03:51:29Z</time>
      </trkpt>
      <trkpt lat="42.72725" lon="-0.04111">
        <ele>1925</ele>
        <time>2013-06-07T03:51:36Z</time>
      </trkpt>
      <trkpt lat="42.72725" lon="-0.04109">
        <ele>1925</ele>
        <time>2013-06-07T03:51:47Z</time>
      </trkpt>
      <trkpt lat="42.72725" lon="-0.04109">
        <ele>1926</ele>
        <time>2013-06-07T03:51:57Z</time>
      </trkpt>
      <trkpt lat="42.72725" lon="-0.04109">
        <ele>1925</ele>
        <time>2013-06-07T03:52:07Z</time>
      </trkpt>
      <trkpt lat="42.72725" lon="-0.0411">
        <ele>1925</ele>
        <time>2013-06-07T03:52:15Z</time>
      </trkpt>
      <trkpt lat="42.72725" lon="-0.04109">
        <ele>1926</ele>
        <time>2013-06-07T03:52:22Z</time>
      </trkpt>
      <trkpt lat="42.72727" lon="-0.0411">
        <ele>1925</ele>
        <time>2013-06-07T03:52:31Z</time>
      </trkpt>
      <trkpt lat="42.72727" lon="-0.0411">
        <ele>1926</ele>
        <time>2013-06-07T03:52:40Z</time>
      </trkpt>
      <trkpt lat="42.72727" lon="-0.0411">
        <ele>1926</ele>
        <time>2013-06-07T03:52:41Z</time>
      </trkpt>
      <trkpt lat="42.72723" lon="-0.04111">
        <ele>1926</ele>
        <time>2013-06-07T03:52:50Z</time>
      </trkpt>
      <trkpt lat="42.72723" lon="-0.04112">
        <ele>1926</ele>
        <time>2013-06-07T03:53:00Z</time>
      </trkpt>
      <trkpt lat="42.72722" lon="-0.04112">
        <ele>1927</ele>
        <time>2013-06-07T03:53:11Z</time>
      </trkpt>
      <trkpt lat="42.72722" lon="-0.0411">
        <ele>1925</ele>
        <time>2013-06-07T03:53:23Z</time>
      </trkpt>
      <trkpt lat="42.72719" lon="-0.04112">
        <ele>1925</ele>
        <time>2013-06-07T03:53:33Z</time>
      </trkpt>
      <trkpt lat="42.72716" lon="-0.04113">
        <ele>1927</ele>
        <time>2013-06-07T03:53:41Z</time>
      </trkpt>
      <trkpt lat="42.72716" lon="-0.04114">
        <ele>1927</ele>
        <time>2013-06-07T03:53:48Z</time>
      </trkpt>
      <trkpt lat="42.72716" lon="-0.04116">
        <ele>1926</ele>
        <time>2013-06-07T03:54:05Z</time>
      </trkpt>
      <trkpt lat="42.72712" lon="-0.04116">
        <ele>1927</ele>
        <time>2013-06-07T03:54:15Z</time>
      </trkpt>
      <trkpt lat="42.72711" lon="-0.04116">
        <ele>1928</ele>
        <time>2013-06-07T03:54:17Z</time>
      </trkpt>
      <trkpt lat="42.72708" lon="-0.04116">
        <ele>1929</ele>
        <time>2013-06-07T03:54:20Z</time>
      </trkpt>
      <trkpt lat="42.72704" lon="-0.04118">
        <ele>1929</ele>
        <time>2013-06-07T03:54:27Z</time>
      </trkpt>
      <trkpt lat="42.72696" lon="-0.0412">
        <ele>1931</ele>
        <time>2013-06-07T03:54:35Z</time>
      </trkpt>
      <trkpt lat="42.72688" lon="-0.04123">
        <ele>1933</ele>
        <time>2013-06-07T03:54:43Z</time>
      </trkpt>
      <trkpt lat="42.72682" lon="-0.04127">
        <ele>1935</ele>
        <time>2013-06-07T03:54:50Z</time>
      </trkpt>
      <trkpt lat="42.72674" lon="-0.04131">
        <ele>1936</ele>
        <time>2013-06-07T03:54:58Z</time>
      </trkpt>
      <trkpt lat="42.72667" lon="-0.04133">
        <ele>1937</ele>
        <time>2013-06-07T03:55:05Z</time>
      </trkpt>
      <trkpt lat="42.72659" lon="-0.04135">
        <ele>1938</ele>
        <time>2013-06-07T03:55:13Z</time>
      </trkpt>
      <trkpt lat="42.72651" lon="-0.04136">
        <ele>1939</ele>
        <time>2013-06-07T03:55:21Z</time>
      </trkpt>
      <trkpt lat="42.72647" lon="-0.04138">
        <ele>1940</ele>
        <time>2013-06-07T03:55:26Z</time>
      </trkpt>
      <trkpt lat="42.72639" lon="-0.0414">
        <ele>1940</ele>
        <time>2013-06-07T03:55:35Z</time>
      </trkpt>
      <trkpt lat="42.72632" lon="-0.04144">
        <ele>1940</ele>
        <time>2013-06-07T03:55:42Z</time>
      </trkpt>
      <trkpt lat="42.7263" lon="-0.04148">
        <ele>1940</ele>
        <time>2013-06-07T03:55:49Z</time>
      </trkpt>
      <trkpt lat="42.72624" lon="-0.0415">
        <ele>1942</ele>
        <time>2013-06-07T03:55:56Z</time>
      </trkpt>
      <trkpt lat="42.7262" lon="-0.04152">
        <ele>1942</ele>
        <time>2013-06-07T03:56:03Z</time>
      </trkpt>
      <trkpt lat="42.72613" lon="-0.04153">
        <ele>1942</ele>
        <time>2013-06-07T03:56:10Z</time>
      </trkpt>
      <trkpt lat="42.72609" lon="-0.04153">
        <ele>1943</ele>
        <time>2013-06-07T03:56:15Z</time>
      </trkpt>
      <trkpt lat="42.72604" lon="-0.04156">
        <ele>1944</ele>
        <time>2013-06-07T03:56:21Z</time>
      </trkpt>
      <trkpt lat="42.72598" lon="-0.04158">
        <ele>1945</ele>
        <time>2013-06-07T03:56:28Z</time>
      </trkpt>
      <trkpt lat="42.72593" lon="-0.04159">
        <ele>1946</ele>
        <time>2013-06-07T03:56:35Z</time>
      </trkpt>
      <trkpt lat="42.72587" lon="-0.04161">
        <ele>1947</ele>
        <time>2013-06-07T03:56:43Z</time>
      </trkpt>
      <trkpt lat="42.7258" lon="-0.04165">
        <ele>1948</ele>
        <time>2013-06-07T03:56:50Z</time>
      </trkpt>
      <trkpt lat="42.72577" lon="-0.04168">
        <ele>1949</ele>
        <time>2013-06-07T03:56:56Z</time>
      </trkpt>
      <trkpt lat="42.72573" lon="-0.04172">
        <ele>1950</ele>
        <time>2013-06-07T03:57:01Z</time>
      </trkpt>
      <trkpt lat="42.72567" lon="-0.04179">
        <ele>1950</ele>
        <time>2013-06-07T03:57:08Z</time>
      </trkpt>
      <trkpt lat="42.72559" lon="-0.04185">
        <ele>1951</ele>
        <time>2013-06-07T03:57:16Z</time>
      </trkpt>
      <trkpt lat="42.72553" lon="-0.04191">
        <ele>1953</ele>
        <time>2013-06-07T03:57:23Z</time>
      </trkpt>
      <trkpt lat="42.72546" lon="-0.04196">
        <ele>1953</ele>
        <time>2013-06-07T03:57:30Z</time>
      </trkpt>
      <trkpt lat="42.72541" lon="-0.04202">
        <ele>1954</ele>
        <time>2013-06-07T03:57:38Z</time>
      </trkpt>
      <trkpt lat="42.72534" lon="-0.04211">
        <ele>1954</ele>
        <time>2013-06-07T03:57:47Z</time>
      </trkpt>
      <trkpt lat="42.72533" lon="-0.04217">
        <ele>1955</ele>
        <time>2013-06-07T03:57:53Z</time>
      </trkpt>
      <trkpt lat="42.72525" lon="-0.04223">
        <ele>1956</ele>
        <time>2013-06-07T03:58:02Z</time>
      </trkpt>
      <trkpt lat="42.72521" lon="-0.04229">
        <ele>1956</ele>
        <time>2013-06-07T03:58:09Z</time>
      </trkpt>
      <trkpt lat="42.72514" lon="-0.04234">
        <ele>1957</ele>
        <time>2013-06-07T03:58:17Z</time>
      </trkpt>
      <trkpt lat="42.72509" lon="-0.0424">
        <ele>1958</ele>
        <time>2013-06-07T03:58:24Z</time>
      </trkpt>
      <trkpt lat="42.72508" lon="-0.04242">
        <ele>1958</ele>
        <time>2013-06-07T03:58:26Z</time>
      </trkpt>
      <trkpt lat="42.72503" lon="-0.04248">
        <ele>1958</ele>
        <time>2013-06-07T03:58:35Z</time>
      </trkpt>
      <trkpt lat="42.72497" lon="-0.04254">
        <ele>1959</ele>
        <time>2013-06-07T03:58:43Z</time>
      </trkpt>
      <trkpt lat="42.72493" lon="-0.04259">
        <ele>1960</ele>
        <time>2013-06-07T03:58:51Z</time>
      </trkpt>
      <trkpt lat="42.72485" lon="-0.04263">
        <ele>1960</ele>
        <time>2013-06-07T03:58:58Z</time>
      </trkpt>
      <trkpt lat="42.72479" lon="-0.04269">
        <ele>1961</ele>
        <time>2013-06-07T03:59:06Z</time>
      </trkpt>
      <trkpt lat="42.72477" lon="-0.04272">
        <ele>1961</ele>
        <time>2013-06-07T03:59:09Z</time>
      </trkpt>
      <trkpt lat="42.72471" lon="-0.04277">
        <ele>1962</ele>
        <time>2013-06-07T03:59:16Z</time>
      </trkpt>
      <trkpt lat="42.72466" lon="-0.04282">
        <ele>1962</ele>
        <time>2013-06-07T03:59:23Z</time>
      </trkpt>
      <trkpt lat="42.72462" lon="-0.04288">
        <ele>1963</ele>
        <time>2013-06-07T03:59:30Z</time>
      </trkpt>
      <trkpt lat="42.72455" lon="-0.04296">
        <ele>1963</ele>
        <time>2013-06-07T03:59:39Z</time>
      </trkpt>
      <trkpt lat="42.72449" lon="-0.04304">
        <ele>1965</ele>
        <time>2013-06-07T03:59:47Z</time>
      </trkpt>
      <trkpt lat="42.72443" lon="-0.0431">
        <ele>1966</ele>
        <time>2013-06-07T03:59:55Z</time>
      </trkpt>
      <trkpt lat="42.72438" lon="-0.04318">
        <ele>1966</ele>
        <time>2013-06-07T04:00:04Z</time>
      </trkpt>
      <trkpt lat="42.72433" lon="-0.04324">
        <ele>1967</ele>
        <time>2013-06-07T04:00:12Z</time>
      </trkpt>
      <trkpt lat="42.72428" lon="-0.0433">
        <ele>1968</ele>
        <time>2013-06-07T04:00:19Z</time>
      </trkpt>
      <trkpt lat="42.72426" lon="-0.04333">
        <ele>1968</ele>
        <time>2013-06-07T04:00:23Z</time>
      </trkpt>
      <trkpt lat="42.72422" lon="-0.04337">
        <ele>1969</ele>
        <time>2013-06-07T04:00:28Z</time>
      </trkpt>
      <trkpt lat="42.72416" lon="-0.04344">
        <ele>1970</ele>
        <time>2013-06-07T04:00:36Z</time>
      </trkpt>
      <trkpt lat="42.72409" lon="-0.0435">
        <ele>1970</ele>
        <time>2013-06-07T04:00:44Z</time>
      </trkpt>
      <trkpt lat="42.72404" lon="-0.04355">
        <ele>1971</ele>
        <time>2013-06-07T04:00:52Z</time>
      </trkpt>
      <trkpt lat="42.724" lon="-0.04361">
        <ele>1973</ele>
        <time>2013-06-07T04:01:01Z</time>
      </trkpt>
      <trkpt lat="42.72396" lon="-0.04367">
        <ele>1973</ele>
        <time>2013-06-07T04:01:08Z</time>
      </trkpt>
      <trkpt lat="42.72392" lon="-0.04372">
        <ele>1973</ele>
        <time>2013-06-07T04:01:15Z</time>
      </trkpt>
      <trkpt lat="42.72388" lon="-0.04376">
        <ele>1974</ele>
        <time>2013-06-07T04:01:19Z</time>
      </trkpt>
      <trkpt lat="42.7238" lon="-0.04386">
        <ele>1975</ele>
        <time>2013-06-07T04:01:27Z</time>
      </trkpt>
      <trkpt lat="42.72375" lon="-0.04392">
        <ele>1975</ele>
        <time>2013-06-07T04:01:34Z</time>
      </trkpt>
      <trkpt lat="42.72369" lon="-0.044">
        <ele>1976</ele>
        <time>2013-06-07T04:01:42Z</time>
      </trkpt>
      <trkpt lat="42.72366" lon="-0.04406">
        <ele>1977</ele>
        <time>2013-06-07T04:01:48Z</time>
      </trkpt>
      <trkpt lat="42.7236" lon="-0.04413">
        <ele>1978</ele>
        <time>2013-06-07T04:01:56Z</time>
      </trkpt>
      <trkpt lat="42.72354" lon="-0.04419">
        <ele>1978</ele>
        <time>2013-06-07T04:02:03Z</time>
      </trkpt>
      <trkpt lat="42.72349" lon="-0.04426">
        <ele>1979</ele>
        <time>2013-06-07T04:02:10Z</time>
      </trkpt>
      <trkpt lat="42.72345" lon="-0.04432">
        <ele>1979</ele>
        <time>2013-06-07T04:02:17Z</time>
      </trkpt>
      <trkpt lat="42.72337" lon="-0.04437">
        <ele>1980</ele>
        <time>2013-06-07T04:02:25Z</time>
      </trkpt>
      <trkpt lat="42.72333" lon="-0.04442">
        <ele>1980</ele>
        <time>2013-06-07T04:02:32Z</time>
      </trkpt>
      <trkpt lat="42.72328" lon="-0.04448">
        <ele>1981</ele>
        <time>2013-06-07T04:02:39Z</time>
      </trkpt>
      <trkpt lat="42.72324" lon="-0.04453">
        <ele>1983</ele>
        <time>2013-06-07T04:02:46Z</time>
      </trkpt>
      <trkpt lat="42.72319" lon="-0.04459">
        <ele>1984</ele>
        <time>2013-06-07T04:02:54Z</time>
      </trkpt>
      <trkpt lat="42.72316" lon="-0.04465">
        <ele>1985</ele>
        <time>2013-06-07T04:03:02Z</time>
      </trkpt>
      <trkpt lat="42.72312" lon="-0.0447">
        <ele>1986</ele>
        <time>2013-06-07T04:03:09Z</time>
      </trkpt>
      <trkpt lat="42.72308" lon="-0.04476">
        <ele>1988</ele>
        <time>2013-06-07T04:03:17Z</time>
      </trkpt>
      <trkpt lat="42.72302" lon="-0.04485">
        <ele>1990</ele>
        <time>2013-06-07T04:03:26Z</time>
      </trkpt>
      <trkpt lat="42.72297" lon="-0.0449">
        <ele>1991</ele>
        <time>2013-06-07T04:03:34Z</time>
      </trkpt>
      <trkpt lat="42.72295" lon="-0.04496">
        <ele>1991</ele>
        <time>2013-06-07T04:03:41Z</time>
      </trkpt>
      <trkpt lat="42.72292" lon="-0.045">
        <ele>1992</ele>
        <time>2013-06-07T04:03:47Z</time>
      </trkpt>
      <trkpt lat="42.72287" lon="-0.04506">
        <ele>1994</ele>
        <time>2013-06-07T04:03:56Z</time>
      </trkpt>
      <trkpt lat="42.72284" lon="-0.04509">
        <ele>1994</ele>
        <time>2013-06-07T04:04:01Z</time>
      </trkpt>
      <trkpt lat="42.72278" lon="-0.04514">
        <ele>1995</ele>
        <time>2013-06-07T04:04:08Z</time>
      </trkpt>
      <trkpt lat="42.72273" lon="-0.04518">
        <ele>1996</ele>
        <time>2013-06-07T04:04:14Z</time>
      </trkpt>
      <trkpt lat="42.72268" lon="-0.04523">
        <ele>1997</ele>
        <time>2013-06-07T04:04:22Z</time>
      </trkpt>
      <trkpt lat="42.72261" lon="-0.0453">
        <ele>1998</ele>
        <time>2013-06-07T04:04:31Z</time>
      </trkpt>
      <trkpt lat="42.72254" lon="-0.04532">
        <ele>2000</ele>
        <time>2013-06-07T04:04:39Z</time>
      </trkpt>
      <trkpt lat="42.72253" lon="-0.04536">
        <ele>2000</ele>
        <time>2013-06-07T04:04:47Z</time>
      </trkpt>
      <trkpt lat="42.72254" lon="-0.04538">
        <ele>1999</ele>
        <time>2013-06-07T04:04:51Z</time>
      </trkpt>
      <trkpt lat="42.72251" lon="-0.04547">
        <ele>1999</ele>
        <time>2013-06-07T04:04:58Z</time>
      </trkpt>
      <trkpt lat="42.72246" lon="-0.04556">
        <ele>2000</ele>
        <time>2013-06-07T04:05:04Z</time>
      </trkpt>
      <trkpt lat="42.7224" lon="-0.04561">
        <ele>2000</ele>
        <time>2013-06-07T04:05:12Z</time>
      </trkpt>
      <trkpt lat="42.72231" lon="-0.04567">
        <ele>2000</ele>
        <time>2013-06-07T04:05:20Z</time>
      </trkpt>
      <trkpt lat="42.7223" lon="-0.04567">
        <ele>2000</ele>
        <time>2013-06-07T04:05:21Z</time>
      </trkpt>
      <trkpt lat="42.72222" lon="-0.04574">
        <ele>1999</ele>
        <time>2013-06-07T04:05:28Z</time>
      </trkpt>
      <trkpt lat="42.72215" lon="-0.04582">
        <ele>1998</ele>
        <time>2013-06-07T04:05:35Z</time>
      </trkpt>
      <trkpt lat="42.72213" lon="-0.04584">
        <ele>1999</ele>
        <time>2013-06-07T04:05:37Z</time>
      </trkpt>
      <trkpt lat="42.72208" lon="-0.04596">
        <ele>1998</ele>
        <time>2013-06-07T04:05:46Z</time>
      </trkpt>
      <trkpt lat="42.72203" lon="-0.04606">
        <ele>1999</ele>
        <time>2013-06-07T04:05:54Z</time>
      </trkpt>
      <trkpt lat="42.72202" lon="-0.04608">
        <ele>1999</ele>
        <time>2013-06-07T04:05:56Z</time>
      </trkpt>
      <trkpt lat="42.722" lon="-0.04616">
        <ele>1999</ele>
        <time>2013-06-07T04:06:03Z</time>
      </trkpt>
      <trkpt lat="42.72198" lon="-0.04627">
        <ele>2000</ele>
        <time>2013-06-07T04:06:11Z</time>
      </trkpt>
      <trkpt lat="42.72196" lon="-0.04631">
        <ele>2000</ele>
        <time>2013-06-07T04:06:14Z</time>
      </trkpt>
      <trkpt lat="42.72194" lon="-0.04638">
        <ele>1999</ele>
        <time>2013-06-07T04:06:18Z</time>
      </trkpt>
      <trkpt lat="42.72193" lon="-0.04645">
        <ele>1999</ele>
        <time>2013-06-07T04:06:22Z</time>
      </trkpt>
      <trkpt lat="42.7219" lon="-0.04657">
        <ele>1999</ele>
        <time>2013-06-07T04:06:30Z</time>
      </trkpt>
      <trkpt lat="42.7219" lon="-0.0466">
        <ele>1999</ele>
        <time>2013-06-07T04:06:32Z</time>
      </trkpt>
      <trkpt lat="42.72187" lon="-0.04671">
        <ele>2000</ele>
        <time>2013-06-07T04:06:40Z</time>
      </trkpt>
      <trkpt lat="42.72186" lon="-0.04679">
        <ele>2001</ele>
        <time>2013-06-07T04:06:46Z</time>
      </trkpt>
      <trkpt lat="42.72181" lon="-0.04687">
        <ele>2001</ele>
        <time>2013-06-07T04:06:53Z</time>
      </trkpt>
      <trkpt lat="42.72176" lon="-0.04698">
        <ele>2001</ele>
        <time>2013-06-07T04:07:02Z</time>
      </trkpt>
      <trkpt lat="42.72168" lon="-0.04706">
        <ele>2001</ele>
        <time>2013-06-07T04:07:10Z</time>
      </trkpt>
      <trkpt lat="42.72162" lon="-0.04716">
        <ele>2001</ele>
        <time>2013-06-07T04:07:18Z</time>
      </trkpt>
      <trkpt lat="42.7216" lon="-0.04717">
        <ele>2001</ele>
        <time>2013-06-07T04:07:20Z</time>
      </trkpt>
      <trkpt lat="42.72156" lon="-0.04722">
        <ele>2001</ele>
        <time>2013-06-07T04:07:24Z</time>
      </trkpt>
      <trkpt lat="42.7215" lon="-0.04734">
        <ele>2002</ele>
        <time>2013-06-07T04:07:33Z</time>
      </trkpt>
      <trkpt lat="42.72146" lon="-0.0474">
        <ele>2001</ele>
        <time>2013-06-07T04:07:39Z</time>
      </trkpt>
      <trkpt lat="42.72141" lon="-0.04748">
        <ele>2002</ele>
        <time>2013-06-07T04:07:46Z</time>
      </trkpt>
      <trkpt lat="42.72136" lon="-0.04759">
        <ele>2003</ele>
        <time>2013-06-07T04:07:55Z</time>
      </trkpt>
      <trkpt lat="42.72131" lon="-0.04769">
        <ele>2004</ele>
        <time>2013-06-07T04:08:03Z</time>
      </trkpt>
      <trkpt lat="42.72128" lon="-0.04779">
        <ele>2005</ele>
        <time>2013-06-07T04:08:11Z</time>
      </trkpt>
      <trkpt lat="42.72123" lon="-0.04789">
        <ele>2005</ele>
        <time>2013-06-07T04:08:19Z</time>
      </trkpt>
      <trkpt lat="42.72122" lon="-0.0479">
        <ele>2005</ele>
        <time>2013-06-07T04:08:21Z</time>
      </trkpt>
      <trkpt lat="42.72118" lon="-0.048">
        <ele>2006</ele>
        <time>2013-06-07T04:08:30Z</time>
      </trkpt>
      <trkpt lat="42.72114" lon="-0.04807">
        <ele>2007</ele>
        <time>2013-06-07T04:08:37Z</time>
      </trkpt>
      <trkpt lat="42.72111" lon="-0.04812">
        <ele>2007</ele>
        <time>2013-06-07T04:08:42Z</time>
      </trkpt>
      <trkpt lat="42.72103" lon="-0.0482">
        <ele>2008</ele>
        <time>2013-06-07T04:08:51Z</time>
      </trkpt>
      <trkpt lat="42.72097" lon="-0.04825">
        <ele>2008</ele>
        <time>2013-06-07T04:08:58Z</time>
      </trkpt>
      <trkpt lat="42.72088" lon="-0.0483">
        <ele>2009</ele>
        <time>2013-06-07T04:09:07Z</time>
      </trkpt>
      <trkpt lat="42.72087" lon="-0.04831">
        <ele>2009</ele>
        <time>2013-06-07T04:09:08Z</time>
      </trkpt>
      <trkpt lat="42.72082" lon="-0.04837">
        <ele>2010</ele>
        <time>2013-06-07T04:09:15Z</time>
      </trkpt>
      <trkpt lat="42.72076" lon="-0.04842">
        <ele>2010</ele>
        <time>2013-06-07T04:09:21Z</time>
      </trkpt>
      <trkpt lat="42.72069" lon="-0.04846">
        <ele>2010</ele>
        <time>2013-06-07T04:09:27Z</time>
      </trkpt>
      <trkpt lat="42.72064" lon="-0.04849">
        <ele>2010</ele>
        <time>2013-06-07T04:09:31Z</time>
      </trkpt>
      <trkpt lat="42.72062" lon="-0.04851">
        <ele>2010</ele>
        <time>2013-06-07T04:09:34Z</time>
      </trkpt>
      <trkpt lat="42.72055" lon="-0.04856">
        <ele>2010</ele>
        <time>2013-06-07T04:09:41Z</time>
      </trkpt>
      <trkpt lat="42.7205" lon="-0.04859">
        <ele>2010</ele>
        <time>2013-06-07T04:09:45Z</time>
      </trkpt>
      <trkpt lat="42.72044" lon="-0.04864">
        <ele>2011</ele>
        <time>2013-06-07T04:09:52Z</time>
      </trkpt>
      <trkpt lat="42.72036" lon="-0.04871">
        <ele>2012</ele>
        <time>2013-06-07T04:10:01Z</time>
      </trkpt>
      <trkpt lat="42.72029" lon="-0.04876">
        <ele>2012</ele>
        <time>2013-06-07T04:10:09Z</time>
      </trkpt>
      <trkpt lat="42.72023" lon="-0.0488">
        <ele>2013</ele>
        <time>2013-06-07T04:10:16Z</time>
      </trkpt>
      <trkpt lat="42.72019" lon="-0.0488">
        <ele>2013</ele>
        <time>2013-06-07T04:10:20Z</time>
      </trkpt>
      <trkpt lat="42.72014" lon="-0.04884">
        <ele>2013</ele>
        <time>2013-06-07T04:10:27Z</time>
      </trkpt>
      <trkpt lat="42.72009" lon="-0.04887">
        <ele>2014</ele>
        <time>2013-06-07T04:10:34Z</time>
      </trkpt>
      <trkpt lat="42.72003" lon="-0.04891">
        <ele>2015</ele>
        <time>2013-06-07T04:10:42Z</time>
      </trkpt>
      <trkpt lat="42.71997" lon="-0.04894">
        <ele>2016</ele>
        <time>2013-06-07T04:10:48Z</time>
      </trkpt>
      <trkpt lat="42.7199" lon="-0.04899">
        <ele>2016</ele>
        <time>2013-06-07T04:10:56Z</time>
      </trkpt>
      <trkpt lat="42.71983" lon="-0.04904">
        <ele>2017</ele>
        <time>2013-06-07T04:11:05Z</time>
      </trkpt>
      <trkpt lat="42.71976" lon="-0.04908">
        <ele>2018</ele>
        <time>2013-06-07T04:11:13Z</time>
      </trkpt>
      <trkpt lat="42.71968" lon="-0.04912">
        <ele>2020</ele>
        <time>2013-06-07T04:11:21Z</time>
      </trkpt>
      <trkpt lat="42.71964" lon="-0.04916">
        <ele>2020</ele>
        <time>2013-06-07T04:11:28Z</time>
      </trkpt>
      <trkpt lat="42.7196" lon="-0.0492">
        <ele>2021</ele>
        <time>2013-06-07T04:11:35Z</time>
      </trkpt>
      <trkpt lat="42.71954" lon="-0.04923">
        <ele>2023</ele>
        <time>2013-06-07T04:11:43Z</time>
      </trkpt>
      <trkpt lat="42.71953" lon="-0.04924">
        <ele>2024</ele>
        <time>2013-06-07T04:11:49Z</time>
      </trkpt>
      <trkpt lat="42.71952" lon="-0.04926">
        <ele>2023</ele>
        <time>2013-06-07T04:11:57Z</time>
      </trkpt>
      <trkpt lat="42.71952" lon="-0.04925">
        <ele>2027</ele>
        <time>2013-06-07T04:12:01Z</time>
      </trkpt>
      <trkpt lat="42.7195" lon="-0.04925">
        <ele>2023</ele>
        <time>2013-06-07T04:12:03Z</time>
      </trkpt>
      <trkpt lat="42.7195" lon="-0.04924">
        <ele>2022</ele>
        <time>2013-06-07T04:12:04Z</time>
      </trkpt>
      <trkpt lat="42.71946" lon="-0.04923">
        <ele>2021</ele>
        <time>2013-06-07T04:12:21Z</time>
      </trkpt>
      <trkpt lat="42.71948" lon="-0.04928">
        <ele>2022</ele>
        <time>2013-06-07T04:12:36Z</time>
      </trkpt>
      <trkpt lat="42.71948" lon="-0.04925">
        <ele>2022</ele>
        <time>2013-06-07T04:12:51Z</time>
      </trkpt>
      <trkpt lat="42.7195" lon="-0.04924">
        <ele>2022</ele>
        <time>2013-06-07T04:12:56Z</time>
      </trkpt>
      <trkpt lat="42.71949" lon="-0.04922">
        <ele>2023</ele>
        <time>2013-06-07T04:13:05Z</time>
      </trkpt>
      <trkpt lat="42.71949" lon="-0.04921">
        <ele>2023</ele>
        <time>2013-06-07T04:13:11Z</time>
      </trkpt>
      <trkpt lat="42.71947" lon="-0.04922">
        <ele>2023</ele>
        <time>2013-06-07T04:13:23Z</time>
      </trkpt>
      <trkpt lat="42.71942" lon="-0.04924">
        <ele>2024</ele>
        <time>2013-06-07T04:13:29Z</time>
      </trkpt>
      <trkpt lat="42.71941" lon="-0.04925">
        <ele>2024</ele>
        <time>2013-06-07T04:13:30Z</time>
      </trkpt>
      <trkpt lat="42.7194" lon="-0.04928">
        <ele>2025</ele>
        <time>2013-06-07T04:13:33Z</time>
      </trkpt>
      <trkpt lat="42.71939" lon="-0.04937">
        <ele>2026</ele>
        <time>2013-06-07T04:13:40Z</time>
      </trkpt>
      <trkpt lat="42.71937" lon="-0.04945">
        <ele>2028</ele>
        <time>2013-06-07T04:13:48Z</time>
      </trkpt>
      <trkpt lat="42.71937" lon="-0.04946">
        <ele>2029</ele>
        <time>2013-06-07T04:13:50Z</time>
      </trkpt>
      <trkpt lat="42.71935" lon="-0.04946">
        <ele>2030</ele>
        <time>2013-06-07T04:13:54Z</time>
      </trkpt>
      <trkpt lat="42.71932" lon="-0.04947">
        <ele>2031</ele>
        <time>2013-06-07T04:13:58Z</time>
      </trkpt>
      <trkpt lat="42.71927" lon="-0.04948">
        <ele>2032</ele>
        <time>2013-06-07T04:14:03Z</time>
      </trkpt>
      <trkpt lat="42.71924" lon="-0.0495">
        <ele>2033</ele>
        <time>2013-06-07T04:14:06Z</time>
      </trkpt>
      <trkpt lat="42.71918" lon="-0.04949">
        <ele>2035</ele>
        <time>2013-06-07T04:14:12Z</time>
      </trkpt>
      <trkpt lat="42.71914" lon="-0.0495">
        <ele>2036</ele>
        <time>2013-06-07T04:14:17Z</time>
      </trkpt>
      <trkpt lat="42.71912" lon="-0.04949">
        <ele>2036</ele>
        <time>2013-06-07T04:14:19Z</time>
      </trkpt>
      <trkpt lat="42.71908" lon="-0.04948">
        <ele>2037</ele>
        <time>2013-06-07T04:14:25Z</time>
      </trkpt>
      <trkpt lat="42.71905" lon="-0.04946">
        <ele>2038</ele>
        <time>2013-06-07T04:14:28Z</time>
      </trkpt>
      <trkpt lat="42.71899" lon="-0.04942">
        <ele>2039</ele>
        <time>2013-06-07T04:14:35Z</time>
      </trkpt>
      <trkpt lat="42.71897" lon="-0.04939">
        <ele>2041</ele>
        <time>2013-06-07T04:14:41Z</time>
      </trkpt>
      <trkpt lat="42.71892" lon="-0.04932">
        <ele>2043</ele>
        <time>2013-06-07T04:14:51Z</time>
      </trkpt>
      <trkpt lat="42.71892" lon="-0.04925">
        <ele>2045</ele>
        <time>2013-06-07T04:14:59Z</time>
      </trkpt>
      <trkpt lat="42.71892" lon="-0.04918">
        <ele>2045</ele>
        <time>2013-06-07T04:15:06Z</time>
      </trkpt>
      <trkpt lat="42.71894" lon="-0.0492">
        <ele>2046</ele>
        <time>2013-06-07T04:15:13Z</time>
      </trkpt>
      <trkpt lat="42.71891" lon="-0.04929">
        <ele>2047</ele>
        <time>2013-06-07T04:15:21Z</time>
      </trkpt>
      <trkpt lat="42.71887" lon="-0.04936">
        <ele>2048</ele>
        <time>2013-06-07T04:15:29Z</time>
      </trkpt>
      <trkpt lat="42.71885" lon="-0.04943">
        <ele>2049</ele>
        <time>2013-06-07T04:15:38Z</time>
      </trkpt>
      <trkpt lat="42.71881" lon="-0.0495">
        <ele>2052</ele>
        <time>2013-06-07T04:15:45Z</time>
      </trkpt>
      <trkpt lat="42.7188" lon="-0.04958">
        <ele>2053</ele>
        <time>2013-06-07T04:15:53Z</time>
      </trkpt>
      <trkpt lat="42.71878" lon="-0.04964">
        <ele>2054</ele>
        <time>2013-06-07T04:16:01Z</time>
      </trkpt>
      <trkpt lat="42.71879" lon="-0.04972">
        <ele>2055</ele>
        <time>2013-06-07T04:16:09Z</time>
      </trkpt>
      <trkpt lat="42.71878" lon="-0.04979">
        <ele>2057</ele>
        <time>2013-06-07T04:16:16Z</time>
      </trkpt>
      <trkpt lat="42.71878" lon="-0.0498">
        <ele>2057</ele>
        <time>2013-06-07T04:16:17Z</time>
      </trkpt>
      <trkpt lat="42.71881" lon="-0.04985">
        <ele>2057</ele>
        <time>2013-06-07T04:16:21Z</time>
      </trkpt>
      <trkpt lat="42.71882" lon="-0.04989">
        <ele>2058</ele>
        <time>2013-06-07T04:16:25Z</time>
      </trkpt>
      <trkpt lat="42.71885" lon="-0.04997">
        <ele>2059</ele>
        <time>2013-06-07T04:16:32Z</time>
      </trkpt>
      <trkpt lat="42.71886" lon="-0.05">
        <ele>2058</ele>
        <time>2013-06-07T04:16:35Z</time>
      </trkpt>
      <trkpt lat="42.71885" lon="-0.05005">
        <ele>2059</ele>
        <time>2013-06-07T04:16:39Z</time>
      </trkpt>
      <trkpt lat="42.71884" lon="-0.05013">
        <ele>2060</ele>
        <time>2013-06-07T04:16:46Z</time>
      </trkpt>
      <trkpt lat="42.71883" lon="-0.05019">
        <ele>2062</ele>
        <time>2013-06-07T04:16:51Z</time>
      </trkpt>
      <trkpt lat="42.71881" lon="-0.05022">
        <ele>2064</ele>
        <time>2013-06-07T04:16:57Z</time>
      </trkpt>
      <trkpt lat="42.71876" lon="-0.05021">
        <ele>2065</ele>
        <time>2013-06-07T04:17:04Z</time>
      </trkpt>
      <trkpt lat="42.71873" lon="-0.05021">
        <ele>2065</ele>
        <time>2013-06-07T04:17:08Z</time>
      </trkpt>
      <trkpt lat="42.71865" lon="-0.05025">
        <ele>2066</ele>
        <time>2013-06-07T04:17:15Z</time>
      </trkpt>
      <trkpt lat="42.71862" lon="-0.05031">
        <ele>2068</ele>
        <time>2013-06-07T04:17:21Z</time>
      </trkpt>
      <trkpt lat="42.71861" lon="-0.05035">
        <ele>2069</ele>
        <time>2013-06-07T04:17:26Z</time>
      </trkpt>
      <trkpt lat="42.71852" lon="-0.05035">
        <ele>2070</ele>
        <time>2013-06-07T04:17:34Z</time>
      </trkpt>
      <trkpt lat="42.71849" lon="-0.05034">
        <ele>2071</ele>
        <time>2013-06-07T04:17:37Z</time>
      </trkpt>
      <trkpt lat="42.71845" lon="-0.05036">
        <ele>2072</ele>
        <time>2013-06-07T04:17:42Z</time>
      </trkpt>
      <trkpt lat="42.71843" lon="-0.05045">
        <ele>2072</ele>
        <time>2013-06-07T04:17:50Z</time>
      </trkpt>
      <trkpt lat="42.71843" lon="-0.0505">
        <ele>2073</ele>
        <time>2013-06-07T04:17:56Z</time>
      </trkpt>
      <trkpt lat="42.71843" lon="-0.05049">
        <ele>2075</ele>
        <time>2013-06-07T04:18:03Z</time>
      </trkpt>
      <trkpt lat="42.71846" lon="-0.05048">
        <ele>2074</ele>
        <time>2013-06-07T04:18:14Z</time>
      </trkpt>
      <trkpt lat="42.71846" lon="-0.05048">
        <ele>2074</ele>
        <time>2013-06-07T04:18:15Z</time>
      </trkpt>
      <trkpt lat="42.7184" lon="-0.05049">
        <ele>2074</ele>
        <time>2013-06-07T04:18:20Z</time>
      </trkpt>
      <trkpt lat="42.7183" lon="-0.05051">
        <ele>2076</ele>
        <time>2013-06-07T04:18:26Z</time>
      </trkpt>
      <trkpt lat="42.71828" lon="-0.05053">
        <ele>2076</ele>
        <time>2013-06-07T04:18:28Z</time>
      </trkpt>
      <trkpt lat="42.71823" lon="-0.05058">
        <ele>2077</ele>
        <time>2013-06-07T04:18:34Z</time>
      </trkpt>
      <trkpt lat="42.71816" lon="-0.05066">
        <ele>2078</ele>
        <time>2013-06-07T04:18:42Z</time>
      </trkpt>
      <trkpt lat="42.71811" lon="-0.05072">
        <ele>2079</ele>
        <time>2013-06-07T04:18:49Z</time>
      </trkpt>
      <trkpt lat="42.7181" lon="-0.05074">
        <ele>2080</ele>
        <time>2013-06-07T04:18:51Z</time>
      </trkpt>
      <trkpt lat="42.71807" lon="-0.0508">
        <ele>2081</ele>
        <time>2013-06-07T04:18:58Z</time>
      </trkpt>
      <trkpt lat="42.71806" lon="-0.05081">
        <ele>2081</ele>
        <time>2013-06-07T04:18:59Z</time>
      </trkpt>
      <trkpt lat="42.71801" lon="-0.05081">
        <ele>2082</ele>
        <time>2013-06-07T04:19:06Z</time>
      </trkpt>
      <trkpt lat="42.71798" lon="-0.05077">
        <ele>2083</ele>
        <time>2013-06-07T04:19:12Z</time>
      </trkpt>
      <trkpt lat="42.71793" lon="-0.05075">
        <ele>2084</ele>
        <time>2013-06-07T04:19:19Z</time>
      </trkpt>
      <trkpt lat="42.71794" lon="-0.05078">
        <ele>2085</ele>
        <time>2013-06-07T04:19:26Z</time>
      </trkpt>
      <trkpt lat="42.71794" lon="-0.0508">
        <ele>2085</ele>
        <time>2013-06-07T04:19:34Z</time>
      </trkpt>
      <trkpt lat="42.71792" lon="-0.05086">
        <ele>2086</ele>
        <time>2013-06-07T04:19:41Z</time>
      </trkpt>
      <trkpt lat="42.71791" lon="-0.0509">
        <ele>2087</ele>
        <time>2013-06-07T04:19:46Z</time>
      </trkpt>
      <trkpt lat="42.71788" lon="-0.05091">
        <ele>2088</ele>
        <time>2013-06-07T04:19:48Z</time>
      </trkpt>
      <trkpt lat="42.71783" lon="-0.05087">
        <ele>2088</ele>
        <time>2013-06-07T04:19:55Z</time>
      </trkpt>
      <trkpt lat="42.71784" lon="-0.05079">
        <ele>2090</ele>
        <time>2013-06-07T04:20:04Z</time>
      </trkpt>
      <trkpt lat="42.71784" lon="-0.05074">
        <ele>2092</ele>
        <time>2013-06-07T04:20:11Z</time>
      </trkpt>
      <trkpt lat="42.71783" lon="-0.05065">
        <ele>2093</ele>
        <time>2013-06-07T04:20:20Z</time>
      </trkpt>
      <trkpt lat="42.71779" lon="-0.05059">
        <ele>2096</ele>
        <time>2013-06-07T04:20:31Z</time>
      </trkpt>
      <trkpt lat="42.71777" lon="-0.05055">
        <ele>2097</ele>
        <time>2013-06-07T04:20:38Z</time>
      </trkpt>
      <trkpt lat="42.71775" lon="-0.05053">
        <ele>2098</ele>
        <time>2013-06-07T04:20:41Z</time>
      </trkpt>
      <trkpt lat="42.7177" lon="-0.05059">
        <ele>2099</ele>
        <time>2013-06-07T04:20:51Z</time>
      </trkpt>
      <trkpt lat="42.71766" lon="-0.05064">
        <ele>2101</ele>
        <time>2013-06-07T04:20:59Z</time>
      </trkpt>
      <trkpt lat="42.71763" lon="-0.05068">
        <ele>2103</ele>
        <time>2013-06-07T04:21:06Z</time>
      </trkpt>
      <trkpt lat="42.71758" lon="-0.05074">
        <ele>2105</ele>
        <time>2013-06-07T04:21:17Z</time>
      </trkpt>
      <trkpt lat="42.71753" lon="-0.05077">
        <ele>2106</ele>
        <time>2013-06-07T04:21:24Z</time>
      </trkpt>
      <trkpt lat="42.71748" lon="-0.0508">
        <ele>2107</ele>
        <time>2013-06-07T04:21:30Z</time>
      </trkpt>
      <trkpt lat="42.71746" lon="-0.05083">
        <ele>2109</ele>
        <time>2013-06-07T04:21:37Z</time>
      </trkpt>
      <trkpt lat="42.71743" lon="-0.05088">
        <ele>2110</ele>
        <time>2013-06-07T04:21:48Z</time>
      </trkpt>
      <trkpt lat="42.71739" lon="-0.05093">
        <ele>2112</ele>
        <time>2013-06-07T04:21:58Z</time>
      </trkpt>
      <trkpt lat="42.71735" lon="-0.05098">
        <ele>2113</ele>
        <time>2013-06-07T04:22:06Z</time>
      </trkpt>
      <trkpt lat="42.71731" lon="-0.05104">
        <ele>2115</ele>
        <time>2013-06-07T04:22:15Z</time>
      </trkpt>
      <trkpt lat="42.71727" lon="-0.05109">
        <ele>2116</ele>
        <time>2013-06-07T04:22:22Z</time>
      </trkpt>
      <trkpt lat="42.71723" lon="-0.05114">
        <ele>2117</ele>
        <time>2013-06-07T04:22:29Z</time>
      </trkpt>
      <trkpt lat="42.71721" lon="-0.05117">
        <ele>2119</ele>
        <time>2013-06-07T04:22:37Z</time>
      </trkpt>
      <trkpt lat="42.71717" lon="-0.05124">
        <ele>2121</ele>
        <time>2013-06-07T04:22:46Z</time>
      </trkpt>
      <trkpt lat="42.71712" lon="-0.05129">
        <ele>2122</ele>
        <time>2013-06-07T04:22:55Z</time>
      </trkpt>
      <trkpt lat="42.71708" lon="-0.05132">
        <ele>2123</ele>
        <time>2013-06-07T04:23:03Z</time>
      </trkpt>
      <trkpt lat="42.71707" lon="-0.05133">
        <ele>2124</ele>
        <time>2013-06-07T04:23:05Z</time>
      </trkpt>
      <trkpt lat="42.71706" lon="-0.0513">
        <ele>2123</ele>
        <time>2013-06-07T04:23:11Z</time>
      </trkpt>
      <trkpt lat="42.71706" lon="-0.05124">
        <ele>2125</ele>
        <time>2013-06-07T04:23:18Z</time>
      </trkpt>
      <trkpt lat="42.71701" lon="-0.0512">
        <ele>2126</ele>
        <time>2013-06-07T04:23:26Z</time>
      </trkpt>
      <trkpt lat="42.71695" lon="-0.05116">
        <ele>2128</ele>
        <time>2013-06-07T04:23:36Z</time>
      </trkpt>
      <trkpt lat="42.71695" lon="-0.05116">
        <ele>2128</ele>
        <time>2013-06-07T04:23:37Z</time>
      </trkpt>
      <trkpt lat="42.71688" lon="-0.05116">
        <ele>2129</ele>
        <time>2013-06-07T04:23:45Z</time>
      </trkpt>
      <trkpt lat="42.71685" lon="-0.05121">
        <ele>2131</ele>
        <time>2013-06-07T04:23:55Z</time>
      </trkpt>
      <trkpt lat="42.71682" lon="-0.05122">
        <ele>2132</ele>
        <time>2013-06-07T04:24:00Z</time>
      </trkpt>
      <trkpt lat="42.71677" lon="-0.05129">
        <ele>2134</ele>
        <time>2013-06-07T04:24:08Z</time>
      </trkpt>
      <trkpt lat="42.71675" lon="-0.05131">
        <ele>2134</ele>
        <time>2013-06-07T04:24:16Z</time>
      </trkpt>
      <trkpt lat="42.71669" lon="-0.05135">
        <ele>2136</ele>
        <time>2013-06-07T04:24:25Z</time>
      </trkpt>
      <trkpt lat="42.71667" lon="-0.05136">
        <ele>2137</ele>
        <time>2013-06-07T04:24:29Z</time>
      </trkpt>
      <trkpt lat="42.7166" lon="-0.05138">
        <ele>2137</ele>
        <time>2013-06-07T04:24:37Z</time>
      </trkpt>
      <trkpt lat="42.71653" lon="-0.05138">
        <ele>2139</ele>
        <time>2013-06-07T04:24:45Z</time>
      </trkpt>
      <trkpt lat="42.71647" lon="-0.05137">
        <ele>2140</ele>
        <time>2013-06-07T04:24:53Z</time>
      </trkpt>
      <trkpt lat="42.71641" lon="-0.05137">
        <ele>2140</ele>
        <time>2013-06-07T04:25:02Z</time>
      </trkpt>
      <trkpt lat="42.71638" lon="-0.05136">
        <ele>2141</ele>
        <time>2013-06-07T04:25:06Z</time>
      </trkpt>
      <trkpt lat="42.71633" lon="-0.05137">
        <ele>2143</ele>
        <time>2013-06-07T04:25:15Z</time>
      </trkpt>
      <trkpt lat="42.71629" lon="-0.05137">
        <ele>2143</ele>
        <time>2013-06-07T04:25:24Z</time>
      </trkpt>
      <trkpt lat="42.71622" lon="-0.05138">
        <ele>2145</ele>
        <time>2013-06-07T04:25:33Z</time>
      </trkpt>
      <trkpt lat="42.71615" lon="-0.05141">
        <ele>2147</ele>
        <time>2013-06-07T04:25:42Z</time>
      </trkpt>
      <trkpt lat="42.71608" lon="-0.05143">
        <ele>2148</ele>
        <time>2013-06-07T04:25:51Z</time>
      </trkpt>
      <trkpt lat="42.71602" lon="-0.05144">
        <ele>2150</ele>
        <time>2013-06-07T04:25:58Z</time>
      </trkpt>
      <trkpt lat="42.71597" lon="-0.05146">
        <ele>2150</ele>
        <time>2013-06-07T04:26:05Z</time>
      </trkpt>
      <trkpt lat="42.71592" lon="-0.05144">
        <ele>2151</ele>
        <time>2013-06-07T04:26:13Z</time>
      </trkpt>
      <trkpt lat="42.71588" lon="-0.05143">
        <ele>2153</ele>
        <time>2013-06-07T04:26:21Z</time>
      </trkpt>
      <trkpt lat="42.71584" lon="-0.05141">
        <ele>2154</ele>
        <time>2013-06-07T04:26:28Z</time>
      </trkpt>
      <trkpt lat="42.7158" lon="-0.05138">
        <ele>2156</ele>
        <time>2013-06-07T04:26:37Z</time>
      </trkpt>
      <trkpt lat="42.71575" lon="-0.0514">
        <ele>2156</ele>
        <time>2013-06-07T04:26:45Z</time>
      </trkpt>
      <trkpt lat="42.71571" lon="-0.0514">
        <ele>2157</ele>
        <time>2013-06-07T04:26:53Z</time>
      </trkpt>
      <trkpt lat="42.71566" lon="-0.05141">
        <ele>2159</ele>
        <time>2013-06-07T04:27:02Z</time>
      </trkpt>
      <trkpt lat="42.71562" lon="-0.05139">
        <ele>2161</ele>
        <time>2013-06-07T04:27:10Z</time>
      </trkpt>
      <trkpt lat="42.71558" lon="-0.05136">
        <ele>2163</ele>
        <time>2013-06-07T04:27:19Z</time>
      </trkpt>
      <trkpt lat="42.71555" lon="-0.05135">
        <ele>2163</ele>
        <time>2013-06-07T04:27:25Z</time>
      </trkpt>
      <trkpt lat="42.7155" lon="-0.05132">
        <ele>2164</ele>
        <time>2013-06-07T04:27:32Z</time>
      </trkpt>
      <trkpt lat="42.71547" lon="-0.05133">
        <ele>2165</ele>
        <time>2013-06-07T04:27:41Z</time>
      </trkpt>
      <trkpt lat="42.71544" lon="-0.05133">
        <ele>2166</ele>
        <time>2013-06-07T04:27:47Z</time>
      </trkpt>
      <trkpt lat="42.7154" lon="-0.05131">
        <ele>2168</ele>
        <time>2013-06-07T04:27:58Z</time>
      </trkpt>
      <trkpt lat="42.71536" lon="-0.05129">
        <ele>2170</ele>
        <time>2013-06-07T04:28:06Z</time>
      </trkpt>
      <trkpt lat="42.71531" lon="-0.05127">
        <ele>2171</ele>
        <time>2013-06-07T04:28:13Z</time>
      </trkpt>
      <trkpt lat="42.71528" lon="-0.05126">
        <ele>2174</ele>
        <time>2013-06-07T04:28:22Z</time>
      </trkpt>
      <trkpt lat="42.71523" lon="-0.05125">
        <ele>2175</ele>
        <time>2013-06-07T04:28:31Z</time>
      </trkpt>
      <trkpt lat="42.71518" lon="-0.05125">
        <ele>2176</ele>
        <time>2013-06-07T04:28:38Z</time>
      </trkpt>
      <trkpt lat="42.71512" lon="-0.05127">
        <ele>2177</ele>
        <time>2013-06-07T04:28:46Z</time>
      </trkpt>
      <trkpt lat="42.71509" lon="-0.05125">
        <ele>2178</ele>
        <time>2013-06-07T04:28:54Z</time>
      </trkpt>
      <trkpt lat="42.71503" lon="-0.05124">
        <ele>2179</ele>
        <time>2013-06-07T04:29:03Z</time>
      </trkpt>
      <trkpt lat="42.71496" lon="-0.05122">
        <ele>2180</ele>
        <time>2013-06-07T04:29:11Z</time>
      </trkpt>
      <trkpt lat="42.71492" lon="-0.05122">
        <ele>2181</ele>
        <time>2013-06-07T04:29:19Z</time>
      </trkpt>
      <trkpt lat="42.71487" lon="-0.05124">
        <ele>2184</ele>
        <time>2013-06-07T04:29:28Z</time>
      </trkpt>
      <trkpt lat="42.71483" lon="-0.05128">
        <ele>2185</ele>
        <time>2013-06-07T04:29:36Z</time>
      </trkpt>
      <trkpt lat="42.71478" lon="-0.05131">
        <ele>2186</ele>
        <time>2013-06-07T04:29:48Z</time>
      </trkpt>
      <trkpt lat="42.71473" lon="-0.05133">
        <ele>2187</ele>
        <time>2013-06-07T04:29:56Z</time>
      </trkpt>
      <trkpt lat="42.71468" lon="-0.05136">
        <ele>2189</ele>
        <time>2013-06-07T04:30:06Z</time>
      </trkpt>
      <trkpt lat="42.71464" lon="-0.05139">
        <ele>2190</ele>
        <time>2013-06-07T04:30:15Z</time>
      </trkpt>
      <trkpt lat="42.71461" lon="-0.05143">
        <ele>2193</ele>
        <time>2013-06-07T04:30:24Z</time>
      </trkpt>
      <trkpt lat="42.71458" lon="-0.05145">
        <ele>2193</ele>
        <time>2013-06-07T04:30:32Z</time>
      </trkpt>
      <trkpt lat="42.71453" lon="-0.05147">
        <ele>2195</ele>
        <time>2013-06-07T04:30:42Z</time>
      </trkpt>
      <trkpt lat="42.71448" lon="-0.05148">
        <ele>2196</ele>
        <time>2013-06-07T04:30:51Z</time>
      </trkpt>
      <trkpt lat="42.71441" lon="-0.05149">
        <ele>2198</ele>
        <time>2013-06-07T04:31:02Z</time>
      </trkpt>
      <trkpt lat="42.71435" lon="-0.05149">
        <ele>2199</ele>
        <time>2013-06-07T04:31:11Z</time>
      </trkpt>
      <trkpt lat="42.7143" lon="-0.0515">
        <ele>2200</ele>
        <time>2013-06-07T04:31:21Z</time>
      </trkpt>
      <trkpt lat="42.71425" lon="-0.0515">
        <ele>2201</ele>
        <time>2013-06-07T04:31:29Z</time>
      </trkpt>
      <trkpt lat="42.71415" lon="-0.05151">
        <ele>2203</ele>
        <time>2013-06-07T04:31:39Z</time>
      </trkpt>
      <trkpt lat="42.71406" lon="-0.05153">
        <ele>2204</ele>
        <time>2013-06-07T04:31:50Z</time>
      </trkpt>
      <trkpt lat="42.71402" lon="-0.05153">
        <ele>2205</ele>
        <time>2013-06-07T04:31:59Z</time>
      </trkpt>
      <trkpt lat="42.71397" lon="-0.0515">
        <ele>2207</ele>
        <time>2013-06-07T04:32:08Z</time>
      </trkpt>
      <trkpt lat="42.71394" lon="-0.05149">
        <ele>2208</ele>
        <time>2013-06-07T04:32:16Z</time>
      </trkpt>
      <trkpt lat="42.71391" lon="-0.05149">
        <ele>2210</ele>
        <time>2013-06-07T04:32:24Z</time>
      </trkpt>
      <trkpt lat="42.71386" lon="-0.0515">
        <ele>2211</ele>
        <time>2013-06-07T04:32:30Z</time>
      </trkpt>
      <trkpt lat="42.71384" lon="-0.05153">
        <ele>2211</ele>
        <time>2013-06-07T04:32:37Z</time>
      </trkpt>
      <trkpt lat="42.71384" lon="-0.05153">
        <ele>2211</ele>
        <time>2013-06-07T04:32:52Z</time>
      </trkpt>
      <trkpt lat="42.71384" lon="-0.05153">
        <ele>2212</ele>
        <time>2013-06-07T04:33:06Z</time>
      </trkpt>
      <trkpt lat="42.71382" lon="-0.05152">
        <ele>2211</ele>
        <time>2013-06-07T04:33:17Z</time>
      </trkpt>
      <trkpt lat="42.71377" lon="-0.05152">
        <ele>2212</ele>
        <time>2013-06-07T04:33:24Z</time>
      </trkpt>
      <trkpt lat="42.71369" lon="-0.05152">
        <ele>2214</ele>
        <time>2013-06-07T04:33:33Z</time>
      </trkpt>
      <trkpt lat="42.71368" lon="-0.05152">
        <ele>2215</ele>
        <time>2013-06-07T04:33:35Z</time>
      </trkpt>
      <trkpt lat="42.7136" lon="-0.05154">
        <ele>2216</ele>
        <time>2013-06-07T04:33:44Z</time>
      </trkpt>
      <trkpt lat="42.71352" lon="-0.05155">
        <ele>2217</ele>
        <time>2013-06-07T04:33:52Z</time>
      </trkpt>
      <trkpt lat="42.71344" lon="-0.05158">
        <ele>2217</ele>
        <time>2013-06-07T04:34:00Z</time>
      </trkpt>
      <trkpt lat="42.71338" lon="-0.05164">
        <ele>2220</ele>
        <time>2013-06-07T04:34:08Z</time>
      </trkpt>
      <trkpt lat="42.71336" lon="-0.05166">
        <ele>2219</ele>
        <time>2013-06-07T04:34:20Z</time>
      </trkpt>
      <trkpt lat="42.71333" lon="-0.05169">
        <ele>2219</ele>
        <time>2013-06-07T04:34:27Z</time>
      </trkpt>
      <trkpt lat="42.71333" lon="-0.05169">
        <ele>2220</ele>
        <time>2013-06-07T04:34:28Z</time>
      </trkpt>
      <trkpt lat="42.71332" lon="-0.05172">
        <ele>2220</ele>
        <time>2013-06-07T04:34:36Z</time>
      </trkpt>
      <trkpt lat="42.71327" lon="-0.0518">
        <ele>2220</ele>
        <time>2013-06-07T04:34:43Z</time>
      </trkpt>
      <trkpt lat="42.71321" lon="-0.05192">
        <ele>2223</ele>
        <time>2013-06-07T04:34:53Z</time>
      </trkpt>
      <trkpt lat="42.71317" lon="-0.052">
        <ele>2223</ele>
        <time>2013-06-07T04:35:01Z</time>
      </trkpt>
      <trkpt lat="42.71311" lon="-0.05211">
        <ele>2225</ele>
        <time>2013-06-07T04:35:09Z</time>
      </trkpt>
      <trkpt lat="42.7131" lon="-0.05212">
        <ele>2224</ele>
        <time>2013-06-07T04:35:10Z</time>
      </trkpt>
      <trkpt lat="42.71308" lon="-0.05215">
        <ele>2224</ele>
        <time>2013-06-07T04:35:13Z</time>
      </trkpt>
      <trkpt lat="42.71308" lon="-0.05224">
        <ele>2224</ele>
        <time>2013-06-07T04:35:21Z</time>
      </trkpt>
      <trkpt lat="42.71307" lon="-0.05225">
        <ele>2224</ele>
        <time>2013-06-07T04:35:29Z</time>
      </trkpt>
      <trkpt lat="42.71308" lon="-0.05225">
        <ele>2225</ele>
        <time>2013-06-07T04:35:36Z</time>
      </trkpt>
      <trkpt lat="42.71308" lon="-0.05224">
        <ele>2225</ele>
        <time>2013-06-07T04:35:39Z</time>
      </trkpt>
      <trkpt lat="42.71307" lon="-0.05227">
        <ele>2226</ele>
        <time>2013-06-07T04:35:42Z</time>
      </trkpt>
      <trkpt lat="42.71303" lon="-0.05237">
        <ele>2226</ele>
        <time>2013-06-07T04:35:51Z</time>
      </trkpt>
      <trkpt lat="42.71302" lon="-0.05241">
        <ele>2226</ele>
        <time>2013-06-07T04:35:54Z</time>
      </trkpt>
      <trkpt lat="42.71299" lon="-0.05254">
        <ele>2227</ele>
        <time>2013-06-07T04:36:03Z</time>
      </trkpt>
      <trkpt lat="42.71297" lon="-0.05268">
        <ele>2227</ele>
        <time>2013-06-07T04:36:11Z</time>
      </trkpt>
      <trkpt lat="42.71296" lon="-0.05279">
        <ele>2227</ele>
        <time>2013-06-07T04:36:18Z</time>
      </trkpt>
      <trkpt lat="42.71296" lon="-0.05288">
        <ele>2228</ele>
        <time>2013-06-07T04:36:26Z</time>
      </trkpt>
      <trkpt lat="42.71296" lon="-0.05297">
        <ele>2228</ele>
        <time>2013-06-07T04:36:33Z</time>
      </trkpt>
      <trkpt lat="42.71295" lon="-0.05306">
        <ele>2229</ele>
        <time>2013-06-07T04:36:41Z</time>
      </trkpt>
      <trkpt lat="42.71293" lon="-0.05316">
        <ele>2230</ele>
        <time>2013-06-07T04:36:50Z</time>
      </trkpt>
      <trkpt lat="42.71292" lon="-0.05325">
        <ele>2230</ele>
        <time>2013-06-07T04:36:59Z</time>
      </trkpt>
      <trkpt lat="42.71291" lon="-0.05326">
        <ele>2229</ele>
        <time>2013-06-07T04:37:09Z</time>
      </trkpt>
      <trkpt lat="42.7129" lon="-0.05331">
        <ele>2229</ele>
        <time>2013-06-07T04:37:17Z</time>
      </trkpt>
      <trkpt lat="42.71288" lon="-0.0534">
        <ele>2230</ele>
        <time>2013-06-07T04:37:25Z</time>
      </trkpt>
      <trkpt lat="42.71286" lon="-0.0535">
        <ele>2231</ele>
        <time>2013-06-07T04:37:33Z</time>
      </trkpt>
      <trkpt lat="42.71284" lon="-0.05359">
        <ele>2232</ele>
        <time>2013-06-07T04:37:41Z</time>
      </trkpt>
      <trkpt lat="42.71282" lon="-0.05368">
        <ele>2232</ele>
        <time>2013-06-07T04:37:48Z</time>
      </trkpt>
      <trkpt lat="42.71279" lon="-0.05379">
        <ele>2232</ele>
        <time>2013-06-07T04:37:58Z</time>
      </trkpt>
      <trkpt lat="42.71278" lon="-0.05385">
        <ele>2233</ele>
        <time>2013-06-07T04:38:06Z</time>
      </trkpt>
      <trkpt lat="42.71276" lon="-0.05392">
        <ele>2232</ele>
        <time>2013-06-07T04:38:14Z</time>
      </trkpt>
      <trkpt lat="42.71275" lon="-0.05396">
        <ele>2233</ele>
        <time>2013-06-07T04:38:23Z</time>
      </trkpt>
      <trkpt lat="42.71273" lon="-0.054">
        <ele>2232</ele>
        <time>2013-06-07T04:38:27Z</time>
      </trkpt>
      <trkpt lat="42.71263" lon="-0.05416">
        <ele>2230</ele>
        <time>2013-06-07T04:38:37Z</time>
      </trkpt>
      <trkpt lat="42.71261" lon="-0.0542">
        <ele>2228</ele>
        <time>2013-06-07T04:38:39Z</time>
      </trkpt>
      <trkpt lat="42.71251" lon="-0.05436">
        <ele>2226</ele>
        <time>2013-06-07T04:38:46Z</time>
      </trkpt>
      <trkpt lat="42.71245" lon="-0.05445">
        <ele>2221</ele>
        <time>2013-06-07T04:38:50Z</time>
      </trkpt>
      <trkpt lat="42.71238" lon="-0.05454">
        <ele>2217</ele>
        <time>2013-06-07T04:38:54Z</time>
      </trkpt>
      <trkpt lat="42.71235" lon="-0.05459">
        <ele>2216</ele>
        <time>2013-06-07T04:38:57Z</time>
      </trkpt>
      <trkpt lat="42.71233" lon="-0.05463">
        <ele>2216</ele>
        <time>2013-06-07T04:39:03Z</time>
      </trkpt>
      <trkpt lat="42.71234" lon="-0.05464">
        <ele>2217</ele>
        <time>2013-06-07T04:39:18Z</time>
      </trkpt>
      <trkpt lat="42.71234" lon="-0.05464">
        <ele>2216</ele>
        <time>2013-06-07T04:39:27Z</time>
      </trkpt>
      <trkpt lat="42.71234" lon="-0.05465">
        <ele>2216</ele>
        <time>2013-06-07T04:39:43Z</time>
      </trkpt>
      <trkpt lat="42.71232" lon="-0.05466">
        <ele>2217</ele>
        <time>2013-06-07T04:39:48Z</time>
      </trkpt>
      <trkpt lat="42.71232" lon="-0.05467">
        <ele>2216</ele>
        <time>2013-06-07T04:39:49Z</time>
      </trkpt>
      <trkpt lat="42.71231" lon="-0.05469">
        <ele>2216</ele>
        <time>2013-06-07T04:39:50Z</time>
      </trkpt>
      <trkpt lat="42.71231" lon="-0.0547">
        <ele>2216</ele>
        <time>2013-06-07T04:39:51Z</time>
      </trkpt>
      <trkpt lat="42.71231" lon="-0.05472">
        <ele>2216</ele>
        <time>2013-06-07T04:39:52Z</time>
      </trkpt>
      <trkpt lat="42.71229" lon="-0.05478">
        <ele>2215</ele>
        <time>2013-06-07T04:39:59Z</time>
      </trkpt>
      <trkpt lat="42.71229" lon="-0.05481">
        <ele>2215</ele>
        <time>2013-06-07T04:40:05Z</time>
      </trkpt>
      <trkpt lat="42.71229" lon="-0.05482">
        <ele>2215</ele>
        <time>2013-06-07T04:40:06Z</time>
      </trkpt>
      <trkpt lat="42.71227" lon="-0.05487">
        <ele>2215</ele>
        <time>2013-06-07T04:40:10Z</time>
      </trkpt>
      <trkpt lat="42.71227" lon="-0.05489">
        <ele>2215</ele>
        <time>2013-06-07T04:40:11Z</time>
      </trkpt>
      <trkpt lat="42.71227" lon="-0.0549">
        <ele>2215</ele>
        <time>2013-06-07T04:40:17Z</time>
      </trkpt>
      <trkpt lat="42.71227" lon="-0.05491">
        <ele>2215</ele>
        <time>2013-06-07T04:40:32Z</time>
      </trkpt>
      <trkpt lat="42.71227" lon="-0.05491">
        <ele>2215</ele>
        <time>2013-06-07T04:40:52Z</time>
      </trkpt>
      <trkpt lat="42.71226" lon="-0.05491">
        <ele>2215</ele>
        <time>2013-06-07T04:41:07Z</time>
      </trkpt>
      <trkpt lat="42.71226" lon="-0.05492">
        <ele>2214</ele>
        <time>2013-06-07T04:41:22Z</time>
      </trkpt>
      <trkpt lat="42.71227" lon="-0.05491">
        <ele>2214</ele>
        <time>2013-06-07T04:41:37Z</time>
      </trkpt>
      <trkpt lat="42.71227" lon="-0.05491">
        <ele>2215</ele>
        <time>2013-06-07T04:41:48Z</time>
      </trkpt>
      <trkpt lat="42.71226" lon="-0.05491">
        <ele>2215</ele>
        <time>2013-06-07T04:41:58Z</time>
      </trkpt>
      <trkpt lat="42.71228" lon="-0.05491">
        <ele>2214</ele>
        <time>2013-06-07T04:42:08Z</time>
      </trkpt>
      <trkpt lat="42.71229" lon="-0.0549">
        <ele>2215</ele>
        <time>2013-06-07T04:42:28Z</time>
      </trkpt>
      <trkpt lat="42.71228" lon="-0.05491">
        <ele>2215</ele>
        <time>2013-06-07T04:42:31Z</time>
      </trkpt>
      <trkpt lat="42.71228" lon="-0.05492">
        <ele>2215</ele>
        <time>2013-06-07T04:42:32Z</time>
      </trkpt>
      <trkpt lat="42.71227" lon="-0.05496">
        <ele>2215</ele>
        <time>2013-06-07T04:42:39Z</time>
      </trkpt>
      <trkpt lat="42.71227" lon="-0.05497">
        <ele>2215</ele>
        <time>2013-06-07T04:42:40Z</time>
      </trkpt>
      <trkpt lat="42.71226" lon="-0.05498">
        <ele>2215</ele>
        <time>2013-06-07T04:42:41Z</time>
      </trkpt>
      <trkpt lat="42.71224" lon="-0.05507">
        <ele>2215</ele>
        <time>2013-06-07T04:42:47Z</time>
      </trkpt>
      <trkpt lat="42.71223" lon="-0.05509">
        <ele>2215</ele>
        <time>2013-06-07T04:42:48Z</time>
      </trkpt>
      <trkpt lat="42.71223" lon="-0.05511">
        <ele>2215</ele>
        <time>2013-06-07T04:42:49Z</time>
      </trkpt>
      <trkpt lat="42.71223" lon="-0.05512">
        <ele>2215</ele>
        <time>2013-06-07T04:42:50Z</time>
      </trkpt>
      <trkpt lat="42.71223" lon="-0.05513">
        <ele>2215</ele>
        <time>2013-06-07T04:42:51Z</time>
      </trkpt>
      <trkpt lat="42.71222" lon="-0.05515">
        <ele>2215</ele>
        <time>2013-06-07T04:42:52Z</time>
      </trkpt>
      <trkpt lat="42.7122" lon="-0.05524">
        <ele>2214</ele>
        <time>2013-06-07T04:42:58Z</time>
      </trkpt>
      <trkpt lat="42.71219" lon="-0.05526">
        <ele>2215</ele>
        <time>2013-06-07T04:42:59Z</time>
      </trkpt>
      <trkpt lat="42.71219" lon="-0.05527">
        <ele>2214</ele>
        <time>2013-06-07T04:43:00Z</time>
      </trkpt>
      <trkpt lat="42.71219" lon="-0.05528">
        <ele>2215</ele>
        <time>2013-06-07T04:43:01Z</time>
      </trkpt>
      <trkpt lat="42.71218" lon="-0.0553">
        <ele>2215</ele>
        <time>2013-06-07T04:43:02Z</time>
      </trkpt>
      <trkpt lat="42.71218" lon="-0.05534">
        <ele>2215</ele>
        <time>2013-06-07T04:43:05Z</time>
      </trkpt>
      <trkpt lat="42.71217" lon="-0.05535">
        <ele>2215</ele>
        <time>2013-06-07T04:43:06Z</time>
      </trkpt>
      <trkpt lat="42.71217" lon="-0.05537">
        <ele>2215</ele>
        <time>2013-06-07T04:43:07Z</time>
      </trkpt>
      <trkpt lat="42.71216" lon="-0.05539">
        <ele>2215</ele>
        <time>2013-06-07T04:43:08Z</time>
      </trkpt>
      <trkpt lat="42.71215" lon="-0.0554">
        <ele>2214</ele>
        <time>2013-06-07T04:43:09Z</time>
      </trkpt>
      <trkpt lat="42.71215" lon="-0.05542">
        <ele>2215</ele>
        <time>2013-06-07T04:43:10Z</time>
      </trkpt>
      <trkpt lat="42.71214" lon="-0.05544">
        <ele>2215</ele>
        <time>2013-06-07T04:43:11Z</time>
      </trkpt>
      <trkpt lat="42.71214" lon="-0.05545">
        <ele>2214</ele>
        <time>2013-06-07T04:43:12Z</time>
      </trkpt>
      <trkpt lat="42.71213" lon="-0.05547">
        <ele>2215</ele>
        <time>2013-06-07T04:43:13Z</time>
      </trkpt>
      <trkpt lat="42.7121" lon="-0.05559">
        <ele>2215</ele>
        <time>2013-06-07T04:43:20Z</time>
      </trkpt>
      <trkpt lat="42.71207" lon="-0.0557">
        <ele>2215</ele>
        <time>2013-06-07T04:43:27Z</time>
      </trkpt>
      <trkpt lat="42.71205" lon="-0.05576">
        <ele>2215</ele>
        <time>2013-06-07T04:43:31Z</time>
      </trkpt>
      <trkpt lat="42.71205" lon="-0.05577">
        <ele>2215</ele>
        <time>2013-06-07T04:43:32Z</time>
      </trkpt>
      <trkpt lat="42.71202" lon="-0.05586">
        <ele>2215</ele>
        <time>2013-06-07T04:43:39Z</time>
      </trkpt>
      <trkpt lat="42.71197" lon="-0.05598">
        <ele>2215</ele>
        <time>2013-06-07T04:43:47Z</time>
      </trkpt>
      <trkpt lat="42.71192" lon="-0.05609">
        <ele>2215</ele>
        <time>2013-06-07T04:43:55Z</time>
      </trkpt>
      <trkpt lat="42.71186" lon="-0.05617">
        <ele>2215</ele>
        <time>2013-06-07T04:44:02Z</time>
      </trkpt>
      <trkpt lat="42.71183" lon="-0.05621">
        <ele>2216</ele>
        <time>2013-06-07T04:44:06Z</time>
      </trkpt>
      <trkpt lat="42.71183" lon="-0.05622">
        <ele>2215</ele>
        <time>2013-06-07T04:44:07Z</time>
      </trkpt>
      <trkpt lat="42.71182" lon="-0.05623">
        <ele>2215</ele>
        <time>2013-06-07T04:44:08Z</time>
      </trkpt>
      <trkpt lat="42.7118" lon="-0.05626">
        <ele>2216</ele>
        <time>2013-06-07T04:44:11Z</time>
      </trkpt>
      <trkpt lat="42.71176" lon="-0.05633">
        <ele>2215</ele>
        <time>2013-06-07T04:44:18Z</time>
      </trkpt>
      <trkpt lat="42.71171" lon="-0.05639">
        <ele>2215</ele>
        <time>2013-06-07T04:44:23Z</time>
      </trkpt>
      <trkpt lat="42.71167" lon="-0.05646">
        <ele>2216</ele>
        <time>2013-06-07T04:44:30Z</time>
      </trkpt>
      <trkpt lat="42.71159" lon="-0.05655">
        <ele>2216</ele>
        <time>2013-06-07T04:44:38Z</time>
      </trkpt>
      <trkpt lat="42.71155" lon="-0.05659">
        <ele>2216</ele>
        <time>2013-06-07T04:44:42Z</time>
      </trkpt>
      <trkpt lat="42.71149" lon="-0.05664">
        <ele>2216</ele>
        <time>2013-06-07T04:44:49Z</time>
      </trkpt>
      <trkpt lat="42.7114" lon="-0.0567">
        <ele>2216</ele>
        <time>2013-06-07T04:44:57Z</time>
      </trkpt>
      <trkpt lat="42.7113" lon="-0.05673">
        <ele>2215</ele>
        <time>2013-06-07T04:45:05Z</time>
      </trkpt>
      <trkpt lat="42.71122" lon="-0.05676">
        <ele>2215</ele>
        <time>2013-06-07T04:45:12Z</time>
      </trkpt>
      <trkpt lat="42.71115" lon="-0.0568">
        <ele>2214</ele>
        <time>2013-06-07T04:45:18Z</time>
      </trkpt>
      <trkpt lat="42.71107" lon="-0.05688">
        <ele>2215</ele>
        <time>2013-06-07T04:45:27Z</time>
      </trkpt>
      <trkpt lat="42.71101" lon="-0.05694">
        <ele>2215</ele>
        <time>2013-06-07T04:45:34Z</time>
      </trkpt>
      <trkpt lat="42.71094" lon="-0.057">
        <ele>2214</ele>
        <time>2013-06-07T04:45:41Z</time>
      </trkpt>
      <trkpt lat="42.71088" lon="-0.05706">
        <ele>2213</ele>
        <time>2013-06-07T04:45:47Z</time>
      </trkpt>
      <trkpt lat="42.7108" lon="-0.05713">
        <ele>2213</ele>
        <time>2013-06-07T04:45:56Z</time>
      </trkpt>
      <trkpt lat="42.71072" lon="-0.0572">
        <ele>2213</ele>
        <time>2013-06-07T04:46:04Z</time>
      </trkpt>
      <trkpt lat="42.71071" lon="-0.05721">
        <ele>2213</ele>
        <time>2013-06-07T04:46:05Z</time>
      </trkpt>
      <trkpt lat="42.7107" lon="-0.05722">
        <ele>2212</ele>
        <time>2013-06-07T04:46:06Z</time>
      </trkpt>
      <trkpt lat="42.71069" lon="-0.05723">
        <ele>2213</ele>
        <time>2013-06-07T04:46:07Z</time>
      </trkpt>
      <trkpt lat="42.71068" lon="-0.05724">
        <ele>2213</ele>
        <time>2013-06-07T04:46:08Z</time>
      </trkpt>
      <trkpt lat="42.71068" lon="-0.05725">
        <ele>2213</ele>
        <time>2013-06-07T04:46:09Z</time>
      </trkpt>
      <trkpt lat="42.71067" lon="-0.05726">
        <ele>2213</ele>
        <time>2013-06-07T04:46:10Z</time>
      </trkpt>
      <trkpt lat="42.71065" lon="-0.05727">
        <ele>2213</ele>
        <time>2013-06-07T04:46:11Z</time>
      </trkpt>
      <trkpt lat="42.71063" lon="-0.0573">
        <ele>2213</ele>
        <time>2013-06-07T04:46:18Z</time>
      </trkpt>
      <trkpt lat="42.71062" lon="-0.0573">
        <ele>2212</ele>
        <time>2013-06-07T04:46:30Z</time>
      </trkpt>
      <trkpt lat="42.71058" lon="-0.05738">
        <ele>2214</ele>
        <time>2013-06-07T04:46:40Z</time>
      </trkpt>
      <trkpt lat="42.71054" lon="-0.05746">
        <ele>2214</ele>
        <time>2013-06-07T04:46:48Z</time>
      </trkpt>
      <trkpt lat="42.71052" lon="-0.05748">
        <ele>2214</ele>
        <time>2013-06-07T04:46:50Z</time>
      </trkpt>
      <trkpt lat="42.71051" lon="-0.05749">
        <ele>2213</ele>
        <time>2013-06-07T04:46:51Z</time>
      </trkpt>
      <trkpt lat="42.71051" lon="-0.0575">
        <ele>2214</ele>
        <time>2013-06-07T04:46:52Z</time>
      </trkpt>
      <trkpt lat="42.71046" lon="-0.05758">
        <ele>2214</ele>
        <time>2013-06-07T04:46:59Z</time>
      </trkpt>
      <trkpt lat="42.71042" lon="-0.05763">
        <ele>2214</ele>
        <time>2013-06-07T04:47:04Z</time>
      </trkpt>
      <trkpt lat="42.71037" lon="-0.05773">
        <ele>2214</ele>
        <time>2013-06-07T04:47:12Z</time>
      </trkpt>
      <trkpt lat="42.71036" lon="-0.05774">
        <ele>2214</ele>
        <time>2013-06-07T04:47:13Z</time>
      </trkpt>
      <trkpt lat="42.71031" lon="-0.05781">
        <ele>2214</ele>
        <time>2013-06-07T04:47:20Z</time>
      </trkpt>
      <trkpt lat="42.7103" lon="-0.05784">
        <ele>2215</ele>
        <time>2013-06-07T04:47:23Z</time>
      </trkpt>
      <trkpt lat="42.7103" lon="-0.05786">
        <ele>2214</ele>
        <time>2013-06-07T04:47:24Z</time>
      </trkpt>
      <trkpt lat="42.71023" lon="-0.05798">
        <ele>2216</ele>
        <time>2013-06-07T04:47:33Z</time>
      </trkpt>
      <trkpt lat="42.71018" lon="-0.05806">
        <ele>2214</ele>
        <time>2013-06-07T04:47:40Z</time>
      </trkpt>
      <trkpt lat="42.71014" lon="-0.05814">
        <ele>2214</ele>
        <time>2013-06-07T04:47:47Z</time>
      </trkpt>
      <trkpt lat="42.71008" lon="-0.05822">
        <ele>2213</ele>
        <time>2013-06-07T04:47:55Z</time>
      </trkpt>
      <trkpt lat="42.71006" lon="-0.05826">
        <ele>2212</ele>
        <time>2013-06-07T04:47:58Z</time>
      </trkpt>
      <trkpt lat="42.71006" lon="-0.05827">
        <ele>2213</ele>
        <time>2013-06-07T04:47:59Z</time>
      </trkpt>
      <trkpt lat="42.71005" lon="-0.05828">
        <ele>2213</ele>
        <time>2013-06-07T04:48:00Z</time>
      </trkpt>
      <trkpt lat="42.70999" lon="-0.05839">
        <ele>2213</ele>
        <time>2013-06-07T04:48:08Z</time>
      </trkpt>
      <trkpt lat="42.70995" lon="-0.05845">
        <ele>2213</ele>
        <time>2013-06-07T04:48:13Z</time>
      </trkpt>
      <trkpt lat="42.70995" lon="-0.05847">
        <ele>2213</ele>
        <time>2013-06-07T04:48:14Z</time>
      </trkpt>
      <trkpt lat="42.70994" lon="-0.05848">
        <ele>2213</ele>
        <time>2013-06-07T04:48:15Z</time>
      </trkpt>
      <trkpt lat="42.70989" lon="-0.05856">
        <ele>2213</ele>
        <time>2013-06-07T04:48:22Z</time>
      </trkpt>
      <trkpt lat="42.70984" lon="-0.05864">
        <ele>2213</ele>
        <time>2013-06-07T04:48:30Z</time>
      </trkpt>
      <trkpt lat="42.70979" lon="-0.0587">
        <ele>2214</ele>
        <time>2013-06-07T04:48:38Z</time>
      </trkpt>
      <trkpt lat="42.70971" lon="-0.05877">
        <ele>2214</ele>
        <time>2013-06-07T04:48:46Z</time>
      </trkpt>
      <trkpt lat="42.70962" lon="-0.05883">
        <ele>2213</ele>
        <time>2013-06-07T04:48:54Z</time>
      </trkpt>
      <trkpt lat="42.70956" lon="-0.05888">
        <ele>2212</ele>
        <time>2013-06-07T04:49:01Z</time>
      </trkpt>
      <trkpt lat="42.7095" lon="-0.05893">
        <ele>2212</ele>
        <time>2013-06-07T04:49:08Z</time>
      </trkpt>
      <trkpt lat="42.70944" lon="-0.05899">
        <ele>2211</ele>
        <time>2013-06-07T04:49:14Z</time>
      </trkpt>
      <trkpt lat="42.70936" lon="-0.05907">
        <ele>2212</ele>
        <time>2013-06-07T04:49:23Z</time>
      </trkpt>
      <trkpt lat="42.70929" lon="-0.05912">
        <ele>2212</ele>
        <time>2013-06-07T04:49:30Z</time>
      </trkpt>
      <trkpt lat="42.70922" lon="-0.05917">
        <ele>2212</ele>
        <time>2013-06-07T04:49:38Z</time>
      </trkpt>
      <trkpt lat="42.70916" lon="-0.05921">
        <ele>2213</ele>
        <time>2013-06-07T04:49:46Z</time>
      </trkpt>
      <trkpt lat="42.70911" lon="-0.05927">
        <ele>2213</ele>
        <time>2013-06-07T04:49:54Z</time>
      </trkpt>
      <trkpt lat="42.70905" lon="-0.05931">
        <ele>2212</ele>
        <time>2013-06-07T04:50:01Z</time>
      </trkpt>
      <trkpt lat="42.70903" lon="-0.05932">
        <ele>2213</ele>
        <time>2013-06-07T04:50:03Z</time>
      </trkpt>
      <trkpt lat="42.70898" lon="-0.05936">
        <ele>2213</ele>
        <time>2013-06-07T04:50:10Z</time>
      </trkpt>
      <trkpt lat="42.70894" lon="-0.05942">
        <ele>2214</ele>
        <time>2013-06-07T04:50:18Z</time>
      </trkpt>
      <trkpt lat="42.7089" lon="-0.05948">
        <ele>2215</ele>
        <time>2013-06-07T04:50:25Z</time>
      </trkpt>
      <trkpt lat="42.70887" lon="-0.05954">
        <ele>2215</ele>
        <time>2013-06-07T04:50:33Z</time>
      </trkpt>
      <trkpt lat="42.70883" lon="-0.05957">
        <ele>2215</ele>
        <time>2013-06-07T04:50:41Z</time>
      </trkpt>
      <trkpt lat="42.70881" lon="-0.05961">
        <ele>2215</ele>
        <time>2013-06-07T04:50:49Z</time>
      </trkpt>
      <trkpt lat="42.70876" lon="-0.05965">
        <ele>2217</ele>
        <time>2013-06-07T04:50:56Z</time>
      </trkpt>
      <trkpt lat="42.70872" lon="-0.05971">
        <ele>2216</ele>
        <time>2013-06-07T04:51:04Z</time>
      </trkpt>
      <trkpt lat="42.70869" lon="-0.05975">
        <ele>2217</ele>
        <time>2013-06-07T04:51:11Z</time>
      </trkpt>
      <trkpt lat="42.70866" lon="-0.05979">
        <ele>2217</ele>
        <time>2013-06-07T04:51:18Z</time>
      </trkpt>
      <trkpt lat="42.70861" lon="-0.05984">
        <ele>2216</ele>
        <time>2013-06-07T04:51:26Z</time>
      </trkpt>
      <trkpt lat="42.70856" lon="-0.05989">
        <ele>2218</ele>
        <time>2013-06-07T04:51:32Z</time>
      </trkpt>
      <trkpt lat="42.7085" lon="-0.05993">
        <ele>2217</ele>
        <time>2013-06-07T04:51:39Z</time>
      </trkpt>
      <trkpt lat="42.70846" lon="-0.05997">
        <ele>2218</ele>
        <time>2013-06-07T04:51:46Z</time>
      </trkpt>
      <trkpt lat="42.70842" lon="-0.06">
        <ele>2218</ele>
        <time>2013-06-07T04:51:55Z</time>
      </trkpt>
      <trkpt lat="42.70836" lon="-0.06004">
        <ele>2219</ele>
        <time>2013-06-07T04:52:02Z</time>
      </trkpt>
      <trkpt lat="42.70832" lon="-0.06008">
        <ele>2219</ele>
        <time>2013-06-07T04:52:09Z</time>
      </trkpt>
      <trkpt lat="42.70827" lon="-0.06012">
        <ele>2220</ele>
        <time>2013-06-07T04:52:16Z</time>
      </trkpt>
      <trkpt lat="42.70822" lon="-0.06016">
        <ele>2220</ele>
        <time>2013-06-07T04:52:23Z</time>
      </trkpt>
      <trkpt lat="42.70816" lon="-0.06019">
        <ele>2220</ele>
        <time>2013-06-07T04:52:30Z</time>
      </trkpt>
      <trkpt lat="42.70811" lon="-0.06022">
        <ele>2222</ele>
        <time>2013-06-07T04:52:38Z</time>
      </trkpt>
      <trkpt lat="42.70806" lon="-0.06029">
        <ele>2222</ele>
        <time>2013-06-07T04:52:45Z</time>
      </trkpt>
      <trkpt lat="42.70804" lon="-0.06032">
        <ele>2223</ele>
        <time>2013-06-07T04:52:49Z</time>
      </trkpt>
      <trkpt lat="42.70803" lon="-0.06033">
        <ele>2223</ele>
        <time>2013-06-07T04:52:50Z</time>
      </trkpt>
      <trkpt lat="42.708" lon="-0.06037">
        <ele>2224</ele>
        <time>2013-06-07T04:52:55Z</time>
      </trkpt>
      <trkpt lat="42.70793" lon="-0.06043">
        <ele>2223</ele>
        <time>2013-06-07T04:53:03Z</time>
      </trkpt>
      <trkpt lat="42.70789" lon="-0.06047">
        <ele>2224</ele>
        <time>2013-06-07T04:53:09Z</time>
      </trkpt>
      <trkpt lat="42.70786" lon="-0.06052">
        <ele>2224</ele>
        <time>2013-06-07T04:53:15Z</time>
      </trkpt>
      <trkpt lat="42.70783" lon="-0.06053">
        <ele>2226</ele>
        <time>2013-06-07T04:53:19Z</time>
      </trkpt>
      <trkpt lat="42.70781" lon="-0.06055">
        <ele>2225</ele>
        <time>2013-06-07T04:53:21Z</time>
      </trkpt>
      <trkpt lat="42.7078" lon="-0.06057">
        <ele>2226</ele>
        <time>2013-06-07T04:53:25Z</time>
      </trkpt>
      <trkpt lat="42.70777" lon="-0.06062">
        <ele>2226</ele>
        <time>2013-06-07T04:53:32Z</time>
      </trkpt>
      <trkpt lat="42.70773" lon="-0.06068">
        <ele>2227</ele>
        <time>2013-06-07T04:53:40Z</time>
      </trkpt>
      <trkpt lat="42.7077" lon="-0.06073">
        <ele>2229</ele>
        <time>2013-06-07T04:53:47Z</time>
      </trkpt>
      <trkpt lat="42.70771" lon="-0.0607">
        <ele>2228</ele>
        <time>2013-06-07T04:53:59Z</time>
      </trkpt>
      <trkpt lat="42.70764" lon="-0.06077">
        <ele>2229</ele>
        <time>2013-06-07T04:54:08Z</time>
      </trkpt>
      <trkpt lat="42.70762" lon="-0.06078">
        <ele>2229</ele>
        <time>2013-06-07T04:54:09Z</time>
      </trkpt>
      <trkpt lat="42.70761" lon="-0.06079">
        <ele>2230</ele>
        <time>2013-06-07T04:54:10Z</time>
      </trkpt>
      <trkpt lat="42.70757" lon="-0.06085">
        <ele>2231</ele>
        <time>2013-06-07T04:54:18Z</time>
      </trkpt>
      <trkpt lat="42.70751" lon="-0.06092">
        <ele>2231</ele>
        <time>2013-06-07T04:54:26Z</time>
      </trkpt>
      <trkpt lat="42.70745" lon="-0.061">
        <ele>2231</ele>
        <time>2013-06-07T04:54:34Z</time>
      </trkpt>
      <trkpt lat="42.70739" lon="-0.06107">
        <ele>2232</ele>
        <time>2013-06-07T04:54:41Z</time>
      </trkpt>
      <trkpt lat="42.70735" lon="-0.06114">
        <ele>2233</ele>
        <time>2013-06-07T04:54:48Z</time>
      </trkpt>
      <trkpt lat="42.70731" lon="-0.06121">
        <ele>2234</ele>
        <time>2013-06-07T04:54:55Z</time>
      </trkpt>
      <trkpt lat="42.70733" lon="-0.06127">
        <ele>2235</ele>
        <time>2013-06-07T04:55:02Z</time>
      </trkpt>
      <trkpt lat="42.70733" lon="-0.06128">
        <ele>2235</ele>
        <time>2013-06-07T04:55:04Z</time>
      </trkpt>
      <trkpt lat="42.70732" lon="-0.06129">
        <ele>2235</ele>
        <time>2013-06-07T04:55:05Z</time>
      </trkpt>
      <trkpt lat="42.70728" lon="-0.06134">
        <ele>2235</ele>
        <time>2013-06-07T04:55:10Z</time>
      </trkpt>
      <trkpt lat="42.70727" lon="-0.06139">
        <ele>2235</ele>
        <time>2013-06-07T04:55:14Z</time>
      </trkpt>
      <trkpt lat="42.70727" lon="-0.0614">
        <ele>2235</ele>
        <time>2013-06-07T04:55:15Z</time>
      </trkpt>
      <trkpt lat="42.70725" lon="-0.06142">
        <ele>2235</ele>
        <time>2013-06-07T04:55:17Z</time>
      </trkpt>
      <trkpt lat="42.70724" lon="-0.06144">
        <ele>2235</ele>
        <time>2013-06-07T04:55:18Z</time>
      </trkpt>
      <trkpt lat="42.70723" lon="-0.06144">
        <ele>2235</ele>
        <time>2013-06-07T04:55:19Z</time>
      </trkpt>
      <trkpt lat="42.70718" lon="-0.06154">
        <ele>2235</ele>
        <time>2013-06-07T04:55:26Z</time>
      </trkpt>
      <trkpt lat="42.70717" lon="-0.06155">
        <ele>2235</ele>
        <time>2013-06-07T04:55:27Z</time>
      </trkpt>
      <trkpt lat="42.70716" lon="-0.06156">
        <ele>2235</ele>
        <time>2013-06-07T04:55:28Z</time>
      </trkpt>
      <trkpt lat="42.70713" lon="-0.0616">
        <ele>2234</ele>
        <time>2013-06-07T04:55:32Z</time>
      </trkpt>
      <trkpt lat="42.70713" lon="-0.06162">
        <ele>2234</ele>
        <time>2013-06-07T04:55:33Z</time>
      </trkpt>
      <trkpt lat="42.70712" lon="-0.06164">
        <ele>2236</ele>
        <time>2013-06-07T04:55:35Z</time>
      </trkpt>
      <trkpt lat="42.70711" lon="-0.06171">
        <ele>2236</ele>
        <time>2013-06-07T04:55:41Z</time>
      </trkpt>
      <trkpt lat="42.7071" lon="-0.06178">
        <ele>2237</ele>
        <time>2013-06-07T04:55:47Z</time>
      </trkpt>
      <trkpt lat="42.70709" lon="-0.06179">
        <ele>2238</ele>
        <time>2013-06-07T04:55:48Z</time>
      </trkpt>
      <trkpt lat="42.70711" lon="-0.06185">
        <ele>2237</ele>
        <time>2013-06-07T04:55:52Z</time>
      </trkpt>
      <trkpt lat="42.70711" lon="-0.06186">
        <ele>2237</ele>
        <time>2013-06-07T04:55:53Z</time>
      </trkpt>
      <trkpt lat="42.7071" lon="-0.0619">
        <ele>2237</ele>
        <time>2013-06-07T04:56:00Z</time>
      </trkpt>
      <trkpt lat="42.70702" lon="-0.06196">
        <ele>2237</ele>
        <time>2013-06-07T04:56:08Z</time>
      </trkpt>
      <trkpt lat="42.70698" lon="-0.06205">
        <ele>2239</ele>
        <time>2013-06-07T04:56:18Z</time>
      </trkpt>
      <trkpt lat="42.70696" lon="-0.06209">
        <ele>2238</ele>
        <time>2013-06-07T04:56:23Z</time>
      </trkpt>
      <trkpt lat="42.7069" lon="-0.06215">
        <ele>2239</ele>
        <time>2013-06-07T04:56:31Z</time>
      </trkpt>
      <trkpt lat="42.70682" lon="-0.06221">
        <ele>2241</ele>
        <time>2013-06-07T04:56:40Z</time>
      </trkpt>
      <trkpt lat="42.70681" lon="-0.06222">
        <ele>2241</ele>
        <time>2013-06-07T04:56:41Z</time>
      </trkpt>
      <trkpt lat="42.70678" lon="-0.06223">
        <ele>2241</ele>
        <time>2013-06-07T04:56:43Z</time>
      </trkpt>
      <trkpt lat="42.7067" lon="-0.06229">
        <ele>2241</ele>
        <time>2013-06-07T04:56:51Z</time>
      </trkpt>
      <trkpt lat="42.70662" lon="-0.06233">
        <ele>2242</ele>
        <time>2013-06-07T04:56:59Z</time>
      </trkpt>
      <trkpt lat="42.70657" lon="-0.06237">
        <ele>2243</ele>
        <time>2013-06-07T04:57:07Z</time>
      </trkpt>
      <trkpt lat="42.70651" lon="-0.06243">
        <ele>2245</ele>
        <time>2013-06-07T04:57:16Z</time>
      </trkpt>
      <trkpt lat="42.7065" lon="-0.06246">
        <ele>2245</ele>
        <time>2013-06-07T04:57:19Z</time>
      </trkpt>
      <trkpt lat="42.70645" lon="-0.0625">
        <ele>2246</ele>
        <time>2013-06-07T04:57:26Z</time>
      </trkpt>
      <trkpt lat="42.70636" lon="-0.06254">
        <ele>2245</ele>
        <time>2013-06-07T04:57:34Z</time>
      </trkpt>
      <trkpt lat="42.70632" lon="-0.06258">
        <ele>2243</ele>
        <time>2013-06-07T04:57:40Z</time>
      </trkpt>
      <trkpt lat="42.70626" lon="-0.06264">
        <ele>2246</ele>
        <time>2013-06-07T04:57:48Z</time>
      </trkpt>
      <trkpt lat="42.70623" lon="-0.06267">
        <ele>2246</ele>
        <time>2013-06-07T04:57:52Z</time>
      </trkpt>
      <trkpt lat="42.70624" lon="-0.06271">
        <ele>2247</ele>
        <time>2013-06-07T04:57:58Z</time>
      </trkpt>
      <trkpt lat="42.70618" lon="-0.06276">
        <ele>2247</ele>
        <time>2013-06-07T04:58:05Z</time>
      </trkpt>
      <trkpt lat="42.70613" lon="-0.06279">
        <ele>2248</ele>
        <time>2013-06-07T04:58:12Z</time>
      </trkpt>
      <trkpt lat="42.7061" lon="-0.0628">
        <ele>2249</ele>
        <time>2013-06-07T04:58:16Z</time>
      </trkpt>
      <trkpt lat="42.70609" lon="-0.06281">
        <ele>2249</ele>
        <time>2013-06-07T04:58:17Z</time>
      </trkpt>
      <trkpt lat="42.70608" lon="-0.06282">
        <ele>2249</ele>
        <time>2013-06-07T04:58:18Z</time>
      </trkpt>
      <trkpt lat="42.70601" lon="-0.06286">
        <ele>2250</ele>
        <time>2013-06-07T04:58:26Z</time>
      </trkpt>
      <trkpt lat="42.70596" lon="-0.06289">
        <ele>2250</ele>
        <time>2013-06-07T04:58:32Z</time>
      </trkpt>
      <trkpt lat="42.70594" lon="-0.0629">
        <ele>2250</ele>
        <time>2013-06-07T04:58:33Z</time>
      </trkpt>
      <trkpt lat="42.70588" lon="-0.06293">
        <ele>2251</ele>
        <time>2013-06-07T04:58:41Z</time>
      </trkpt>
      <trkpt lat="42.70582" lon="-0.06296">
        <ele>2252</ele>
        <time>2013-06-07T04:58:49Z</time>
      </trkpt>
      <trkpt lat="42.70577" lon="-0.06302">
        <ele>2253</ele>
        <time>2013-06-07T04:58:57Z</time>
      </trkpt>
      <trkpt lat="42.70569" lon="-0.06306">
        <ele>2253</ele>
        <time>2013-06-07T04:59:05Z</time>
      </trkpt>
      <trkpt lat="42.70564" lon="-0.0631">
        <ele>2254</ele>
        <time>2013-06-07T04:59:13Z</time>
      </trkpt>
      <trkpt lat="42.70562" lon="-0.06311">
        <ele>2254</ele>
        <time>2013-06-07T04:59:15Z</time>
      </trkpt>
      <trkpt lat="42.70556" lon="-0.06313">
        <ele>2254</ele>
        <time>2013-06-07T04:59:21Z</time>
      </trkpt>
      <trkpt lat="42.7055" lon="-0.06317">
        <ele>2255</ele>
        <time>2013-06-07T04:59:30Z</time>
      </trkpt>
      <trkpt lat="42.70544" lon="-0.0632">
        <ele>2255</ele>
        <time>2013-06-07T04:59:37Z</time>
      </trkpt>
      <trkpt lat="42.70539" lon="-0.06321">
        <ele>2256</ele>
        <time>2013-06-07T04:59:46Z</time>
      </trkpt>
      <trkpt lat="42.70533" lon="-0.06325">
        <ele>2256</ele>
        <time>2013-06-07T04:59:54Z</time>
      </trkpt>
      <trkpt lat="42.70529" lon="-0.06327">
        <ele>2258</ele>
        <time>2013-06-07T04:59:59Z</time>
      </trkpt>
      <trkpt lat="42.70524" lon="-0.06328">
        <ele>2259</ele>
        <time>2013-06-07T05:00:07Z</time>
      </trkpt>
      <trkpt lat="42.70519" lon="-0.0633">
        <ele>2260</ele>
        <time>2013-06-07T05:00:14Z</time>
      </trkpt>
      <trkpt lat="42.70514" lon="-0.06333">
        <ele>2262</ele>
        <time>2013-06-07T05:00:21Z</time>
      </trkpt>
      <trkpt lat="42.70508" lon="-0.06334">
        <ele>2263</ele>
        <time>2013-06-07T05:00:28Z</time>
      </trkpt>
      <trkpt lat="42.70501" lon="-0.06337">
        <ele>2262</ele>
        <time>2013-06-07T05:00:36Z</time>
      </trkpt>
      <trkpt lat="42.70494" lon="-0.0634">
        <ele>2263</ele>
        <time>2013-06-07T05:00:44Z</time>
      </trkpt>
      <trkpt lat="42.70487" lon="-0.06344">
        <ele>2263</ele>
        <time>2013-06-07T05:00:52Z</time>
      </trkpt>
      <trkpt lat="42.70479" lon="-0.06347">
        <ele>2263</ele>
        <time>2013-06-07T05:01:01Z</time>
      </trkpt>
      <trkpt lat="42.70471" lon="-0.06349">
        <ele>2263</ele>
        <time>2013-06-07T05:01:10Z</time>
      </trkpt>
      <trkpt lat="42.70464" lon="-0.06351">
        <ele>2264</ele>
        <time>2013-06-07T05:01:19Z</time>
      </trkpt>
      <trkpt lat="42.70457" lon="-0.06354">
        <ele>2265</ele>
        <time>2013-06-07T05:01:27Z</time>
      </trkpt>
      <trkpt lat="42.70449" lon="-0.06355">
        <ele>2265</ele>
        <time>2013-06-07T05:01:37Z</time>
      </trkpt>
      <trkpt lat="42.70444" lon="-0.06356">
        <ele>2266</ele>
        <time>2013-06-07T05:01:44Z</time>
      </trkpt>
      <trkpt lat="42.70439" lon="-0.06357">
        <ele>2267</ele>
        <time>2013-06-07T05:01:49Z</time>
      </trkpt>
      <trkpt lat="42.70437" lon="-0.06357">
        <ele>2268</ele>
        <time>2013-06-07T05:01:51Z</time>
      </trkpt>
      <trkpt lat="42.70434" lon="-0.06358">
        <ele>2269</ele>
        <time>2013-06-07T05:01:57Z</time>
      </trkpt>
      <trkpt lat="42.70432" lon="-0.06358">
        <ele>2269</ele>
        <time>2013-06-07T05:01:59Z</time>
      </trkpt>
      <trkpt lat="42.7043" lon="-0.06359">
        <ele>2269</ele>
        <time>2013-06-07T05:02:00Z</time>
      </trkpt>
      <trkpt lat="42.70429" lon="-0.06359">
        <ele>2269</ele>
        <time>2013-06-07T05:02:06Z</time>
      </trkpt>
      <trkpt lat="42.70429" lon="-0.0636">
        <ele>2269</ele>
        <time>2013-06-07T05:02:17Z</time>
      </trkpt>
      <trkpt lat="42.7043" lon="-0.06358">
        <ele>2269</ele>
        <time>2013-06-07T05:02:27Z</time>
      </trkpt>
      <trkpt lat="42.70426" lon="-0.06359">
        <ele>2271</ele>
        <time>2013-06-07T05:02:34Z</time>
      </trkpt>
      <trkpt lat="42.70425" lon="-0.06359">
        <ele>2271</ele>
        <time>2013-06-07T05:02:35Z</time>
      </trkpt>
      <trkpt lat="42.70424" lon="-0.0636">
        <ele>2271</ele>
        <time>2013-06-07T05:02:36Z</time>
      </trkpt>
      <trkpt lat="42.70422" lon="-0.0636">
        <ele>2272</ele>
        <time>2013-06-07T05:02:37Z</time>
      </trkpt>
      <trkpt lat="42.70422" lon="-0.06361">
        <ele>2271</ele>
        <time>2013-06-07T05:02:38Z</time>
      </trkpt>
      <trkpt lat="42.70421" lon="-0.06362">
        <ele>2272</ele>
        <time>2013-06-07T05:02:39Z</time>
      </trkpt>
      <trkpt lat="42.70421" lon="-0.06363">
        <ele>2272</ele>
        <time>2013-06-07T05:02:40Z</time>
      </trkpt>
      <trkpt lat="42.7042" lon="-0.06364">
        <ele>2272</ele>
        <time>2013-06-07T05:02:41Z</time>
      </trkpt>
      <trkpt lat="42.70418" lon="-0.06364">
        <ele>2271</ele>
        <time>2013-06-07T05:02:42Z</time>
      </trkpt>
      <trkpt lat="42.70417" lon="-0.06365">
        <ele>2272</ele>
        <time>2013-06-07T05:02:43Z</time>
      </trkpt>
      <trkpt lat="42.70416" lon="-0.06366">
        <ele>2272</ele>
        <time>2013-06-07T05:02:44Z</time>
      </trkpt>
      <trkpt lat="42.70415" lon="-0.06367">
        <ele>2271</ele>
        <time>2013-06-07T05:02:45Z</time>
      </trkpt>
      <trkpt lat="42.70415" lon="-0.06368">
        <ele>2271</ele>
        <time>2013-06-07T05:02:46Z</time>
      </trkpt>
      <trkpt lat="42.70412" lon="-0.06377">
        <ele>2271</ele>
        <time>2013-06-07T05:02:53Z</time>
      </trkpt>
      <trkpt lat="42.7041" lon="-0.06381">
        <ele>2271</ele>
        <time>2013-06-07T05:02:57Z</time>
      </trkpt>
      <trkpt lat="42.70408" lon="-0.06387">
        <ele>2270</ele>
        <time>2013-06-07T05:03:04Z</time>
      </trkpt>
      <trkpt lat="42.70407" lon="-0.06392">
        <ele>2270</ele>
        <time>2013-06-07T05:03:11Z</time>
      </trkpt>
      <trkpt lat="42.70405" lon="-0.06399">
        <ele>2271</ele>
        <time>2013-06-07T05:03:16Z</time>
      </trkpt>
      <trkpt lat="42.70405" lon="-0.064">
        <ele>2271</ele>
        <time>2013-06-07T05:03:17Z</time>
      </trkpt>
      <trkpt lat="42.70403" lon="-0.06405">
        <ele>2271</ele>
        <time>2013-06-07T05:03:22Z</time>
      </trkpt>
      <trkpt lat="42.70401" lon="-0.06413">
        <ele>2272</ele>
        <time>2013-06-07T05:03:29Z</time>
      </trkpt>
      <trkpt lat="42.704" lon="-0.06418">
        <ele>2272</ele>
        <time>2013-06-07T05:03:33Z</time>
      </trkpt>
      <trkpt lat="42.70399" lon="-0.06422">
        <ele>2272</ele>
        <time>2013-06-07T05:03:37Z</time>
      </trkpt>
      <trkpt lat="42.70399" lon="-0.06425">
        <ele>2272</ele>
        <time>2013-06-07T05:03:39Z</time>
      </trkpt>
      <trkpt lat="42.70399" lon="-0.06426">
        <ele>2272</ele>
        <time>2013-06-07T05:03:40Z</time>
      </trkpt>
      <trkpt lat="42.70398" lon="-0.06429">
        <ele>2272</ele>
        <time>2013-06-07T05:03:48Z</time>
      </trkpt>
      <trkpt lat="42.70396" lon="-0.06432">
        <ele>2272</ele>
        <time>2013-06-07T05:03:52Z</time>
      </trkpt>
      <trkpt lat="42.70392" lon="-0.06436">
        <ele>2272</ele>
        <time>2013-06-07T05:03:58Z</time>
      </trkpt>
      <trkpt lat="42.70392" lon="-0.06435">
        <ele>2271</ele>
        <time>2013-06-07T05:04:05Z</time>
      </trkpt>
      <trkpt lat="42.70393" lon="-0.06433">
        <ele>2272</ele>
        <time>2013-06-07T05:04:10Z</time>
      </trkpt>
      <trkpt lat="42.70397" lon="-0.0643">
        <ele>2272</ele>
        <time>2013-06-07T05:04:16Z</time>
      </trkpt>
      <trkpt lat="42.70398" lon="-0.0643">
        <ele>2272</ele>
        <time>2013-06-07T05:04:22Z</time>
      </trkpt>
      <trkpt lat="42.70398" lon="-0.0643">
        <ele>2273</ele>
        <time>2013-06-07T05:04:35Z</time>
      </trkpt>
      <trkpt lat="42.704" lon="-0.06431">
        <ele>2272</ele>
        <time>2013-06-07T05:04:39Z</time>
      </trkpt>
      <trkpt lat="42.704" lon="-0.06431">
        <ele>2273</ele>
        <time>2013-06-07T05:04:48Z</time>
      </trkpt>
      <trkpt lat="42.70399" lon="-0.06431">
        <ele>2273</ele>
        <time>2013-06-07T05:04:54Z</time>
      </trkpt>
      <trkpt lat="42.70399" lon="-0.0643">
        <ele>2272</ele>
        <time>2013-06-07T05:05:11Z</time>
      </trkpt>
      <trkpt lat="42.70399" lon="-0.06431">
        <ele>2273</ele>
        <time>2013-06-07T05:05:25Z</time>
      </trkpt>
      <trkpt lat="42.704" lon="-0.06429">
        <ele>2273</ele>
        <time>2013-06-07T05:05:31Z</time>
      </trkpt>
      <trkpt lat="42.70399" lon="-0.06428">
        <ele>2272</ele>
        <time>2013-06-07T05:05:36Z</time>
      </trkpt>
      <trkpt lat="42.704" lon="-0.06422">
        <ele>2272</ele>
        <time>2013-06-07T05:05:41Z</time>
      </trkpt>
      <trkpt lat="42.70399" lon="-0.06417">
        <ele>2272</ele>
        <time>2013-06-07T05:05:47Z</time>
      </trkpt>
      <trkpt lat="42.70399" lon="-0.06415">
        <ele>2272</ele>
        <time>2013-06-07T05:05:50Z</time>
      </trkpt>
      <trkpt lat="42.70399" lon="-0.06413">
        <ele>2272</ele>
        <time>2013-06-07T05:05:52Z</time>
      </trkpt>
      <trkpt lat="42.70398" lon="-0.06408">
        <ele>2271</ele>
        <time>2013-06-07T05:05:56Z</time>
      </trkpt>
      <trkpt lat="42.70398" lon="-0.06406">
        <ele>2271</ele>
        <time>2013-06-07T05:06:02Z</time>
      </trkpt>
      <trkpt lat="42.70398" lon="-0.06404">
        <ele>2271</ele>
        <time>2013-06-07T05:06:09Z</time>
      </trkpt>
      <trkpt lat="42.70396" lon="-0.06399">
        <ele>2271</ele>
        <time>2013-06-07T05:06:14Z</time>
      </trkpt>
      <trkpt lat="42.70391" lon="-0.064">
        <ele>2272</ele>
        <time>2013-06-07T05:06:20Z</time>
      </trkpt>
      <trkpt lat="42.70385" lon="-0.06406">
        <ele>2273</ele>
        <time>2013-06-07T05:06:29Z</time>
      </trkpt>
      <trkpt lat="42.70381" lon="-0.06408">
        <ele>2275</ele>
        <time>2013-06-07T05:06:36Z</time>
      </trkpt>
      <trkpt lat="42.70377" lon="-0.06411">
        <ele>2276</ele>
        <time>2013-06-07T05:06:43Z</time>
      </trkpt>
      <trkpt lat="42.70373" lon="-0.06406">
        <ele>2277</ele>
        <time>2013-06-07T05:06:50Z</time>
      </trkpt>
      <trkpt lat="42.70372" lon="-0.06407">
        <ele>2277</ele>
        <time>2013-06-07T05:06:57Z</time>
      </trkpt>
      <trkpt lat="42.70371" lon="-0.06409">
        <ele>2277</ele>
        <time>2013-06-07T05:07:10Z</time>
      </trkpt>
      <trkpt lat="42.70371" lon="-0.06403">
        <ele>2277</ele>
        <time>2013-06-07T05:07:16Z</time>
      </trkpt>
      <trkpt lat="42.70368" lon="-0.06398">
        <ele>2278</ele>
        <time>2013-06-07T05:07:22Z</time>
      </trkpt>
      <trkpt lat="42.70366" lon="-0.06392">
        <ele>2280</ele>
        <time>2013-06-07T05:07:29Z</time>
      </trkpt>
      <trkpt lat="42.70365" lon="-0.06387">
        <ele>2281</ele>
        <time>2013-06-07T05:07:36Z</time>
      </trkpt>
      <trkpt lat="42.70362" lon="-0.06379">
        <ele>2284</ele>
        <time>2013-06-07T05:07:45Z</time>
      </trkpt>
      <trkpt lat="42.7036" lon="-0.06373">
        <ele>2284</ele>
        <time>2013-06-07T05:07:53Z</time>
      </trkpt>
      <trkpt lat="42.7036" lon="-0.0637">
        <ele>2285</ele>
        <time>2013-06-07T05:07:56Z</time>
      </trkpt>
      <trkpt lat="42.70357" lon="-0.06367">
        <ele>2286</ele>
        <time>2013-06-07T05:08:03Z</time>
      </trkpt>
      <trkpt lat="42.70356" lon="-0.06362">
        <ele>2287</ele>
        <time>2013-06-07T05:08:09Z</time>
      </trkpt>
      <trkpt lat="42.70356" lon="-0.0636">
        <ele>2286</ele>
        <time>2013-06-07T05:08:10Z</time>
      </trkpt>
      <trkpt lat="42.70355" lon="-0.06354">
        <ele>2288</ele>
        <time>2013-06-07T05:08:17Z</time>
      </trkpt>
      <trkpt lat="42.70353" lon="-0.06348">
        <ele>2289</ele>
        <time>2013-06-07T05:08:24Z</time>
      </trkpt>
      <trkpt lat="42.70351" lon="-0.06343">
        <ele>2290</ele>
        <time>2013-06-07T05:08:32Z</time>
      </trkpt>
      <trkpt lat="42.7035" lon="-0.06335">
        <ele>2291</ele>
        <time>2013-06-07T05:08:40Z</time>
      </trkpt>
      <trkpt lat="42.70348" lon="-0.06329">
        <ele>2293</ele>
        <time>2013-06-07T05:08:49Z</time>
      </trkpt>
      <trkpt lat="42.70347" lon="-0.06319">
        <ele>2293</ele>
        <time>2013-06-07T05:08:56Z</time>
      </trkpt>
      <trkpt lat="42.70345" lon="-0.06312">
        <ele>2295</ele>
        <time>2013-06-07T05:09:04Z</time>
      </trkpt>
      <trkpt lat="42.70344" lon="-0.06308">
        <ele>2295</ele>
        <time>2013-06-07T05:09:11Z</time>
      </trkpt>
      <trkpt lat="42.70343" lon="-0.06304">
        <ele>2296</ele>
        <time>2013-06-07T05:09:18Z</time>
      </trkpt>
      <trkpt lat="42.70344" lon="-0.06303">
        <ele>2296</ele>
        <time>2013-06-07T05:09:26Z</time>
      </trkpt>
      <trkpt lat="42.70343" lon="-0.06303">
        <ele>2295</ele>
        <time>2013-06-07T05:09:38Z</time>
      </trkpt>
      <trkpt lat="42.70342" lon="-0.06298">
        <ele>2296</ele>
        <time>2013-06-07T05:09:44Z</time>
      </trkpt>
      <trkpt lat="42.70343" lon="-0.06293">
        <ele>2298</ele>
        <time>2013-06-07T05:09:52Z</time>
      </trkpt>
      <trkpt lat="42.70345" lon="-0.06284">
        <ele>2298</ele>
        <time>2013-06-07T05:09:59Z</time>
      </trkpt>
      <trkpt lat="42.70346" lon="-0.06277">
        <ele>2298</ele>
        <time>2013-06-07T05:10:05Z</time>
      </trkpt>
      <trkpt lat="42.70346" lon="-0.06275">
        <ele>2298</ele>
        <time>2013-06-07T05:10:06Z</time>
      </trkpt>
      <trkpt lat="42.70347" lon="-0.06268">
        <ele>2299</ele>
        <time>2013-06-07T05:10:13Z</time>
      </trkpt>
      <trkpt lat="42.70347" lon="-0.06259">
        <ele>2302</ele>
        <time>2013-06-07T05:10:21Z</time>
      </trkpt>
      <trkpt lat="42.70346" lon="-0.06251">
        <ele>2302</ele>
        <time>2013-06-07T05:10:30Z</time>
      </trkpt>
      <trkpt lat="42.70346" lon="-0.0624">
        <ele>2303</ele>
        <time>2013-06-07T05:10:38Z</time>
      </trkpt>
      <trkpt lat="42.70345" lon="-0.06231">
        <ele>2304</ele>
        <time>2013-06-07T05:10:46Z</time>
      </trkpt>
      <trkpt lat="42.70345" lon="-0.06223">
        <ele>2306</ele>
        <time>2013-06-07T05:10:54Z</time>
      </trkpt>
      <trkpt lat="42.70342" lon="-0.06212">
        <ele>2307</ele>
        <time>2013-06-07T05:11:04Z</time>
      </trkpt>
      <trkpt lat="42.70339" lon="-0.06202">
        <ele>2308</ele>
        <time>2013-06-07T05:11:13Z</time>
      </trkpt>
      <trkpt lat="42.70335" lon="-0.06193">
        <ele>2309</ele>
        <time>2013-06-07T05:11:22Z</time>
      </trkpt>
      <trkpt lat="42.70334" lon="-0.06186">
        <ele>2311</ele>
        <time>2013-06-07T05:11:30Z</time>
      </trkpt>
      <trkpt lat="42.70333" lon="-0.06181">
        <ele>2312</ele>
        <time>2013-06-07T05:11:35Z</time>
      </trkpt>
      <trkpt lat="42.70331" lon="-0.06172">
        <ele>2313</ele>
        <time>2013-06-07T05:11:43Z</time>
      </trkpt>
      <trkpt lat="42.7033" lon="-0.06162">
        <ele>2314</ele>
        <time>2013-06-07T05:11:52Z</time>
      </trkpt>
      <trkpt lat="42.70328" lon="-0.06152">
        <ele>2315</ele>
        <time>2013-06-07T05:12:01Z</time>
      </trkpt>
      <trkpt lat="42.70327" lon="-0.06141">
        <ele>2316</ele>
        <time>2013-06-07T05:12:11Z</time>
      </trkpt>
      <trkpt lat="42.70327" lon="-0.0613">
        <ele>2317</ele>
        <time>2013-06-07T05:12:20Z</time>
      </trkpt>
      <trkpt lat="42.70326" lon="-0.06117">
        <ele>2318</ele>
        <time>2013-06-07T05:12:29Z</time>
      </trkpt>
      <trkpt lat="42.70324" lon="-0.06105">
        <ele>2319</ele>
        <time>2013-06-07T05:12:39Z</time>
      </trkpt>
      <trkpt lat="42.70323" lon="-0.06092">
        <ele>2319</ele>
        <time>2013-06-07T05:12:48Z</time>
      </trkpt>
      <trkpt lat="42.70321" lon="-0.06079">
        <ele>2322</ele>
        <time>2013-06-07T05:12:58Z</time>
      </trkpt>
      <trkpt lat="42.7032" lon="-0.06066">
        <ele>2322</ele>
        <time>2013-06-07T05:13:07Z</time>
      </trkpt>
      <trkpt lat="42.70319" lon="-0.06054">
        <ele>2323</ele>
        <time>2013-06-07T05:13:15Z</time>
      </trkpt>
      <trkpt lat="42.70321" lon="-0.0604">
        <ele>2324</ele>
        <time>2013-06-07T05:13:24Z</time>
      </trkpt>
      <trkpt lat="42.70319" lon="-0.06027">
        <ele>2324</ele>
        <time>2013-06-07T05:13:32Z</time>
      </trkpt>
      <trkpt lat="42.70317" lon="-0.06011">
        <ele>2324</ele>
        <time>2013-06-07T05:13:42Z</time>
      </trkpt>
      <trkpt lat="42.70316" lon="-0.05999">
        <ele>2325</ele>
        <time>2013-06-07T05:13:50Z</time>
      </trkpt>
      <trkpt lat="42.70312" lon="-0.05985">
        <ele>2325</ele>
        <time>2013-06-07T05:13:58Z</time>
      </trkpt>
      <trkpt lat="42.7031" lon="-0.05973">
        <ele>2325</ele>
        <time>2013-06-07T05:14:06Z</time>
      </trkpt>
      <trkpt lat="42.70308" lon="-0.05961">
        <ele>2325</ele>
        <time>2013-06-07T05:14:14Z</time>
      </trkpt>
      <trkpt lat="42.70304" lon="-0.05949">
        <ele>2325</ele>
        <time>2013-06-07T05:14:22Z</time>
      </trkpt>
      <trkpt lat="42.70301" lon="-0.05934">
        <ele>2323</ele>
        <time>2013-06-07T05:14:30Z</time>
      </trkpt>
      <trkpt lat="42.70299" lon="-0.05918">
        <ele>2323</ele>
        <time>2013-06-07T05:14:39Z</time>
      </trkpt>
      <trkpt lat="42.70296" lon="-0.05906">
        <ele>2323</ele>
        <time>2013-06-07T05:14:46Z</time>
      </trkpt>
      <trkpt lat="42.70295" lon="-0.05893">
        <ele>2323</ele>
        <time>2013-06-07T05:14:53Z</time>
      </trkpt>
      <trkpt lat="42.70294" lon="-0.0588">
        <ele>2322</ele>
        <time>2013-06-07T05:15:01Z</time>
      </trkpt>
      <trkpt lat="42.70292" lon="-0.05868">
        <ele>2322</ele>
        <time>2013-06-07T05:15:08Z</time>
      </trkpt>
      <trkpt lat="42.7029" lon="-0.05852">
        <ele>2322</ele>
        <time>2013-06-07T05:15:17Z</time>
      </trkpt>
      <trkpt lat="42.70288" lon="-0.05839">
        <ele>2322</ele>
        <time>2013-06-07T05:15:24Z</time>
      </trkpt>
      <trkpt lat="42.70283" lon="-0.05823">
        <ele>2321</ele>
        <time>2013-06-07T05:15:33Z</time>
      </trkpt>
      <trkpt lat="42.70281" lon="-0.05809">
        <ele>2321</ele>
        <time>2013-06-07T05:15:40Z</time>
      </trkpt>
      <trkpt lat="42.7028" lon="-0.05807">
        <ele>2320</ele>
        <time>2013-06-07T05:15:41Z</time>
      </trkpt>
      <trkpt lat="42.70277" lon="-0.05791">
        <ele>2319</ele>
        <time>2013-06-07T05:15:50Z</time>
      </trkpt>
      <trkpt lat="42.70274" lon="-0.05777">
        <ele>2319</ele>
        <time>2013-06-07T05:15:58Z</time>
      </trkpt>
      <trkpt lat="42.70271" lon="-0.05767">
        <ele>2318</ele>
        <time>2013-06-07T05:16:03Z</time>
      </trkpt>
      <trkpt lat="42.70269" lon="-0.05752">
        <ele>2317</ele>
        <time>2013-06-07T05:16:11Z</time>
      </trkpt>
      <trkpt lat="42.70266" lon="-0.05738">
        <ele>2318</ele>
        <time>2013-06-07T05:16:20Z</time>
      </trkpt>
      <trkpt lat="42.70263" lon="-0.05724">
        <ele>2317</ele>
        <time>2013-06-07T05:16:28Z</time>
      </trkpt>
      <trkpt lat="42.70263" lon="-0.05707">
        <ele>2317</ele>
        <time>2013-06-07T05:16:37Z</time>
      </trkpt>
      <trkpt lat="42.7026" lon="-0.05693">
        <ele>2317</ele>
        <time>2013-06-07T05:16:46Z</time>
      </trkpt>
      <trkpt lat="42.70257" lon="-0.05678">
        <ele>2318</ele>
        <time>2013-06-07T05:16:56Z</time>
      </trkpt>
      <trkpt lat="42.70254" lon="-0.05664">
        <ele>2317</ele>
        <time>2013-06-07T05:17:04Z</time>
      </trkpt>
      <trkpt lat="42.70252" lon="-0.05651">
        <ele>2317</ele>
        <time>2013-06-07T05:17:12Z</time>
      </trkpt>
      <trkpt lat="42.70249" lon="-0.05635">
        <ele>2317</ele>
        <time>2013-06-07T05:17:21Z</time>
      </trkpt>
      <trkpt lat="42.70247" lon="-0.05618">
        <ele>2317</ele>
        <time>2013-06-07T05:17:30Z</time>
      </trkpt>
      <trkpt lat="42.70244" lon="-0.05604">
        <ele>2315</ele>
        <time>2013-06-07T05:17:37Z</time>
      </trkpt>
      <trkpt lat="42.70243" lon="-0.05588">
        <ele>2314</ele>
        <time>2013-06-07T05:17:46Z</time>
      </trkpt>
      <trkpt lat="42.70242" lon="-0.05578">
        <ele>2314</ele>
        <time>2013-06-07T05:17:54Z</time>
      </trkpt>
      <trkpt lat="42.70241" lon="-0.05559">
        <ele>2315</ele>
        <time>2013-06-07T05:18:03Z</time>
      </trkpt>
      <trkpt lat="42.70239" lon="-0.05543">
        <ele>2314</ele>
        <time>2013-06-07T05:18:12Z</time>
      </trkpt>
      <trkpt lat="42.70237" lon="-0.05529">
        <ele>2314</ele>
        <time>2013-06-07T05:18:20Z</time>
      </trkpt>
      <trkpt lat="42.70235" lon="-0.05515">
        <ele>2314</ele>
        <time>2013-06-07T05:18:29Z</time>
      </trkpt>
      <trkpt lat="42.70234" lon="-0.055">
        <ele>2314</ele>
        <time>2013-06-07T05:18:38Z</time>
      </trkpt>
      <trkpt lat="42.70232" lon="-0.05487">
        <ele>2314</ele>
        <time>2013-06-07T05:18:46Z</time>
      </trkpt>
      <trkpt lat="42.70229" lon="-0.05474">
        <ele>2314</ele>
        <time>2013-06-07T05:18:54Z</time>
      </trkpt>
      <trkpt lat="42.70227" lon="-0.05459">
        <ele>2315</ele>
        <time>2013-06-07T05:19:03Z</time>
      </trkpt>
      <trkpt lat="42.70224" lon="-0.05448">
        <ele>2316</ele>
        <time>2013-06-07T05:19:11Z</time>
      </trkpt>
      <trkpt lat="42.70222" lon="-0.05436">
        <ele>2316</ele>
        <time>2013-06-07T05:19:19Z</time>
      </trkpt>
      <trkpt lat="42.70219" lon="-0.05423">
        <ele>2317</ele>
        <time>2013-06-07T05:19:28Z</time>
      </trkpt>
      <trkpt lat="42.70218" lon="-0.05408">
        <ele>2318</ele>
        <time>2013-06-07T05:19:37Z</time>
      </trkpt>
      <trkpt lat="42.70216" lon="-0.05395">
        <ele>2319</ele>
        <time>2013-06-07T05:19:45Z</time>
      </trkpt>
      <trkpt lat="42.70216" lon="-0.0538">
        <ele>2321</ele>
        <time>2013-06-07T05:19:55Z</time>
      </trkpt>
      <trkpt lat="42.70214" lon="-0.05367">
        <ele>2321</ele>
        <time>2013-06-07T05:20:03Z</time>
      </trkpt>
      <trkpt lat="42.70214" lon="-0.05358">
        <ele>2322</ele>
        <time>2013-06-07T05:20:09Z</time>
      </trkpt>
      <trkpt lat="42.70214" lon="-0.05354">
        <ele>2322</ele>
        <time>2013-06-07T05:20:13Z</time>
      </trkpt>
      <trkpt lat="42.70213" lon="-0.05341">
        <ele>2323</ele>
        <time>2013-06-07T05:20:22Z</time>
      </trkpt>
      <trkpt lat="42.70212" lon="-0.05329">
        <ele>2323</ele>
        <time>2013-06-07T05:20:30Z</time>
      </trkpt>
      <trkpt lat="42.7021" lon="-0.05317">
        <ele>2323</ele>
        <time>2013-06-07T05:20:38Z</time>
      </trkpt>
      <trkpt lat="42.70209" lon="-0.05303">
        <ele>2323</ele>
        <time>2013-06-07T05:20:46Z</time>
      </trkpt>
      <trkpt lat="42.70207" lon="-0.05288">
        <ele>2323</ele>
        <time>2013-06-07T05:20:55Z</time>
      </trkpt>
      <trkpt lat="42.70203" lon="-0.05277">
        <ele>2324</ele>
        <time>2013-06-07T05:21:04Z</time>
      </trkpt>
      <trkpt lat="42.70203" lon="-0.05271">
        <ele>2324</ele>
        <time>2013-06-07T05:21:08Z</time>
      </trkpt>
      <trkpt lat="42.70201" lon="-0.05261">
        <ele>2324</ele>
        <time>2013-06-07T05:21:17Z</time>
      </trkpt>
      <trkpt lat="42.702" lon="-0.0525">
        <ele>2325</ele>
        <time>2013-06-07T05:21:25Z</time>
      </trkpt>
      <trkpt lat="42.70199" lon="-0.05241">
        <ele>2326</ele>
        <time>2013-06-07T05:21:33Z</time>
      </trkpt>
      <trkpt lat="42.70197" lon="-0.05232">
        <ele>2327</ele>
        <time>2013-06-07T05:21:40Z</time>
      </trkpt>
      <trkpt lat="42.70197" lon="-0.05223">
        <ele>2327</ele>
        <time>2013-06-07T05:21:48Z</time>
      </trkpt>
      <trkpt lat="42.70198" lon="-0.05213">
        <ele>2329</ele>
        <time>2013-06-07T05:21:56Z</time>
      </trkpt>
      <trkpt lat="42.70197" lon="-0.05204">
        <ele>2329</ele>
        <time>2013-06-07T05:22:04Z</time>
      </trkpt>
      <trkpt lat="42.70197" lon="-0.052">
        <ele>2329</ele>
        <time>2013-06-07T05:22:08Z</time>
      </trkpt>
      <trkpt lat="42.70197" lon="-0.0519">
        <ele>2331</ele>
        <time>2013-06-07T05:22:17Z</time>
      </trkpt>
      <trkpt lat="42.70197" lon="-0.05179">
        <ele>2332</ele>
        <time>2013-06-07T05:22:27Z</time>
      </trkpt>
      <trkpt lat="42.70197" lon="-0.05169">
        <ele>2334</ele>
        <time>2013-06-07T05:22:35Z</time>
      </trkpt>
      <trkpt lat="42.70197" lon="-0.05161">
        <ele>2334</ele>
        <time>2013-06-07T05:22:42Z</time>
      </trkpt>
      <trkpt lat="42.70196" lon="-0.0515">
        <ele>2336</ele>
        <time>2013-06-07T05:22:51Z</time>
      </trkpt>
      <trkpt lat="42.70194" lon="-0.05139">
        <ele>2336</ele>
        <time>2013-06-07T05:22:59Z</time>
      </trkpt>
      <trkpt lat="42.70192" lon="-0.05127">
        <ele>2337</ele>
        <time>2013-06-07T05:23:07Z</time>
      </trkpt>
      <trkpt lat="42.7019" lon="-0.05119">
        <ele>2338</ele>
        <time>2013-06-07T05:23:14Z</time>
      </trkpt>
      <trkpt lat="42.70188" lon="-0.05109">
        <ele>2339</ele>
        <time>2013-06-07T05:23:22Z</time>
      </trkpt>
      <trkpt lat="42.70187" lon="-0.05098">
        <ele>2339</ele>
        <time>2013-06-07T05:23:30Z</time>
      </trkpt>
      <trkpt lat="42.70184" lon="-0.05086">
        <ele>2341</ele>
        <time>2013-06-07T05:23:40Z</time>
      </trkpt>
      <trkpt lat="42.70183" lon="-0.05077">
        <ele>2341</ele>
        <time>2013-06-07T05:23:48Z</time>
      </trkpt>
      <trkpt lat="42.7018" lon="-0.05068">
        <ele>2342</ele>
        <time>2013-06-07T05:23:56Z</time>
      </trkpt>
      <trkpt lat="42.70181" lon="-0.05058">
        <ele>2344</ele>
        <time>2013-06-07T05:24:05Z</time>
      </trkpt>
      <trkpt lat="42.70181" lon="-0.05048">
        <ele>2345</ele>
        <time>2013-06-07T05:24:13Z</time>
      </trkpt>
      <trkpt lat="42.70181" lon="-0.05037">
        <ele>2346</ele>
        <time>2013-06-07T05:24:21Z</time>
      </trkpt>
      <trkpt lat="42.70181" lon="-0.05027">
        <ele>2347</ele>
        <time>2013-06-07T05:24:29Z</time>
      </trkpt>
      <trkpt lat="42.70181" lon="-0.05018">
        <ele>2348</ele>
        <time>2013-06-07T05:24:36Z</time>
      </trkpt>
      <trkpt lat="42.70182" lon="-0.05006">
        <ele>2348</ele>
        <time>2013-06-07T05:24:45Z</time>
      </trkpt>
      <trkpt lat="42.70181" lon="-0.04996">
        <ele>2349</ele>
        <time>2013-06-07T05:24:52Z</time>
      </trkpt>
      <trkpt lat="42.70181" lon="-0.04985">
        <ele>2350</ele>
        <time>2013-06-07T05:25:00Z</time>
      </trkpt>
      <trkpt lat="42.7018" lon="-0.04973">
        <ele>2352</ele>
        <time>2013-06-07T05:25:09Z</time>
      </trkpt>
      <trkpt lat="42.70179" lon="-0.04958">
        <ele>2352</ele>
        <time>2013-06-07T05:25:20Z</time>
      </trkpt>
      <trkpt lat="42.70177" lon="-0.04945">
        <ele>2352</ele>
        <time>2013-06-07T05:25:28Z</time>
      </trkpt>
      <trkpt lat="42.70177" lon="-0.04935">
        <ele>2352</ele>
        <time>2013-06-07T05:25:37Z</time>
      </trkpt>
      <trkpt lat="42.70175" lon="-0.04924">
        <ele>2353</ele>
        <time>2013-06-07T05:25:46Z</time>
      </trkpt>
      <trkpt lat="42.70174" lon="-0.04915">
        <ele>2355</ele>
        <time>2013-06-07T05:25:54Z</time>
      </trkpt>
      <trkpt lat="42.70172" lon="-0.04905">
        <ele>2355</ele>
        <time>2013-06-07T05:26:02Z</time>
      </trkpt>
      <trkpt lat="42.70172" lon="-0.04897">
        <ele>2357</ele>
        <time>2013-06-07T05:26:09Z</time>
      </trkpt>
      <trkpt lat="42.70172" lon="-0.04885">
        <ele>2358</ele>
        <time>2013-06-07T05:26:18Z</time>
      </trkpt>
      <trkpt lat="42.70172" lon="-0.04875">
        <ele>2359</ele>
        <time>2013-06-07T05:26:27Z</time>
      </trkpt>
      <trkpt lat="42.70174" lon="-0.04863">
        <ele>2361</ele>
        <time>2013-06-07T05:26:36Z</time>
      </trkpt>
      <trkpt lat="42.70174" lon="-0.04854">
        <ele>2363</ele>
        <time>2013-06-07T05:26:44Z</time>
      </trkpt>
      <trkpt lat="42.70174" lon="-0.04844">
        <ele>2363</ele>
        <time>2013-06-07T05:26:52Z</time>
      </trkpt>
      <trkpt lat="42.70174" lon="-0.04834">
        <ele>2364</ele>
        <time>2013-06-07T05:26:59Z</time>
      </trkpt>
      <trkpt lat="42.70174" lon="-0.04822">
        <ele>2363</ele>
        <time>2013-06-07T05:27:08Z</time>
      </trkpt>
      <trkpt lat="42.70173" lon="-0.04811">
        <ele>2362</ele>
        <time>2013-06-07T05:27:13Z</time>
      </trkpt>
      <trkpt lat="42.70173" lon="-0.04805">
        <ele>2362</ele>
        <time>2013-06-07T05:27:21Z</time>
      </trkpt>
      <trkpt lat="42.70172" lon="-0.04799">
        <ele>2361</ele>
        <time>2013-06-07T05:27:26Z</time>
      </trkpt>
      <trkpt lat="42.70171" lon="-0.04789">
        <ele>2361</ele>
        <time>2013-06-07T05:27:33Z</time>
      </trkpt>
      <trkpt lat="42.70171" lon="-0.04786">
        <ele>2361</ele>
        <time>2013-06-07T05:27:35Z</time>
      </trkpt>
      <trkpt lat="42.70173" lon="-0.04774">
        <ele>2362</ele>
        <time>2013-06-07T05:27:43Z</time>
      </trkpt>
      <trkpt lat="42.70173" lon="-0.04767">
        <ele>2363</ele>
        <time>2013-06-07T05:27:52Z</time>
      </trkpt>
      <trkpt lat="42.70173" lon="-0.04765">
        <ele>2363</ele>
        <time>2013-06-07T05:28:01Z</time>
      </trkpt>
      <trkpt lat="42.70172" lon="-0.04762">
        <ele>2363</ele>
        <time>2013-06-07T05:28:03Z</time>
      </trkpt>
      <trkpt lat="42.70169" lon="-0.04757">
        <ele>2364</ele>
        <time>2013-06-07T05:28:11Z</time>
      </trkpt>
      <trkpt lat="42.7017" lon="-0.04761">
        <ele>2364</ele>
        <time>2013-06-07T05:28:22Z</time>
      </trkpt>
      <trkpt lat="42.70169" lon="-0.04758">
        <ele>2365</ele>
        <time>2013-06-07T05:28:35Z</time>
      </trkpt>
      <trkpt lat="42.70167" lon="-0.04759">
        <ele>2365</ele>
        <time>2013-06-07T05:28:50Z</time>
      </trkpt>
      <trkpt lat="42.70167" lon="-0.04754">
        <ele>2365</ele>
        <time>2013-06-07T05:29:04Z</time>
      </trkpt>
      <trkpt lat="42.70165" lon="-0.04744">
        <ele>2366</ele>
        <time>2013-06-07T05:29:12Z</time>
      </trkpt>
      <trkpt lat="42.70163" lon="-0.04733">
        <ele>2365</ele>
        <time>2013-06-07T05:29:20Z</time>
      </trkpt>
      <trkpt lat="42.70162" lon="-0.04723">
        <ele>2365</ele>
        <time>2013-06-07T05:29:27Z</time>
      </trkpt>
      <trkpt lat="42.7016" lon="-0.04712">
        <ele>2367</ele>
        <time>2013-06-07T05:29:35Z</time>
      </trkpt>
      <trkpt lat="42.70159" lon="-0.047">
        <ele>2367</ele>
        <time>2013-06-07T05:29:43Z</time>
      </trkpt>
      <trkpt lat="42.70157" lon="-0.04689">
        <ele>2367</ele>
        <time>2013-06-07T05:29:51Z</time>
      </trkpt>
      <trkpt lat="42.70155" lon="-0.0468">
        <ele>2367</ele>
        <time>2013-06-07T05:29:58Z</time>
      </trkpt>
      <trkpt lat="42.70154" lon="-0.04676">
        <ele>2368</ele>
        <time>2013-06-07T05:30:01Z</time>
      </trkpt>
      <trkpt lat="42.70153" lon="-0.04665">
        <ele>2368</ele>
        <time>2013-06-07T05:30:09Z</time>
      </trkpt>
      <trkpt lat="42.70151" lon="-0.04657">
        <ele>2369</ele>
        <time>2013-06-07T05:30:16Z</time>
      </trkpt>
      <trkpt lat="42.70149" lon="-0.04647">
        <ele>2370</ele>
        <time>2013-06-07T05:30:25Z</time>
      </trkpt>
      <trkpt lat="42.70148" lon="-0.04635">
        <ele>2371</ele>
        <time>2013-06-07T05:30:35Z</time>
      </trkpt>
      <trkpt lat="42.70148" lon="-0.04625">
        <ele>2372</ele>
        <time>2013-06-07T05:30:43Z</time>
      </trkpt>
      <trkpt lat="42.70147" lon="-0.04615">
        <ele>2374</ele>
        <time>2013-06-07T05:30:52Z</time>
      </trkpt>
      <trkpt lat="42.70147" lon="-0.04605">
        <ele>2376</ele>
        <time>2013-06-07T05:31:00Z</time>
      </trkpt>
      <trkpt lat="42.70146" lon="-0.04593">
        <ele>2377</ele>
        <time>2013-06-07T05:31:09Z</time>
      </trkpt>
      <trkpt lat="42.70146" lon="-0.04583">
        <ele>2378</ele>
        <time>2013-06-07T05:31:17Z</time>
      </trkpt>
      <trkpt lat="42.70142" lon="-0.04571">
        <ele>2377</ele>
        <time>2013-06-07T05:31:25Z</time>
      </trkpt>
      <trkpt lat="42.7014" lon="-0.04559">
        <ele>2378</ele>
        <time>2013-06-07T05:31:33Z</time>
      </trkpt>
      <trkpt lat="42.70137" lon="-0.04547">
        <ele>2379</ele>
        <time>2013-06-07T05:31:42Z</time>
      </trkpt>
      <trkpt lat="42.70137" lon="-0.04537">
        <ele>2379</ele>
        <time>2013-06-07T05:31:49Z</time>
      </trkpt>
      <trkpt lat="42.70138" lon="-0.04525">
        <ele>2380</ele>
        <time>2013-06-07T05:31:57Z</time>
      </trkpt>
      <trkpt lat="42.70135" lon="-0.04515">
        <ele>2381</ele>
        <time>2013-06-07T05:32:06Z</time>
      </trkpt>
      <trkpt lat="42.70134" lon="-0.04505">
        <ele>2382</ele>
        <time>2013-06-07T05:32:14Z</time>
      </trkpt>
      <trkpt lat="42.70133" lon="-0.04494">
        <ele>2383</ele>
        <time>2013-06-07T05:32:23Z</time>
      </trkpt>
      <trkpt lat="42.70132" lon="-0.04483">
        <ele>2384</ele>
        <time>2013-06-07T05:32:31Z</time>
      </trkpt>
      <trkpt lat="42.7013" lon="-0.04473">
        <ele>2385</ele>
        <time>2013-06-07T05:32:39Z</time>
      </trkpt>
      <trkpt lat="42.7013" lon="-0.04471">
        <ele>2387</ele>
        <time>2013-06-07T05:32:46Z</time>
      </trkpt>
      <trkpt lat="42.7013" lon="-0.04471">
        <ele>2385</ele>
        <time>2013-06-07T05:32:50Z</time>
      </trkpt>
      <trkpt lat="42.7013" lon="-0.04469">
        <ele>2386</ele>
        <time>2013-06-07T05:32:53Z</time>
      </trkpt>
      <trkpt lat="42.70128" lon="-0.04458">
        <ele>2386</ele>
        <time>2013-06-07T05:33:01Z</time>
      </trkpt>
      <trkpt lat="42.70127" lon="-0.04446">
        <ele>2386</ele>
        <time>2013-06-07T05:33:10Z</time>
      </trkpt>
      <trkpt lat="42.70125" lon="-0.0444">
        <ele>2386</ele>
        <time>2013-06-07T05:33:15Z</time>
      </trkpt>
      <trkpt lat="42.70122" lon="-0.04426">
        <ele>2386</ele>
        <time>2013-06-07T05:33:24Z</time>
      </trkpt>
      <trkpt lat="42.70119" lon="-0.04414">
        <ele>2386</ele>
        <time>2013-06-07T05:33:32Z</time>
      </trkpt>
      <trkpt lat="42.70116" lon="-0.044">
        <ele>2385</ele>
        <time>2013-06-07T05:33:42Z</time>
      </trkpt>
      <trkpt lat="42.70113" lon="-0.04389">
        <ele>2385</ele>
        <time>2013-06-07T05:33:51Z</time>
      </trkpt>
      <trkpt lat="42.70109" lon="-0.04377">
        <ele>2385</ele>
        <time>2013-06-07T05:33:59Z</time>
      </trkpt>
      <trkpt lat="42.70106" lon="-0.04366">
        <ele>2386</ele>
        <time>2013-06-07T05:34:07Z</time>
      </trkpt>
      <trkpt lat="42.70105" lon="-0.04362">
        <ele>2386</ele>
        <time>2013-06-07T05:34:10Z</time>
      </trkpt>
      <trkpt lat="42.70102" lon="-0.04347">
        <ele>2386</ele>
        <time>2013-06-07T05:34:20Z</time>
      </trkpt>
      <trkpt lat="42.70102" lon="-0.04339">
        <ele>2386</ele>
        <time>2013-06-07T05:34:25Z</time>
      </trkpt>
      <trkpt lat="42.70099" lon="-0.04327">
        <ele>2385</ele>
        <time>2013-06-07T05:34:34Z</time>
      </trkpt>
      <trkpt lat="42.70095" lon="-0.04312">
        <ele>2385</ele>
        <time>2013-06-07T05:34:45Z</time>
      </trkpt>
      <trkpt lat="42.70091" lon="-0.04301">
        <ele>2385</ele>
        <time>2013-06-07T05:34:54Z</time>
      </trkpt>
      <trkpt lat="42.70087" lon="-0.04289">
        <ele>2385</ele>
        <time>2013-06-07T05:35:03Z</time>
      </trkpt>
      <trkpt lat="42.70085" lon="-0.04281">
        <ele>2385</ele>
        <time>2013-06-07T05:35:08Z</time>
      </trkpt>
      <trkpt lat="42.70081" lon="-0.04271">
        <ele>2385</ele>
        <time>2013-06-07T05:35:17Z</time>
      </trkpt>
      <trkpt lat="42.70076" lon="-0.04265">
        <ele>2386</ele>
        <time>2013-06-07T05:35:25Z</time>
      </trkpt>
      <trkpt lat="42.70073" lon="-0.04253">
        <ele>2386</ele>
        <time>2013-06-07T05:35:34Z</time>
      </trkpt>
      <trkpt lat="42.70071" lon="-0.04243">
        <ele>2387</ele>
        <time>2013-06-07T05:35:42Z</time>
      </trkpt>
      <trkpt lat="42.70068" lon="-0.04234">
        <ele>2388</ele>
        <time>2013-06-07T05:35:50Z</time>
      </trkpt>
      <trkpt lat="42.70066" lon="-0.04225">
        <ele>2388</ele>
        <time>2013-06-07T05:35:59Z</time>
      </trkpt>
      <trkpt lat="42.70063" lon="-0.04215">
        <ele>2389</ele>
        <time>2013-06-07T05:36:08Z</time>
      </trkpt>
      <trkpt lat="42.70063" lon="-0.0421">
        <ele>2390</ele>
        <time>2013-06-07T05:36:12Z</time>
      </trkpt>
      <trkpt lat="42.70061" lon="-0.04199">
        <ele>2390</ele>
        <time>2013-06-07T05:36:22Z</time>
      </trkpt>
      <trkpt lat="42.70059" lon="-0.04189">
        <ele>2390</ele>
        <time>2013-06-07T05:36:33Z</time>
      </trkpt>
      <trkpt lat="42.70058" lon="-0.04178">
        <ele>2390</ele>
        <time>2013-06-07T05:36:41Z</time>
      </trkpt>
      <trkpt lat="42.70058" lon="-0.04169">
        <ele>2389</ele>
        <time>2013-06-07T05:36:50Z</time>
      </trkpt>
      <trkpt lat="42.70059" lon="-0.04159">
        <ele>2390</ele>
        <time>2013-06-07T05:36:58Z</time>
      </trkpt>
      <trkpt lat="42.7006" lon="-0.0415">
        <ele>2390</ele>
        <time>2013-06-07T05:37:06Z</time>
      </trkpt>
      <trkpt lat="42.70061" lon="-0.04139">
        <ele>2391</ele>
        <time>2013-06-07T05:37:15Z</time>
      </trkpt>
      <trkpt lat="42.70063" lon="-0.04129">
        <ele>2392</ele>
        <time>2013-06-07T05:37:26Z</time>
      </trkpt>
      <trkpt lat="42.70064" lon="-0.04118">
        <ele>2392</ele>
        <time>2013-06-07T05:37:37Z</time>
      </trkpt>
      <trkpt lat="42.70065" lon="-0.04106">
        <ele>2393</ele>
        <time>2013-06-07T05:37:49Z</time>
      </trkpt>
      <trkpt lat="42.70066" lon="-0.04099">
        <ele>2392</ele>
        <time>2013-06-07T05:37:56Z</time>
      </trkpt>
      <trkpt lat="42.70067" lon="-0.04092">
        <ele>2393</ele>
        <time>2013-06-07T05:38:03Z</time>
      </trkpt>
      <trkpt lat="42.70067" lon="-0.04087">
        <ele>2392</ele>
        <time>2013-06-07T05:38:09Z</time>
      </trkpt>
      <trkpt lat="42.70067" lon="-0.04082">
        <ele>2392</ele>
        <time>2013-06-07T05:38:15Z</time>
      </trkpt>
      <trkpt lat="42.70066" lon="-0.04076">
        <ele>2392</ele>
        <time>2013-06-07T05:38:22Z</time>
      </trkpt>
      <trkpt lat="42.70065" lon="-0.04067">
        <ele>2394</ele>
        <time>2013-06-07T05:38:32Z</time>
      </trkpt>
      <trkpt lat="42.70064" lon="-0.04056">
        <ele>2396</ele>
        <time>2013-06-07T05:38:43Z</time>
      </trkpt>
      <trkpt lat="42.70064" lon="-0.04044">
        <ele>2395</ele>
        <time>2013-06-07T05:38:55Z</time>
      </trkpt>
      <trkpt lat="42.70063" lon="-0.04036">
        <ele>2395</ele>
        <time>2013-06-07T05:39:03Z</time>
      </trkpt>
      <trkpt lat="42.70062" lon="-0.0403">
        <ele>2395</ele>
        <time>2013-06-07T05:39:09Z</time>
      </trkpt>
      <trkpt lat="42.70062" lon="-0.04024">
        <ele>2396</ele>
        <time>2013-06-07T05:39:19Z</time>
      </trkpt>
      <trkpt lat="42.7006" lon="-0.0402">
        <ele>2395</ele>
        <time>2013-06-07T05:39:33Z</time>
      </trkpt>
      <trkpt lat="42.70058" lon="-0.04011">
        <ele>2396</ele>
        <time>2013-06-07T05:39:41Z</time>
      </trkpt>
      <trkpt lat="42.70057" lon="-0.04003">
        <ele>2397</ele>
        <time>2013-06-07T05:39:49Z</time>
      </trkpt>
      <trkpt lat="42.70055" lon="-0.03995">
        <ele>2397</ele>
        <time>2013-06-07T05:39:58Z</time>
      </trkpt>
      <trkpt lat="42.70054" lon="-0.03985">
        <ele>2397</ele>
        <time>2013-06-07T05:40:06Z</time>
      </trkpt>
      <trkpt lat="42.70052" lon="-0.03978">
        <ele>2397</ele>
        <time>2013-06-07T05:40:14Z</time>
      </trkpt>
      <trkpt lat="42.70052" lon="-0.03972">
        <ele>2397</ele>
        <time>2013-06-07T05:40:21Z</time>
      </trkpt>
      <trkpt lat="42.70051" lon="-0.03966">
        <ele>2396</ele>
        <time>2013-06-07T05:40:27Z</time>
      </trkpt>
      <trkpt lat="42.7005" lon="-0.03956">
        <ele>2396</ele>
        <time>2013-06-07T05:40:36Z</time>
      </trkpt>
      <trkpt lat="42.70049" lon="-0.03947">
        <ele>2396</ele>
        <time>2013-06-07T05:40:43Z</time>
      </trkpt>
      <trkpt lat="42.70047" lon="-0.03934">
        <ele>2397</ele>
        <time>2013-06-07T05:40:54Z</time>
      </trkpt>
      <trkpt lat="42.70047" lon="-0.03926">
        <ele>2397</ele>
        <time>2013-06-07T05:41:01Z</time>
      </trkpt>
      <trkpt lat="42.70047" lon="-0.03915">
        <ele>2396</ele>
        <time>2013-06-07T05:41:11Z</time>
      </trkpt>
      <trkpt lat="42.70047" lon="-0.0391">
        <ele>2397</ele>
        <time>2013-06-07T05:41:15Z</time>
      </trkpt>
      <trkpt lat="42.70048" lon="-0.03904">
        <ele>2396</ele>
        <time>2013-06-07T05:41:22Z</time>
      </trkpt>
      <trkpt lat="42.70047" lon="-0.03897">
        <ele>2398</ele>
        <time>2013-06-07T05:41:31Z</time>
      </trkpt>
      <trkpt lat="42.70047" lon="-0.03892">
        <ele>2399</ele>
        <time>2013-06-07T05:41:40Z</time>
      </trkpt>
      <trkpt lat="42.70047" lon="-0.03885">
        <ele>2400</ele>
        <time>2013-06-07T05:41:46Z</time>
      </trkpt>
      <trkpt lat="42.70048" lon="-0.03878">
        <ele>2401</ele>
        <time>2013-06-07T05:41:53Z</time>
      </trkpt>
      <trkpt lat="42.70047" lon="-0.03872">
        <ele>2401</ele>
        <time>2013-06-07T05:42:01Z</time>
      </trkpt>
      <trkpt lat="42.70046" lon="-0.03872">
        <ele>2402</ele>
        <time>2013-06-07T05:42:08Z</time>
      </trkpt>
      <trkpt lat="42.70044" lon="-0.0387">
        <ele>2403</ele>
        <time>2013-06-07T05:42:25Z</time>
      </trkpt>
      <trkpt lat="42.70048" lon="-0.0387">
        <ele>2402</ele>
        <time>2013-06-07T05:42:36Z</time>
      </trkpt>
      <trkpt lat="42.70049" lon="-0.03864">
        <ele>2403</ele>
        <time>2013-06-07T05:42:44Z</time>
      </trkpt>
      <trkpt lat="42.70048" lon="-0.03856">
        <ele>2403</ele>
        <time>2013-06-07T05:42:52Z</time>
      </trkpt>
      <trkpt lat="42.70048" lon="-0.03851">
        <ele>2407</ele>
        <time>2013-06-07T05:43:02Z</time>
      </trkpt>
      <trkpt lat="42.70047" lon="-0.03841">
        <ele>2409</ele>
        <time>2013-06-07T05:43:13Z</time>
      </trkpt>
      <trkpt lat="42.70047" lon="-0.03835">
        <ele>2410</ele>
        <time>2013-06-07T05:43:21Z</time>
      </trkpt>
      <trkpt lat="42.70046" lon="-0.0383">
        <ele>2411</ele>
        <time>2013-06-07T05:43:30Z</time>
      </trkpt>
      <trkpt lat="42.70045" lon="-0.03824">
        <ele>2413</ele>
        <time>2013-06-07T05:43:38Z</time>
      </trkpt>
      <trkpt lat="42.70042" lon="-0.03817">
        <ele>2414</ele>
        <time>2013-06-07T05:43:47Z</time>
      </trkpt>
      <trkpt lat="42.70039" lon="-0.03812">
        <ele>2416</ele>
        <time>2013-06-07T05:43:58Z</time>
      </trkpt>
      <trkpt lat="42.70036" lon="-0.03811">
        <ele>2417</ele>
        <time>2013-06-07T05:44:04Z</time>
      </trkpt>
      <trkpt lat="42.70032" lon="-0.03809">
        <ele>2419</ele>
        <time>2013-06-07T05:44:12Z</time>
      </trkpt>
      <trkpt lat="42.7003" lon="-0.03809">
        <ele>2419</ele>
        <time>2013-06-07T05:44:21Z</time>
      </trkpt>
      <trkpt lat="42.70025" lon="-0.0381">
        <ele>2420</ele>
        <time>2013-06-07T05:44:30Z</time>
      </trkpt>
      <trkpt lat="42.70021" lon="-0.03811">
        <ele>2421</ele>
        <time>2013-06-07T05:44:41Z</time>
      </trkpt>
      <trkpt lat="42.70016" lon="-0.03806">
        <ele>2423</ele>
        <time>2013-06-07T05:44:51Z</time>
      </trkpt>
      <trkpt lat="42.70012" lon="-0.03801">
        <ele>2425</ele>
        <time>2013-06-07T05:45:01Z</time>
      </trkpt>
      <trkpt lat="42.70005" lon="-0.03796">
        <ele>2426</ele>
        <time>2013-06-07T05:45:12Z</time>
      </trkpt>
      <trkpt lat="42.7" lon="-0.03792">
        <ele>2428</ele>
        <time>2013-06-07T05:45:22Z</time>
      </trkpt>
      <trkpt lat="42.69996" lon="-0.03788">
        <ele>2429</ele>
        <time>2013-06-07T05:45:32Z</time>
      </trkpt>
      <trkpt lat="42.69991" lon="-0.03788">
        <ele>2431</ele>
        <time>2013-06-07T05:45:43Z</time>
      </trkpt>
      <trkpt lat="42.69988" lon="-0.03785">
        <ele>2432</ele>
        <time>2013-06-07T05:45:50Z</time>
      </trkpt>
      <trkpt lat="42.69987" lon="-0.03784">
        <ele>2432</ele>
        <time>2013-06-07T05:45:52Z</time>
      </trkpt>
      <trkpt lat="42.69981" lon="-0.03778">
        <ele>2434</ele>
        <time>2013-06-07T05:46:01Z</time>
      </trkpt>
      <trkpt lat="42.69977" lon="-0.03774">
        <ele>2435</ele>
        <time>2013-06-07T05:46:08Z</time>
      </trkpt>
      <trkpt lat="42.69972" lon="-0.03774">
        <ele>2438</ele>
        <time>2013-06-07T05:46:18Z</time>
      </trkpt>
      <trkpt lat="42.69969" lon="-0.03771">
        <ele>2438</ele>
        <time>2013-06-07T05:46:28Z</time>
      </trkpt>
      <trkpt lat="42.69966" lon="-0.03766">
        <ele>2439</ele>
        <time>2013-06-07T05:46:37Z</time>
      </trkpt>
      <trkpt lat="42.69962" lon="-0.03761">
        <ele>2440</ele>
        <time>2013-06-07T05:46:45Z</time>
      </trkpt>
      <trkpt lat="42.69959" lon="-0.03756">
        <ele>2442</ele>
        <time>2013-06-07T05:46:56Z</time>
      </trkpt>
      <trkpt lat="42.69955" lon="-0.03749">
        <ele>2444</ele>
        <time>2013-06-07T05:47:07Z</time>
      </trkpt>
      <trkpt lat="42.69952" lon="-0.03744">
        <ele>2446</ele>
        <time>2013-06-07T05:47:15Z</time>
      </trkpt>
      <trkpt lat="42.6995" lon="-0.03737">
        <ele>2447</ele>
        <time>2013-06-07T05:47:23Z</time>
      </trkpt>
      <trkpt lat="42.69947" lon="-0.03731">
        <ele>2450</ele>
        <time>2013-06-07T05:47:32Z</time>
      </trkpt>
      <trkpt lat="42.69945" lon="-0.03726">
        <ele>2451</ele>
        <time>2013-06-07T05:47:43Z</time>
      </trkpt>
      <trkpt lat="42.69945" lon="-0.0372">
        <ele>2454</ele>
        <time>2013-06-07T05:47:52Z</time>
      </trkpt>
      <trkpt lat="42.69942" lon="-0.03714">
        <ele>2456</ele>
        <time>2013-06-07T05:48:02Z</time>
      </trkpt>
      <trkpt lat="42.69939" lon="-0.03709">
        <ele>2457</ele>
        <time>2013-06-07T05:48:12Z</time>
      </trkpt>
      <trkpt lat="42.69935" lon="-0.037">
        <ele>2459</ele>
        <time>2013-06-07T05:48:22Z</time>
      </trkpt>
      <trkpt lat="42.69933" lon="-0.03693">
        <ele>2460</ele>
        <time>2013-06-07T05:48:30Z</time>
      </trkpt>
      <trkpt lat="42.69932" lon="-0.03687">
        <ele>2462</ele>
        <time>2013-06-07T05:48:37Z</time>
      </trkpt>
      <trkpt lat="42.69931" lon="-0.03682">
        <ele>2464</ele>
        <time>2013-06-07T05:48:47Z</time>
      </trkpt>
      <trkpt lat="42.6993" lon="-0.03674">
        <ele>2466</ele>
        <time>2013-06-07T05:48:58Z</time>
      </trkpt>
      <trkpt lat="42.6993" lon="-0.03666">
        <ele>2467</ele>
        <time>2013-06-07T05:49:06Z</time>
      </trkpt>
      <trkpt lat="42.69932" lon="-0.03659">
        <ele>2469</ele>
        <time>2013-06-07T05:49:16Z</time>
      </trkpt>
      <trkpt lat="42.69932" lon="-0.03647">
        <ele>2471</ele>
        <time>2013-06-07T05:49:24Z</time>
      </trkpt>
      <trkpt lat="42.69934" lon="-0.03645">
        <ele>2472</ele>
        <time>2013-06-07T05:49:32Z</time>
      </trkpt>
      <trkpt lat="42.69933" lon="-0.03647">
        <ele>2472</ele>
        <time>2013-06-07T05:49:40Z</time>
      </trkpt>
      <trkpt lat="42.69933" lon="-0.0365">
        <ele>2473</ele>
        <time>2013-06-07T05:49:49Z</time>
      </trkpt>
      <trkpt lat="42.69934" lon="-0.0365">
        <ele>2472</ele>
        <time>2013-06-07T05:50:03Z</time>
      </trkpt>
      <trkpt lat="42.69933" lon="-0.03649">
        <ele>2472</ele>
        <time>2013-06-07T05:50:15Z</time>
      </trkpt>
      <trkpt lat="42.69933" lon="-0.03652">
        <ele>2472</ele>
        <time>2013-06-07T05:50:25Z</time>
      </trkpt>
      <trkpt lat="42.69934" lon="-0.03653">
        <ele>2473</ele>
        <time>2013-06-07T05:50:30Z</time>
      </trkpt>
      <trkpt lat="42.69932" lon="-0.03655">
        <ele>2474</ele>
        <time>2013-06-07T05:50:36Z</time>
      </trkpt>
      <trkpt lat="42.69931" lon="-0.03654">
        <ele>2472</ele>
        <time>2013-06-07T05:50:38Z</time>
      </trkpt>
      <trkpt lat="42.69929" lon="-0.03653">
        <ele>2472</ele>
        <time>2013-06-07T05:50:47Z</time>
      </trkpt>
      <trkpt lat="42.69931" lon="-0.03652">
        <ele>2472</ele>
        <time>2013-06-07T05:50:54Z</time>
      </trkpt>
      <trkpt lat="42.69932" lon="-0.03651">
        <ele>2473</ele>
        <time>2013-06-07T05:51:06Z</time>
      </trkpt>
      <trkpt lat="42.69934" lon="-0.03648">
        <ele>2472</ele>
        <time>2013-06-07T05:51:20Z</time>
      </trkpt>
      <trkpt lat="42.69934" lon="-0.03646">
        <ele>2474</ele>
        <time>2013-06-07T05:51:37Z</time>
      </trkpt>
      <trkpt lat="42.69932" lon="-0.03647">
        <ele>2474</ele>
        <time>2013-06-07T05:51:52Z</time>
      </trkpt>
      <trkpt lat="42.69932" lon="-0.03645">
        <ele>2473</ele>
        <time>2013-06-07T05:52:07Z</time>
      </trkpt>
      <trkpt lat="42.69929" lon="-0.03645">
        <ele>2474</ele>
        <time>2013-06-07T05:52:21Z</time>
      </trkpt>
      <trkpt lat="42.69929" lon="-0.03644">
        <ele>2474</ele>
        <time>2013-06-07T05:52:34Z</time>
      </trkpt>
      <trkpt lat="42.69938" lon="-0.03658">
        <ele>2473</ele>
        <time>2013-06-07T05:52:44Z</time>
      </trkpt>
      <trkpt lat="42.6994" lon="-0.03655">
        <ele>2473</ele>
        <time>2013-06-07T05:53:00Z</time>
      </trkpt>
      <trkpt lat="42.6994" lon="-0.03652">
        <ele>2474</ele>
        <time>2013-06-07T05:53:10Z</time>
      </trkpt>
      <trkpt lat="42.69936" lon="-0.03652">
        <ele>2474</ele>
        <time>2013-06-07T05:53:22Z</time>
      </trkpt>
      <trkpt lat="42.69934" lon="-0.03648">
        <ele>2475</ele>
        <time>2013-06-07T05:53:36Z</time>
      </trkpt>
      <trkpt lat="42.69934" lon="-0.03654">
        <ele>2475</ele>
        <time>2013-06-07T05:53:51Z</time>
      </trkpt>
      <trkpt lat="42.69933" lon="-0.03655">
        <ele>2475</ele>
        <time>2013-06-07T05:54:04Z</time>
      </trkpt>
      <trkpt lat="42.69932" lon="-0.03653">
        <ele>2475</ele>
        <time>2013-06-07T05:54:18Z</time>
      </trkpt>
      <trkpt lat="42.69932" lon="-0.03653">
        <ele>2476</ele>
        <time>2013-06-07T05:54:30Z</time>
      </trkpt>
      <trkpt lat="42.69931" lon="-0.03651">
        <ele>2475</ele>
        <time>2013-06-07T05:54:41Z</time>
      </trkpt>
      <trkpt lat="42.69931" lon="-0.03654">
        <ele>2475</ele>
        <time>2013-06-07T05:54:58Z</time>
      </trkpt>
      <trkpt lat="42.69932" lon="-0.03652">
        <ele>2475</ele>
        <time>2013-06-07T05:55:10Z</time>
      </trkpt>
      <trkpt lat="42.69931" lon="-0.03654">
        <ele>2475</ele>
        <time>2013-06-07T05:55:25Z</time>
      </trkpt>
      <trkpt lat="42.6993" lon="-0.03655">
        <ele>2475</ele>
        <time>2013-06-07T05:55:35Z</time>
      </trkpt>
      <trkpt lat="42.6993" lon="-0.03654">
        <ele>2475</ele>
        <time>2013-06-07T05:55:47Z</time>
      </trkpt>
      <trkpt lat="42.6993" lon="-0.03651">
        <ele>2475</ele>
        <time>2013-06-07T05:55:57Z</time>
      </trkpt>
      <trkpt lat="42.69928" lon="-0.03651">
        <ele>2475</ele>
        <time>2013-06-07T05:56:05Z</time>
      </trkpt>
      <trkpt lat="42.69923" lon="-0.03649">
        <ele>2476</ele>
        <time>2013-06-07T05:56:14Z</time>
      </trkpt>
      <trkpt lat="42.6992" lon="-0.03649">
        <ele>2478</ele>
        <time>2013-06-07T05:56:21Z</time>
      </trkpt>
      <trkpt lat="42.69915" lon="-0.0365">
        <ele>2479</ele>
        <time>2013-06-07T05:56:29Z</time>
      </trkpt>
      <trkpt lat="42.69911" lon="-0.0365">
        <ele>2480</ele>
        <time>2013-06-07T05:56:35Z</time>
      </trkpt>
      <trkpt lat="42.69908" lon="-0.03655">
        <ele>2482</ele>
        <time>2013-06-07T05:56:43Z</time>
      </trkpt>
      <trkpt lat="42.69906" lon="-0.03659">
        <ele>2484</ele>
        <time>2013-06-07T05:56:50Z</time>
      </trkpt>
      <trkpt lat="42.69902" lon="-0.03663">
        <ele>2485</ele>
        <time>2013-06-07T05:56:59Z</time>
      </trkpt>
      <trkpt lat="42.69902" lon="-0.03659">
        <ele>2485</ele>
        <time>2013-06-07T05:57:07Z</time>
      </trkpt>
      <trkpt lat="42.69906" lon="-0.03666">
        <ele>2485</ele>
        <time>2013-06-07T05:57:14Z</time>
      </trkpt>
      <trkpt lat="42.69904" lon="-0.03662">
        <ele>2485</ele>
        <time>2013-06-07T05:57:23Z</time>
      </trkpt>
      <trkpt lat="42.69903" lon="-0.03654">
        <ele>2488</ele>
        <time>2013-06-07T05:57:34Z</time>
      </trkpt>
      <trkpt lat="42.69902" lon="-0.03647">
        <ele>2490</ele>
        <time>2013-06-07T05:57:44Z</time>
      </trkpt>
      <trkpt lat="42.69902" lon="-0.0364">
        <ele>2491</ele>
        <time>2013-06-07T05:57:51Z</time>
      </trkpt>
      <trkpt lat="42.69903" lon="-0.03637">
        <ele>2492</ele>
        <time>2013-06-07T05:57:59Z</time>
      </trkpt>
      <trkpt lat="42.69905" lon="-0.03628">
        <ele>2493</ele>
        <time>2013-06-07T05:58:08Z</time>
      </trkpt>
      <trkpt lat="42.69907" lon="-0.03624">
        <ele>2496</ele>
        <time>2013-06-07T05:58:16Z</time>
      </trkpt>
      <trkpt lat="42.6991" lon="-0.03613">
        <ele>2498</ele>
        <time>2013-06-07T05:58:26Z</time>
      </trkpt>
      <trkpt lat="42.69911" lon="-0.03608">
        <ele>2499</ele>
        <time>2013-06-07T05:58:35Z</time>
      </trkpt>
      <trkpt lat="42.69911" lon="-0.03608">
        <ele>2499</ele>
        <time>2013-06-07T05:58:47Z</time>
      </trkpt>
      <trkpt lat="42.69907" lon="-0.03611">
        <ele>2499</ele>
        <time>2013-06-07T05:58:52Z</time>
      </trkpt>
      <trkpt lat="42.69903" lon="-0.03611">
        <ele>2500</ele>
        <time>2013-06-07T05:59:01Z</time>
      </trkpt>
      <trkpt lat="42.69901" lon="-0.03611">
        <ele>2501</ele>
        <time>2013-06-07T05:59:05Z</time>
      </trkpt>
      <trkpt lat="42.69895" lon="-0.03608">
        <ele>2503</ele>
        <time>2013-06-07T05:59:13Z</time>
      </trkpt>
      <trkpt lat="42.69892" lon="-0.03608">
        <ele>2504</ele>
        <time>2013-06-07T05:59:18Z</time>
      </trkpt>
      <trkpt lat="42.69887" lon="-0.03609">
        <ele>2506</ele>
        <time>2013-06-07T05:59:28Z</time>
      </trkpt>
      <trkpt lat="42.69884" lon="-0.03611">
        <ele>2508</ele>
        <time>2013-06-07T05:59:35Z</time>
      </trkpt>
      <trkpt lat="42.6988" lon="-0.03616">
        <ele>2509</ele>
        <time>2013-06-07T05:59:44Z</time>
      </trkpt>
      <trkpt lat="42.69875" lon="-0.03619">
        <ele>2511</ele>
        <time>2013-06-07T05:59:52Z</time>
      </trkpt>
      <trkpt lat="42.69872" lon="-0.03623">
        <ele>2512</ele>
        <time>2013-06-07T06:00:00Z</time>
      </trkpt>
      <trkpt lat="42.69868" lon="-0.03625">
        <ele>2514</ele>
        <time>2013-06-07T06:00:11Z</time>
      </trkpt>
      <trkpt lat="42.69863" lon="-0.0363">
        <ele>2515</ele>
        <time>2013-06-07T06:00:21Z</time>
      </trkpt>
      <trkpt lat="42.6986" lon="-0.03631">
        <ele>2517</ele>
        <time>2013-06-07T06:00:27Z</time>
      </trkpt>
      <trkpt lat="42.69857" lon="-0.03633">
        <ele>2519</ele>
        <time>2013-06-07T06:00:35Z</time>
      </trkpt>
      <trkpt lat="42.69854" lon="-0.03631">
        <ele>2520</ele>
        <time>2013-06-07T06:00:43Z</time>
      </trkpt>
      <trkpt lat="42.69848" lon="-0.03633">
        <ele>2522</ele>
        <time>2013-06-07T06:00:52Z</time>
      </trkpt>
      <trkpt lat="42.69846" lon="-0.03637">
        <ele>2523</ele>
        <time>2013-06-07T06:00:59Z</time>
      </trkpt>
      <trkpt lat="42.69845" lon="-0.03637">
        <ele>2523</ele>
        <time>2013-06-07T06:01:07Z</time>
      </trkpt>
      <trkpt lat="42.69846" lon="-0.03637">
        <ele>2524</ele>
        <time>2013-06-07T06:01:22Z</time>
      </trkpt>
      <trkpt lat="42.69844" lon="-0.03629">
        <ele>2525</ele>
        <time>2013-06-07T06:01:31Z</time>
      </trkpt>
      <trkpt lat="42.69843" lon="-0.03622">
        <ele>2527</ele>
        <time>2013-06-07T06:01:42Z</time>
      </trkpt>
      <trkpt lat="42.69839" lon="-0.03617">
        <ele>2527</ele>
        <time>2013-06-07T06:01:50Z</time>
      </trkpt>
      <trkpt lat="42.69834" lon="-0.03618">
        <ele>2529</ele>
        <time>2013-06-07T06:01:57Z</time>
      </trkpt>
      <trkpt lat="42.69829" lon="-0.03618">
        <ele>2531</ele>
        <time>2013-06-07T06:02:05Z</time>
      </trkpt>
      <trkpt lat="42.69826" lon="-0.03618">
        <ele>2532</ele>
        <time>2013-06-07T06:02:13Z</time>
      </trkpt>
      <trkpt lat="42.69821" lon="-0.03617">
        <ele>2534</ele>
        <time>2013-06-07T06:02:23Z</time>
      </trkpt>
      <trkpt lat="42.69816" lon="-0.03614">
        <ele>2536</ele>
        <time>2013-06-07T06:02:32Z</time>
      </trkpt>
      <trkpt lat="42.69809" lon="-0.0361">
        <ele>2539</ele>
        <time>2013-06-07T06:02:45Z</time>
      </trkpt>
      <trkpt lat="42.69802" lon="-0.03604">
        <ele>2540</ele>
        <time>2013-06-07T06:02:57Z</time>
      </trkpt>
      <trkpt lat="42.69795" lon="-0.03599">
        <ele>2542</ele>
        <time>2013-06-07T06:03:07Z</time>
      </trkpt>
      <trkpt lat="42.6979" lon="-0.03597">
        <ele>2543</ele>
        <time>2013-06-07T06:03:14Z</time>
      </trkpt>
      <trkpt lat="42.69787" lon="-0.03594">
        <ele>2545</ele>
        <time>2013-06-07T06:03:21Z</time>
      </trkpt>
      <trkpt lat="42.69783" lon="-0.03593">
        <ele>2546</ele>
        <time>2013-06-07T06:03:31Z</time>
      </trkpt>
      <trkpt lat="42.69779" lon="-0.03592">
        <ele>2548</ele>
        <time>2013-06-07T06:03:40Z</time>
      </trkpt>
      <trkpt lat="42.69774" lon="-0.0359">
        <ele>2550</ele>
        <time>2013-06-07T06:03:49Z</time>
      </trkpt>
      <trkpt lat="42.69772" lon="-0.03587">
        <ele>2551</ele>
        <time>2013-06-07T06:03:58Z</time>
      </trkpt>
      <trkpt lat="42.69769" lon="-0.03584">
        <ele>2553</ele>
        <time>2013-06-07T06:04:07Z</time>
      </trkpt>
      <trkpt lat="42.69766" lon="-0.03583">
        <ele>2555</ele>
        <time>2013-06-07T06:04:16Z</time>
      </trkpt>
      <trkpt lat="42.69763" lon="-0.03581">
        <ele>2556</ele>
        <time>2013-06-07T06:04:25Z</time>
      </trkpt>
      <trkpt lat="42.69759" lon="-0.03578">
        <ele>2558</ele>
        <time>2013-06-07T06:04:34Z</time>
      </trkpt>
      <trkpt lat="42.69753" lon="-0.03573">
        <ele>2559</ele>
        <time>2013-06-07T06:04:41Z</time>
      </trkpt>
      <trkpt lat="42.6975" lon="-0.0357">
        <ele>2561</ele>
        <time>2013-06-07T06:04:47Z</time>
      </trkpt>
      <trkpt lat="42.69746" lon="-0.03565">
        <ele>2562</ele>
        <time>2013-06-07T06:04:57Z</time>
      </trkpt>
      <trkpt lat="42.69742" lon="-0.03561">
        <ele>2563</ele>
        <time>2013-06-07T06:05:05Z</time>
      </trkpt>
      <trkpt lat="42.69737" lon="-0.03556">
        <ele>2564</ele>
        <time>2013-06-07T06:05:13Z</time>
      </trkpt>
      <trkpt lat="42.69733" lon="-0.03552">
        <ele>2566</ele>
        <time>2013-06-07T06:05:22Z</time>
      </trkpt>
      <trkpt lat="42.69727" lon="-0.03551">
        <ele>2567</ele>
        <time>2013-06-07T06:05:29Z</time>
      </trkpt>
      <trkpt lat="42.6973" lon="-0.03558">
        <ele>2568</ele>
        <time>2013-06-07T06:05:40Z</time>
      </trkpt>
      <trkpt lat="42.6973" lon="-0.03552">
        <ele>2568</ele>
        <time>2013-06-07T06:05:53Z</time>
      </trkpt>
      <trkpt lat="42.69732" lon="-0.03547">
        <ele>2568</ele>
        <time>2013-06-07T06:06:01Z</time>
      </trkpt>
      <trkpt lat="42.69732" lon="-0.03553">
        <ele>2568</ele>
        <time>2013-06-07T06:06:09Z</time>
      </trkpt>
      <trkpt lat="42.69728" lon="-0.03552">
        <ele>2568</ele>
        <time>2013-06-07T06:06:21Z</time>
      </trkpt>
      <trkpt lat="42.69728" lon="-0.03553">
        <ele>2568</ele>
        <time>2013-06-07T06:06:29Z</time>
      </trkpt>
      <trkpt lat="42.69726" lon="-0.0355">
        <ele>2568</ele>
        <time>2013-06-07T06:06:40Z</time>
      </trkpt>
      <trkpt lat="42.69728" lon="-0.03553">
        <ele>2568</ele>
        <time>2013-06-07T06:06:51Z</time>
      </trkpt>
      <trkpt lat="42.69729" lon="-0.03555">
        <ele>2568</ele>
        <time>2013-06-07T06:07:02Z</time>
      </trkpt>
      <trkpt lat="42.69731" lon="-0.0355">
        <ele>2567</ele>
        <time>2013-06-07T06:07:13Z</time>
      </trkpt>
      <trkpt lat="42.69728" lon="-0.03548">
        <ele>2569</ele>
        <time>2013-06-07T06:07:20Z</time>
      </trkpt>
      <trkpt lat="42.69726" lon="-0.03546">
        <ele>2571</ele>
        <time>2013-06-07T06:07:28Z</time>
      </trkpt>
      <trkpt lat="42.69726" lon="-0.0354">
        <ele>2572</ele>
        <time>2013-06-07T06:07:37Z</time>
      </trkpt>
      <trkpt lat="42.69731" lon="-0.03529">
        <ele>2574</ele>
        <time>2013-06-07T06:07:47Z</time>
      </trkpt>
      <trkpt lat="42.69736" lon="-0.03523">
        <ele>2576</ele>
        <time>2013-06-07T06:07:55Z</time>
      </trkpt>
      <trkpt lat="42.69741" lon="-0.03519">
        <ele>2577</ele>
        <time>2013-06-07T06:08:02Z</time>
      </trkpt>
      <trkpt lat="42.69745" lon="-0.03518">
        <ele>2579</ele>
        <time>2013-06-07T06:08:11Z</time>
      </trkpt>
      <trkpt lat="42.6975" lon="-0.03515">
        <ele>2580</ele>
        <time>2013-06-07T06:08:18Z</time>
      </trkpt>
      <trkpt lat="42.69754" lon="-0.03511">
        <ele>2582</ele>
        <time>2013-06-07T06:08:25Z</time>
      </trkpt>
      <trkpt lat="42.69757" lon="-0.03509">
        <ele>2584</ele>
        <time>2013-06-07T06:08:32Z</time>
      </trkpt>
      <trkpt lat="42.69755" lon="-0.03505">
        <ele>2585</ele>
        <time>2013-06-07T06:08:39Z</time>
      </trkpt>
      <trkpt lat="42.69749" lon="-0.03498">
        <ele>2586</ele>
        <time>2013-06-07T06:08:48Z</time>
      </trkpt>
      <trkpt lat="42.69744" lon="-0.03492">
        <ele>2587</ele>
        <time>2013-06-07T06:08:58Z</time>
      </trkpt>
      <trkpt lat="42.6974" lon="-0.03489">
        <ele>2589</ele>
        <time>2013-06-07T06:09:02Z</time>
      </trkpt>
      <trkpt lat="42.69737" lon="-0.03483">
        <ele>2590</ele>
        <time>2013-06-07T06:09:12Z</time>
      </trkpt>
      <trkpt lat="42.69734" lon="-0.03482">
        <ele>2590</ele>
        <time>2013-06-07T06:09:19Z</time>
      </trkpt>
      <trkpt lat="42.69733" lon="-0.03482">
        <ele>2591</ele>
        <time>2013-06-07T06:09:26Z</time>
      </trkpt>
      <trkpt lat="42.69732" lon="-0.03482">
        <ele>2592</ele>
        <time>2013-06-07T06:09:32Z</time>
      </trkpt>
      <trkpt lat="42.69735" lon="-0.03483">
        <ele>2592</ele>
        <time>2013-06-07T06:09:41Z</time>
      </trkpt>
      <trkpt lat="42.69736" lon="-0.03486">
        <ele>2592</ele>
        <time>2013-06-07T06:09:52Z</time>
      </trkpt>
      <trkpt lat="42.69737" lon="-0.0348">
        <ele>2592</ele>
        <time>2013-06-07T06:10:08Z</time>
      </trkpt>
      <trkpt lat="42.69737" lon="-0.03482">
        <ele>2592</ele>
        <time>2013-06-07T06:10:28Z</time>
      </trkpt>
      <trkpt lat="42.69737" lon="-0.03481">
        <ele>2593</ele>
        <time>2013-06-07T06:10:44Z</time>
      </trkpt>
      <trkpt lat="42.69736" lon="-0.03481">
        <ele>2593</ele>
        <time>2013-06-07T06:10:53Z</time>
      </trkpt>
      <trkpt lat="42.69729" lon="-0.03479">
        <ele>2591</ele>
        <time>2013-06-07T06:11:00Z</time>
      </trkpt>
      <trkpt lat="42.6972" lon="-0.03478">
        <ele>2591</ele>
        <time>2013-06-07T06:11:07Z</time>
      </trkpt>
      <trkpt lat="42.69712" lon="-0.0348">
        <ele>2592</ele>
        <time>2013-06-07T06:11:17Z</time>
      </trkpt>
      <trkpt lat="42.69706" lon="-0.03476">
        <ele>2594</ele>
        <time>2013-06-07T06:11:25Z</time>
      </trkpt>
      <trkpt lat="42.69699" lon="-0.03471">
        <ele>2594</ele>
        <time>2013-06-07T06:11:34Z</time>
      </trkpt>
      <trkpt lat="42.69695" lon="-0.03469">
        <ele>2595</ele>
        <time>2013-06-07T06:11:39Z</time>
      </trkpt>
      <trkpt lat="42.6969" lon="-0.03464">
        <ele>2596</ele>
        <time>2013-06-07T06:11:47Z</time>
      </trkpt>
      <trkpt lat="42.69685" lon="-0.0346">
        <ele>2598</ele>
        <time>2013-06-07T06:11:54Z</time>
      </trkpt>
      <trkpt lat="42.69681" lon="-0.03455">
        <ele>2599</ele>
        <time>2013-06-07T06:12:02Z</time>
      </trkpt>
      <trkpt lat="42.69675" lon="-0.03451">
        <ele>2600</ele>
        <time>2013-06-07T06:12:11Z</time>
      </trkpt>
      <trkpt lat="42.69671" lon="-0.03447">
        <ele>2600</ele>
        <time>2013-06-07T06:12:18Z</time>
      </trkpt>
      <trkpt lat="42.69667" lon="-0.03441">
        <ele>2601</ele>
        <time>2013-06-07T06:12:25Z</time>
      </trkpt>
      <trkpt lat="42.69662" lon="-0.03434">
        <ele>2601</ele>
        <time>2013-06-07T06:12:33Z</time>
      </trkpt>
      <trkpt lat="42.69658" lon="-0.03426">
        <ele>2601</ele>
        <time>2013-06-07T06:12:44Z</time>
      </trkpt>
      <trkpt lat="42.69653" lon="-0.0342">
        <ele>2600</ele>
        <time>2013-06-07T06:12:52Z</time>
      </trkpt>
      <trkpt lat="42.69649" lon="-0.03413">
        <ele>2600</ele>
        <time>2013-06-07T06:13:00Z</time>
      </trkpt>
      <trkpt lat="42.69643" lon="-0.03407">
        <ele>2599</ele>
        <time>2013-06-07T06:13:07Z</time>
      </trkpt>
      <trkpt lat="42.69637" lon="-0.03399">
        <ele>2598</ele>
        <time>2013-06-07T06:13:18Z</time>
      </trkpt>
      <trkpt lat="42.69633" lon="-0.03393">
        <ele>2597</ele>
        <time>2013-06-07T06:13:28Z</time>
      </trkpt>
      <trkpt lat="42.6963" lon="-0.03387">
        <ele>2595</ele>
        <time>2013-06-07T06:13:36Z</time>
      </trkpt>
      <trkpt lat="42.69627" lon="-0.03384">
        <ele>2595</ele>
        <time>2013-06-07T06:13:43Z</time>
      </trkpt>
      <trkpt lat="42.69621" lon="-0.03379">
        <ele>2595</ele>
        <time>2013-06-07T06:13:53Z</time>
      </trkpt>
      <trkpt lat="42.69614" lon="-0.03374">
        <ele>2595</ele>
        <time>2013-06-07T06:14:00Z</time>
      </trkpt>
      <trkpt lat="42.69608" lon="-0.0337">
        <ele>2595</ele>
        <time>2013-06-07T06:14:08Z</time>
      </trkpt>
      <trkpt lat="42.69603" lon="-0.03365">
        <ele>2595</ele>
        <time>2013-06-07T06:14:16Z</time>
      </trkpt>
      <trkpt lat="42.69602" lon="-0.03362">
        <ele>2594</ele>
        <time>2013-06-07T06:14:24Z</time>
      </trkpt>
      <trkpt lat="42.696" lon="-0.03358">
        <ele>2593</ele>
        <time>2013-06-07T06:14:31Z</time>
      </trkpt>
      <trkpt lat="42.69599" lon="-0.03356">
        <ele>2593</ele>
        <time>2013-06-07T06:14:33Z</time>
      </trkpt>
      <trkpt lat="42.69596" lon="-0.0335">
        <ele>2591</ele>
        <time>2013-06-07T06:14:40Z</time>
      </trkpt>
      <trkpt lat="42.69592" lon="-0.03344">
        <ele>2591</ele>
        <time>2013-06-07T06:14:48Z</time>
      </trkpt>
      <trkpt lat="42.69588" lon="-0.03341">
        <ele>2591</ele>
        <time>2013-06-07T06:14:56Z</time>
      </trkpt>
      <trkpt lat="42.69588" lon="-0.0334">
        <ele>2592</ele>
        <time>2013-06-07T06:15:06Z</time>
      </trkpt>
      <trkpt lat="42.69588" lon="-0.03341">
        <ele>2592</ele>
        <time>2013-06-07T06:15:15Z</time>
      </trkpt>
      <trkpt lat="42.69586" lon="-0.03342">
        <ele>2592</ele>
        <time>2013-06-07T06:15:28Z</time>
      </trkpt>
      <trkpt lat="42.69587" lon="-0.03343">
        <ele>2592</ele>
        <time>2013-06-07T06:15:37Z</time>
      </trkpt>
      <trkpt lat="42.69588" lon="-0.03343">
        <ele>2593</ele>
        <time>2013-06-07T06:15:45Z</time>
      </trkpt>
      <trkpt lat="42.69591" lon="-0.03343">
        <ele>2592</ele>
        <time>2013-06-07T06:16:00Z</time>
      </trkpt>
      <trkpt lat="42.69591" lon="-0.03343">
        <ele>2593</ele>
        <time>2013-06-07T06:16:02Z</time>
      </trkpt>
      <trkpt lat="42.69591" lon="-0.03343">
        <ele>2593</ele>
        <time>2013-06-07T06:16:16Z</time>
      </trkpt>
      <trkpt lat="42.6959" lon="-0.03343">
        <ele>2593</ele>
        <time>2013-06-07T06:16:27Z</time>
      </trkpt>
      <trkpt lat="42.69589" lon="-0.03343">
        <ele>2593</ele>
        <time>2013-06-07T06:16:45Z</time>
      </trkpt>
      <trkpt lat="42.69587" lon="-0.0334">
        <ele>2593</ele>
        <time>2013-06-07T06:16:57Z</time>
      </trkpt>
      <trkpt lat="42.69587" lon="-0.03338">
        <ele>2593</ele>
        <time>2013-06-07T06:17:19Z</time>
      </trkpt>
      <trkpt lat="42.69588" lon="-0.0334">
        <ele>2593</ele>
        <time>2013-06-07T06:17:36Z</time>
      </trkpt>
      <trkpt lat="42.69586" lon="-0.03342">
        <ele>2593</ele>
        <time>2013-06-07T06:18:02Z</time>
      </trkpt>
      <trkpt lat="42.69586" lon="-0.03342">
        <ele>2593</ele>
        <time>2013-06-07T06:18:13Z</time>
      </trkpt>
      <trkpt lat="42.6959" lon="-0.03341">
        <ele>2593</ele>
        <time>2013-06-07T06:18:27Z</time>
      </trkpt>
      <trkpt lat="42.6959" lon="-0.03342">
        <ele>2593</ele>
        <time>2013-06-07T06:18:37Z</time>
      </trkpt>
      <trkpt lat="42.6959" lon="-0.03342">
        <ele>2594</ele>
        <time>2013-06-07T06:18:48Z</time>
      </trkpt>
      <trkpt lat="42.69591" lon="-0.03345">
        <ele>2594</ele>
        <time>2013-06-07T06:19:02Z</time>
      </trkpt>
      <trkpt lat="42.6959" lon="-0.03344">
        <ele>2593</ele>
        <time>2013-06-07T06:19:14Z</time>
      </trkpt>
      <trkpt lat="42.69588" lon="-0.03345">
        <ele>2594</ele>
        <time>2013-06-07T06:19:23Z</time>
      </trkpt>
      <trkpt lat="42.69588" lon="-0.03344">
        <ele>2594</ele>
        <time>2013-06-07T06:19:37Z</time>
      </trkpt>
      <trkpt lat="42.6959" lon="-0.03343">
        <ele>2594</ele>
        <time>2013-06-07T06:19:48Z</time>
      </trkpt>
      <trkpt lat="42.69591" lon="-0.03342">
        <ele>2594</ele>
        <time>2013-06-07T06:19:55Z</time>
      </trkpt>
      <trkpt lat="42.69591" lon="-0.0334">
        <ele>2594</ele>
        <time>2013-06-07T06:20:08Z</time>
      </trkpt>
      <trkpt lat="42.69584" lon="-0.03342">
        <ele>2594</ele>
        <time>2013-06-07T06:20:29Z</time>
      </trkpt>
      <trkpt lat="42.69586" lon="-0.03339">
        <ele>2594</ele>
        <time>2013-06-07T06:21:00Z</time>
      </trkpt>
      <trkpt lat="42.69586" lon="-0.03341">
        <ele>2595</ele>
        <time>2013-06-07T06:21:13Z</time>
      </trkpt>
      <trkpt lat="42.69587" lon="-0.03342">
        <ele>2595</ele>
        <time>2013-06-07T06:21:25Z</time>
      </trkpt>
      <trkpt lat="42.69589" lon="-0.03343">
        <ele>2595</ele>
        <time>2013-06-07T06:21:36Z</time>
      </trkpt>
      <trkpt lat="42.69589" lon="-0.03344">
        <ele>2595</ele>
        <time>2013-06-07T06:21:48Z</time>
      </trkpt>
      <trkpt lat="42.69591" lon="-0.03343">
        <ele>2595</ele>
        <time>2013-06-07T06:22:01Z</time>
      </trkpt>
      <trkpt lat="42.69591" lon="-0.03343">
        <ele>2595</ele>
        <time>2013-06-07T06:22:14Z</time>
      </trkpt>
      <trkpt lat="42.69592" lon="-0.03341">
        <ele>2595</ele>
        <time>2013-06-07T06:22:25Z</time>
      </trkpt>
      <trkpt lat="42.6959" lon="-0.03337">
        <ele>2595</ele>
        <time>2013-06-07T06:22:41Z</time>
      </trkpt>
      <trkpt lat="42.69589" lon="-0.03338">
        <ele>2595</ele>
        <time>2013-06-07T06:22:52Z</time>
      </trkpt>
      <trkpt lat="42.69588" lon="-0.0334">
        <ele>2595</ele>
        <time>2013-06-07T06:23:02Z</time>
      </trkpt>
      <trkpt lat="42.69589" lon="-0.03343">
        <ele>2595</ele>
        <time>2013-06-07T06:23:16Z</time>
      </trkpt>
      <trkpt lat="42.69589" lon="-0.03343">
        <ele>2595</ele>
        <time>2013-06-07T06:23:29Z</time>
      </trkpt>
      <trkpt lat="42.6959" lon="-0.03341">
        <ele>2595</ele>
        <time>2013-06-07T06:23:38Z</time>
      </trkpt>
      <trkpt lat="42.6959" lon="-0.03339">
        <ele>2596</ele>
        <time>2013-06-07T06:23:51Z</time>
      </trkpt>
      <trkpt lat="42.69588" lon="-0.0334">
        <ele>2596</ele>
        <time>2013-06-07T06:24:07Z</time>
      </trkpt>
      <trkpt lat="42.69589" lon="-0.0334">
        <ele>2596</ele>
        <time>2013-06-07T06:24:23Z</time>
      </trkpt>
      <trkpt lat="42.69589" lon="-0.0334">
        <ele>2596</ele>
        <time>2013-06-07T06:24:35Z</time>
      </trkpt>
      <trkpt lat="42.69588" lon="-0.0334">
        <ele>2596</ele>
        <time>2013-06-07T06:24:47Z</time>
      </trkpt>
      <trkpt lat="42.69588" lon="-0.03341">
        <ele>2596</ele>
        <time>2013-06-07T06:24:58Z</time>
      </trkpt>
      <trkpt lat="42.69588" lon="-0.03342">
        <ele>2596</ele>
        <time>2013-06-07T06:25:08Z</time>
      </trkpt>
      <trkpt lat="42.6959" lon="-0.0334">
        <ele>2596</ele>
        <time>2013-06-07T06:25:17Z</time>
      </trkpt>
      <trkpt lat="42.6959" lon="-0.03339">
        <ele>2596</ele>
        <time>2013-06-07T06:25:30Z</time>
      </trkpt>
      <trkpt lat="42.69591" lon="-0.03342">
        <ele>2596</ele>
        <time>2013-06-07T06:25:37Z</time>
      </trkpt>
      <trkpt lat="42.69587" lon="-0.03345">
        <ele>2596</ele>
        <time>2013-06-07T06:25:45Z</time>
      </trkpt>
      <trkpt lat="42.69581" lon="-0.03353">
        <ele>2598</ele>
        <time>2013-06-07T06:25:56Z</time>
      </trkpt>
      <trkpt lat="42.69576" lon="-0.03361">
        <ele>2599</ele>
        <time>2013-06-07T06:26:06Z</time>
      </trkpt>
      <trkpt lat="42.6957" lon="-0.03367">
        <ele>2601</ele>
        <time>2013-06-07T06:26:14Z</time>
      </trkpt>
      <trkpt lat="42.69568" lon="-0.03369">
        <ele>2602</ele>
        <time>2013-06-07T06:26:22Z</time>
      </trkpt>
      <trkpt lat="42.69567" lon="-0.03369">
        <ele>2601</ele>
        <time>2013-06-07T06:26:44Z</time>
      </trkpt>
      <trkpt lat="42.69566" lon="-0.03369">
        <ele>2601</ele>
        <time>2013-06-07T06:27:04Z</time>
      </trkpt>
      <trkpt lat="42.69567" lon="-0.03369">
        <ele>2601</ele>
        <time>2013-06-07T06:27:20Z</time>
      </trkpt>
      <trkpt lat="42.69564" lon="-0.03372">
        <ele>2602</ele>
        <time>2013-06-07T06:27:26Z</time>
      </trkpt>
      <trkpt lat="42.69561" lon="-0.03376">
        <ele>2603</ele>
        <time>2013-06-07T06:27:31Z</time>
      </trkpt>
      <trkpt lat="42.69556" lon="-0.0338">
        <ele>2606</ele>
        <time>2013-06-07T06:27:40Z</time>
      </trkpt>
      <trkpt lat="42.6955" lon="-0.03386">
        <ele>2607</ele>
        <time>2013-06-07T06:27:51Z</time>
      </trkpt>
      <trkpt lat="42.69546" lon="-0.03392">
        <ele>2609</ele>
        <time>2013-06-07T06:28:00Z</time>
      </trkpt>
      <trkpt lat="42.69543" lon="-0.03396">
        <ele>2611</ele>
        <time>2013-06-07T06:28:10Z</time>
      </trkpt>
      <trkpt lat="42.69537" lon="-0.03404">
        <ele>2612</ele>
        <time>2013-06-07T06:28:19Z</time>
      </trkpt>
      <trkpt lat="42.69533" lon="-0.03408">
        <ele>2613</ele>
        <time>2013-06-07T06:28:25Z</time>
      </trkpt>
      <trkpt lat="42.69527" lon="-0.03413">
        <ele>2615</ele>
        <time>2013-06-07T06:28:35Z</time>
      </trkpt>
      <trkpt lat="42.69521" lon="-0.03419">
        <ele>2616</ele>
        <time>2013-06-07T06:28:45Z</time>
      </trkpt>
      <trkpt lat="42.69516" lon="-0.03422">
        <ele>2618</ele>
        <time>2013-06-07T06:28:53Z</time>
      </trkpt>
      <trkpt lat="42.69509" lon="-0.03428">
        <ele>2620</ele>
        <time>2013-06-07T06:29:04Z</time>
      </trkpt>
      <trkpt lat="42.695" lon="-0.03432">
        <ele>2622</ele>
        <time>2013-06-07T06:29:16Z</time>
      </trkpt>
      <trkpt lat="42.69495" lon="-0.03432">
        <ele>2624</ele>
        <time>2013-06-07T06:29:25Z</time>
      </trkpt>
      <trkpt lat="42.69494" lon="-0.03431">
        <ele>2625</ele>
        <time>2013-06-07T06:29:27Z</time>
      </trkpt>
      <trkpt lat="42.69488" lon="-0.03427">
        <ele>2626</ele>
        <time>2013-06-07T06:29:36Z</time>
      </trkpt>
      <trkpt lat="42.69483" lon="-0.03424">
        <ele>2627</ele>
        <time>2013-06-07T06:29:45Z</time>
      </trkpt>
      <trkpt lat="42.6948" lon="-0.03415">
        <ele>2630</ele>
        <time>2013-06-07T06:29:55Z</time>
      </trkpt>
      <trkpt lat="42.69477" lon="-0.03409">
        <ele>2631</ele>
        <time>2013-06-07T06:30:03Z</time>
      </trkpt>
      <trkpt lat="42.69474" lon="-0.03407">
        <ele>2632</ele>
        <time>2013-06-07T06:30:13Z</time>
      </trkpt>
      <trkpt lat="42.69468" lon="-0.03403">
        <ele>2635</ele>
        <time>2013-06-07T06:30:26Z</time>
      </trkpt>
      <trkpt lat="42.69466" lon="-0.03402">
        <ele>2635</ele>
        <time>2013-06-07T06:30:28Z</time>
      </trkpt>
      <trkpt lat="42.6946" lon="-0.03397">
        <ele>2637</ele>
        <time>2013-06-07T06:30:37Z</time>
      </trkpt>
      <trkpt lat="42.69454" lon="-0.03394">
        <ele>2639</ele>
        <time>2013-06-07T06:30:50Z</time>
      </trkpt>
      <trkpt lat="42.69451" lon="-0.03392">
        <ele>2641</ele>
        <time>2013-06-07T06:30:59Z</time>
      </trkpt>
      <trkpt lat="42.69446" lon="-0.03391">
        <ele>2643</ele>
        <time>2013-06-07T06:31:08Z</time>
      </trkpt>
      <trkpt lat="42.69442" lon="-0.0339">
        <ele>2645</ele>
        <time>2013-06-07T06:31:17Z</time>
      </trkpt>
      <trkpt lat="42.69436" lon="-0.0339">
        <ele>2647</ele>
        <time>2013-06-07T06:31:26Z</time>
      </trkpt>
      <trkpt lat="42.69431" lon="-0.03391">
        <ele>2648</ele>
        <time>2013-06-07T06:31:34Z</time>
      </trkpt>
      <trkpt lat="42.69426" lon="-0.0339">
        <ele>2650</ele>
        <time>2013-06-07T06:31:42Z</time>
      </trkpt>
      <trkpt lat="42.69422" lon="-0.03388">
        <ele>2652</ele>
        <time>2013-06-07T06:31:54Z</time>
      </trkpt>
      <trkpt lat="42.69418" lon="-0.03386">
        <ele>2654</ele>
        <time>2013-06-07T06:32:02Z</time>
      </trkpt>
      <trkpt lat="42.69414" lon="-0.03382">
        <ele>2656</ele>
        <time>2013-06-07T06:32:10Z</time>
      </trkpt>
      <trkpt lat="42.69415" lon="-0.03384">
        <ele>2656</ele>
        <time>2013-06-07T06:32:20Z</time>
      </trkpt>
      <trkpt lat="42.69413" lon="-0.03386">
        <ele>2655</ele>
        <time>2013-06-07T06:32:30Z</time>
      </trkpt>
      <trkpt lat="42.69416" lon="-0.0339">
        <ele>2656</ele>
        <time>2013-06-07T06:32:43Z</time>
      </trkpt>
      <trkpt lat="42.69414" lon="-0.03385">
        <ele>2655</ele>
        <time>2013-06-07T06:32:59Z</time>
      </trkpt>
      <trkpt lat="42.69414" lon="-0.03386">
        <ele>2655</ele>
        <time>2013-06-07T06:33:12Z</time>
      </trkpt>
      <trkpt lat="42.69415" lon="-0.03388">
        <ele>2656</ele>
        <time>2013-06-07T06:33:19Z</time>
      </trkpt>
      <trkpt lat="42.69415" lon="-0.03392">
        <ele>2657</ele>
        <time>2013-06-07T06:33:28Z</time>
      </trkpt>
      <trkpt lat="42.69414" lon="-0.03399">
        <ele>2659</ele>
        <time>2013-06-07T06:33:37Z</time>
      </trkpt>
      <trkpt lat="42.69413" lon="-0.03409">
        <ele>2661</ele>
        <time>2013-06-07T06:33:47Z</time>
      </trkpt>
      <trkpt lat="42.69411" lon="-0.03413">
        <ele>2662</ele>
        <time>2013-06-07T06:33:54Z</time>
      </trkpt>
      <trkpt lat="42.6941" lon="-0.03416">
        <ele>2662</ele>
        <time>2013-06-07T06:34:05Z</time>
      </trkpt>
      <trkpt lat="42.6941" lon="-0.03419">
        <ele>2663</ele>
        <time>2013-06-07T06:34:12Z</time>
      </trkpt>
      <trkpt lat="42.69408" lon="-0.03424">
        <ele>2665</ele>
        <time>2013-06-07T06:34:20Z</time>
      </trkpt>
      <trkpt lat="42.69407" lon="-0.03431">
        <ele>2667</ele>
        <time>2013-06-07T06:34:30Z</time>
      </trkpt>
      <trkpt lat="42.69406" lon="-0.03434">
        <ele>2669</ele>
        <time>2013-06-07T06:34:35Z</time>
      </trkpt>
      <trkpt lat="42.69406" lon="-0.03439">
        <ele>2670</ele>
        <time>2013-06-07T06:34:43Z</time>
      </trkpt>
      <trkpt lat="42.69405" lon="-0.03441">
        <ele>2670</ele>
        <time>2013-06-07T06:34:45Z</time>
      </trkpt>
      <trkpt lat="42.69401" lon="-0.03447">
        <ele>2671</ele>
        <time>2013-06-07T06:34:54Z</time>
      </trkpt>
      <trkpt lat="42.694" lon="-0.0345">
        <ele>2674</ele>
        <time>2013-06-07T06:35:03Z</time>
      </trkpt>
      <trkpt lat="42.69398" lon="-0.03455">
        <ele>2675</ele>
        <time>2013-06-07T06:35:12Z</time>
      </trkpt>
      <trkpt lat="42.69396" lon="-0.03462">
        <ele>2677</ele>
        <time>2013-06-07T06:35:20Z</time>
      </trkpt>
      <trkpt lat="42.69395" lon="-0.03467">
        <ele>2679</ele>
        <time>2013-06-07T06:35:28Z</time>
      </trkpt>
      <trkpt lat="42.69394" lon="-0.03473">
        <ele>2680</ele>
        <time>2013-06-07T06:35:36Z</time>
      </trkpt>
      <trkpt lat="42.69393" lon="-0.03478">
        <ele>2682</ele>
        <time>2013-06-07T06:35:46Z</time>
      </trkpt>
      <trkpt lat="42.69393" lon="-0.03478">
        <ele>2683</ele>
        <time>2013-06-07T06:35:51Z</time>
      </trkpt>
      <trkpt lat="42.69389" lon="-0.03476">
        <ele>2683</ele>
        <time>2013-06-07T06:36:01Z</time>
      </trkpt>
      <trkpt lat="42.69386" lon="-0.03472">
        <ele>2685</ele>
        <time>2013-06-07T06:36:09Z</time>
      </trkpt>
      <trkpt lat="42.69381" lon="-0.03466">
        <ele>2687</ele>
        <time>2013-06-07T06:36:19Z</time>
      </trkpt>
      <trkpt lat="42.69376" lon="-0.03462">
        <ele>2687</ele>
        <time>2013-06-07T06:36:27Z</time>
      </trkpt>
      <trkpt lat="42.69373" lon="-0.03457">
        <ele>2690</ele>
        <time>2013-06-07T06:36:35Z</time>
      </trkpt>
      <trkpt lat="42.69372" lon="-0.03455">
        <ele>2690</ele>
        <time>2013-06-07T06:36:42Z</time>
      </trkpt>
      <trkpt lat="42.69368" lon="-0.0345">
        <ele>2692</ele>
        <time>2013-06-07T06:36:50Z</time>
      </trkpt>
      <trkpt lat="42.69367" lon="-0.03449">
        <ele>2692</ele>
        <time>2013-06-07T06:36:57Z</time>
      </trkpt>
      <trkpt lat="42.69366" lon="-0.03448">
        <ele>2694</ele>
        <time>2013-06-07T06:37:06Z</time>
      </trkpt>
      <trkpt lat="42.69364" lon="-0.03448">
        <ele>2694</ele>
        <time>2013-06-07T06:37:15Z</time>
      </trkpt>
      <trkpt lat="42.69361" lon="-0.03443">
        <ele>2696</ele>
        <time>2013-06-07T06:37:22Z</time>
      </trkpt>
      <trkpt lat="42.69358" lon="-0.03439">
        <ele>2699</ele>
        <time>2013-06-07T06:37:31Z</time>
      </trkpt>
      <trkpt lat="42.69356" lon="-0.03435">
        <ele>2699</ele>
        <time>2013-06-07T06:37:39Z</time>
      </trkpt>
      <trkpt lat="42.69351" lon="-0.03429">
        <ele>2702</ele>
        <time>2013-06-07T06:37:47Z</time>
      </trkpt>
      <trkpt lat="42.69348" lon="-0.03424">
        <ele>2703</ele>
        <time>2013-06-07T06:37:56Z</time>
      </trkpt>
      <trkpt lat="42.69345" lon="-0.03421">
        <ele>2704</ele>
        <time>2013-06-07T06:38:03Z</time>
      </trkpt>
      <trkpt lat="42.69341" lon="-0.03416">
        <ele>2705</ele>
        <time>2013-06-07T06:38:10Z</time>
      </trkpt>
      <trkpt lat="42.6934" lon="-0.03414">
        <ele>2706</ele>
        <time>2013-06-07T06:38:13Z</time>
      </trkpt>
      <trkpt lat="42.69338" lon="-0.03411">
        <ele>2707</ele>
        <time>2013-06-07T06:38:19Z</time>
      </trkpt>
      <trkpt lat="42.69335" lon="-0.03408">
        <ele>2708</ele>
        <time>2013-06-07T06:38:27Z</time>
      </trkpt>
      <trkpt lat="42.69332" lon="-0.03406">
        <ele>2711</ele>
        <time>2013-06-07T06:38:35Z</time>
      </trkpt>
      <trkpt lat="42.69327" lon="-0.03404">
        <ele>2711</ele>
        <time>2013-06-07T06:38:43Z</time>
      </trkpt>
      <trkpt lat="42.69325" lon="-0.034">
        <ele>2714</ele>
        <time>2013-06-07T06:38:50Z</time>
      </trkpt>
      <trkpt lat="42.69321" lon="-0.03399">
        <ele>2715</ele>
        <time>2013-06-07T06:38:59Z</time>
      </trkpt>
      <trkpt lat="42.6932" lon="-0.03397">
        <ele>2717</ele>
        <time>2013-06-07T06:39:02Z</time>
      </trkpt>
      <trkpt lat="42.69317" lon="-0.03393">
        <ele>2717</ele>
        <time>2013-06-07T06:39:10Z</time>
      </trkpt>
      <trkpt lat="42.69314" lon="-0.03389">
        <ele>2719</ele>
        <time>2013-06-07T06:39:20Z</time>
      </trkpt>
      <trkpt lat="42.69309" lon="-0.03386">
        <ele>2721</ele>
        <time>2013-06-07T06:39:28Z</time>
      </trkpt>
      <trkpt lat="42.69306" lon="-0.03382">
        <ele>2722</ele>
        <time>2013-06-07T06:39:37Z</time>
      </trkpt>
      <trkpt lat="42.69299" lon="-0.03372">
        <ele>2722</ele>
        <time>2013-06-07T06:39:50Z</time>
      </trkpt>
      <trkpt lat="42.69298" lon="-0.03372">
        <ele>2722</ele>
        <time>2013-06-07T06:39:56Z</time>
      </trkpt>
      <trkpt lat="42.69308" lon="-0.03385">
        <ele>2722</ele>
        <time>2013-06-07T06:40:13Z</time>
      </trkpt>
      <trkpt lat="42.69309" lon="-0.03386">
        <ele>2722</ele>
        <time>2013-06-07T06:40:18Z</time>
      </trkpt>
      <trkpt lat="42.69308" lon="-0.03386">
        <ele>2722</ele>
        <time>2013-06-07T06:40:24Z</time>
      </trkpt>
      <trkpt lat="42.69309" lon="-0.03392">
        <ele>2724</ele>
        <time>2013-06-07T06:40:33Z</time>
      </trkpt>
      <trkpt lat="42.69309" lon="-0.03401">
        <ele>2725</ele>
        <time>2013-06-07T06:40:42Z</time>
      </trkpt>
      <trkpt lat="42.69309" lon="-0.03407">
        <ele>2726</ele>
        <time>2013-06-07T06:40:52Z</time>
      </trkpt>
      <trkpt lat="42.69308" lon="-0.03408">
        <ele>2728</ele>
        <time>2013-06-07T06:40:55Z</time>
      </trkpt>
      <trkpt lat="42.69306" lon="-0.03411">
        <ele>2729</ele>
        <time>2013-06-07T06:41:03Z</time>
      </trkpt>
      <trkpt lat="42.69303" lon="-0.0341">
        <ele>2729</ele>
        <time>2013-06-07T06:41:11Z</time>
      </trkpt>
      <trkpt lat="42.69297" lon="-0.03407">
        <ele>2731</ele>
        <time>2013-06-07T06:41:20Z</time>
      </trkpt>
      <trkpt lat="42.6929" lon="-0.03405">
        <ele>2733</ele>
        <time>2013-06-07T06:41:29Z</time>
      </trkpt>
      <trkpt lat="42.69287" lon="-0.03411">
        <ele>2733</ele>
        <time>2013-06-07T06:41:36Z</time>
      </trkpt>
      <trkpt lat="42.69287" lon="-0.03412">
        <ele>2734</ele>
        <time>2013-06-07T06:41:37Z</time>
      </trkpt>
      <trkpt lat="42.69283" lon="-0.03418">
        <ele>2735</ele>
        <time>2013-06-07T06:41:46Z</time>
      </trkpt>
      <trkpt lat="42.6928" lon="-0.03425">
        <ele>2736</ele>
        <time>2013-06-07T06:41:53Z</time>
      </trkpt>
      <trkpt lat="42.69278" lon="-0.03431">
        <ele>2737</ele>
        <time>2013-06-07T06:42:03Z</time>
      </trkpt>
      <trkpt lat="42.69274" lon="-0.03438">
        <ele>2739</ele>
        <time>2013-06-07T06:42:12Z</time>
      </trkpt>
      <trkpt lat="42.69271" lon="-0.03445">
        <ele>2740</ele>
        <time>2013-06-07T06:42:20Z</time>
      </trkpt>
      <trkpt lat="42.69273" lon="-0.03446">
        <ele>2740</ele>
        <time>2013-06-07T06:42:29Z</time>
      </trkpt>
      <trkpt lat="42.69274" lon="-0.03447">
        <ele>2739</ele>
        <time>2013-06-07T06:42:48Z</time>
      </trkpt>
      <trkpt lat="42.69272" lon="-0.03445">
        <ele>2740</ele>
        <time>2013-06-07T06:42:58Z</time>
      </trkpt>
      <trkpt lat="42.69271" lon="-0.03445">
        <ele>2739</ele>
        <time>2013-06-07T06:43:10Z</time>
      </trkpt>
      <trkpt lat="42.6927" lon="-0.03445">
        <ele>2739</ele>
        <time>2013-06-07T06:43:15Z</time>
      </trkpt>
      <trkpt lat="42.6927" lon="-0.03443">
        <ele>2740</ele>
        <time>2013-06-07T06:43:35Z</time>
      </trkpt>
      <trkpt lat="42.6927" lon="-0.03443">
        <ele>2740</ele>
        <time>2013-06-07T06:43:47Z</time>
      </trkpt>
      <trkpt lat="42.69269" lon="-0.03443">
        <ele>2740</ele>
        <time>2013-06-07T06:44:00Z</time>
      </trkpt>
      <trkpt lat="42.69269" lon="-0.03443">
        <ele>2740</ele>
        <time>2013-06-07T06:44:10Z</time>
      </trkpt>
      <trkpt lat="42.69267" lon="-0.03448">
        <ele>2741</ele>
        <time>2013-06-07T06:44:19Z</time>
      </trkpt>
      <trkpt lat="42.69265" lon="-0.03454">
        <ele>2742</ele>
        <time>2013-06-07T06:44:25Z</time>
      </trkpt>
      <trkpt lat="42.69259" lon="-0.03459">
        <ele>2742</ele>
        <time>2013-06-07T06:44:34Z</time>
      </trkpt>
      <trkpt lat="42.69257" lon="-0.03464">
        <ele>2742</ele>
        <time>2013-06-07T06:44:46Z</time>
      </trkpt>
      <trkpt lat="42.69258" lon="-0.03472">
        <ele>2742</ele>
        <time>2013-06-07T06:44:53Z</time>
      </trkpt>
      <trkpt lat="42.69257" lon="-0.03478">
        <ele>2742</ele>
        <time>2013-06-07T06:45:01Z</time>
      </trkpt>
      <trkpt lat="42.69257" lon="-0.03481">
        <ele>2741</ele>
        <time>2013-06-07T06:45:08Z</time>
      </trkpt>
      <trkpt lat="42.69257" lon="-0.03494">
        <ele>2742</ele>
        <time>2013-06-07T06:45:18Z</time>
      </trkpt>
      <trkpt lat="42.69256" lon="-0.03495">
        <ele>2742</ele>
        <time>2013-06-07T06:45:33Z</time>
      </trkpt>
      <trkpt lat="42.69256" lon="-0.03497">
        <ele>2742</ele>
        <time>2013-06-07T06:45:39Z</time>
      </trkpt>
      <trkpt lat="42.69255" lon="-0.03497">
        <ele>2742</ele>
        <time>2013-06-07T06:45:50Z</time>
      </trkpt>
      <trkpt lat="42.69256" lon="-0.035">
        <ele>2741</ele>
        <time>2013-06-07T06:45:59Z</time>
      </trkpt>
      <trkpt lat="42.69256" lon="-0.03503">
        <ele>2742</ele>
        <time>2013-06-07T06:46:01Z</time>
      </trkpt>
      <trkpt lat="42.69254" lon="-0.03514">
        <ele>2742</ele>
        <time>2013-06-07T06:46:11Z</time>
      </trkpt>
      <trkpt lat="42.69254" lon="-0.03514">
        <ele>2743</ele>
        <time>2013-06-07T06:46:14Z</time>
      </trkpt>
      <trkpt lat="42.69249" lon="-0.03518">
        <ele>2743</ele>
        <time>2013-06-07T06:46:22Z</time>
      </trkpt>
      <trkpt lat="42.69244" lon="-0.03523">
        <ele>2745</ele>
        <time>2013-06-07T06:46:31Z</time>
      </trkpt>
      <trkpt lat="42.69239" lon="-0.03527">
        <ele>2747</ele>
        <time>2013-06-07T06:46:39Z</time>
      </trkpt>
      <trkpt lat="42.69234" lon="-0.03528">
        <ele>2747</ele>
        <time>2013-06-07T06:46:47Z</time>
      </trkpt>
      <trkpt lat="42.69228" lon="-0.03528">
        <ele>2749</ele>
        <time>2013-06-07T06:46:55Z</time>
      </trkpt>
      <trkpt lat="42.69222" lon="-0.03523">
        <ele>2750</ele>
        <time>2013-06-07T06:47:05Z</time>
      </trkpt>
      <trkpt lat="42.69216" lon="-0.0352">
        <ele>2750</ele>
        <time>2013-06-07T06:47:12Z</time>
      </trkpt>
      <trkpt lat="42.69215" lon="-0.0352">
        <ele>2751</ele>
        <time>2013-06-07T06:47:13Z</time>
      </trkpt>
      <trkpt lat="42.6921" lon="-0.03515">
        <ele>2753</ele>
        <time>2013-06-07T06:47:21Z</time>
      </trkpt>
      <trkpt lat="42.69205" lon="-0.03509">
        <ele>2753</ele>
        <time>2013-06-07T06:47:30Z</time>
      </trkpt>
      <trkpt lat="42.692" lon="-0.03503">
        <ele>2754</ele>
        <time>2013-06-07T06:47:39Z</time>
      </trkpt>
      <trkpt lat="42.69195" lon="-0.03496">
        <ele>2755</ele>
        <time>2013-06-07T06:47:47Z</time>
      </trkpt>
      <trkpt lat="42.6919" lon="-0.0349">
        <ele>2757</ele>
        <time>2013-06-07T06:47:56Z</time>
      </trkpt>
      <trkpt lat="42.69185" lon="-0.03485">
        <ele>2757</ele>
        <time>2013-06-07T06:48:04Z</time>
      </trkpt>
      <trkpt lat="42.69181" lon="-0.03479">
        <ele>2759</ele>
        <time>2013-06-07T06:48:12Z</time>
      </trkpt>
      <trkpt lat="42.69177" lon="-0.03474">
        <ele>2760</ele>
        <time>2013-06-07T06:48:21Z</time>
      </trkpt>
      <trkpt lat="42.69172" lon="-0.0347">
        <ele>2761</ele>
        <time>2013-06-07T06:48:29Z</time>
      </trkpt>
      <trkpt lat="42.69169" lon="-0.03463">
        <ele>2762</ele>
        <time>2013-06-07T06:48:38Z</time>
      </trkpt>
      <trkpt lat="42.69166" lon="-0.03455">
        <ele>2764</ele>
        <time>2013-06-07T06:48:47Z</time>
      </trkpt>
      <trkpt lat="42.69166" lon="-0.03449">
        <ele>2764</ele>
        <time>2013-06-07T06:48:56Z</time>
      </trkpt>
      <trkpt lat="42.69168" lon="-0.03454">
        <ele>2764</ele>
        <time>2013-06-07T06:49:02Z</time>
      </trkpt>
      <trkpt lat="42.69169" lon="-0.03454">
        <ele>2765</ele>
        <time>2013-06-07T06:49:15Z</time>
      </trkpt>
      <trkpt lat="42.69168" lon="-0.03456">
        <ele>2765</ele>
        <time>2013-06-07T06:49:32Z</time>
      </trkpt>
      <trkpt lat="42.69167" lon="-0.03455">
        <ele>2765</ele>
        <time>2013-06-07T06:49:44Z</time>
      </trkpt>
      <trkpt lat="42.69168" lon="-0.03458">
        <ele>2765</ele>
        <time>2013-06-07T06:49:49Z</time>
      </trkpt>
      <trkpt lat="42.69167" lon="-0.03463">
        <ele>2766</ele>
        <time>2013-06-07T06:49:56Z</time>
      </trkpt>
      <trkpt lat="42.69166" lon="-0.0347">
        <ele>2768</ele>
        <time>2013-06-07T06:50:03Z</time>
      </trkpt>
      <trkpt lat="42.69165" lon="-0.03479">
        <ele>2769</ele>
        <time>2013-06-07T06:50:11Z</time>
      </trkpt>
      <trkpt lat="42.69165" lon="-0.03488">
        <ele>2771</ele>
        <time>2013-06-07T06:50:20Z</time>
      </trkpt>
      <trkpt lat="42.69165" lon="-0.0349">
        <ele>2771</ele>
        <time>2013-06-07T06:50:21Z</time>
      </trkpt>
      <trkpt lat="42.69164" lon="-0.03498">
        <ele>2772</ele>
        <time>2013-06-07T06:50:28Z</time>
      </trkpt>
      <trkpt lat="42.69165" lon="-0.03494">
        <ele>2772</ele>
        <time>2013-06-07T06:50:31Z</time>
      </trkpt>
      <trkpt lat="42.69163" lon="-0.03491">
        <ele>2772</ele>
        <time>2013-06-07T06:50:37Z</time>
      </trkpt>
      <trkpt lat="42.6916" lon="-0.03488">
        <ele>2774</ele>
        <time>2013-06-07T06:50:44Z</time>
      </trkpt>
      <trkpt lat="42.69157" lon="-0.03483">
        <ele>2774</ele>
        <time>2013-06-07T06:50:51Z</time>
      </trkpt>
      <trkpt lat="42.69156" lon="-0.03479">
        <ele>2774</ele>
        <time>2013-06-07T06:51:01Z</time>
      </trkpt>
      <trkpt lat="42.69154" lon="-0.03475">
        <ele>2775</ele>
        <time>2013-06-07T06:51:06Z</time>
      </trkpt>
      <trkpt lat="42.69153" lon="-0.03471">
        <ele>2777</ele>
        <time>2013-06-07T06:51:11Z</time>
      </trkpt>
      <trkpt lat="42.69151" lon="-0.03464">
        <ele>2777</ele>
        <time>2013-06-07T06:51:18Z</time>
      </trkpt>
      <trkpt lat="42.69151" lon="-0.03462">
        <ele>2780</ele>
        <time>2013-06-07T06:51:25Z</time>
      </trkpt>
      <trkpt lat="42.69151" lon="-0.0346">
        <ele>2778</ele>
        <time>2013-06-07T06:51:30Z</time>
      </trkpt>
      <trkpt lat="42.69151" lon="-0.0346">
        <ele>2780</ele>
        <time>2013-06-07T06:51:31Z</time>
      </trkpt>
      <trkpt lat="42.69149" lon="-0.03455">
        <ele>2779</ele>
        <time>2013-06-07T06:51:38Z</time>
      </trkpt>
      <trkpt lat="42.69146" lon="-0.03449">
        <ele>2781</ele>
        <time>2013-06-07T06:51:44Z</time>
      </trkpt>
      <trkpt lat="42.69144" lon="-0.03447">
        <ele>2781</ele>
        <time>2013-06-07T06:51:49Z</time>
      </trkpt>
      <trkpt lat="42.69141" lon="-0.03442">
        <ele>2783</ele>
        <time>2013-06-07T06:51:54Z</time>
      </trkpt>
      <trkpt lat="42.69137" lon="-0.03435">
        <ele>2784</ele>
        <time>2013-06-07T06:52:00Z</time>
      </trkpt>
      <trkpt lat="42.69136" lon="-0.03434">
        <ele>2785</ele>
        <time>2013-06-07T06:52:05Z</time>
      </trkpt>
      <trkpt lat="42.69135" lon="-0.03433">
        <ele>2784</ele>
        <time>2013-06-07T06:52:07Z</time>
      </trkpt>
      <trkpt lat="42.69133" lon="-0.03431">
        <ele>2786</ele>
        <time>2013-06-07T06:52:09Z</time>
      </trkpt>
      <trkpt lat="42.69132" lon="-0.0343">
        <ele>2786</ele>
        <time>2013-06-07T06:52:10Z</time>
      </trkpt>
      <trkpt lat="42.69131" lon="-0.03428">
        <ele>2787</ele>
        <time>2013-06-07T06:52:16Z</time>
      </trkpt>
      <trkpt lat="42.69133" lon="-0.03432">
        <ele>2786</ele>
        <time>2013-06-07T06:52:30Z</time>
      </trkpt>
      <trkpt lat="42.69132" lon="-0.03431">
        <ele>2787</ele>
        <time>2013-06-07T06:52:33Z</time>
      </trkpt>
      <trkpt lat="42.69131" lon="-0.0343">
        <ele>2787</ele>
        <time>2013-06-07T06:52:40Z</time>
      </trkpt>
      <trkpt lat="42.69135" lon="-0.03437">
        <ele>2787</ele>
        <time>2013-06-07T06:52:48Z</time>
      </trkpt>
      <trkpt lat="42.69135" lon="-0.03436">
        <ele>2787</ele>
        <time>2013-06-07T06:52:55Z</time>
      </trkpt>
      <trkpt lat="42.69135" lon="-0.03434">
        <ele>2787</ele>
        <time>2013-06-07T06:53:02Z</time>
      </trkpt>
      <trkpt lat="42.69133" lon="-0.03429">
        <ele>2788</ele>
        <time>2013-06-07T06:53:09Z</time>
      </trkpt>
      <trkpt lat="42.6913" lon="-0.03424">
        <ele>2790</ele>
        <time>2013-06-07T06:53:16Z</time>
      </trkpt>
      <trkpt lat="42.69128" lon="-0.03419">
        <ele>2791</ele>
        <time>2013-06-07T06:53:22Z</time>
      </trkpt>
      <trkpt lat="42.69127" lon="-0.03419">
        <ele>2792</ele>
        <time>2013-06-07T06:53:30Z</time>
      </trkpt>
      <trkpt lat="42.69125" lon="-0.03416">
        <ele>2793</ele>
        <time>2013-06-07T06:53:41Z</time>
      </trkpt>
      <trkpt lat="42.69124" lon="-0.03413">
        <ele>2794</ele>
        <time>2013-06-07T06:53:49Z</time>
      </trkpt>
      <trkpt lat="42.69123" lon="-0.03412">
        <ele>2794</ele>
        <time>2013-06-07T06:53:52Z</time>
      </trkpt>
      <trkpt lat="42.69119" lon="-0.03404">
        <ele>2796</ele>
        <time>2013-06-07T06:54:00Z</time>
      </trkpt>
      <trkpt lat="42.69118" lon="-0.03402">
        <ele>2796</ele>
        <time>2013-06-07T06:54:06Z</time>
      </trkpt>
      <trkpt lat="42.69117" lon="-0.03399">
        <ele>2796</ele>
        <time>2013-06-07T06:54:11Z</time>
      </trkpt>
      <trkpt lat="42.69112" lon="-0.03396">
        <ele>2798</ele>
        <time>2013-06-07T06:54:20Z</time>
      </trkpt>
      <trkpt lat="42.69113" lon="-0.03394">
        <ele>2799</ele>
        <time>2013-06-07T06:54:29Z</time>
      </trkpt>
      <trkpt lat="42.69113" lon="-0.03397">
        <ele>2799</ele>
        <time>2013-06-07T06:54:36Z</time>
      </trkpt>
      <trkpt lat="42.69114" lon="-0.03401">
        <ele>2799</ele>
        <time>2013-06-07T06:54:46Z</time>
      </trkpt>
      <trkpt lat="42.69114" lon="-0.03404">
        <ele>2800</ele>
        <time>2013-06-07T06:54:51Z</time>
      </trkpt>
      <trkpt lat="42.69112" lon="-0.03408">
        <ele>2802</ele>
        <time>2013-06-07T06:54:57Z</time>
      </trkpt>
      <trkpt lat="42.69112" lon="-0.0341">
        <ele>2802</ele>
        <time>2013-06-07T06:55:05Z</time>
      </trkpt>
      <trkpt lat="42.69112" lon="-0.03416">
        <ele>2803</ele>
        <time>2013-06-07T06:55:11Z</time>
      </trkpt>
      <trkpt lat="42.69112" lon="-0.03417">
        <ele>2804</ele>
        <time>2013-06-07T06:55:20Z</time>
      </trkpt>
      <trkpt lat="42.69112" lon="-0.03416">
        <ele>2803</ele>
        <time>2013-06-07T06:55:26Z</time>
      </trkpt>
      <trkpt lat="42.69111" lon="-0.03414">
        <ele>2805</ele>
        <time>2013-06-07T06:55:31Z</time>
      </trkpt>
      <trkpt lat="42.69104" lon="-0.0341">
        <ele>2807</ele>
        <time>2013-06-07T06:55:39Z</time>
      </trkpt>
      <trkpt lat="42.69103" lon="-0.03411">
        <ele>2808</ele>
        <time>2013-06-07T06:55:46Z</time>
      </trkpt>
      <trkpt lat="42.69103" lon="-0.03409">
        <ele>2808</ele>
        <time>2013-06-07T06:55:57Z</time>
      </trkpt>
      <trkpt lat="42.69104" lon="-0.03409">
        <ele>2808</ele>
        <time>2013-06-07T06:56:06Z</time>
      </trkpt>
      <trkpt lat="42.69103" lon="-0.03408">
        <ele>2809</ele>
        <time>2013-06-07T06:56:12Z</time>
      </trkpt>
      <trkpt lat="42.69102" lon="-0.03409">
        <ele>2810</ele>
        <time>2013-06-07T06:56:19Z</time>
      </trkpt>
      <trkpt lat="42.69104" lon="-0.0341">
        <ele>2809</ele>
        <time>2013-06-07T06:56:29Z</time>
      </trkpt>
      <trkpt lat="42.69106" lon="-0.03409">
        <ele>2809</ele>
        <time>2013-06-07T06:56:47Z</time>
      </trkpt>
      <trkpt lat="42.69104" lon="-0.03411">
        <ele>2809</ele>
        <time>2013-06-07T06:56:56Z</time>
      </trkpt>
      <trkpt lat="42.69104" lon="-0.03412">
        <ele>2809</ele>
        <time>2013-06-07T06:57:09Z</time>
      </trkpt>
      <trkpt lat="42.69106" lon="-0.03416">
        <ele>2809</ele>
        <time>2013-06-07T06:57:24Z</time>
      </trkpt>
      <trkpt lat="42.69107" lon="-0.03415">
        <ele>2809</ele>
        <time>2013-06-07T06:57:35Z</time>
      </trkpt>
      <trkpt lat="42.69106" lon="-0.03414">
        <ele>2809</ele>
        <time>2013-06-07T06:57:45Z</time>
      </trkpt>
      <trkpt lat="42.69106" lon="-0.03415">
        <ele>2808</ele>
        <time>2013-06-07T06:57:46Z</time>
      </trkpt>
      <trkpt lat="42.69105" lon="-0.03413">
        <ele>2810</ele>
        <time>2013-06-07T06:57:59Z</time>
      </trkpt>
      <trkpt lat="42.69104" lon="-0.0341">
        <ele>2809</ele>
        <time>2013-06-07T06:58:08Z</time>
      </trkpt>
      <trkpt lat="42.69101" lon="-0.03411">
        <ele>2809</ele>
        <time>2013-06-07T06:58:19Z</time>
      </trkpt>
      <trkpt lat="42.69104" lon="-0.03411">
        <ele>2809</ele>
        <time>2013-06-07T06:58:32Z</time>
      </trkpt>
      <trkpt lat="42.69102" lon="-0.0341">
        <ele>2810</ele>
        <time>2013-06-07T06:58:46Z</time>
      </trkpt>
      <trkpt lat="42.691" lon="-0.03413">
        <ele>2809</ele>
        <time>2013-06-07T06:58:56Z</time>
      </trkpt>
      <trkpt lat="42.69101" lon="-0.03411">
        <ele>2809</ele>
        <time>2013-06-07T06:59:13Z</time>
      </trkpt>
      <trkpt lat="42.69102" lon="-0.03412">
        <ele>2809</ele>
        <time>2013-06-07T06:59:24Z</time>
      </trkpt>
      <trkpt lat="42.69101" lon="-0.03411">
        <ele>2809</ele>
        <time>2013-06-07T06:59:35Z</time>
      </trkpt>
      <trkpt lat="42.69101" lon="-0.03411">
        <ele>2810</ele>
        <time>2013-06-07T06:59:47Z</time>
      </trkpt>
      <trkpt lat="42.69102" lon="-0.03412">
        <ele>2810</ele>
        <time>2013-06-07T06:59:57Z</time>
      </trkpt>
      <trkpt lat="42.69103" lon="-0.0341">
        <ele>2809</ele>
        <time>2013-06-07T07:00:04Z</time>
      </trkpt>
      <trkpt lat="42.69103" lon="-0.03411">
        <ele>2809</ele>
        <time>2013-06-07T07:00:13Z</time>
      </trkpt>
      <trkpt lat="42.69103" lon="-0.03409">
        <ele>2808</ele>
        <time>2013-06-07T07:00:20Z</time>
      </trkpt>
      <trkpt lat="42.69105" lon="-0.03408">
        <ele>2807</ele>
        <time>2013-06-07T07:00:29Z</time>
      </trkpt>
      <trkpt lat="42.69104" lon="-0.03406">
        <ele>2807</ele>
        <time>2013-06-07T07:00:38Z</time>
      </trkpt>
      <trkpt lat="42.69105" lon="-0.03407">
        <ele>2807</ele>
        <time>2013-06-07T07:00:45Z</time>
      </trkpt>
      <trkpt lat="42.69104" lon="-0.03405">
        <ele>2807</ele>
        <time>2013-06-07T07:00:55Z</time>
      </trkpt>
      <trkpt lat="42.69103" lon="-0.03403">
        <ele>2807</ele>
        <time>2013-06-07T07:01:06Z</time>
      </trkpt>
      <trkpt lat="42.69103" lon="-0.03404">
        <ele>2808</ele>
        <time>2013-06-07T07:01:17Z</time>
      </trkpt>
      <trkpt lat="42.69106" lon="-0.03406">
        <ele>2807</ele>
        <time>2013-06-07T07:01:26Z</time>
      </trkpt>
      <trkpt lat="42.69108" lon="-0.03405">
        <ele>2807</ele>
        <time>2013-06-07T07:01:39Z</time>
      </trkpt>
      <trkpt lat="42.6911" lon="-0.03405">
        <ele>2807</ele>
        <time>2013-06-07T07:01:54Z</time>
      </trkpt>
      <trkpt lat="42.69111" lon="-0.03403">
        <ele>2807</ele>
        <time>2013-06-07T07:02:10Z</time>
      </trkpt>
      <trkpt lat="42.69112" lon="-0.03401">
        <ele>2807</ele>
        <time>2013-06-07T07:02:27Z</time>
      </trkpt>
      <trkpt lat="42.69111" lon="-0.03401">
        <ele>2807</ele>
        <time>2013-06-07T07:02:46Z</time>
      </trkpt>
      <trkpt lat="42.69112" lon="-0.03402">
        <ele>2807</ele>
        <time>2013-06-07T07:03:08Z</time>
      </trkpt>
      <trkpt lat="42.69115" lon="-0.03402">
        <ele>2807</ele>
        <time>2013-06-07T07:03:22Z</time>
      </trkpt>
      <trkpt lat="42.69118" lon="-0.03399">
        <ele>2807</ele>
        <time>2013-06-07T07:03:39Z</time>
      </trkpt>
      <trkpt lat="42.6911" lon="-0.03404">
        <ele>2807</ele>
        <time>2013-06-07T07:04:03Z</time>
      </trkpt>
      <trkpt lat="42.69109" lon="-0.03404">
        <ele>2808</ele>
        <time>2013-06-07T07:04:23Z</time>
      </trkpt>
      <trkpt lat="42.69111" lon="-0.03402">
        <ele>2807</ele>
        <time>2013-06-07T07:04:45Z</time>
      </trkpt>
      <trkpt lat="42.69108" lon="-0.03405">
        <ele>2808</ele>
        <time>2013-06-07T07:05:02Z</time>
      </trkpt>
      <trkpt lat="42.69112" lon="-0.03404">
        <ele>2807</ele>
        <time>2013-06-07T07:05:25Z</time>
      </trkpt>
      <trkpt lat="42.69112" lon="-0.03402">
        <ele>2808</ele>
        <time>2013-06-07T07:05:46Z</time>
      </trkpt>
      <trkpt lat="42.69113" lon="-0.03402">
        <ele>2808</ele>
        <time>2013-06-07T07:06:08Z</time>
      </trkpt>
      <trkpt lat="42.69112" lon="-0.03399">
        <ele>2808</ele>
        <time>2013-06-07T07:06:33Z</time>
      </trkpt>
      <trkpt lat="42.69111" lon="-0.03397">
        <ele>2808</ele>
        <time>2013-06-07T07:06:55Z</time>
      </trkpt>
      <trkpt lat="42.69114" lon="-0.034">
        <ele>2808</ele>
        <time>2013-06-07T07:07:16Z</time>
      </trkpt>
      <trkpt lat="42.69119" lon="-0.03398">
        <ele>2808</ele>
        <time>2013-06-07T07:07:39Z</time>
      </trkpt>
      <trkpt lat="42.69121" lon="-0.03397">
        <ele>2808</ele>
        <time>2013-06-07T07:08:00Z</time>
      </trkpt>
      <trkpt lat="42.69121" lon="-0.03398">
        <ele>2808</ele>
        <time>2013-06-07T07:08:26Z</time>
      </trkpt>
      <trkpt lat="42.69122" lon="-0.03397">
        <ele>2809</ele>
        <time>2013-06-07T07:08:47Z</time>
      </trkpt>
      <trkpt lat="42.69114" lon="-0.03397">
        <ele>2809</ele>
        <time>2013-06-07T07:09:07Z</time>
      </trkpt>
      <trkpt lat="42.6911" lon="-0.034">
        <ele>2809</ele>
        <time>2013-06-07T07:09:23Z</time>
      </trkpt>
      <trkpt lat="42.6911" lon="-0.03403">
        <ele>2809</ele>
        <time>2013-06-07T07:09:37Z</time>
      </trkpt>
      <trkpt lat="42.69109" lon="-0.03404">
        <ele>2809</ele>
        <time>2013-06-07T07:09:52Z</time>
      </trkpt>
      <trkpt lat="42.6911" lon="-0.03403">
        <ele>2809</ele>
        <time>2013-06-07T07:10:11Z</time>
      </trkpt>
      <trkpt lat="42.69109" lon="-0.03403">
        <ele>2810</ele>
        <time>2013-06-07T07:10:30Z</time>
      </trkpt>
      <trkpt lat="42.69109" lon="-0.03403">
        <ele>2810</ele>
        <time>2013-06-07T07:10:47Z</time>
      </trkpt>
      <trkpt lat="42.69111" lon="-0.03403">
        <ele>2810</ele>
        <time>2013-06-07T07:11:02Z</time>
      </trkpt>
      <trkpt lat="42.6911" lon="-0.03402">
        <ele>2810</ele>
        <time>2013-06-07T07:11:21Z</time>
      </trkpt>
      <trkpt lat="42.6911" lon="-0.03401">
        <ele>2810</ele>
        <time>2013-06-07T07:11:37Z</time>
      </trkpt>
      <trkpt lat="42.6911" lon="-0.03399">
        <ele>2810</ele>
        <time>2013-06-07T07:11:54Z</time>
      </trkpt>
      <trkpt lat="42.69109" lon="-0.03403">
        <ele>2810</ele>
        <time>2013-06-07T07:12:09Z</time>
      </trkpt>
      <trkpt lat="42.6911" lon="-0.03402">
        <ele>2810</ele>
        <time>2013-06-07T07:12:27Z</time>
      </trkpt>
      <trkpt lat="42.69109" lon="-0.03403">
        <ele>2811</ele>
        <time>2013-06-07T07:12:43Z</time>
      </trkpt>
      <trkpt lat="42.69107" lon="-0.03406">
        <ele>2811</ele>
        <time>2013-06-07T07:12:55Z</time>
      </trkpt>
      <trkpt lat="42.69108" lon="-0.03408">
        <ele>2811</ele>
        <time>2013-06-07T07:13:08Z</time>
      </trkpt>
      <trkpt lat="42.69109" lon="-0.03411">
        <ele>2810</ele>
        <time>2013-06-07T07:13:18Z</time>
      </trkpt>
      <trkpt lat="42.69107" lon="-0.03405">
        <ele>2811</ele>
        <time>2013-06-07T07:13:29Z</time>
      </trkpt>
      <trkpt lat="42.69107" lon="-0.03404">
        <ele>2811</ele>
        <time>2013-06-07T07:13:37Z</time>
      </trkpt>
      <trkpt lat="42.69105" lon="-0.03403">
        <ele>2810</ele>
        <time>2013-06-07T07:13:49Z</time>
      </trkpt>
      <trkpt lat="42.69105" lon="-0.03403">
        <ele>2810</ele>
        <time>2013-06-07T07:14:01Z</time>
      </trkpt>
      <trkpt lat="42.69105" lon="-0.03403">
        <ele>2811</ele>
        <time>2013-06-07T07:14:15Z</time>
      </trkpt>
      <trkpt lat="42.69105" lon="-0.03406">
        <ele>2811</ele>
        <time>2013-06-07T07:14:31Z</time>
      </trkpt>
      <trkpt lat="42.69105" lon="-0.03405">
        <ele>2811</ele>
        <time>2013-06-07T07:14:42Z</time>
      </trkpt>
      <trkpt lat="42.69105" lon="-0.03404">
        <ele>2811</ele>
        <time>2013-06-07T07:14:52Z</time>
      </trkpt>
      <trkpt lat="42.69106" lon="-0.03402">
        <ele>2810</ele>
        <time>2013-06-07T07:15:04Z</time>
      </trkpt>
      <trkpt lat="42.69109" lon="-0.03401">
        <ele>2811</ele>
        <time>2013-06-07T07:15:19Z</time>
      </trkpt>
      <trkpt lat="42.69106" lon="-0.03402">
        <ele>2811</ele>
        <time>2013-06-07T07:15:25Z</time>
      </trkpt>
      <trkpt lat="42.69104" lon="-0.03401">
        <ele>2811</ele>
        <time>2013-06-07T07:15:43Z</time>
      </trkpt>
      <trkpt lat="42.69103" lon="-0.03399">
        <ele>2811</ele>
        <time>2013-06-07T07:15:56Z</time>
      </trkpt>
      <trkpt lat="42.69101" lon="-0.03393">
        <ele>2811</ele>
        <time>2013-06-07T07:16:16Z</time>
      </trkpt>
      <trkpt lat="42.69103" lon="-0.03391">
        <ele>2811</ele>
        <time>2013-06-07T07:16:32Z</time>
      </trkpt>
      <trkpt lat="42.69103" lon="-0.03393">
        <ele>2811</ele>
        <time>2013-06-07T07:16:52Z</time>
      </trkpt>
      <trkpt lat="42.69102" lon="-0.03395">
        <ele>2811</ele>
        <time>2013-06-07T07:17:13Z</time>
      </trkpt>
      <trkpt lat="42.69101" lon="-0.03394">
        <ele>2811</ele>
        <time>2013-06-07T07:17:35Z</time>
      </trkpt>
      <trkpt lat="42.69103" lon="-0.03398">
        <ele>2811</ele>
        <time>2013-06-07T07:17:53Z</time>
      </trkpt>
      <trkpt lat="42.69102" lon="-0.034">
        <ele>2811</ele>
        <time>2013-06-07T07:18:13Z</time>
      </trkpt>
      <trkpt lat="42.69101" lon="-0.03404">
        <ele>2811</ele>
        <time>2013-06-07T07:18:31Z</time>
      </trkpt>
      <trkpt lat="42.69101" lon="-0.03408">
        <ele>2811</ele>
        <time>2013-06-07T07:18:52Z</time>
      </trkpt>
      <trkpt lat="42.69103" lon="-0.03404">
        <ele>2812</ele>
        <time>2013-06-07T07:19:06Z</time>
      </trkpt>
      <trkpt lat="42.69103" lon="-0.03407">
        <ele>2812</ele>
        <time>2013-06-07T07:19:18Z</time>
      </trkpt>
      <trkpt lat="42.69106" lon="-0.03409">
        <ele>2812</ele>
        <time>2013-06-07T07:19:28Z</time>
      </trkpt>
      <trkpt lat="42.69109" lon="-0.0341">
        <ele>2811</ele>
        <time>2013-06-07T07:19:31Z</time>
      </trkpt>
      <trkpt lat="42.6911" lon="-0.0341">
        <ele>2809</ele>
        <time>2013-06-07T07:19:38Z</time>
      </trkpt>
      <trkpt lat="42.69111" lon="-0.03406">
        <ele>2806</ele>
        <time>2013-06-07T07:19:47Z</time>
      </trkpt>
      <trkpt lat="42.69113" lon="-0.03403">
        <ele>2804</ele>
        <time>2013-06-07T07:19:55Z</time>
      </trkpt>
      <trkpt lat="42.69113" lon="-0.03402">
        <ele>2804</ele>
        <time>2013-06-07T07:20:04Z</time>
      </trkpt>
      <trkpt lat="42.69115" lon="-0.03398">
        <ele>2803</ele>
        <time>2013-06-07T07:20:13Z</time>
      </trkpt>
      <trkpt lat="42.69116" lon="-0.03399">
        <ele>2802</ele>
        <time>2013-06-07T07:20:20Z</time>
      </trkpt>
      <trkpt lat="42.69117" lon="-0.034">
        <ele>2802</ele>
        <time>2013-06-07T07:20:22Z</time>
      </trkpt>
      <trkpt lat="42.69125" lon="-0.03415">
        <ele>2799</ele>
        <time>2013-06-07T07:20:31Z</time>
      </trkpt>
      <trkpt lat="42.69134" lon="-0.03431">
        <ele>2795</ele>
        <time>2013-06-07T07:20:38Z</time>
      </trkpt>
      <trkpt lat="42.69141" lon="-0.03447">
        <ele>2793</ele>
        <time>2013-06-07T07:20:44Z</time>
      </trkpt>
      <trkpt lat="42.69143" lon="-0.03453">
        <ele>2791</ele>
        <time>2013-06-07T07:20:46Z</time>
      </trkpt>
      <trkpt lat="42.69149" lon="-0.03466">
        <ele>2787</ele>
        <time>2013-06-07T07:20:51Z</time>
      </trkpt>
      <trkpt lat="42.69151" lon="-0.03468">
        <ele>2786</ele>
        <time>2013-06-07T07:20:57Z</time>
      </trkpt>
      <trkpt lat="42.69152" lon="-0.0347">
        <ele>2785</ele>
        <time>2013-06-07T07:21:02Z</time>
      </trkpt>
      <trkpt lat="42.69155" lon="-0.03467">
        <ele>2781</ele>
        <time>2013-06-07T07:21:05Z</time>
      </trkpt>
      <trkpt lat="42.69156" lon="-0.03464">
        <ele>2780</ele>
        <time>2013-06-07T07:21:06Z</time>
      </trkpt>
      <trkpt lat="42.69159" lon="-0.03458">
        <ele>2779</ele>
        <time>2013-06-07T07:21:08Z</time>
      </trkpt>
      <trkpt lat="42.69162" lon="-0.03457">
        <ele>2776</ele>
        <time>2013-06-07T07:21:09Z</time>
      </trkpt>
      <trkpt lat="42.69165" lon="-0.03459">
        <ele>2774</ele>
        <time>2013-06-07T07:21:10Z</time>
      </trkpt>
      <trkpt lat="42.69167" lon="-0.03462">
        <ele>2773</ele>
        <time>2013-06-07T07:21:11Z</time>
      </trkpt>
      <trkpt lat="42.6917" lon="-0.03464">
        <ele>2773</ele>
        <time>2013-06-07T07:21:12Z</time>
      </trkpt>
      <trkpt lat="42.69172" lon="-0.03466">
        <ele>2771</ele>
        <time>2013-06-07T07:21:13Z</time>
      </trkpt>
      <trkpt lat="42.69173" lon="-0.03465">
        <ele>2769</ele>
        <time>2013-06-07T07:21:14Z</time>
      </trkpt>
      <trkpt lat="42.69173" lon="-0.03462">
        <ele>2768</ele>
        <time>2013-06-07T07:21:15Z</time>
      </trkpt>
      <trkpt lat="42.6918" lon="-0.03451">
        <ele>2762</ele>
        <time>2013-06-07T07:21:18Z</time>
      </trkpt>
      <trkpt lat="42.69183" lon="-0.03446">
        <ele>2761</ele>
        <time>2013-06-07T07:21:20Z</time>
      </trkpt>
      <trkpt lat="42.69187" lon="-0.03441">
        <ele>2759</ele>
        <time>2013-06-07T07:21:22Z</time>
      </trkpt>
      <trkpt lat="42.69193" lon="-0.03436">
        <ele>2755</ele>
        <time>2013-06-07T07:21:24Z</time>
      </trkpt>
      <trkpt lat="42.69197" lon="-0.03432">
        <ele>2754</ele>
        <time>2013-06-07T07:21:26Z</time>
      </trkpt>
      <trkpt lat="42.692" lon="-0.03432">
        <ele>2753</ele>
        <time>2013-06-07T07:21:28Z</time>
      </trkpt>
      <trkpt lat="42.69216" lon="-0.03444">
        <ele>2751</ele>
        <time>2013-06-07T07:21:34Z</time>
      </trkpt>
      <trkpt lat="42.69229" lon="-0.03454">
        <ele>2749</ele>
        <time>2013-06-07T07:21:37Z</time>
      </trkpt>
      <trkpt lat="42.69235" lon="-0.03461">
        <ele>2748</ele>
        <time>2013-06-07T07:21:39Z</time>
      </trkpt>
      <trkpt lat="42.69239" lon="-0.0346">
        <ele>2746</ele>
        <time>2013-06-07T07:21:41Z</time>
      </trkpt>
      <trkpt lat="42.6924" lon="-0.03459">
        <ele>2748</ele>
        <time>2013-06-07T07:21:42Z</time>
      </trkpt>
      <trkpt lat="42.69245" lon="-0.03455">
        <ele>2746</ele>
        <time>2013-06-07T07:21:48Z</time>
      </trkpt>
      <trkpt lat="42.69246" lon="-0.03456">
        <ele>2748</ele>
        <time>2013-06-07T07:21:50Z</time>
      </trkpt>
      <trkpt lat="42.69248" lon="-0.03456">
        <ele>2746</ele>
        <time>2013-06-07T07:21:52Z</time>
      </trkpt>
      <trkpt lat="42.69251" lon="-0.03456">
        <ele>2747</ele>
        <time>2013-06-07T07:21:55Z</time>
      </trkpt>
      <trkpt lat="42.69253" lon="-0.03458">
        <ele>2748</ele>
        <time>2013-06-07T07:22:03Z</time>
      </trkpt>
      <trkpt lat="42.69254" lon="-0.03456">
        <ele>2749</ele>
        <time>2013-06-07T07:22:12Z</time>
      </trkpt>
      <trkpt lat="42.69254" lon="-0.03456">
        <ele>2749</ele>
        <time>2013-06-07T07:22:14Z</time>
      </trkpt>
      <trkpt lat="42.69255" lon="-0.03453">
        <ele>2748</ele>
        <time>2013-06-07T07:22:22Z</time>
      </trkpt>
      <trkpt lat="42.69254" lon="-0.03452">
        <ele>2749</ele>
        <time>2013-06-07T07:22:33Z</time>
      </trkpt>
      <trkpt lat="42.69255" lon="-0.03444">
        <ele>2749</ele>
        <time>2013-06-07T07:22:53Z</time>
      </trkpt>
      <trkpt lat="42.69264" lon="-0.03451">
        <ele>2749</ele>
        <time>2013-06-07T07:23:12Z</time>
      </trkpt>
      <trkpt lat="42.69261" lon="-0.03446">
        <ele>2750</ele>
        <time>2013-06-07T07:23:26Z</time>
      </trkpt>
      <trkpt lat="42.69259" lon="-0.03442">
        <ele>2749</ele>
        <time>2013-06-07T07:23:39Z</time>
      </trkpt>
      <trkpt lat="42.69265" lon="-0.03448">
        <ele>2749</ele>
        <time>2013-06-07T07:23:53Z</time>
      </trkpt>
      <trkpt lat="42.69265" lon="-0.03448">
        <ele>2749</ele>
        <time>2013-06-07T07:23:59Z</time>
      </trkpt>
      <trkpt lat="42.69273" lon="-0.03443">
        <ele>2749</ele>
        <time>2013-06-07T07:24:07Z</time>
      </trkpt>
      <trkpt lat="42.6928" lon="-0.03437">
        <ele>2747</ele>
        <time>2013-06-07T07:24:10Z</time>
      </trkpt>
      <trkpt lat="42.6928" lon="-0.03434">
        <ele>2747</ele>
        <time>2013-06-07T07:24:11Z</time>
      </trkpt>
      <trkpt lat="42.69281" lon="-0.03425">
        <ele>2745</ele>
        <time>2013-06-07T07:24:13Z</time>
      </trkpt>
      <trkpt lat="42.69292" lon="-0.03409">
        <ele>2742</ele>
        <time>2013-06-07T07:24:18Z</time>
      </trkpt>
      <trkpt lat="42.69295" lon="-0.03409">
        <ele>2741</ele>
        <time>2013-06-07T07:24:19Z</time>
      </trkpt>
      <trkpt lat="42.69297" lon="-0.03409">
        <ele>2741</ele>
        <time>2013-06-07T07:24:20Z</time>
      </trkpt>
      <trkpt lat="42.69298" lon="-0.03411">
        <ele>2740</ele>
        <time>2013-06-07T07:24:21Z</time>
      </trkpt>
      <trkpt lat="42.69299" lon="-0.03412">
        <ele>2740</ele>
        <time>2013-06-07T07:24:22Z</time>
      </trkpt>
      <trkpt lat="42.69299" lon="-0.03415">
        <ele>2740</ele>
        <time>2013-06-07T07:24:28Z</time>
      </trkpt>
      <trkpt lat="42.69301" lon="-0.03418">
        <ele>2741</ele>
        <time>2013-06-07T07:24:39Z</time>
      </trkpt>
      <trkpt lat="42.69302" lon="-0.03418">
        <ele>2741</ele>
        <time>2013-06-07T07:24:40Z</time>
      </trkpt>
      <trkpt lat="42.69308" lon="-0.03422">
        <ele>2739</ele>
        <time>2013-06-07T07:24:45Z</time>
      </trkpt>
      <trkpt lat="42.6931" lon="-0.0342">
        <ele>2738</ele>
        <time>2013-06-07T07:24:46Z</time>
      </trkpt>
      <trkpt lat="42.69312" lon="-0.03412">
        <ele>2736</ele>
        <time>2013-06-07T07:24:48Z</time>
      </trkpt>
      <trkpt lat="42.69313" lon="-0.0341">
        <ele>2734</ele>
        <time>2013-06-07T07:24:49Z</time>
      </trkpt>
      <trkpt lat="42.69315" lon="-0.0341">
        <ele>2732</ele>
        <time>2013-06-07T07:24:50Z</time>
      </trkpt>
      <trkpt lat="42.69321" lon="-0.03406">
        <ele>2729</ele>
        <time>2013-06-07T07:24:53Z</time>
      </trkpt>
      <trkpt lat="42.69327" lon="-0.03403">
        <ele>2724</ele>
        <time>2013-06-07T07:24:57Z</time>
      </trkpt>
      <trkpt lat="42.69329" lon="-0.03405">
        <ele>2724</ele>
        <time>2013-06-07T07:24:58Z</time>
      </trkpt>
      <trkpt lat="42.69334" lon="-0.03403">
        <ele>2721</ele>
        <time>2013-06-07T07:25:01Z</time>
      </trkpt>
      <trkpt lat="42.69338" lon="-0.03402">
        <ele>2714</ele>
        <time>2013-06-07T07:25:05Z</time>
      </trkpt>
      <trkpt lat="42.6935" lon="-0.03426">
        <ele>2711</ele>
        <time>2013-06-07T07:25:12Z</time>
      </trkpt>
      <trkpt lat="42.69351" lon="-0.03428">
        <ele>2711</ele>
        <time>2013-06-07T07:25:13Z</time>
      </trkpt>
      <trkpt lat="42.69356" lon="-0.03421">
        <ele>2706</ele>
        <time>2013-06-07T07:25:17Z</time>
      </trkpt>
      <trkpt lat="42.6936" lon="-0.03419">
        <ele>2701</ele>
        <time>2013-06-07T07:25:19Z</time>
      </trkpt>
      <trkpt lat="42.69365" lon="-0.03424">
        <ele>2700</ele>
        <time>2013-06-07T07:25:24Z</time>
      </trkpt>
      <trkpt lat="42.69367" lon="-0.03426">
        <ele>2701</ele>
        <time>2013-06-07T07:25:36Z</time>
      </trkpt>
      <trkpt lat="42.69372" lon="-0.03439">
        <ele>2697</ele>
        <time>2013-06-07T07:25:42Z</time>
      </trkpt>
      <trkpt lat="42.69373" lon="-0.03446">
        <ele>2696</ele>
        <time>2013-06-07T07:25:49Z</time>
      </trkpt>
      <trkpt lat="42.69375" lon="-0.03447">
        <ele>2695</ele>
        <time>2013-06-07T07:25:52Z</time>
      </trkpt>
      <trkpt lat="42.69379" lon="-0.0344">
        <ele>2692</ele>
        <time>2013-06-07T07:25:57Z</time>
      </trkpt>
      <trkpt lat="42.69383" lon="-0.03437">
        <ele>2690</ele>
        <time>2013-06-07T07:25:59Z</time>
      </trkpt>
      <trkpt lat="42.69389" lon="-0.03442">
        <ele>2687</ele>
        <time>2013-06-07T07:26:01Z</time>
      </trkpt>
      <trkpt lat="42.69394" lon="-0.03449">
        <ele>2685</ele>
        <time>2013-06-07T07:26:04Z</time>
      </trkpt>
      <trkpt lat="42.69395" lon="-0.03451">
        <ele>2683</ele>
        <time>2013-06-07T07:26:05Z</time>
      </trkpt>
      <trkpt lat="42.69396" lon="-0.03445">
        <ele>2682</ele>
        <time>2013-06-07T07:26:06Z</time>
      </trkpt>
      <trkpt lat="42.69396" lon="-0.03441">
        <ele>2681</ele>
        <time>2013-06-07T07:26:07Z</time>
      </trkpt>
      <trkpt lat="42.69396" lon="-0.03436">
        <ele>2680</ele>
        <time>2013-06-07T07:26:08Z</time>
      </trkpt>
      <trkpt lat="42.69396" lon="-0.03432">
        <ele>2680</ele>
        <time>2013-06-07T07:26:09Z</time>
      </trkpt>
      <trkpt lat="42.69396" lon="-0.03427">
        <ele>2676</ele>
        <time>2013-06-07T07:26:11Z</time>
      </trkpt>
      <trkpt lat="42.69399" lon="-0.03429">
        <ele>2675</ele>
        <time>2013-06-07T07:26:12Z</time>
      </trkpt>
      <trkpt lat="42.69403" lon="-0.03434">
        <ele>2674</ele>
        <time>2013-06-07T07:26:14Z</time>
      </trkpt>
      <trkpt lat="42.69408" lon="-0.03436">
        <ele>2672</ele>
        <time>2013-06-07T07:26:16Z</time>
      </trkpt>
      <trkpt lat="42.6941" lon="-0.03437">
        <ele>2670</ele>
        <time>2013-06-07T07:26:17Z</time>
      </trkpt>
      <trkpt lat="42.69411" lon="-0.03434">
        <ele>2670</ele>
        <time>2013-06-07T07:26:18Z</time>
      </trkpt>
      <trkpt lat="42.69415" lon="-0.0344">
        <ele>2670</ele>
        <time>2013-06-07T07:26:23Z</time>
      </trkpt>
      <trkpt lat="42.69419" lon="-0.03444">
        <ele>2670</ele>
        <time>2013-06-07T07:26:41Z</time>
      </trkpt>
      <trkpt lat="42.6942" lon="-0.03442">
        <ele>2670</ele>
        <time>2013-06-07T07:27:00Z</time>
      </trkpt>
      <trkpt lat="42.69421" lon="-0.03441">
        <ele>2670</ele>
        <time>2013-06-07T07:27:20Z</time>
      </trkpt>
      <trkpt lat="42.6942" lon="-0.03444">
        <ele>2670</ele>
        <time>2013-06-07T07:27:38Z</time>
      </trkpt>
      <trkpt lat="42.69419" lon="-0.03445">
        <ele>2671</ele>
        <time>2013-06-07T07:27:59Z</time>
      </trkpt>
      <trkpt lat="42.69418" lon="-0.03442">
        <ele>2670</ele>
        <time>2013-06-07T07:28:15Z</time>
      </trkpt>
      <trkpt lat="42.69419" lon="-0.0344">
        <ele>2670</ele>
        <time>2013-06-07T07:28:16Z</time>
      </trkpt>
      <trkpt lat="42.69421" lon="-0.03433">
        <ele>2669</ele>
        <time>2013-06-07T07:28:18Z</time>
      </trkpt>
      <trkpt lat="42.69423" lon="-0.03433">
        <ele>2669</ele>
        <time>2013-06-07T07:28:19Z</time>
      </trkpt>
      <trkpt lat="42.6943" lon="-0.03437">
        <ele>2666</ele>
        <time>2013-06-07T07:28:23Z</time>
      </trkpt>
      <trkpt lat="42.69436" lon="-0.03431">
        <ele>2662</ele>
        <time>2013-06-07T07:28:26Z</time>
      </trkpt>
      <trkpt lat="42.69439" lon="-0.03429">
        <ele>2662</ele>
        <time>2013-06-07T07:28:27Z</time>
      </trkpt>
      <trkpt lat="42.69441" lon="-0.03427">
        <ele>2660</ele>
        <time>2013-06-07T07:28:28Z</time>
      </trkpt>
      <trkpt lat="42.69443" lon="-0.03426">
        <ele>2659</ele>
        <time>2013-06-07T07:28:29Z</time>
      </trkpt>
      <trkpt lat="42.69444" lon="-0.03426">
        <ele>2659</ele>
        <time>2013-06-07T07:28:30Z</time>
      </trkpt>
      <trkpt lat="42.69446" lon="-0.03424">
        <ele>2657</ele>
        <time>2013-06-07T07:28:31Z</time>
      </trkpt>
      <trkpt lat="42.69448" lon="-0.03422">
        <ele>2655</ele>
        <time>2013-06-07T07:28:32Z</time>
      </trkpt>
      <trkpt lat="42.6945" lon="-0.0342">
        <ele>2654</ele>
        <time>2013-06-07T07:28:33Z</time>
      </trkpt>
      <trkpt lat="42.69451" lon="-0.0342">
        <ele>2653</ele>
        <time>2013-06-07T07:28:34Z</time>
      </trkpt>
      <trkpt lat="42.69453" lon="-0.03422">
        <ele>2652</ele>
        <time>2013-06-07T07:28:35Z</time>
      </trkpt>
      <trkpt lat="42.69455" lon="-0.03423">
        <ele>2652</ele>
        <time>2013-06-07T07:28:36Z</time>
      </trkpt>
      <trkpt lat="42.69457" lon="-0.03422">
        <ele>2651</ele>
        <time>2013-06-07T07:28:37Z</time>
      </trkpt>
      <trkpt lat="42.69459" lon="-0.03418">
        <ele>2650</ele>
        <time>2013-06-07T07:28:38Z</time>
      </trkpt>
      <trkpt lat="42.6946" lon="-0.03415">
        <ele>2649</ele>
        <time>2013-06-07T07:28:39Z</time>
      </trkpt>
      <trkpt lat="42.69461" lon="-0.03412">
        <ele>2649</ele>
        <time>2013-06-07T07:28:40Z</time>
      </trkpt>
      <trkpt lat="42.69465" lon="-0.03399">
        <ele>2646</ele>
        <time>2013-06-07T07:28:43Z</time>
      </trkpt>
      <trkpt lat="42.69468" lon="-0.03396">
        <ele>2644</ele>
        <time>2013-06-07T07:28:44Z</time>
      </trkpt>
      <trkpt lat="42.6947" lon="-0.03394">
        <ele>2642</ele>
        <time>2013-06-07T07:28:45Z</time>
      </trkpt>
      <trkpt lat="42.69472" lon="-0.03393">
        <ele>2641</ele>
        <time>2013-06-07T07:28:46Z</time>
      </trkpt>
      <trkpt lat="42.69474" lon="-0.03393">
        <ele>2641</ele>
        <time>2013-06-07T07:28:47Z</time>
      </trkpt>
      <trkpt lat="42.69476" lon="-0.03393">
        <ele>2639</ele>
        <time>2013-06-07T07:28:48Z</time>
      </trkpt>
      <trkpt lat="42.69478" lon="-0.0339">
        <ele>2637</ele>
        <time>2013-06-07T07:28:49Z</time>
      </trkpt>
      <trkpt lat="42.6948" lon="-0.03388">
        <ele>2637</ele>
        <time>2013-06-07T07:28:50Z</time>
      </trkpt>
      <trkpt lat="42.69482" lon="-0.03388">
        <ele>2636</ele>
        <time>2013-06-07T07:28:51Z</time>
      </trkpt>
      <trkpt lat="42.69484" lon="-0.0339">
        <ele>2635</ele>
        <time>2013-06-07T07:28:52Z</time>
      </trkpt>
      <trkpt lat="42.69488" lon="-0.03402">
        <ele>2634</ele>
        <time>2013-06-07T07:29:00Z</time>
      </trkpt>
      <trkpt lat="42.69489" lon="-0.03408">
        <ele>2634</ele>
        <time>2013-06-07T07:29:06Z</time>
      </trkpt>
      <trkpt lat="42.69492" lon="-0.03399">
        <ele>2631</ele>
        <time>2013-06-07T07:29:12Z</time>
      </trkpt>
      <trkpt lat="42.69492" lon="-0.03396">
        <ele>2631</ele>
        <time>2013-06-07T07:29:13Z</time>
      </trkpt>
      <trkpt lat="42.69494" lon="-0.03389">
        <ele>2630</ele>
        <time>2013-06-07T07:29:15Z</time>
      </trkpt>
      <trkpt lat="42.69497" lon="-0.03386">
        <ele>2630</ele>
        <time>2013-06-07T07:29:16Z</time>
      </trkpt>
      <trkpt lat="42.695" lon="-0.03385">
        <ele>2628</ele>
        <time>2013-06-07T07:29:17Z</time>
      </trkpt>
      <trkpt lat="42.69504" lon="-0.03385">
        <ele>2627</ele>
        <time>2013-06-07T07:29:18Z</time>
      </trkpt>
      <trkpt lat="42.69506" lon="-0.03382">
        <ele>2625</ele>
        <time>2013-06-07T07:29:19Z</time>
      </trkpt>
      <trkpt lat="42.69507" lon="-0.03378">
        <ele>2625</ele>
        <time>2013-06-07T07:29:20Z</time>
      </trkpt>
      <trkpt lat="42.6951" lon="-0.03376">
        <ele>2623</ele>
        <time>2013-06-07T07:29:21Z</time>
      </trkpt>
      <trkpt lat="42.69513" lon="-0.03374">
        <ele>2622</ele>
        <time>2013-06-07T07:29:22Z</time>
      </trkpt>
      <trkpt lat="42.69515" lon="-0.03372">
        <ele>2621</ele>
        <time>2013-06-07T07:29:23Z</time>
      </trkpt>
      <trkpt lat="42.69523" lon="-0.03367">
        <ele>2618</ele>
        <time>2013-06-07T07:29:26Z</time>
      </trkpt>
      <trkpt lat="42.69531" lon="-0.0337">
        <ele>2617</ele>
        <time>2013-06-07T07:29:29Z</time>
      </trkpt>
      <trkpt lat="42.69543" lon="-0.03379">
        <ele>2616</ele>
        <time>2013-06-07T07:29:35Z</time>
      </trkpt>
      <trkpt lat="42.69557" lon="-0.0338">
        <ele>2614</ele>
        <time>2013-06-07T07:29:42Z</time>
      </trkpt>
      <trkpt lat="42.69568" lon="-0.03373">
        <ele>2613</ele>
        <time>2013-06-07T07:29:46Z</time>
      </trkpt>
      <trkpt lat="42.69571" lon="-0.0337">
        <ele>2612</ele>
        <time>2013-06-07T07:29:47Z</time>
      </trkpt>
      <trkpt lat="42.69574" lon="-0.03367">
        <ele>2611</ele>
        <time>2013-06-07T07:29:48Z</time>
      </trkpt>
      <trkpt lat="42.69578" lon="-0.03363">
        <ele>2609</ele>
        <time>2013-06-07T07:29:49Z</time>
      </trkpt>
      <trkpt lat="42.6958" lon="-0.03359">
        <ele>2609</ele>
        <time>2013-06-07T07:29:50Z</time>
      </trkpt>
      <trkpt lat="42.6958" lon="-0.03355">
        <ele>2608</ele>
        <time>2013-06-07T07:29:51Z</time>
      </trkpt>
      <trkpt lat="42.69585" lon="-0.03342">
        <ele>2604</ele>
        <time>2013-06-07T07:30:03Z</time>
      </trkpt>
      <trkpt lat="42.69588" lon="-0.03339">
        <ele>2602</ele>
        <time>2013-06-07T08:30:38Z</time>
      </trkpt>
      <trkpt lat="42.69593" lon="-0.03341">
        <ele>2602</ele>
        <time>2013-06-07T08:30:43Z</time>
      </trkpt>
      <trkpt lat="42.69597" lon="-0.03351">
        <ele>2602</ele>
        <time>2013-06-07T08:30:52Z</time>
      </trkpt>
      <trkpt lat="42.69602" lon="-0.03357">
        <ele>2602</ele>
        <time>2013-06-07T08:30:59Z</time>
      </trkpt>
      <trkpt lat="42.69603" lon="-0.03358">
        <ele>2602</ele>
        <time>2013-06-07T08:31:00Z</time>
      </trkpt>
      <trkpt lat="42.69612" lon="-0.03366">
        <ele>2603</ele>
        <time>2013-06-07T08:31:10Z</time>
      </trkpt>
      <trkpt lat="42.69617" lon="-0.03372">
        <ele>2603</ele>
        <time>2013-06-07T08:31:19Z</time>
      </trkpt>
      <trkpt lat="42.69629" lon="-0.03382">
        <ele>2604</ele>
        <time>2013-06-07T08:31:30Z</time>
      </trkpt>
      <trkpt lat="42.69637" lon="-0.03391">
        <ele>2605</ele>
        <time>2013-06-07T08:31:40Z</time>
      </trkpt>
      <trkpt lat="42.69645" lon="-0.034">
        <ele>2606</ele>
        <time>2013-06-07T08:31:51Z</time>
      </trkpt>
      <trkpt lat="42.69654" lon="-0.03412">
        <ele>2608</ele>
        <time>2013-06-07T08:32:03Z</time>
      </trkpt>
      <trkpt lat="42.69658" lon="-0.0342">
        <ele>2610</ele>
        <time>2013-06-07T08:32:11Z</time>
      </trkpt>
      <trkpt lat="42.69659" lon="-0.03427">
        <ele>2611</ele>
        <time>2013-06-07T08:32:19Z</time>
      </trkpt>
      <trkpt lat="42.69665" lon="-0.03432">
        <ele>2612</ele>
        <time>2013-06-07T08:32:28Z</time>
      </trkpt>
      <trkpt lat="42.69669" lon="-0.03441">
        <ele>2612</ele>
        <time>2013-06-07T08:32:36Z</time>
      </trkpt>
      <trkpt lat="42.69678" lon="-0.03449">
        <ele>2611</ele>
        <time>2013-06-07T08:32:47Z</time>
      </trkpt>
      <trkpt lat="42.69685" lon="-0.03454">
        <ele>2608</ele>
        <time>2013-06-07T08:32:55Z</time>
      </trkpt>
      <trkpt lat="42.69702" lon="-0.03467">
        <ele>2605</ele>
        <time>2013-06-07T08:33:07Z</time>
      </trkpt>
      <trkpt lat="42.69709" lon="-0.03471">
        <ele>2604</ele>
        <time>2013-06-07T08:33:12Z</time>
      </trkpt>
      <trkpt lat="42.69719" lon="-0.03479">
        <ele>2602</ele>
        <time>2013-06-07T08:33:20Z</time>
      </trkpt>
      <trkpt lat="42.69726" lon="-0.03484">
        <ele>2601</ele>
        <time>2013-06-07T08:33:29Z</time>
      </trkpt>
      <trkpt lat="42.69725" lon="-0.03484">
        <ele>2601</ele>
        <time>2013-06-07T08:33:40Z</time>
      </trkpt>
      <trkpt lat="42.69724" lon="-0.03482">
        <ele>2602</ele>
        <time>2013-06-07T08:33:53Z</time>
      </trkpt>
      <trkpt lat="42.69724" lon="-0.03485">
        <ele>2602</ele>
        <time>2013-06-07T08:34:07Z</time>
      </trkpt>
      <trkpt lat="42.69725" lon="-0.03485">
        <ele>2600</ele>
        <time>2013-06-07T08:34:15Z</time>
      </trkpt>
      <trkpt lat="42.69722" lon="-0.03485">
        <ele>2600</ele>
        <time>2013-06-07T08:34:33Z</time>
      </trkpt>
      <trkpt lat="42.69724" lon="-0.03488">
        <ele>2600</ele>
        <time>2013-06-07T08:34:55Z</time>
      </trkpt>
      <trkpt lat="42.69725" lon="-0.03489">
        <ele>2600</ele>
        <time>2013-06-07T08:35:06Z</time>
      </trkpt>
      <trkpt lat="42.69722" lon="-0.03489">
        <ele>2600</ele>
        <time>2013-06-07T08:35:23Z</time>
      </trkpt>
      <trkpt lat="42.69722" lon="-0.03487">
        <ele>2600</ele>
        <time>2013-06-07T08:35:41Z</time>
      </trkpt>
      <trkpt lat="42.69723" lon="-0.03486">
        <ele>2600</ele>
        <time>2013-06-07T08:35:56Z</time>
      </trkpt>
      <trkpt lat="42.69724" lon="-0.03487">
        <ele>2600</ele>
        <time>2013-06-07T08:36:11Z</time>
      </trkpt>
      <trkpt lat="42.69724" lon="-0.03486">
        <ele>2599</ele>
        <time>2013-06-07T08:36:30Z</time>
      </trkpt>
      <trkpt lat="42.69724" lon="-0.03486">
        <ele>2599</ele>
        <time>2013-06-07T08:36:50Z</time>
      </trkpt>
      <trkpt lat="42.69727" lon="-0.03485">
        <ele>2599</ele>
        <time>2013-06-07T08:37:05Z</time>
      </trkpt>
      <trkpt lat="42.69726" lon="-0.03485">
        <ele>2599</ele>
        <time>2013-06-07T08:37:23Z</time>
      </trkpt>
      <trkpt lat="42.69728" lon="-0.03481">
        <ele>2598</ele>
        <time>2013-06-07T08:37:43Z</time>
      </trkpt>
      <trkpt lat="42.69727" lon="-0.0348">
        <ele>2598</ele>
        <time>2013-06-07T08:38:05Z</time>
      </trkpt>
      <trkpt lat="42.69727" lon="-0.03478">
        <ele>2598</ele>
        <time>2013-06-07T08:38:27Z</time>
      </trkpt>
      <trkpt lat="42.69728" lon="-0.03479">
        <ele>2597</ele>
        <time>2013-06-07T08:38:46Z</time>
      </trkpt>
      <trkpt lat="42.69726" lon="-0.03488">
        <ele>2598</ele>
        <time>2013-06-07T08:39:04Z</time>
      </trkpt>
      <trkpt lat="42.69725" lon="-0.03486">
        <ele>2597</ele>
        <time>2013-06-07T08:39:23Z</time>
      </trkpt>
      <trkpt lat="42.69725" lon="-0.03484">
        <ele>2597</ele>
        <time>2013-06-07T08:39:45Z</time>
      </trkpt>
      <trkpt lat="42.69727" lon="-0.03483">
        <ele>2598</ele>
        <time>2013-06-07T08:40:03Z</time>
      </trkpt>
      <trkpt lat="42.69727" lon="-0.03483">
        <ele>2597</ele>
        <time>2013-06-07T08:40:10Z</time>
      </trkpt>
      <trkpt lat="42.69728" lon="-0.03485">
        <ele>2599</ele>
        <time>2013-06-07T08:40:21Z</time>
      </trkpt>
      <trkpt lat="42.69726" lon="-0.03484">
        <ele>2599</ele>
        <time>2013-06-07T08:40:35Z</time>
      </trkpt>
      <trkpt lat="42.69725" lon="-0.03487">
        <ele>2598</ele>
        <time>2013-06-07T08:40:52Z</time>
      </trkpt>
      <trkpt lat="42.69729" lon="-0.03487">
        <ele>2598</ele>
        <time>2013-06-07T08:41:04Z</time>
      </trkpt>
      <trkpt lat="42.69727" lon="-0.03482">
        <ele>2599</ele>
        <time>2013-06-07T08:41:15Z</time>
      </trkpt>
      <trkpt lat="42.69727" lon="-0.03482">
        <ele>2597</ele>
        <time>2013-06-07T08:41:25Z</time>
      </trkpt>
      <trkpt lat="42.69727" lon="-0.03482">
        <ele>2596</ele>
        <time>2013-06-07T08:41:44Z</time>
      </trkpt>
      <trkpt lat="42.69729" lon="-0.03482">
        <ele>2596</ele>
        <time>2013-06-07T08:41:52Z</time>
      </trkpt>
      <trkpt lat="42.69738" lon="-0.03495">
        <ele>2593</ele>
        <time>2013-06-07T08:41:57Z</time>
      </trkpt>
      <trkpt lat="42.69738" lon="-0.03503">
        <ele>2589</ele>
        <time>2013-06-07T08:42:00Z</time>
      </trkpt>
      <trkpt lat="42.69737" lon="-0.03506">
        <ele>2589</ele>
        <time>2013-06-07T08:42:01Z</time>
      </trkpt>
      <trkpt lat="42.69738" lon="-0.03514">
        <ele>2587</ele>
        <time>2013-06-07T08:42:03Z</time>
      </trkpt>
      <trkpt lat="42.69741" lon="-0.03522">
        <ele>2585</ele>
        <time>2013-06-07T08:42:05Z</time>
      </trkpt>
      <trkpt lat="42.69745" lon="-0.03524">
        <ele>2583</ele>
        <time>2013-06-07T08:42:06Z</time>
      </trkpt>
      <trkpt lat="42.69748" lon="-0.03525">
        <ele>2584</ele>
        <time>2013-06-07T08:42:07Z</time>
      </trkpt>
      <trkpt lat="42.69745" lon="-0.03522">
        <ele>2585</ele>
        <time>2013-06-07T08:42:11Z</time>
      </trkpt>
      <trkpt lat="42.69746" lon="-0.03522">
        <ele>2584</ele>
        <time>2013-06-07T08:42:20Z</time>
      </trkpt>
      <trkpt lat="42.69747" lon="-0.03524">
        <ele>2584</ele>
        <time>2013-06-07T08:42:21Z</time>
      </trkpt>
      <trkpt lat="42.6975" lon="-0.03532">
        <ele>2582</ele>
        <time>2013-06-07T08:42:24Z</time>
      </trkpt>
      <trkpt lat="42.69753" lon="-0.03542">
        <ele>2579</ele>
        <time>2013-06-07T08:42:27Z</time>
      </trkpt>
      <trkpt lat="42.69755" lon="-0.03548">
        <ele>2576</ele>
        <time>2013-06-07T08:42:29Z</time>
      </trkpt>
      <trkpt lat="42.69756" lon="-0.0355">
        <ele>2575</ele>
        <time>2013-06-07T08:42:30Z</time>
      </trkpt>
      <trkpt lat="42.69757" lon="-0.03551">
        <ele>2575</ele>
        <time>2013-06-07T08:42:31Z</time>
      </trkpt>
      <trkpt lat="42.69759" lon="-0.03552">
        <ele>2573</ele>
        <time>2013-06-07T08:42:32Z</time>
      </trkpt>
      <trkpt lat="42.69761" lon="-0.03553">
        <ele>2573</ele>
        <time>2013-06-07T08:42:33Z</time>
      </trkpt>
      <trkpt lat="42.69764" lon="-0.03554">
        <ele>2572</ele>
        <time>2013-06-07T08:42:34Z</time>
      </trkpt>
      <trkpt lat="42.69768" lon="-0.03553">
        <ele>2572</ele>
        <time>2013-06-07T08:42:35Z</time>
      </trkpt>
      <trkpt lat="42.69775" lon="-0.03551">
        <ele>2572</ele>
        <time>2013-06-07T08:42:36Z</time>
      </trkpt>
      <trkpt lat="42.69779" lon="-0.0355">
        <ele>2570</ele>
        <time>2013-06-07T08:42:37Z</time>
      </trkpt>
      <trkpt lat="42.69793" lon="-0.03555">
        <ele>2568</ele>
        <time>2013-06-07T08:42:41Z</time>
      </trkpt>
      <trkpt lat="42.69793" lon="-0.03557">
        <ele>2564</ele>
        <time>2013-06-07T08:42:42Z</time>
      </trkpt>
      <trkpt lat="42.69794" lon="-0.0356">
        <ele>2563</ele>
        <time>2013-06-07T08:42:43Z</time>
      </trkpt>
      <trkpt lat="42.69796" lon="-0.03563">
        <ele>2561</ele>
        <time>2013-06-07T08:42:44Z</time>
      </trkpt>
      <trkpt lat="42.69799" lon="-0.03568">
        <ele>2560</ele>
        <time>2013-06-07T08:42:45Z</time>
      </trkpt>
      <trkpt lat="42.69801" lon="-0.03573">
        <ele>2558</ele>
        <time>2013-06-07T08:42:46Z</time>
      </trkpt>
      <trkpt lat="42.69803" lon="-0.03578">
        <ele>2558</ele>
        <time>2013-06-07T08:42:47Z</time>
      </trkpt>
      <trkpt lat="42.69807" lon="-0.03585">
        <ele>2553</ele>
        <time>2013-06-07T08:42:49Z</time>
      </trkpt>
      <trkpt lat="42.69817" lon="-0.03596">
        <ele>2551</ele>
        <time>2013-06-07T08:42:52Z</time>
      </trkpt>
      <trkpt lat="42.69819" lon="-0.03601">
        <ele>2548</ele>
        <time>2013-06-07T08:42:53Z</time>
      </trkpt>
      <trkpt lat="42.69823" lon="-0.03604">
        <ele>2549</ele>
        <time>2013-06-07T08:42:54Z</time>
      </trkpt>
      <trkpt lat="42.69826" lon="-0.03608">
        <ele>2545</ele>
        <time>2013-06-07T08:42:55Z</time>
      </trkpt>
      <trkpt lat="42.69831" lon="-0.03613">
        <ele>2544</ele>
        <time>2013-06-07T08:42:56Z</time>
      </trkpt>
      <trkpt lat="42.69846" lon="-0.03622">
        <ele>2540</ele>
        <time>2013-06-07T08:42:59Z</time>
      </trkpt>
      <trkpt lat="42.69851" lon="-0.03624">
        <ele>2538</ele>
        <time>2013-06-07T08:43:00Z</time>
      </trkpt>
      <trkpt lat="42.69855" lon="-0.03625">
        <ele>2535</ele>
        <time>2013-06-07T08:43:01Z</time>
      </trkpt>
      <trkpt lat="42.69857" lon="-0.03631">
        <ele>2535</ele>
        <time>2013-06-07T08:43:02Z</time>
      </trkpt>
      <trkpt lat="42.69859" lon="-0.03635">
        <ele>2532</ele>
        <time>2013-06-07T08:43:03Z</time>
      </trkpt>
      <trkpt lat="42.69861" lon="-0.03636">
        <ele>2531</ele>
        <time>2013-06-07T08:43:04Z</time>
      </trkpt>
      <trkpt lat="42.69864" lon="-0.03636">
        <ele>2530</ele>
        <time>2013-06-07T08:43:05Z</time>
      </trkpt>
      <trkpt lat="42.6986" lon="-0.03624">
        <ele>2531</ele>
        <time>2013-06-07T08:43:11Z</time>
      </trkpt>
      <trkpt lat="42.69863" lon="-0.03623">
        <ele>2529</ele>
        <time>2013-06-07T08:43:21Z</time>
      </trkpt>
      <trkpt lat="42.69865" lon="-0.03624">
        <ele>2527</ele>
        <time>2013-06-07T08:43:23Z</time>
      </trkpt>
      <trkpt lat="42.69867" lon="-0.03627">
        <ele>2526</ele>
        <time>2013-06-07T08:43:24Z</time>
      </trkpt>
      <trkpt lat="42.69869" lon="-0.03632">
        <ele>2525</ele>
        <time>2013-06-07T08:43:25Z</time>
      </trkpt>
      <trkpt lat="42.6987" lon="-0.03634">
        <ele>2525</ele>
        <time>2013-06-07T08:43:26Z</time>
      </trkpt>
      <trkpt lat="42.69873" lon="-0.03635">
        <ele>2522</ele>
        <time>2013-06-07T08:43:27Z</time>
      </trkpt>
      <trkpt lat="42.69875" lon="-0.03634">
        <ele>2521</ele>
        <time>2013-06-07T08:43:28Z</time>
      </trkpt>
      <trkpt lat="42.69878" lon="-0.03634">
        <ele>2521</ele>
        <time>2013-06-07T08:43:29Z</time>
      </trkpt>
      <trkpt lat="42.69882" lon="-0.03635">
        <ele>2519</ele>
        <time>2013-06-07T08:43:30Z</time>
      </trkpt>
      <trkpt lat="42.69886" lon="-0.03638">
        <ele>2515</ele>
        <time>2013-06-07T08:43:32Z</time>
      </trkpt>
      <trkpt lat="42.69892" lon="-0.0364">
        <ele>2512</ele>
        <time>2013-06-07T08:43:34Z</time>
      </trkpt>
      <trkpt lat="42.69893" lon="-0.03639">
        <ele>2513</ele>
        <time>2013-06-07T08:43:35Z</time>
      </trkpt>
      <trkpt lat="42.69889" lon="-0.03636">
        <ele>2512</ele>
        <time>2013-06-07T08:43:41Z</time>
      </trkpt>
      <trkpt lat="42.69892" lon="-0.03637">
        <ele>2511</ele>
        <time>2013-06-07T08:43:49Z</time>
      </trkpt>
      <trkpt lat="42.69894" lon="-0.03641">
        <ele>2509</ele>
        <time>2013-06-07T08:43:50Z</time>
      </trkpt>
      <trkpt lat="42.69897" lon="-0.03652">
        <ele>2506</ele>
        <time>2013-06-07T08:43:53Z</time>
      </trkpt>
      <trkpt lat="42.69898" lon="-0.03652">
        <ele>2504</ele>
        <time>2013-06-07T08:43:54Z</time>
      </trkpt>
      <trkpt lat="42.69901" lon="-0.03648">
        <ele>2502</ele>
        <time>2013-06-07T08:43:57Z</time>
      </trkpt>
      <trkpt lat="42.69903" lon="-0.03643">
        <ele>2501</ele>
        <time>2013-06-07T08:44:03Z</time>
      </trkpt>
      <trkpt lat="42.69904" lon="-0.03642">
        <ele>2501</ele>
        <time>2013-06-07T08:44:04Z</time>
      </trkpt>
      <trkpt lat="42.69906" lon="-0.03645">
        <ele>2501</ele>
        <time>2013-06-07T08:44:05Z</time>
      </trkpt>
      <trkpt lat="42.69908" lon="-0.03649">
        <ele>2498</ele>
        <time>2013-06-07T08:44:06Z</time>
      </trkpt>
      <trkpt lat="42.69912" lon="-0.03655">
        <ele>2495</ele>
        <time>2013-06-07T08:44:09Z</time>
      </trkpt>
      <trkpt lat="42.69914" lon="-0.03656">
        <ele>2493</ele>
        <time>2013-06-07T08:44:10Z</time>
      </trkpt>
      <trkpt lat="42.69916" lon="-0.03659">
        <ele>2492</ele>
        <time>2013-06-07T08:44:11Z</time>
      </trkpt>
      <trkpt lat="42.69917" lon="-0.03663">
        <ele>2490</ele>
        <time>2013-06-07T08:44:12Z</time>
      </trkpt>
      <trkpt lat="42.69918" lon="-0.03666">
        <ele>2490</ele>
        <time>2013-06-07T08:44:13Z</time>
      </trkpt>
      <trkpt lat="42.6992" lon="-0.0367">
        <ele>2488</ele>
        <time>2013-06-07T08:44:14Z</time>
      </trkpt>
      <trkpt lat="42.69922" lon="-0.03672">
        <ele>2486</ele>
        <time>2013-06-07T08:44:15Z</time>
      </trkpt>
      <trkpt lat="42.69924" lon="-0.03674">
        <ele>2487</ele>
        <time>2013-06-07T08:44:16Z</time>
      </trkpt>
      <trkpt lat="42.69925" lon="-0.03677">
        <ele>2483</ele>
        <time>2013-06-07T08:44:17Z</time>
      </trkpt>
      <trkpt lat="42.69928" lon="-0.03682">
        <ele>2482</ele>
        <time>2013-06-07T08:44:18Z</time>
      </trkpt>
      <trkpt lat="42.69929" lon="-0.03686">
        <ele>2480</ele>
        <time>2013-06-07T08:44:19Z</time>
      </trkpt>
      <trkpt lat="42.69929" lon="-0.03689">
        <ele>2480</ele>
        <time>2013-06-07T08:44:20Z</time>
      </trkpt>
      <trkpt lat="42.69929" lon="-0.03691">
        <ele>2478</ele>
        <time>2013-06-07T08:44:21Z</time>
      </trkpt>
      <trkpt lat="42.69929" lon="-0.03693">
        <ele>2479</ele>
        <time>2013-06-07T08:44:22Z</time>
      </trkpt>
      <trkpt lat="42.69932" lon="-0.03704">
        <ele>2477</ele>
        <time>2013-06-07T08:44:25Z</time>
      </trkpt>
      <trkpt lat="42.69934" lon="-0.03719">
        <ele>2475</ele>
        <time>2013-06-07T08:44:28Z</time>
      </trkpt>
      <trkpt lat="42.69935" lon="-0.03724">
        <ele>2473</ele>
        <time>2013-06-07T08:44:30Z</time>
      </trkpt>
      <trkpt lat="42.69936" lon="-0.03725">
        <ele>2471</ele>
        <time>2013-06-07T08:44:31Z</time>
      </trkpt>
      <trkpt lat="42.69938" lon="-0.03723">
        <ele>2471</ele>
        <time>2013-06-07T08:44:33Z</time>
      </trkpt>
      <trkpt lat="42.69939" lon="-0.03725">
        <ele>2469</ele>
        <time>2013-06-07T08:44:34Z</time>
      </trkpt>
      <trkpt lat="42.69939" lon="-0.03733">
        <ele>2466</ele>
        <time>2013-06-07T08:44:40Z</time>
      </trkpt>
      <trkpt lat="42.69941" lon="-0.03735">
        <ele>2467</ele>
        <time>2013-06-07T08:44:44Z</time>
      </trkpt>
      <trkpt lat="42.69944" lon="-0.03742">
        <ele>2465</ele>
        <time>2013-06-07T08:44:46Z</time>
      </trkpt>
      <trkpt lat="42.69948" lon="-0.03746">
        <ele>2462</ele>
        <time>2013-06-07T08:44:48Z</time>
      </trkpt>
      <trkpt lat="42.69949" lon="-0.03745">
        <ele>2460</ele>
        <time>2013-06-07T08:44:49Z</time>
      </trkpt>
      <trkpt lat="42.6995" lon="-0.03742">
        <ele>2459</ele>
        <time>2013-06-07T08:44:50Z</time>
      </trkpt>
      <trkpt lat="42.69954" lon="-0.03728">
        <ele>2455</ele>
        <time>2013-06-07T08:44:53Z</time>
      </trkpt>
      <trkpt lat="42.6996" lon="-0.03707">
        <ele>2452</ele>
        <time>2013-06-07T08:44:58Z</time>
      </trkpt>
      <trkpt lat="42.69962" lon="-0.037">
        <ele>2450</ele>
        <time>2013-06-07T08:45:00Z</time>
      </trkpt>
      <trkpt lat="42.69969" lon="-0.037">
        <ele>2446</ele>
        <time>2013-06-07T08:45:03Z</time>
      </trkpt>
      <trkpt lat="42.69972" lon="-0.03703">
        <ele>2445</ele>
        <time>2013-06-07T08:45:04Z</time>
      </trkpt>
      <trkpt lat="42.69975" lon="-0.03707">
        <ele>2444</ele>
        <time>2013-06-07T08:45:06Z</time>
      </trkpt>
      <trkpt lat="42.69974" lon="-0.03711">
        <ele>2444</ele>
        <time>2013-06-07T08:45:11Z</time>
      </trkpt>
      <trkpt lat="42.69971" lon="-0.03706">
        <ele>2444</ele>
        <time>2013-06-07T08:45:24Z</time>
      </trkpt>
      <trkpt lat="42.69971" lon="-0.03707">
        <ele>2443</ele>
        <time>2013-06-07T08:45:27Z</time>
      </trkpt>
      <trkpt lat="42.69978" lon="-0.03706">
        <ele>2440</ele>
        <time>2013-06-07T08:45:31Z</time>
      </trkpt>
      <trkpt lat="42.69979" lon="-0.03703">
        <ele>2440</ele>
        <time>2013-06-07T08:45:32Z</time>
      </trkpt>
      <trkpt lat="42.69987" lon="-0.03702">
        <ele>2436</ele>
        <time>2013-06-07T08:45:35Z</time>
      </trkpt>
      <trkpt lat="42.69998" lon="-0.03704">
        <ele>2433</ele>
        <time>2013-06-07T08:45:39Z</time>
      </trkpt>
      <trkpt lat="42.7" lon="-0.03705">
        <ele>2429</ele>
        <time>2013-06-07T08:45:40Z</time>
      </trkpt>
      <trkpt lat="42.70005" lon="-0.03702">
        <ele>2425</ele>
        <time>2013-06-07T08:45:42Z</time>
      </trkpt>
      <trkpt lat="42.70014" lon="-0.03699">
        <ele>2423</ele>
        <time>2013-06-07T08:45:45Z</time>
      </trkpt>
      <trkpt lat="42.7002" lon="-0.03701">
        <ele>2418</ele>
        <time>2013-06-07T08:45:47Z</time>
      </trkpt>
      <trkpt lat="42.7003" lon="-0.03702">
        <ele>2415</ele>
        <time>2013-06-07T08:45:49Z</time>
      </trkpt>
      <trkpt lat="42.70038" lon="-0.03701">
        <ele>2414</ele>
        <time>2013-06-07T08:45:54Z</time>
      </trkpt>
      <trkpt lat="42.70033" lon="-0.03701">
        <ele>2414</ele>
        <time>2013-06-07T08:46:06Z</time>
      </trkpt>
      <trkpt lat="42.70027" lon="-0.03695">
        <ele>2414</ele>
        <time>2013-06-07T08:46:20Z</time>
      </trkpt>
      <trkpt lat="42.70024" lon="-0.03694">
        <ele>2414</ele>
        <time>2013-06-07T08:46:35Z</time>
      </trkpt>
      <trkpt lat="42.70033" lon="-0.03712">
        <ele>2410</ele>
        <time>2013-06-07T08:46:41Z</time>
      </trkpt>
      <trkpt lat="42.70041" lon="-0.03718">
        <ele>2408</ele>
        <time>2013-06-07T08:46:44Z</time>
      </trkpt>
      <trkpt lat="42.70052" lon="-0.03722">
        <ele>2401</ele>
        <time>2013-06-07T08:46:47Z</time>
      </trkpt>
      <trkpt lat="42.70056" lon="-0.03721">
        <ele>2401</ele>
        <time>2013-06-07T08:46:48Z</time>
      </trkpt>
      <trkpt lat="42.70075" lon="-0.03723">
        <ele>2392</ele>
        <time>2013-06-07T08:46:52Z</time>
      </trkpt>
      <trkpt lat="42.70085" lon="-0.03722">
        <ele>2389</ele>
        <time>2013-06-07T08:46:54Z</time>
      </trkpt>
      <trkpt lat="42.70089" lon="-0.03723">
        <ele>2386</ele>
        <time>2013-06-07T08:46:55Z</time>
      </trkpt>
      <trkpt lat="42.70098" lon="-0.03723">
        <ele>2383</ele>
        <time>2013-06-07T08:46:57Z</time>
      </trkpt>
      <trkpt lat="42.70102" lon="-0.03724">
        <ele>2379</ele>
        <time>2013-06-07T08:46:58Z</time>
      </trkpt>
      <trkpt lat="42.70106" lon="-0.03725">
        <ele>2374</ele>
        <time>2013-06-07T08:46:59Z</time>
      </trkpt>
      <trkpt lat="42.70112" lon="-0.03725">
        <ele>2373</ele>
        <time>2013-06-07T08:47:01Z</time>
      </trkpt>
      <trkpt lat="42.70118" lon="-0.03725">
        <ele>2371</ele>
        <time>2013-06-07T08:47:03Z</time>
      </trkpt>
      <trkpt lat="42.70122" lon="-0.03725">
        <ele>2367</ele>
        <time>2013-06-07T08:47:04Z</time>
      </trkpt>
      <trkpt lat="42.70128" lon="-0.03724">
        <ele>2364</ele>
        <time>2013-06-07T08:47:06Z</time>
      </trkpt>
      <trkpt lat="42.70135" lon="-0.03722">
        <ele>2362</ele>
        <time>2013-06-07T08:47:08Z</time>
      </trkpt>
      <trkpt lat="42.70141" lon="-0.03718">
        <ele>2361</ele>
        <time>2013-06-07T08:47:10Z</time>
      </trkpt>
      <trkpt lat="42.70136" lon="-0.0371">
        <ele>2361</ele>
        <time>2013-06-07T08:47:19Z</time>
      </trkpt>
      <trkpt lat="42.7013" lon="-0.03706">
        <ele>2360</ele>
        <time>2013-06-07T08:47:27Z</time>
      </trkpt>
      <trkpt lat="42.70138" lon="-0.03704">
        <ele>2356</ele>
        <time>2013-06-07T08:47:31Z</time>
      </trkpt>
      <trkpt lat="42.70146" lon="-0.03703">
        <ele>2353</ele>
        <time>2013-06-07T08:47:34Z</time>
      </trkpt>
      <trkpt lat="42.70148" lon="-0.03705">
        <ele>2353</ele>
        <time>2013-06-07T08:47:35Z</time>
      </trkpt>
      <trkpt lat="42.70155" lon="-0.03702">
        <ele>2349</ele>
        <time>2013-06-07T08:47:38Z</time>
      </trkpt>
      <trkpt lat="42.70159" lon="-0.03702">
        <ele>2346</ele>
        <time>2013-06-07T08:47:39Z</time>
      </trkpt>
      <trkpt lat="42.70165" lon="-0.037">
        <ele>2344</ele>
        <time>2013-06-07T08:47:41Z</time>
      </trkpt>
      <trkpt lat="42.70172" lon="-0.03702">
        <ele>2340</ele>
        <time>2013-06-07T08:47:43Z</time>
      </trkpt>
      <trkpt lat="42.70181" lon="-0.03702">
        <ele>2337</ele>
        <time>2013-06-07T08:47:46Z</time>
      </trkpt>
      <trkpt lat="42.70184" lon="-0.03702">
        <ele>2334</ele>
        <time>2013-06-07T08:47:47Z</time>
      </trkpt>
      <trkpt lat="42.70188" lon="-0.03702">
        <ele>2331</ele>
        <time>2013-06-07T08:47:48Z</time>
      </trkpt>
      <trkpt lat="42.70191" lon="-0.03699">
        <ele>2330</ele>
        <time>2013-06-07T08:47:49Z</time>
      </trkpt>
      <trkpt lat="42.70203" lon="-0.03695">
        <ele>2324</ele>
        <time>2013-06-07T08:47:53Z</time>
      </trkpt>
      <trkpt lat="42.7021" lon="-0.03698">
        <ele>2326</ele>
        <time>2013-06-07T08:47:56Z</time>
      </trkpt>
      <trkpt lat="42.70215" lon="-0.03705">
        <ele>2325</ele>
        <time>2013-06-07T08:48:03Z</time>
      </trkpt>
      <trkpt lat="42.70211" lon="-0.03703">
        <ele>2325</ele>
        <time>2013-06-07T08:48:13Z</time>
      </trkpt>
      <trkpt lat="42.70212" lon="-0.03701">
        <ele>2322</ele>
        <time>2013-06-07T08:48:16Z</time>
      </trkpt>
      <trkpt lat="42.70213" lon="-0.03699">
        <ele>2323</ele>
        <time>2013-06-07T08:48:17Z</time>
      </trkpt>
      <trkpt lat="42.70217" lon="-0.03696">
        <ele>2319</ele>
        <time>2013-06-07T08:48:19Z</time>
      </trkpt>
      <trkpt lat="42.7022" lon="-0.03694">
        <ele>2319</ele>
        <time>2013-06-07T08:48:20Z</time>
      </trkpt>
      <trkpt lat="42.70224" lon="-0.03691">
        <ele>2314</ele>
        <time>2013-06-07T08:48:22Z</time>
      </trkpt>
      <trkpt lat="42.70235" lon="-0.03691">
        <ele>2311</ele>
        <time>2013-06-07T08:48:25Z</time>
      </trkpt>
      <trkpt lat="42.7024" lon="-0.03694">
        <ele>2309</ele>
        <time>2013-06-07T08:48:27Z</time>
      </trkpt>
      <trkpt lat="42.70244" lon="-0.037">
        <ele>2308</ele>
        <time>2013-06-07T08:48:29Z</time>
      </trkpt>
      <trkpt lat="42.70247" lon="-0.03712">
        <ele>2306</ele>
        <time>2013-06-07T08:48:32Z</time>
      </trkpt>
      <trkpt lat="42.7025" lon="-0.03715">
        <ele>2304</ele>
        <time>2013-06-07T08:48:34Z</time>
      </trkpt>
      <trkpt lat="42.70252" lon="-0.03715">
        <ele>2301</ele>
        <time>2013-06-07T08:48:35Z</time>
      </trkpt>
      <trkpt lat="42.70255" lon="-0.03716">
        <ele>2299</ele>
        <time>2013-06-07T08:48:37Z</time>
      </trkpt>
      <trkpt lat="42.7026" lon="-0.03716">
        <ele>2293</ele>
        <time>2013-06-07T08:48:39Z</time>
      </trkpt>
      <trkpt lat="42.70262" lon="-0.03716">
        <ele>2293</ele>
        <time>2013-06-07T08:48:40Z</time>
      </trkpt>
      <trkpt lat="42.70271" lon="-0.03716">
        <ele>2288</ele>
        <time>2013-06-07T08:48:42Z</time>
      </trkpt>
      <trkpt lat="42.70277" lon="-0.03716">
        <ele>2286</ele>
        <time>2013-06-07T08:48:44Z</time>
      </trkpt>
      <trkpt lat="42.70281" lon="-0.03717">
        <ele>2285</ele>
        <time>2013-06-07T08:48:45Z</time>
      </trkpt>
      <trkpt lat="42.70287" lon="-0.03714">
        <ele>2281</ele>
        <time>2013-06-07T08:48:47Z</time>
      </trkpt>
      <trkpt lat="42.70297" lon="-0.03717">
        <ele>2277</ele>
        <time>2013-06-07T08:48:49Z</time>
      </trkpt>
      <trkpt lat="42.70308" lon="-0.03723">
        <ele>2275</ele>
        <time>2013-06-07T08:48:52Z</time>
      </trkpt>
      <trkpt lat="42.70312" lon="-0.03724">
        <ele>2278</ele>
        <time>2013-06-07T08:48:53Z</time>
      </trkpt>
      <trkpt lat="42.70315" lon="-0.03725">
        <ele>2277</ele>
        <time>2013-06-07T08:48:54Z</time>
      </trkpt>
      <trkpt lat="42.70322" lon="-0.03726">
        <ele>2277</ele>
        <time>2013-06-07T08:49:02Z</time>
      </trkpt>
      <trkpt lat="42.7031" lon="-0.03725">
        <ele>2277</ele>
        <time>2013-06-07T08:49:12Z</time>
      </trkpt>
      <trkpt lat="42.70306" lon="-0.03714">
        <ele>2277</ele>
        <time>2013-06-07T08:49:23Z</time>
      </trkpt>
      <trkpt lat="42.70312" lon="-0.03715">
        <ele>2274</ele>
        <time>2013-06-07T08:49:27Z</time>
      </trkpt>
      <trkpt lat="42.70321" lon="-0.03713">
        <ele>2269</ele>
        <time>2013-06-07T08:49:30Z</time>
      </trkpt>
      <trkpt lat="42.70328" lon="-0.03712">
        <ele>2265</ele>
        <time>2013-06-07T08:49:32Z</time>
      </trkpt>
      <trkpt lat="42.70351" lon="-0.03719">
        <ele>2263</ele>
        <time>2013-06-07T08:49:40Z</time>
      </trkpt>
      <trkpt lat="42.7035" lon="-0.03719">
        <ele>2265</ele>
        <time>2013-06-07T08:49:43Z</time>
      </trkpt>
      <trkpt lat="42.70341" lon="-0.03719">
        <ele>2265</ele>
        <time>2013-06-07T08:49:53Z</time>
      </trkpt>
      <trkpt lat="42.70329" lon="-0.03716">
        <ele>2264</ele>
        <time>2013-06-07T08:49:58Z</time>
      </trkpt>
      <trkpt lat="42.70334" lon="-0.03719">
        <ele>2263</ele>
        <time>2013-06-07T08:50:03Z</time>
      </trkpt>
      <trkpt lat="42.70335" lon="-0.03726">
        <ele>2261</ele>
        <time>2013-06-07T08:50:11Z</time>
      </trkpt>
      <trkpt lat="42.70329" lon="-0.03725">
        <ele>2261</ele>
        <time>2013-06-07T08:50:27Z</time>
      </trkpt>
      <trkpt lat="42.70334" lon="-0.03722">
        <ele>2258</ele>
        <time>2013-06-07T08:50:31Z</time>
      </trkpt>
      <trkpt lat="42.70336" lon="-0.03714">
        <ele>2256</ele>
        <time>2013-06-07T08:50:35Z</time>
      </trkpt>
      <trkpt lat="42.70336" lon="-0.03713">
        <ele>2255</ele>
        <time>2013-06-07T08:50:43Z</time>
      </trkpt>
      <trkpt lat="42.70336" lon="-0.03717">
        <ele>2255</ele>
        <time>2013-06-07T08:50:59Z</time>
      </trkpt>
      <trkpt lat="42.70338" lon="-0.0371">
        <ele>2254</ele>
        <time>2013-06-07T08:51:02Z</time>
      </trkpt>
      <trkpt lat="42.7034" lon="-0.03701">
        <ele>2251</ele>
        <time>2013-06-07T08:51:05Z</time>
      </trkpt>
      <trkpt lat="42.70338" lon="-0.03694">
        <ele>2249</ele>
        <time>2013-06-07T08:51:12Z</time>
      </trkpt>
      <trkpt lat="42.70339" lon="-0.03688">
        <ele>2248</ele>
        <time>2013-06-07T08:51:18Z</time>
      </trkpt>
      <trkpt lat="42.7034" lon="-0.0368">
        <ele>2245</ele>
        <time>2013-06-07T08:51:22Z</time>
      </trkpt>
      <trkpt lat="42.7034" lon="-0.03673">
        <ele>2242</ele>
        <time>2013-06-07T08:51:26Z</time>
      </trkpt>
      <trkpt lat="42.7034" lon="-0.03672">
        <ele>2243</ele>
        <time>2013-06-07T08:51:27Z</time>
      </trkpt>
      <trkpt lat="42.70342" lon="-0.0367">
        <ele>2242</ele>
        <time>2013-06-07T08:51:32Z</time>
      </trkpt>
      <trkpt lat="42.70347" lon="-0.03672">
        <ele>2239</ele>
        <time>2013-06-07T08:51:35Z</time>
      </trkpt>
      <trkpt lat="42.70351" lon="-0.03672">
        <ele>2236</ele>
        <time>2013-06-07T08:51:37Z</time>
      </trkpt>
      <trkpt lat="42.70356" lon="-0.03664">
        <ele>2231</ele>
        <time>2013-06-07T08:51:42Z</time>
      </trkpt>
      <trkpt lat="42.70358" lon="-0.03661">
        <ele>2228</ele>
        <time>2013-06-07T08:51:44Z</time>
      </trkpt>
      <trkpt lat="42.70363" lon="-0.03661">
        <ele>2224</ele>
        <time>2013-06-07T08:51:47Z</time>
      </trkpt>
      <trkpt lat="42.70369" lon="-0.03647">
        <ele>2219</ele>
        <time>2013-06-07T08:51:52Z</time>
      </trkpt>
      <trkpt lat="42.70375" lon="-0.03635">
        <ele>2217</ele>
        <time>2013-06-07T08:51:55Z</time>
      </trkpt>
      <trkpt lat="42.70382" lon="-0.03634">
        <ele>2215</ele>
        <time>2013-06-07T08:51:57Z</time>
      </trkpt>
      <trkpt lat="42.70386" lon="-0.03636">
        <ele>2215</ele>
        <time>2013-06-07T08:51:58Z</time>
      </trkpt>
      <trkpt lat="42.70395" lon="-0.03642">
        <ele>2210</ele>
        <time>2013-06-07T08:52:01Z</time>
      </trkpt>
      <trkpt lat="42.70401" lon="-0.0364">
        <ele>2207</ele>
        <time>2013-06-07T08:52:03Z</time>
      </trkpt>
      <trkpt lat="42.70404" lon="-0.03638">
        <ele>2208</ele>
        <time>2013-06-07T08:52:04Z</time>
      </trkpt>
      <trkpt lat="42.70407" lon="-0.03637">
        <ele>2205</ele>
        <time>2013-06-07T08:52:05Z</time>
      </trkpt>
      <trkpt lat="42.70413" lon="-0.03641">
        <ele>2203</ele>
        <time>2013-06-07T08:52:07Z</time>
      </trkpt>
      <trkpt lat="42.70421" lon="-0.0364">
        <ele>2199</ele>
        <time>2013-06-07T08:52:09Z</time>
      </trkpt>
      <trkpt lat="42.70424" lon="-0.03642">
        <ele>2199</ele>
        <time>2013-06-07T08:52:10Z</time>
      </trkpt>
      <trkpt lat="42.70427" lon="-0.03643">
        <ele>2195</ele>
        <time>2013-06-07T08:52:11Z</time>
      </trkpt>
      <trkpt lat="42.70433" lon="-0.03641">
        <ele>2192</ele>
        <time>2013-06-07T08:52:13Z</time>
      </trkpt>
      <trkpt lat="42.70436" lon="-0.03643">
        <ele>2191</ele>
        <time>2013-06-07T08:52:14Z</time>
      </trkpt>
      <trkpt lat="42.70446" lon="-0.03644">
        <ele>2188</ele>
        <time>2013-06-07T08:52:17Z</time>
      </trkpt>
      <trkpt lat="42.70453" lon="-0.03648">
        <ele>2184</ele>
        <time>2013-06-07T08:52:19Z</time>
      </trkpt>
      <trkpt lat="42.70457" lon="-0.03651">
        <ele>2183</ele>
        <time>2013-06-07T08:52:20Z</time>
      </trkpt>
      <trkpt lat="42.70464" lon="-0.03654">
        <ele>2179</ele>
        <time>2013-06-07T08:52:22Z</time>
      </trkpt>
      <trkpt lat="42.70468" lon="-0.03659">
        <ele>2178</ele>
        <time>2013-06-07T08:52:23Z</time>
      </trkpt>
      <trkpt lat="42.70479" lon="-0.03669">
        <ele>2172</ele>
        <time>2013-06-07T08:52:26Z</time>
      </trkpt>
      <trkpt lat="42.70485" lon="-0.03674">
        <ele>2169</ele>
        <time>2013-06-07T08:52:28Z</time>
      </trkpt>
      <trkpt lat="42.70488" lon="-0.03679">
        <ele>2166</ele>
        <time>2013-06-07T08:52:29Z</time>
      </trkpt>
      <trkpt lat="42.70491" lon="-0.0368">
        <ele>2166</ele>
        <time>2013-06-07T08:52:30Z</time>
      </trkpt>
      <trkpt lat="42.70495" lon="-0.03682">
        <ele>2164</ele>
        <time>2013-06-07T08:52:31Z</time>
      </trkpt>
      <trkpt lat="42.70511" lon="-0.03684">
        <ele>2159</ele>
        <time>2013-06-07T08:52:35Z</time>
      </trkpt>
      <trkpt lat="42.70527" lon="-0.03688">
        <ele>2160</ele>
        <time>2013-06-07T08:52:43Z</time>
      </trkpt>
      <trkpt lat="42.70518" lon="-0.03676">
        <ele>2160</ele>
        <time>2013-06-07T08:52:53Z</time>
      </trkpt>
      <trkpt lat="42.70519" lon="-0.03678">
        <ele>2160</ele>
        <time>2013-06-07T08:52:56Z</time>
      </trkpt>
      <trkpt lat="42.70525" lon="-0.03703">
        <ele>2156</ele>
        <time>2013-06-07T08:53:03Z</time>
      </trkpt>
      <trkpt lat="42.70526" lon="-0.03712">
        <ele>2156</ele>
        <time>2013-06-07T08:53:05Z</time>
      </trkpt>
      <trkpt lat="42.70532" lon="-0.03721">
        <ele>2153</ele>
        <time>2013-06-07T08:53:08Z</time>
      </trkpt>
      <trkpt lat="42.70536" lon="-0.0373">
        <ele>2151</ele>
        <time>2013-06-07T08:53:10Z</time>
      </trkpt>
      <trkpt lat="42.70541" lon="-0.0374">
        <ele>2149</ele>
        <time>2013-06-07T08:53:12Z</time>
      </trkpt>
      <trkpt lat="42.70546" lon="-0.0375">
        <ele>2146</ele>
        <time>2013-06-07T08:53:14Z</time>
      </trkpt>
      <trkpt lat="42.70552" lon="-0.03756">
        <ele>2144</ele>
        <time>2013-06-07T08:53:16Z</time>
      </trkpt>
      <trkpt lat="42.7056" lon="-0.03769">
        <ele>2141</ele>
        <time>2013-06-07T08:53:19Z</time>
      </trkpt>
      <trkpt lat="42.70575" lon="-0.03789">
        <ele>2136</ele>
        <time>2013-06-07T08:53:23Z</time>
      </trkpt>
      <trkpt lat="42.70598" lon="-0.03802">
        <ele>2131</ele>
        <time>2013-06-07T08:53:27Z</time>
      </trkpt>
      <trkpt lat="42.70621" lon="-0.03822">
        <ele>2127</ele>
        <time>2013-06-07T08:53:31Z</time>
      </trkpt>
      <trkpt lat="42.70632" lon="-0.03834">
        <ele>2123</ele>
        <time>2013-06-07T08:53:33Z</time>
      </trkpt>
      <trkpt lat="42.70649" lon="-0.03858">
        <ele>2124</ele>
        <time>2013-06-07T08:53:38Z</time>
      </trkpt>
      <trkpt lat="42.7065" lon="-0.0386">
        <ele>2124</ele>
        <time>2013-06-07T08:53:40Z</time>
      </trkpt>
      <trkpt lat="42.70649" lon="-0.03857">
        <ele>2126</ele>
        <time>2013-06-07T08:53:47Z</time>
      </trkpt>
      <trkpt lat="42.7065" lon="-0.0386">
        <ele>2125</ele>
        <time>2013-06-07T08:53:54Z</time>
      </trkpt>
      <trkpt lat="42.70651" lon="-0.03859">
        <ele>2125</ele>
        <time>2013-06-07T08:53:55Z</time>
      </trkpt>
      <trkpt lat="42.70653" lon="-0.03857">
        <ele>2124</ele>
        <time>2013-06-07T08:53:58Z</time>
      </trkpt>
      <trkpt lat="42.70661" lon="-0.03855">
        <ele>2121</ele>
        <time>2013-06-07T08:54:03Z</time>
      </trkpt>
      <trkpt lat="42.70655" lon="-0.03852">
        <ele>2120</ele>
        <time>2013-06-07T08:54:11Z</time>
      </trkpt>
      <trkpt lat="42.70645" lon="-0.03853">
        <ele>2120</ele>
        <time>2013-06-07T08:54:28Z</time>
      </trkpt>
      <trkpt lat="42.70641" lon="-0.03851">
        <ele>2120</ele>
        <time>2013-06-07T08:54:41Z</time>
      </trkpt>
      <trkpt lat="42.70644" lon="-0.03851">
        <ele>2118</ele>
        <time>2013-06-07T08:54:43Z</time>
      </trkpt>
      <trkpt lat="42.7065" lon="-0.03851">
        <ele>2116</ele>
        <time>2013-06-07T08:54:46Z</time>
      </trkpt>
      <trkpt lat="42.70654" lon="-0.03854">
        <ele>2112</ele>
        <time>2013-06-07T08:54:48Z</time>
      </trkpt>
      <trkpt lat="42.70658" lon="-0.03854">
        <ele>2109</ele>
        <time>2013-06-07T08:54:50Z</time>
      </trkpt>
      <trkpt lat="42.70662" lon="-0.03855">
        <ele>2106</ele>
        <time>2013-06-07T08:54:51Z</time>
      </trkpt>
      <trkpt lat="42.70667" lon="-0.03859">
        <ele>2103</ele>
        <time>2013-06-07T08:54:53Z</time>
      </trkpt>
      <trkpt lat="42.70676" lon="-0.03857">
        <ele>2097</ele>
        <time>2013-06-07T08:54:56Z</time>
      </trkpt>
      <trkpt lat="42.70687" lon="-0.03854">
        <ele>2091</ele>
        <time>2013-06-07T08:54:59Z</time>
      </trkpt>
      <trkpt lat="42.70691" lon="-0.03852">
        <ele>2092</ele>
        <time>2013-06-07T08:55:00Z</time>
      </trkpt>
      <trkpt lat="42.70693" lon="-0.03851">
        <ele>2089</ele>
        <time>2013-06-07T08:55:01Z</time>
      </trkpt>
      <trkpt lat="42.70702" lon="-0.0385">
        <ele>2082</ele>
        <time>2013-06-07T08:55:03Z</time>
      </trkpt>
      <trkpt lat="42.70705" lon="-0.0385">
        <ele>2082</ele>
        <time>2013-06-07T08:55:04Z</time>
      </trkpt>
      <trkpt lat="42.7071" lon="-0.03848">
        <ele>2082</ele>
        <time>2013-06-07T08:55:05Z</time>
      </trkpt>
      <trkpt lat="42.70722" lon="-0.03846">
        <ele>2075</ele>
        <time>2013-06-07T08:55:07Z</time>
      </trkpt>
      <trkpt lat="42.70733" lon="-0.03855">
        <ele>2073</ele>
        <time>2013-06-07T08:55:11Z</time>
      </trkpt>
      <trkpt lat="42.70734" lon="-0.0386">
        <ele>2072</ele>
        <time>2013-06-07T08:55:18Z</time>
      </trkpt>
      <trkpt lat="42.70735" lon="-0.0386">
        <ele>2072</ele>
        <time>2013-06-07T08:55:19Z</time>
      </trkpt>
      <trkpt lat="42.70747" lon="-0.03872">
        <ele>2069</ele>
        <time>2013-06-07T08:55:27Z</time>
      </trkpt>
      <trkpt lat="42.70749" lon="-0.03875">
        <ele>2070</ele>
        <time>2013-06-07T08:55:28Z</time>
      </trkpt>
      <trkpt lat="42.70759" lon="-0.03887">
        <ele>2066</ele>
        <time>2013-06-07T08:55:33Z</time>
      </trkpt>
      <trkpt lat="42.70763" lon="-0.03884">
        <ele>2064</ele>
        <time>2013-06-07T08:55:35Z</time>
      </trkpt>
      <trkpt lat="42.70764" lon="-0.03877">
        <ele>2060</ele>
        <time>2013-06-07T08:55:37Z</time>
      </trkpt>
      <trkpt lat="42.70764" lon="-0.03872">
        <ele>2060</ele>
        <time>2013-06-07T08:55:38Z</time>
      </trkpt>
      <trkpt lat="42.70767" lon="-0.03851">
        <ele>2054</ele>
        <time>2013-06-07T08:55:42Z</time>
      </trkpt>
      <trkpt lat="42.70768" lon="-0.03846">
        <ele>2054</ele>
        <time>2013-06-07T08:55:43Z</time>
      </trkpt>
      <trkpt lat="42.7077" lon="-0.03836">
        <ele>2052</ele>
        <time>2013-06-07T08:55:45Z</time>
      </trkpt>
      <trkpt lat="42.70776" lon="-0.03831">
        <ele>2046</ele>
        <time>2013-06-07T08:55:49Z</time>
      </trkpt>
      <trkpt lat="42.70778" lon="-0.03829">
        <ele>2044</ele>
        <time>2013-06-07T08:55:50Z</time>
      </trkpt>
      <trkpt lat="42.70786" lon="-0.03827">
        <ele>2040</ele>
        <time>2013-06-07T08:55:54Z</time>
      </trkpt>
      <trkpt lat="42.70789" lon="-0.03827">
        <ele>2036</ele>
        <time>2013-06-07T08:55:55Z</time>
      </trkpt>
      <trkpt lat="42.70793" lon="-0.0383">
        <ele>2032</ele>
        <time>2013-06-07T08:55:57Z</time>
      </trkpt>
      <trkpt lat="42.70797" lon="-0.0383">
        <ele>2030</ele>
        <time>2013-06-07T08:56:00Z</time>
      </trkpt>
      <trkpt lat="42.70798" lon="-0.03828">
        <ele>2029</ele>
        <time>2013-06-07T08:56:02Z</time>
      </trkpt>
      <trkpt lat="42.70798" lon="-0.03829">
        <ele>2028</ele>
        <time>2013-06-07T08:56:10Z</time>
      </trkpt>
      <trkpt lat="42.70796" lon="-0.03828">
        <ele>2029</ele>
        <time>2013-06-07T08:56:22Z</time>
      </trkpt>
      <trkpt lat="42.70799" lon="-0.03818">
        <ele>2024</ele>
        <time>2013-06-07T08:56:26Z</time>
      </trkpt>
      <trkpt lat="42.708" lon="-0.03813">
        <ele>2023</ele>
        <time>2013-06-07T08:56:27Z</time>
      </trkpt>
      <trkpt lat="42.70805" lon="-0.0379">
        <ele>2018</ele>
        <time>2013-06-07T08:56:31Z</time>
      </trkpt>
      <trkpt lat="42.70806" lon="-0.03778">
        <ele>2016</ele>
        <time>2013-06-07T08:56:33Z</time>
      </trkpt>
      <trkpt lat="42.70808" lon="-0.03759">
        <ele>2012</ele>
        <time>2013-06-07T08:56:36Z</time>
      </trkpt>
      <trkpt lat="42.70808" lon="-0.03747">
        <ele>2009</ele>
        <time>2013-06-07T08:56:38Z</time>
      </trkpt>
      <trkpt lat="42.70812" lon="-0.03737">
        <ele>2008</ele>
        <time>2013-06-07T08:56:40Z</time>
      </trkpt>
      <trkpt lat="42.70822" lon="-0.03734">
        <ele>2001</ele>
        <time>2013-06-07T08:56:43Z</time>
      </trkpt>
      <trkpt lat="42.70826" lon="-0.03737">
        <ele>1997</ele>
        <time>2013-06-07T08:56:44Z</time>
      </trkpt>
      <trkpt lat="42.70833" lon="-0.03745">
        <ele>1993</ele>
        <time>2013-06-07T08:56:46Z</time>
      </trkpt>
      <trkpt lat="42.70835" lon="-0.03756">
        <ele>1991</ele>
        <time>2013-06-07T08:56:48Z</time>
      </trkpt>
      <trkpt lat="42.70837" lon="-0.03761">
        <ele>1990</ele>
        <time>2013-06-07T08:56:49Z</time>
      </trkpt>
      <trkpt lat="42.70842" lon="-0.03775">
        <ele>1986</ele>
        <time>2013-06-07T08:56:54Z</time>
      </trkpt>
      <trkpt lat="42.70842" lon="-0.03785">
        <ele>1987</ele>
        <time>2013-06-07T08:57:02Z</time>
      </trkpt>
      <trkpt lat="42.70842" lon="-0.03788">
        <ele>1987</ele>
        <time>2013-06-07T08:57:12Z</time>
      </trkpt>
      <trkpt lat="42.7085" lon="-0.03801">
        <ele>1984</ele>
        <time>2013-06-07T08:57:17Z</time>
      </trkpt>
      <trkpt lat="42.70854" lon="-0.0381">
        <ele>1983</ele>
        <time>2013-06-07T08:57:19Z</time>
      </trkpt>
      <trkpt lat="42.70858" lon="-0.03821">
        <ele>1983</ele>
        <time>2013-06-07T08:57:24Z</time>
      </trkpt>
      <trkpt lat="42.70859" lon="-0.03822">
        <ele>1983</ele>
        <time>2013-06-07T08:57:26Z</time>
      </trkpt>
      <trkpt lat="42.7086" lon="-0.03823">
        <ele>1982</ele>
        <time>2013-06-07T08:57:28Z</time>
      </trkpt>
      <trkpt lat="42.70862" lon="-0.03831">
        <ele>1982</ele>
        <time>2013-06-07T08:57:36Z</time>
      </trkpt>
      <trkpt lat="42.70865" lon="-0.03834">
        <ele>1981</ele>
        <time>2013-06-07T08:57:44Z</time>
      </trkpt>
      <trkpt lat="42.70865" lon="-0.0384">
        <ele>1982</ele>
        <time>2013-06-07T08:57:53Z</time>
      </trkpt>
      <trkpt lat="42.70867" lon="-0.03844">
        <ele>1982</ele>
        <time>2013-06-07T08:58:03Z</time>
      </trkpt>
      <trkpt lat="42.70873" lon="-0.03852">
        <ele>1979</ele>
        <time>2013-06-07T08:58:13Z</time>
      </trkpt>
      <trkpt lat="42.70883" lon="-0.03858">
        <ele>1977</ele>
        <time>2013-06-07T08:58:17Z</time>
      </trkpt>
      <trkpt lat="42.70891" lon="-0.03854">
        <ele>1973</ele>
        <time>2013-06-07T08:58:20Z</time>
      </trkpt>
      <trkpt lat="42.70895" lon="-0.03855">
        <ele>1972</ele>
        <time>2013-06-07T08:58:22Z</time>
      </trkpt>
      <trkpt lat="42.70898" lon="-0.03855">
        <ele>1968</ele>
        <time>2013-06-07T08:58:23Z</time>
      </trkpt>
      <trkpt lat="42.70901" lon="-0.03852">
        <ele>1969</ele>
        <time>2013-06-07T08:58:24Z</time>
      </trkpt>
      <trkpt lat="42.70904" lon="-0.0385">
        <ele>1965</ele>
        <time>2013-06-07T08:58:25Z</time>
      </trkpt>
      <trkpt lat="42.70907" lon="-0.03848">
        <ele>1966</ele>
        <time>2013-06-07T08:58:26Z</time>
      </trkpt>
      <trkpt lat="42.70915" lon="-0.03841">
        <ele>1960</ele>
        <time>2013-06-07T08:58:29Z</time>
      </trkpt>
      <trkpt lat="42.70924" lon="-0.03836">
        <ele>1955</ele>
        <time>2013-06-07T08:58:33Z</time>
      </trkpt>
      <trkpt lat="42.70927" lon="-0.03834">
        <ele>1952</ele>
        <time>2013-06-07T08:58:34Z</time>
      </trkpt>
      <trkpt lat="42.70935" lon="-0.03839">
        <ele>1949</ele>
        <time>2013-06-07T08:58:36Z</time>
      </trkpt>
      <trkpt lat="42.70942" lon="-0.03836">
        <ele>1945</ele>
        <time>2013-06-07T08:58:38Z</time>
      </trkpt>
      <trkpt lat="42.70949" lon="-0.03836">
        <ele>1942</ele>
        <time>2013-06-07T08:58:40Z</time>
      </trkpt>
      <trkpt lat="42.70954" lon="-0.03835">
        <ele>1942</ele>
        <time>2013-06-07T08:58:41Z</time>
      </trkpt>
      <trkpt lat="42.70958" lon="-0.03835">
        <ele>1940</ele>
        <time>2013-06-07T08:58:42Z</time>
      </trkpt>
      <trkpt lat="42.7097" lon="-0.03838">
        <ele>1940</ele>
        <time>2013-06-07T08:58:49Z</time>
      </trkpt>
      <trkpt lat="42.70978" lon="-0.03843">
        <ele>1937</ele>
        <time>2013-06-07T08:58:52Z</time>
      </trkpt>
      <trkpt lat="42.70985" lon="-0.0385">
        <ele>1934</ele>
        <time>2013-06-07T08:58:55Z</time>
      </trkpt>
      <trkpt lat="42.70995" lon="-0.03854">
        <ele>1932</ele>
        <time>2013-06-07T08:58:58Z</time>
      </trkpt>
      <trkpt lat="42.70997" lon="-0.03857">
        <ele>1930</ele>
        <time>2013-06-07T08:58:59Z</time>
      </trkpt>
      <trkpt lat="42.70998" lon="-0.03859">
        <ele>1929</ele>
        <time>2013-06-07T08:59:00Z</time>
      </trkpt>
      <trkpt lat="42.71001" lon="-0.03867">
        <ele>1928</ele>
        <time>2013-06-07T08:59:02Z</time>
      </trkpt>
      <trkpt lat="42.71011" lon="-0.03886">
        <ele>1926</ele>
        <time>2013-06-07T08:59:06Z</time>
      </trkpt>
      <trkpt lat="42.71016" lon="-0.03895">
        <ele>1925</ele>
        <time>2013-06-07T08:59:08Z</time>
      </trkpt>
      <trkpt lat="42.71019" lon="-0.03898">
        <ele>1925</ele>
        <time>2013-06-07T08:59:09Z</time>
      </trkpt>
      <trkpt lat="42.71033" lon="-0.03904">
        <ele>1923</ele>
        <time>2013-06-07T08:59:12Z</time>
      </trkpt>
      <trkpt lat="42.71049" lon="-0.03917">
        <ele>1919</ele>
        <time>2013-06-07T08:59:17Z</time>
      </trkpt>
      <trkpt lat="42.71059" lon="-0.03941">
        <ele>1917</ele>
        <time>2013-06-07T08:59:22Z</time>
      </trkpt>
      <trkpt lat="42.71061" lon="-0.0395">
        <ele>1916</ele>
        <time>2013-06-07T08:59:27Z</time>
      </trkpt>
      <trkpt lat="42.71061" lon="-0.03957">
        <ele>1916</ele>
        <time>2013-06-07T08:59:36Z</time>
      </trkpt>
      <trkpt lat="42.7106" lon="-0.03961">
        <ele>1917</ele>
        <time>2013-06-07T08:59:39Z</time>
      </trkpt>
      <trkpt lat="42.7106" lon="-0.03969">
        <ele>1917</ele>
        <time>2013-06-07T08:59:48Z</time>
      </trkpt>
      <trkpt lat="42.71056" lon="-0.03966">
        <ele>1917</ele>
        <time>2013-06-07T09:00:03Z</time>
      </trkpt>
      <trkpt lat="42.71056" lon="-0.03972">
        <ele>1917</ele>
        <time>2013-06-07T09:00:16Z</time>
      </trkpt>
      <trkpt lat="42.71055" lon="-0.03975">
        <ele>1917</ele>
        <time>2013-06-07T09:00:26Z</time>
      </trkpt>
      <trkpt lat="42.7105" lon="-0.0398">
        <ele>1917</ele>
        <time>2013-06-07T09:00:36Z</time>
      </trkpt>
      <trkpt lat="42.71046" lon="-0.03986">
        <ele>1916</ele>
        <time>2013-06-07T09:00:46Z</time>
      </trkpt>
      <trkpt lat="42.71045" lon="-0.03987">
        <ele>1917</ele>
        <time>2013-06-07T09:00:54Z</time>
      </trkpt>
      <trkpt lat="42.71046" lon="-0.0399">
        <ele>1915</ele>
        <time>2013-06-07T09:01:04Z</time>
      </trkpt>
      <trkpt lat="42.71048" lon="-0.03991">
        <ele>1916</ele>
        <time>2013-06-07T09:01:10Z</time>
      </trkpt>
      <trkpt lat="42.71052" lon="-0.03995">
        <ele>1916</ele>
        <time>2013-06-07T09:01:17Z</time>
      </trkpt>
      <trkpt lat="42.71054" lon="-0.04">
        <ele>1917</ele>
        <time>2013-06-07T09:01:24Z</time>
      </trkpt>
      <trkpt lat="42.71055" lon="-0.04002">
        <ele>1916</ele>
        <time>2013-06-07T09:01:37Z</time>
      </trkpt>
      <trkpt lat="42.71054" lon="-0.04004">
        <ele>1915</ele>
        <time>2013-06-07T09:01:45Z</time>
      </trkpt>
      <trkpt lat="42.71055" lon="-0.04005">
        <ele>1915</ele>
        <time>2013-06-07T09:01:58Z</time>
      </trkpt>
      <trkpt lat="42.71057" lon="-0.04007">
        <ele>1916</ele>
        <time>2013-06-07T09:02:08Z</time>
      </trkpt>
      <trkpt lat="42.71059" lon="-0.04009">
        <ele>1916</ele>
        <time>2013-06-07T09:02:15Z</time>
      </trkpt>
      <trkpt lat="42.7106" lon="-0.04017">
        <ele>1916</ele>
        <time>2013-06-07T09:02:24Z</time>
      </trkpt>
      <trkpt lat="42.71061" lon="-0.04022">
        <ele>1916</ele>
        <time>2013-06-07T09:02:29Z</time>
      </trkpt>
      <trkpt lat="42.71061" lon="-0.04028">
        <ele>1915</ele>
        <time>2013-06-07T09:02:33Z</time>
      </trkpt>
      <trkpt lat="42.71066" lon="-0.04044">
        <ele>1915</ele>
        <time>2013-06-07T09:02:41Z</time>
      </trkpt>
      <trkpt lat="42.71064" lon="-0.04054">
        <ele>1917</ele>
        <time>2013-06-07T09:02:49Z</time>
      </trkpt>
      <trkpt lat="42.71063" lon="-0.04062">
        <ele>1916</ele>
        <time>2013-06-07T09:02:56Z</time>
      </trkpt>
      <trkpt lat="42.7106" lon="-0.04069">
        <ele>1916</ele>
        <time>2013-06-07T09:03:03Z</time>
      </trkpt>
      <trkpt lat="42.71059" lon="-0.04078">
        <ele>1917</ele>
        <time>2013-06-07T09:03:12Z</time>
      </trkpt>
      <trkpt lat="42.71058" lon="-0.04088">
        <ele>1917</ele>
        <time>2013-06-07T09:03:21Z</time>
      </trkpt>
      <trkpt lat="42.71059" lon="-0.04098">
        <ele>1917</ele>
        <time>2013-06-07T09:03:30Z</time>
      </trkpt>
      <trkpt lat="42.71058" lon="-0.04109">
        <ele>1917</ele>
        <time>2013-06-07T09:03:39Z</time>
      </trkpt>
      <trkpt lat="42.71058" lon="-0.04119">
        <ele>1917</ele>
        <time>2013-06-07T09:03:48Z</time>
      </trkpt>
      <trkpt lat="42.71056" lon="-0.04128">
        <ele>1917</ele>
        <time>2013-06-07T09:03:55Z</time>
      </trkpt>
      <trkpt lat="42.71054" lon="-0.0414">
        <ele>1918</ele>
        <time>2013-06-07T09:04:05Z</time>
      </trkpt>
      <trkpt lat="42.71053" lon="-0.04151">
        <ele>1919</ele>
        <time>2013-06-07T09:04:14Z</time>
      </trkpt>
      <trkpt lat="42.7105" lon="-0.04158">
        <ele>1917</ele>
        <time>2013-06-07T09:04:22Z</time>
      </trkpt>
      <trkpt lat="42.71049" lon="-0.04165">
        <ele>1918</ele>
        <time>2013-06-07T09:04:31Z</time>
      </trkpt>
      <trkpt lat="42.71052" lon="-0.04166">
        <ele>1919</ele>
        <time>2013-06-07T09:04:43Z</time>
      </trkpt>
      <trkpt lat="42.71054" lon="-0.04166">
        <ele>1918</ele>
        <time>2013-06-07T09:04:54Z</time>
      </trkpt>
      <trkpt lat="42.71051" lon="-0.04166">
        <ele>1918</ele>
        <time>2013-06-07T09:05:02Z</time>
      </trkpt>
      <trkpt lat="42.71051" lon="-0.04175">
        <ele>1919</ele>
        <time>2013-06-07T09:05:12Z</time>
      </trkpt>
      <trkpt lat="42.71049" lon="-0.04183">
        <ele>1921</ele>
        <time>2013-06-07T09:05:23Z</time>
      </trkpt>
      <trkpt lat="42.7105" lon="-0.04192">
        <ele>1922</ele>
        <time>2013-06-07T09:05:35Z</time>
      </trkpt>
      <trkpt lat="42.7105" lon="-0.04198">
        <ele>1924</ele>
        <time>2013-06-07T09:05:44Z</time>
      </trkpt>
      <trkpt lat="42.7105" lon="-0.04201">
        <ele>1925</ele>
        <time>2013-06-07T09:05:52Z</time>
      </trkpt>
      <trkpt lat="42.71051" lon="-0.04201">
        <ele>1923</ele>
        <time>2013-06-07T09:06:02Z</time>
      </trkpt>
      <trkpt lat="42.7105" lon="-0.042">
        <ele>1922</ele>
        <time>2013-06-07T09:06:15Z</time>
      </trkpt>
      <trkpt lat="42.71048" lon="-0.042">
        <ele>1923</ele>
        <time>2013-06-07T09:06:25Z</time>
      </trkpt>
      <trkpt lat="42.71046" lon="-0.04199">
        <ele>1922</ele>
        <time>2013-06-07T09:06:27Z</time>
      </trkpt>
      <trkpt lat="42.71048" lon="-0.04199">
        <ele>1922</ele>
        <time>2013-06-07T09:06:43Z</time>
      </trkpt>
      <trkpt lat="42.71049" lon="-0.042">
        <ele>1921</ele>
        <time>2013-06-07T09:07:04Z</time>
      </trkpt>
      <trkpt lat="42.71047" lon="-0.042">
        <ele>1921</ele>
        <time>2013-06-07T09:07:19Z</time>
      </trkpt>
      <trkpt lat="42.71049" lon="-0.04202">
        <ele>1921</ele>
        <time>2013-06-07T09:07:31Z</time>
      </trkpt>
      <trkpt lat="42.71049" lon="-0.04199">
        <ele>1921</ele>
        <time>2013-06-07T09:07:50Z</time>
      </trkpt>
      <trkpt lat="42.71049" lon="-0.04196">
        <ele>1921</ele>
        <time>2013-06-07T09:08:11Z</time>
      </trkpt>
      <trkpt lat="42.71048" lon="-0.04198">
        <ele>1921</ele>
        <time>2013-06-07T09:08:34Z</time>
      </trkpt>
      <trkpt lat="42.71049" lon="-0.04198">
        <ele>1921</ele>
        <time>2013-06-07T09:08:44Z</time>
      </trkpt>
      <trkpt lat="42.71051" lon="-0.0419">
        <ele>1919</ele>
        <time>2013-06-07T09:08:51Z</time>
      </trkpt>
      <trkpt lat="42.71049" lon="-0.04186">
        <ele>1919</ele>
        <time>2013-06-07T09:08:57Z</time>
      </trkpt>
      <trkpt lat="42.71046" lon="-0.04186">
        <ele>1917</ele>
        <time>2013-06-07T09:09:02Z</time>
      </trkpt>
      <trkpt lat="42.71046" lon="-0.04187">
        <ele>1918</ele>
        <time>2013-06-07T09:09:18Z</time>
      </trkpt>
      <trkpt lat="42.71043" lon="-0.04186">
        <ele>1918</ele>
        <time>2013-06-07T09:09:37Z</time>
      </trkpt>
      <trkpt lat="42.71046" lon="-0.04189">
        <ele>1917</ele>
        <time>2013-06-07T09:09:51Z</time>
      </trkpt>
      <trkpt lat="42.71046" lon="-0.04187">
        <ele>1917</ele>
        <time>2013-06-07T09:10:07Z</time>
      </trkpt>
      <trkpt lat="42.71046" lon="-0.04189">
        <ele>1917</ele>
        <time>2013-06-07T09:10:27Z</time>
      </trkpt>
      <trkpt lat="42.71047" lon="-0.04189">
        <ele>1916</ele>
        <time>2013-06-07T09:10:46Z</time>
      </trkpt>
      <trkpt lat="42.71046" lon="-0.04187">
        <ele>1917</ele>
        <time>2013-06-07T09:11:03Z</time>
      </trkpt>
      <trkpt lat="42.71047" lon="-0.04187">
        <ele>1916</ele>
        <time>2013-06-07T09:11:25Z</time>
      </trkpt>
      <trkpt lat="42.71046" lon="-0.04187">
        <ele>1916</ele>
        <time>2013-06-07T09:11:40Z</time>
      </trkpt>
      <trkpt lat="42.71045" lon="-0.04185">
        <ele>1916</ele>
        <time>2013-06-07T09:12:00Z</time>
      </trkpt>
      <trkpt lat="42.71045" lon="-0.04185">
        <ele>1916</ele>
        <time>2013-06-07T09:12:23Z</time>
      </trkpt>
      <trkpt lat="42.71047" lon="-0.04186">
        <ele>1916</ele>
        <time>2013-06-07T09:12:41Z</time>
      </trkpt>
      <trkpt lat="42.71048" lon="-0.04186">
        <ele>1916</ele>
        <time>2013-06-07T09:13:02Z</time>
      </trkpt>
      <trkpt lat="42.71048" lon="-0.04186">
        <ele>1916</ele>
        <time>2013-06-07T09:13:20Z</time>
      </trkpt>
      <trkpt lat="42.71048" lon="-0.04187">
        <ele>1915</ele>
        <time>2013-06-07T09:13:39Z</time>
      </trkpt>
      <trkpt lat="42.71046" lon="-0.04187">
        <ele>1915</ele>
        <time>2013-06-07T09:13:55Z</time>
      </trkpt>
      <trkpt lat="42.71044" lon="-0.04188">
        <ele>1916</ele>
        <time>2013-06-07T09:14:16Z</time>
      </trkpt>
      <trkpt lat="42.71046" lon="-0.04183">
        <ele>1915</ele>
        <time>2013-06-07T09:14:40Z</time>
      </trkpt>
      <trkpt lat="42.71045" lon="-0.04185">
        <ele>1915</ele>
        <time>2013-06-07T09:15:01Z</time>
      </trkpt>
      <trkpt lat="42.71042" lon="-0.04186">
        <ele>1915</ele>
        <time>2013-06-07T09:15:24Z</time>
      </trkpt>
      <trkpt lat="42.71044" lon="-0.04188">
        <ele>1915</ele>
        <time>2013-06-07T09:15:44Z</time>
      </trkpt>
      <trkpt lat="42.71042" lon="-0.04189">
        <ele>1914</ele>
        <time>2013-06-07T09:16:07Z</time>
      </trkpt>
      <trkpt lat="42.71042" lon="-0.04188">
        <ele>1914</ele>
        <time>2013-06-07T09:16:26Z</time>
      </trkpt>
      <trkpt lat="42.71043" lon="-0.04187">
        <ele>1914</ele>
        <time>2013-06-07T09:16:43Z</time>
      </trkpt>
      <trkpt lat="42.71045" lon="-0.04186">
        <ele>1914</ele>
        <time>2013-06-07T09:17:06Z</time>
      </trkpt>
      <trkpt lat="42.71045" lon="-0.04185">
        <ele>1914</ele>
        <time>2013-06-07T09:17:23Z</time>
      </trkpt>
      <trkpt lat="42.71047" lon="-0.04185">
        <ele>1914</ele>
        <time>2013-06-07T09:17:43Z</time>
      </trkpt>
      <trkpt lat="42.71049" lon="-0.04187">
        <ele>1914</ele>
        <time>2013-06-07T09:18:02Z</time>
      </trkpt>
      <trkpt lat="42.71046" lon="-0.04185">
        <ele>1914</ele>
        <time>2013-06-07T09:18:19Z</time>
      </trkpt>
      <trkpt lat="42.71046" lon="-0.04187">
        <ele>1914</ele>
        <time>2013-06-07T09:18:42Z</time>
      </trkpt>
      <trkpt lat="42.71046" lon="-0.04188">
        <ele>1914</ele>
        <time>2013-06-07T09:19:05Z</time>
      </trkpt>
      <trkpt lat="42.71045" lon="-0.04187">
        <ele>1914</ele>
        <time>2013-06-07T09:19:23Z</time>
      </trkpt>
      <trkpt lat="42.71041" lon="-0.0419">
        <ele>1914</ele>
        <time>2013-06-07T09:19:43Z</time>
      </trkpt>
      <trkpt lat="42.71042" lon="-0.04189">
        <ele>1914</ele>
        <time>2013-06-07T09:19:58Z</time>
      </trkpt>
      <trkpt lat="42.7104" lon="-0.04187">
        <ele>1914</ele>
        <time>2013-06-07T09:20:18Z</time>
      </trkpt>
      <trkpt lat="42.7104" lon="-0.0419">
        <ele>1914</ele>
        <time>2013-06-07T09:20:33Z</time>
      </trkpt>
      <trkpt lat="42.71041" lon="-0.04189">
        <ele>1914</ele>
        <time>2013-06-07T09:20:55Z</time>
      </trkpt>
      <trkpt lat="42.71044" lon="-0.04192">
        <ele>1914</ele>
        <time>2013-06-07T09:21:12Z</time>
      </trkpt>
      <trkpt lat="42.71048" lon="-0.04191">
        <ele>1914</ele>
        <time>2013-06-07T09:21:32Z</time>
      </trkpt>
      <trkpt lat="42.71044" lon="-0.04193">
        <ele>1914</ele>
        <time>2013-06-07T09:21:52Z</time>
      </trkpt>
      <trkpt lat="42.71044" lon="-0.04193">
        <ele>1914</ele>
        <time>2013-06-07T09:22:08Z</time>
      </trkpt>
      <trkpt lat="42.71049" lon="-0.04191">
        <ele>1914</ele>
        <time>2013-06-07T09:22:24Z</time>
      </trkpt>
      <trkpt lat="42.71047" lon="-0.04191">
        <ele>1914</ele>
        <time>2013-06-07T09:22:47Z</time>
      </trkpt>
      <trkpt lat="42.71044" lon="-0.04194">
        <ele>1914</ele>
        <time>2013-06-07T09:23:04Z</time>
      </trkpt>
      <trkpt lat="42.71044" lon="-0.04194">
        <ele>1915</ele>
        <time>2013-06-07T09:23:24Z</time>
      </trkpt>
      <trkpt lat="42.71044" lon="-0.04195">
        <ele>1915</ele>
        <time>2013-06-07T09:23:41Z</time>
      </trkpt>
      <trkpt lat="42.71045" lon="-0.04194">
        <ele>1915</ele>
        <time>2013-06-07T09:23:59Z</time>
      </trkpt>
      <trkpt lat="42.71045" lon="-0.0419">
        <ele>1916</ele>
        <time>2013-06-07T09:24:17Z</time>
      </trkpt>
      <trkpt lat="42.71048" lon="-0.04191">
        <ele>1915</ele>
        <time>2013-06-07T09:24:38Z</time>
      </trkpt>
      <trkpt lat="42.71051" lon="-0.04184">
        <ele>1915</ele>
        <time>2013-06-07T09:24:54Z</time>
      </trkpt>
      <trkpt lat="42.7105" lon="-0.04191">
        <ele>1915</ele>
        <time>2013-06-07T09:25:12Z</time>
      </trkpt>
      <trkpt lat="42.71049" lon="-0.04193">
        <ele>1915</ele>
        <time>2013-06-07T09:25:28Z</time>
      </trkpt>
      <trkpt lat="42.71048" lon="-0.04191">
        <ele>1916</ele>
        <time>2013-06-07T09:25:49Z</time>
      </trkpt>
      <trkpt lat="42.71049" lon="-0.04189">
        <ele>1916</ele>
        <time>2013-06-07T09:26:05Z</time>
      </trkpt>
      <trkpt lat="42.71055" lon="-0.04186">
        <ele>1916</ele>
        <time>2013-06-07T09:26:23Z</time>
      </trkpt>
      <trkpt lat="42.71057" lon="-0.04186">
        <ele>1917</ele>
        <time>2013-06-07T09:26:40Z</time>
      </trkpt>
      <trkpt lat="42.71048" lon="-0.04187">
        <ele>1916</ele>
        <time>2013-06-07T09:26:57Z</time>
      </trkpt>
      <trkpt lat="42.71048" lon="-0.04188">
        <ele>1917</ele>
        <time>2013-06-07T09:27:14Z</time>
      </trkpt>
      <trkpt lat="42.71047" lon="-0.04188">
        <ele>1917</ele>
        <time>2013-06-07T09:27:33Z</time>
      </trkpt>
      <trkpt lat="42.71044" lon="-0.04189">
        <ele>1917</ele>
        <time>2013-06-07T09:27:48Z</time>
      </trkpt>
      <trkpt lat="42.71048" lon="-0.04192">
        <ele>1917</ele>
        <time>2013-06-07T09:28:09Z</time>
      </trkpt>
      <trkpt lat="42.71049" lon="-0.04189">
        <ele>1917</ele>
        <time>2013-06-07T09:28:27Z</time>
      </trkpt>
      <trkpt lat="42.7105" lon="-0.0419">
        <ele>1917</ele>
        <time>2013-06-07T09:28:41Z</time>
      </trkpt>
      <trkpt lat="42.71049" lon="-0.04193">
        <ele>1916</ele>
        <time>2013-06-07T09:28:55Z</time>
      </trkpt>
      <trkpt lat="42.71048" lon="-0.04191">
        <ele>1917</ele>
        <time>2013-06-07T09:29:13Z</time>
      </trkpt>
      <trkpt lat="42.71048" lon="-0.04192">
        <ele>1917</ele>
        <time>2013-06-07T09:29:31Z</time>
      </trkpt>
      <trkpt lat="42.71047" lon="-0.04192">
        <ele>1917</ele>
        <time>2013-06-07T09:29:49Z</time>
      </trkpt>
      <trkpt lat="42.71047" lon="-0.04192">
        <ele>1917</ele>
        <time>2013-06-07T09:30:06Z</time>
      </trkpt>
      <trkpt lat="42.71046" lon="-0.04189">
        <ele>1917</ele>
        <time>2013-06-07T09:30:26Z</time>
      </trkpt>
      <trkpt lat="42.71046" lon="-0.04186">
        <ele>1917</ele>
        <time>2013-06-07T09:30:44Z</time>
      </trkpt>
      <trkpt lat="42.71051" lon="-0.04187">
        <ele>1918</ele>
        <time>2013-06-07T09:31:00Z</time>
      </trkpt>
      <trkpt lat="42.71061" lon="-0.04187">
        <ele>1917</ele>
        <time>2013-06-07T09:31:21Z</time>
      </trkpt>
      <trkpt lat="42.71056" lon="-0.04189">
        <ele>1917</ele>
        <time>2013-06-07T09:31:38Z</time>
      </trkpt>
      <trkpt lat="42.71047" lon="-0.04189">
        <ele>1918</ele>
        <time>2013-06-07T09:31:58Z</time>
      </trkpt>
      <trkpt lat="42.71047" lon="-0.04189">
        <ele>1918</ele>
        <time>2013-06-07T09:32:18Z</time>
      </trkpt>
      <trkpt lat="42.71046" lon="-0.0419">
        <ele>1918</ele>
        <time>2013-06-07T09:32:37Z</time>
      </trkpt>
      <trkpt lat="42.71044" lon="-0.04193">
        <ele>1917</ele>
        <time>2013-06-07T09:32:57Z</time>
      </trkpt>
      <trkpt lat="42.71045" lon="-0.04191">
        <ele>1917</ele>
        <time>2013-06-07T09:33:12Z</time>
      </trkpt>
      <trkpt lat="42.71043" lon="-0.04191">
        <ele>1917</ele>
        <time>2013-06-07T09:33:27Z</time>
      </trkpt>
      <trkpt lat="42.71042" lon="-0.04191">
        <ele>1917</ele>
        <time>2013-06-07T09:33:42Z</time>
      </trkpt>
      <trkpt lat="42.71042" lon="-0.04192">
        <ele>1917</ele>
        <time>2013-06-07T09:34:02Z</time>
      </trkpt>
      <trkpt lat="42.71042" lon="-0.04195">
        <ele>1917</ele>
        <time>2013-06-07T09:34:18Z</time>
      </trkpt>
      <trkpt lat="42.71043" lon="-0.04194">
        <ele>1917</ele>
        <time>2013-06-07T09:34:36Z</time>
      </trkpt>
      <trkpt lat="42.71037" lon="-0.04201">
        <ele>1917</ele>
        <time>2013-06-07T09:34:44Z</time>
      </trkpt>
      <trkpt lat="42.71043" lon="-0.04194">
        <ele>1917</ele>
        <time>2013-06-07T09:35:01Z</time>
      </trkpt>
      <trkpt lat="42.71043" lon="-0.04193">
        <ele>1918</ele>
        <time>2013-06-07T09:35:15Z</time>
      </trkpt>
      <trkpt lat="42.71045" lon="-0.04189">
        <ele>1918</ele>
        <time>2013-06-07T09:35:32Z</time>
      </trkpt>
      <trkpt lat="42.71044" lon="-0.0419">
        <ele>1918</ele>
        <time>2013-06-07T09:35:54Z</time>
      </trkpt>
      <trkpt lat="42.71038" lon="-0.0419">
        <ele>1918</ele>
        <time>2013-06-07T09:36:11Z</time>
      </trkpt>
      <trkpt lat="42.7104" lon="-0.04194">
        <ele>1918</ele>
        <time>2013-06-07T09:36:27Z</time>
      </trkpt>
      <trkpt lat="42.7104" lon="-0.04193">
        <ele>1917</ele>
        <time>2013-06-07T09:36:39Z</time>
      </trkpt>
      <trkpt lat="42.71043" lon="-0.04191">
        <ele>1918</ele>
        <time>2013-06-07T09:37:01Z</time>
      </trkpt>
      <trkpt lat="42.71043" lon="-0.04192">
        <ele>1918</ele>
        <time>2013-06-07T09:37:23Z</time>
      </trkpt>
      <trkpt lat="42.71035" lon="-0.04178">
        <ele>1918</ele>
        <time>2013-06-07T09:37:43Z</time>
      </trkpt>
      <trkpt lat="42.71041" lon="-0.04187">
        <ele>1920</ele>
        <time>2013-06-07T09:38:02Z</time>
      </trkpt>
      <trkpt lat="42.71043" lon="-0.04193">
        <ele>1921</ele>
        <time>2013-06-07T09:38:09Z</time>
      </trkpt>
      <trkpt lat="42.71043" lon="-0.04194">
        <ele>1921</ele>
        <time>2013-06-07T09:38:10Z</time>
      </trkpt>
      <trkpt lat="42.71044" lon="-0.04199">
        <ele>1921</ele>
        <time>2013-06-07T09:38:17Z</time>
      </trkpt>
      <trkpt lat="42.71043" lon="-0.04198">
        <ele>1921</ele>
        <time>2013-06-07T09:38:33Z</time>
      </trkpt>
      <trkpt lat="42.71046" lon="-0.04206">
        <ele>1921</ele>
        <time>2013-06-07T09:38:50Z</time>
      </trkpt>
      <trkpt lat="42.71047" lon="-0.04206">
        <ele>1920</ele>
        <time>2013-06-07T09:38:57Z</time>
      </trkpt>
      <trkpt lat="42.71051" lon="-0.04205">
        <ele>1920</ele>
        <time>2013-06-07T09:39:15Z</time>
      </trkpt>
      <trkpt lat="42.71053" lon="-0.04206">
        <ele>1920</ele>
        <time>2013-06-07T09:39:31Z</time>
      </trkpt>
      <trkpt lat="42.7105" lon="-0.04202">
        <ele>1920</ele>
        <time>2013-06-07T09:39:46Z</time>
      </trkpt>
      <trkpt lat="42.71048" lon="-0.04201">
        <ele>1920</ele>
        <time>2013-06-07T09:40:01Z</time>
      </trkpt>
      <trkpt lat="42.71046" lon="-0.04204">
        <ele>1920</ele>
        <time>2013-06-07T09:40:20Z</time>
      </trkpt>
      <trkpt lat="42.71048" lon="-0.04206">
        <ele>1919</ele>
        <time>2013-06-07T09:40:38Z</time>
      </trkpt>
      <trkpt lat="42.71048" lon="-0.04205">
        <ele>1920</ele>
        <time>2013-06-07T09:40:50Z</time>
      </trkpt>
      <trkpt lat="42.71049" lon="-0.04205">
        <ele>1921</ele>
        <time>2013-06-07T09:41:00Z</time>
      </trkpt>
      <trkpt lat="42.71048" lon="-0.04206">
        <ele>1921</ele>
        <time>2013-06-07T09:41:15Z</time>
      </trkpt>
      <trkpt lat="42.71054" lon="-0.04208">
        <ele>1920</ele>
        <time>2013-06-07T09:41:30Z</time>
      </trkpt>
      <trkpt lat="42.71056" lon="-0.04208">
        <ele>1921</ele>
        <time>2013-06-07T09:41:38Z</time>
      </trkpt>
      <trkpt lat="42.71057" lon="-0.0421">
        <ele>1921</ele>
        <time>2013-06-07T09:41:41Z</time>
      </trkpt>
      <trkpt lat="42.71062" lon="-0.04215">
        <ele>1922</ele>
        <time>2013-06-07T09:41:51Z</time>
      </trkpt>
      <trkpt lat="42.7107" lon="-0.0422">
        <ele>1922</ele>
        <time>2013-06-07T09:42:00Z</time>
      </trkpt>
      <trkpt lat="42.71077" lon="-0.04223">
        <ele>1924</ele>
        <time>2013-06-07T09:42:07Z</time>
      </trkpt>
      <trkpt lat="42.71078" lon="-0.04224">
        <ele>1924</ele>
        <time>2013-06-07T09:42:15Z</time>
      </trkpt>
      <trkpt lat="42.71078" lon="-0.04224">
        <ele>1924</ele>
        <time>2013-06-07T09:42:18Z</time>
      </trkpt>
      <trkpt lat="42.71079" lon="-0.04228">
        <ele>1925</ele>
        <time>2013-06-07T09:42:21Z</time>
      </trkpt>
      <trkpt lat="42.71081" lon="-0.04238">
        <ele>1925</ele>
        <time>2013-06-07T09:42:28Z</time>
      </trkpt>
      <trkpt lat="42.71081" lon="-0.04247">
        <ele>1926</ele>
        <time>2013-06-07T09:42:34Z</time>
      </trkpt>
      <trkpt lat="42.71081" lon="-0.04257">
        <ele>1927</ele>
        <time>2013-06-07T09:42:42Z</time>
      </trkpt>
      <trkpt lat="42.71082" lon="-0.04266">
        <ele>1928</ele>
        <time>2013-06-07T09:42:51Z</time>
      </trkpt>
      <trkpt lat="42.71084" lon="-0.04275">
        <ele>1929</ele>
        <time>2013-06-07T09:43:00Z</time>
      </trkpt>
      <trkpt lat="42.71083" lon="-0.04281">
        <ele>1929</ele>
        <time>2013-06-07T09:43:08Z</time>
      </trkpt>
      <trkpt lat="42.71085" lon="-0.0429">
        <ele>1931</ele>
        <time>2013-06-07T09:43:17Z</time>
      </trkpt>
      <trkpt lat="42.7109" lon="-0.04293">
        <ele>1932</ele>
        <time>2013-06-07T09:43:25Z</time>
      </trkpt>
      <trkpt lat="42.71094" lon="-0.04298">
        <ele>1933</ele>
        <time>2013-06-07T09:43:34Z</time>
      </trkpt>
      <trkpt lat="42.71097" lon="-0.04302">
        <ele>1934</ele>
        <time>2013-06-07T09:43:42Z</time>
      </trkpt>
      <trkpt lat="42.71098" lon="-0.04302">
        <ele>1935</ele>
        <time>2013-06-07T09:43:48Z</time>
      </trkpt>
      <trkpt lat="42.71097" lon="-0.04309">
        <ele>1937</ele>
        <time>2013-06-07T09:43:58Z</time>
      </trkpt>
      <trkpt lat="42.71099" lon="-0.04318">
        <ele>1937</ele>
        <time>2013-06-07T09:44:07Z</time>
      </trkpt>
      <trkpt lat="42.71104" lon="-0.04321">
        <ele>1939</ele>
        <time>2013-06-07T09:44:14Z</time>
      </trkpt>
      <trkpt lat="42.71105" lon="-0.04323">
        <ele>1940</ele>
        <time>2013-06-07T09:44:21Z</time>
      </trkpt>
      <trkpt lat="42.71103" lon="-0.04331">
        <ele>1942</ele>
        <time>2013-06-07T09:44:30Z</time>
      </trkpt>
      <trkpt lat="42.71101" lon="-0.0434">
        <ele>1942</ele>
        <time>2013-06-07T09:44:39Z</time>
      </trkpt>
      <trkpt lat="42.71097" lon="-0.04348">
        <ele>1943</ele>
        <time>2013-06-07T09:44:48Z</time>
      </trkpt>
      <trkpt lat="42.71094" lon="-0.04352">
        <ele>1944</ele>
        <time>2013-06-07T09:44:53Z</time>
      </trkpt>
      <trkpt lat="42.71093" lon="-0.04355">
        <ele>1944</ele>
        <time>2013-06-07T09:45:03Z</time>
      </trkpt>
      <trkpt lat="42.71092" lon="-0.04357">
        <ele>1944</ele>
        <time>2013-06-07T09:45:15Z</time>
      </trkpt>
      <trkpt lat="42.71095" lon="-0.0436">
        <ele>1944</ele>
        <time>2013-06-07T09:45:30Z</time>
      </trkpt>
      <trkpt lat="42.71095" lon="-0.04362">
        <ele>1945</ele>
        <time>2013-06-07T09:45:46Z</time>
      </trkpt>
      <trkpt lat="42.71093" lon="-0.04374">
        <ele>1946</ele>
        <time>2013-06-07T09:45:57Z</time>
      </trkpt>
      <trkpt lat="42.71094" lon="-0.04383">
        <ele>1947</ele>
        <time>2013-06-07T09:46:07Z</time>
      </trkpt>
      <trkpt lat="42.71095" lon="-0.04388">
        <ele>1949</ele>
        <time>2013-06-07T09:46:18Z</time>
      </trkpt>
      <trkpt lat="42.71096" lon="-0.04402">
        <ele>1949</ele>
        <time>2013-06-07T09:46:31Z</time>
      </trkpt>
      <trkpt lat="42.71095" lon="-0.04414">
        <ele>1950</ele>
        <time>2013-06-07T09:46:43Z</time>
      </trkpt>
      <trkpt lat="42.71092" lon="-0.04423">
        <ele>1950</ele>
        <time>2013-06-07T09:46:54Z</time>
      </trkpt>
      <trkpt lat="42.71088" lon="-0.04434">
        <ele>1951</ele>
        <time>2013-06-07T09:47:04Z</time>
      </trkpt>
      <trkpt lat="42.71087" lon="-0.04442">
        <ele>1952</ele>
        <time>2013-06-07T09:47:13Z</time>
      </trkpt>
      <trkpt lat="42.71083" lon="-0.04448">
        <ele>1953</ele>
        <time>2013-06-07T09:47:21Z</time>
      </trkpt>
      <trkpt lat="42.7108" lon="-0.04455">
        <ele>1955</ele>
        <time>2013-06-07T09:47:30Z</time>
      </trkpt>
      <trkpt lat="42.71077" lon="-0.04463">
        <ele>1956</ele>
        <time>2013-06-07T09:47:39Z</time>
      </trkpt>
      <trkpt lat="42.71073" lon="-0.04468">
        <ele>1956</ele>
        <time>2013-06-07T09:47:48Z</time>
      </trkpt>
      <trkpt lat="42.71068" lon="-0.04473">
        <ele>1957</ele>
        <time>2013-06-07T09:47:59Z</time>
      </trkpt>
      <trkpt lat="42.71062" lon="-0.04477">
        <ele>1958</ele>
        <time>2013-06-07T09:48:10Z</time>
      </trkpt>
      <trkpt lat="42.71056" lon="-0.0448">
        <ele>1960</ele>
        <time>2013-06-07T09:48:19Z</time>
      </trkpt>
      <trkpt lat="42.7105" lon="-0.04483">
        <ele>1961</ele>
        <time>2013-06-07T09:48:27Z</time>
      </trkpt>
      <trkpt lat="42.7105" lon="-0.04485">
        <ele>1962</ele>
        <time>2013-06-07T09:48:34Z</time>
      </trkpt>
      <trkpt lat="42.7105" lon="-0.04491">
        <ele>1964</ele>
        <time>2013-06-07T09:48:43Z</time>
      </trkpt>
      <trkpt lat="42.7105" lon="-0.04498">
        <ele>1965</ele>
        <time>2013-06-07T09:48:54Z</time>
      </trkpt>
      <trkpt lat="42.7105" lon="-0.04501">
        <ele>1966</ele>
        <time>2013-06-07T09:48:57Z</time>
      </trkpt>
      <trkpt lat="42.71046" lon="-0.04506">
        <ele>1966</ele>
        <time>2013-06-07T09:49:06Z</time>
      </trkpt>
      <trkpt lat="42.71045" lon="-0.04504">
        <ele>1966</ele>
        <time>2013-06-07T09:49:16Z</time>
      </trkpt>
      <trkpt lat="42.71042" lon="-0.04501">
        <ele>1966</ele>
        <time>2013-06-07T09:49:32Z</time>
      </trkpt>
      <trkpt lat="42.71048" lon="-0.04505">
        <ele>1967</ele>
        <time>2013-06-07T09:49:45Z</time>
      </trkpt>
      <trkpt lat="42.71047" lon="-0.04504">
        <ele>1966</ele>
        <time>2013-06-07T09:49:53Z</time>
      </trkpt>
      <trkpt lat="42.71046" lon="-0.04505">
        <ele>1966</ele>
        <time>2013-06-07T09:50:03Z</time>
      </trkpt>
      <trkpt lat="42.71043" lon="-0.04501">
        <ele>1966</ele>
        <time>2013-06-07T09:50:14Z</time>
      </trkpt>
      <trkpt lat="42.71046" lon="-0.04501">
        <ele>1966</ele>
        <time>2013-06-07T09:50:25Z</time>
      </trkpt>
      <trkpt lat="42.71045" lon="-0.04501">
        <ele>1967</ele>
        <time>2013-06-07T09:50:33Z</time>
      </trkpt>
      <trkpt lat="42.71043" lon="-0.04503">
        <ele>1966</ele>
        <time>2013-06-07T09:50:42Z</time>
      </trkpt>
      <trkpt lat="42.71041" lon="-0.04519">
        <ele>1967</ele>
        <time>2013-06-07T09:50:53Z</time>
      </trkpt>
      <trkpt lat="42.71042" lon="-0.04528">
        <ele>1967</ele>
        <time>2013-06-07T09:51:01Z</time>
      </trkpt>
      <trkpt lat="42.71043" lon="-0.04539">
        <ele>1968</ele>
        <time>2013-06-07T09:51:12Z</time>
      </trkpt>
      <trkpt lat="42.71045" lon="-0.04544">
        <ele>1970</ele>
        <time>2013-06-07T09:51:21Z</time>
      </trkpt>
      <trkpt lat="42.71046" lon="-0.04546">
        <ele>1971</ele>
        <time>2013-06-07T09:51:29Z</time>
      </trkpt>
      <trkpt lat="42.71047" lon="-0.04553">
        <ele>1973</ele>
        <time>2013-06-07T09:51:36Z</time>
      </trkpt>
      <trkpt lat="42.71046" lon="-0.04562">
        <ele>1973</ele>
        <time>2013-06-07T09:51:45Z</time>
      </trkpt>
      <trkpt lat="42.71047" lon="-0.04571">
        <ele>1975</ele>
        <time>2013-06-07T09:51:55Z</time>
      </trkpt>
      <trkpt lat="42.71045" lon="-0.04581">
        <ele>1977</ele>
        <time>2013-06-07T09:52:05Z</time>
      </trkpt>
      <trkpt lat="42.71043" lon="-0.0459">
        <ele>1977</ele>
        <time>2013-06-07T09:52:13Z</time>
      </trkpt>
      <trkpt lat="42.71043" lon="-0.04592">
        <ele>1977</ele>
        <time>2013-06-07T09:52:17Z</time>
      </trkpt>
      <trkpt lat="42.7104" lon="-0.04601">
        <ele>1977</ele>
        <time>2013-06-07T09:52:27Z</time>
      </trkpt>
      <trkpt lat="42.71035" lon="-0.04609">
        <ele>1978</ele>
        <time>2013-06-07T09:52:36Z</time>
      </trkpt>
      <trkpt lat="42.71032" lon="-0.04618">
        <ele>1978</ele>
        <time>2013-06-07T09:52:45Z</time>
      </trkpt>
      <trkpt lat="42.71028" lon="-0.04631">
        <ele>1978</ele>
        <time>2013-06-07T09:52:56Z</time>
      </trkpt>
      <trkpt lat="42.71026" lon="-0.04635">
        <ele>1977</ele>
        <time>2013-06-07T09:53:01Z</time>
      </trkpt>
      <trkpt lat="42.71022" lon="-0.04646">
        <ele>1978</ele>
        <time>2013-06-07T09:53:12Z</time>
      </trkpt>
      <trkpt lat="42.71017" lon="-0.04649">
        <ele>1978</ele>
        <time>2013-06-07T09:53:21Z</time>
      </trkpt>
      <trkpt lat="42.71012" lon="-0.04654">
        <ele>1979</ele>
        <time>2013-06-07T09:53:30Z</time>
      </trkpt>
      <trkpt lat="42.71008" lon="-0.04656">
        <ele>1980</ele>
        <time>2013-06-07T09:53:41Z</time>
      </trkpt>
      <trkpt lat="42.71008" lon="-0.04665">
        <ele>1981</ele>
        <time>2013-06-07T09:53:51Z</time>
      </trkpt>
      <trkpt lat="42.71001" lon="-0.04671">
        <ele>1982</ele>
        <time>2013-06-07T09:54:02Z</time>
      </trkpt>
      <trkpt lat="42.71" lon="-0.04672">
        <ele>1982</ele>
        <time>2013-06-07T09:54:04Z</time>
      </trkpt>
      <trkpt lat="42.70994" lon="-0.04679">
        <ele>1983</ele>
        <time>2013-06-07T09:54:13Z</time>
      </trkpt>
      <trkpt lat="42.70991" lon="-0.04685">
        <ele>1984</ele>
        <time>2013-06-07T09:54:19Z</time>
      </trkpt>
      <trkpt lat="42.70985" lon="-0.04694">
        <ele>1986</ele>
        <time>2013-06-07T09:54:28Z</time>
      </trkpt>
      <trkpt lat="42.70982" lon="-0.047">
        <ele>1986</ele>
        <time>2013-06-07T09:54:38Z</time>
      </trkpt>
      <trkpt lat="42.70979" lon="-0.04705">
        <ele>1987</ele>
        <time>2013-06-07T09:54:48Z</time>
      </trkpt>
      <trkpt lat="42.70979" lon="-0.04709">
        <ele>1989</ele>
        <time>2013-06-07T09:54:58Z</time>
      </trkpt>
      <trkpt lat="42.70978" lon="-0.04716">
        <ele>1990</ele>
        <time>2013-06-07T09:55:08Z</time>
      </trkpt>
      <trkpt lat="42.70977" lon="-0.04722">
        <ele>1991</ele>
        <time>2013-06-07T09:55:17Z</time>
      </trkpt>
      <trkpt lat="42.70979" lon="-0.04731">
        <ele>1992</ele>
        <time>2013-06-07T09:55:28Z</time>
      </trkpt>
      <trkpt lat="42.70982" lon="-0.0474">
        <ele>1993</ele>
        <time>2013-06-07T09:55:41Z</time>
      </trkpt>
      <trkpt lat="42.70983" lon="-0.04744">
        <ele>1994</ele>
        <time>2013-06-07T09:55:52Z</time>
      </trkpt>
      <trkpt lat="42.70986" lon="-0.0475">
        <ele>1995</ele>
        <time>2013-06-07T09:56:02Z</time>
      </trkpt>
      <trkpt lat="42.70988" lon="-0.04759">
        <ele>1997</ele>
        <time>2013-06-07T09:56:15Z</time>
      </trkpt>
      <trkpt lat="42.7099" lon="-0.0477">
        <ele>1997</ele>
        <time>2013-06-07T09:56:28Z</time>
      </trkpt>
      <trkpt lat="42.7099" lon="-0.04777">
        <ele>1998</ele>
        <time>2013-06-07T09:56:39Z</time>
      </trkpt>
      <trkpt lat="42.70995" lon="-0.04786">
        <ele>1999</ele>
        <time>2013-06-07T09:56:52Z</time>
      </trkpt>
      <trkpt lat="42.70997" lon="-0.04793">
        <ele>2001</ele>
        <time>2013-06-07T09:57:05Z</time>
      </trkpt>
      <trkpt lat="42.71" lon="-0.04795">
        <ele>2003</ele>
        <time>2013-06-07T09:57:15Z</time>
      </trkpt>
      <trkpt lat="42.71002" lon="-0.04798">
        <ele>2002</ele>
        <time>2013-06-07T09:57:23Z</time>
      </trkpt>
      <trkpt lat="42.71005" lon="-0.04804">
        <ele>2004</ele>
        <time>2013-06-07T09:57:33Z</time>
      </trkpt>
      <trkpt lat="42.71004" lon="-0.04809">
        <ele>2005</ele>
        <time>2013-06-07T09:57:44Z</time>
      </trkpt>
      <trkpt lat="42.71008" lon="-0.04819">
        <ele>2007</ele>
        <time>2013-06-07T09:57:56Z</time>
      </trkpt>
      <trkpt lat="42.71009" lon="-0.04825">
        <ele>2009</ele>
        <time>2013-06-07T09:58:07Z</time>
      </trkpt>
      <trkpt lat="42.71009" lon="-0.04833">
        <ele>2011</ele>
        <time>2013-06-07T09:58:17Z</time>
      </trkpt>
      <trkpt lat="42.71011" lon="-0.04841">
        <ele>2012</ele>
        <time>2013-06-07T09:58:27Z</time>
      </trkpt>
      <trkpt lat="42.71013" lon="-0.04847">
        <ele>2012</ele>
        <time>2013-06-07T09:58:39Z</time>
      </trkpt>
      <trkpt lat="42.71011" lon="-0.04855">
        <ele>2015</ele>
        <time>2013-06-07T09:58:52Z</time>
      </trkpt>
      <trkpt lat="42.71013" lon="-0.04864">
        <ele>2016</ele>
        <time>2013-06-07T09:59:05Z</time>
      </trkpt>
      <trkpt lat="42.71015" lon="-0.04872">
        <ele>2018</ele>
        <time>2013-06-07T09:59:19Z</time>
      </trkpt>
      <trkpt lat="42.71015" lon="-0.04876">
        <ele>2019</ele>
        <time>2013-06-07T09:59:30Z</time>
      </trkpt>
      <trkpt lat="42.71015" lon="-0.04882">
        <ele>2020</ele>
        <time>2013-06-07T09:59:41Z</time>
      </trkpt>
      <trkpt lat="42.71016" lon="-0.04888">
        <ele>2022</ele>
        <time>2013-06-07T09:59:51Z</time>
      </trkpt>
      <trkpt lat="42.71018" lon="-0.04899">
        <ele>2023</ele>
        <time>2013-06-07T10:00:02Z</time>
      </trkpt>
      <trkpt lat="42.71014" lon="-0.04911">
        <ele>2024</ele>
        <time>2013-06-07T10:00:14Z</time>
      </trkpt>
      <trkpt lat="42.71011" lon="-0.04916">
        <ele>2024</ele>
        <time>2013-06-07T10:00:26Z</time>
      </trkpt>
      <trkpt lat="42.71008" lon="-0.04923">
        <ele>2026</ele>
        <time>2013-06-07T10:00:36Z</time>
      </trkpt>
      <trkpt lat="42.71009" lon="-0.04928">
        <ele>2027</ele>
        <time>2013-06-07T10:00:46Z</time>
      </trkpt>
      <trkpt lat="42.71011" lon="-0.04931">
        <ele>2028</ele>
        <time>2013-06-07T10:00:56Z</time>
      </trkpt>
      <trkpt lat="42.71014" lon="-0.04939">
        <ele>2029</ele>
        <time>2013-06-07T10:01:07Z</time>
      </trkpt>
      <trkpt lat="42.71014" lon="-0.04944">
        <ele>2029</ele>
        <time>2013-06-07T10:01:21Z</time>
      </trkpt>
      <trkpt lat="42.71008" lon="-0.04955">
        <ele>2030</ele>
        <time>2013-06-07T10:01:32Z</time>
      </trkpt>
      <trkpt lat="42.71009" lon="-0.04965">
        <ele>2032</ele>
        <time>2013-06-07T10:01:42Z</time>
      </trkpt>
      <trkpt lat="42.71008" lon="-0.04975">
        <ele>2033</ele>
        <time>2013-06-07T10:01:54Z</time>
      </trkpt>
      <trkpt lat="42.71009" lon="-0.04984">
        <ele>2035</ele>
        <time>2013-06-07T10:02:07Z</time>
      </trkpt>
      <trkpt lat="42.71011" lon="-0.04992">
        <ele>2037</ele>
        <time>2013-06-07T10:02:19Z</time>
      </trkpt>
      <trkpt lat="42.71009" lon="-0.05006">
        <ele>2038</ele>
        <time>2013-06-07T10:02:32Z</time>
      </trkpt>
      <trkpt lat="42.71011" lon="-0.05015">
        <ele>2038</ele>
        <time>2013-06-07T10:02:45Z</time>
      </trkpt>
      <trkpt lat="42.71008" lon="-0.05024">
        <ele>2040</ele>
        <time>2013-06-07T10:02:56Z</time>
      </trkpt>
      <trkpt lat="42.71006" lon="-0.05033">
        <ele>2041</ele>
        <time>2013-06-07T10:03:09Z</time>
      </trkpt>
      <trkpt lat="42.71005" lon="-0.05042">
        <ele>2043</ele>
        <time>2013-06-07T10:03:21Z</time>
      </trkpt>
      <trkpt lat="42.71006" lon="-0.05047">
        <ele>2044</ele>
        <time>2013-06-07T10:03:31Z</time>
      </trkpt>
      <trkpt lat="42.71002" lon="-0.05054">
        <ele>2045</ele>
        <time>2013-06-07T10:03:43Z</time>
      </trkpt>
      <trkpt lat="42.71004" lon="-0.05061">
        <ele>2046</ele>
        <time>2013-06-07T10:03:53Z</time>
      </trkpt>
      <trkpt lat="42.71004" lon="-0.05063">
        <ele>2045</ele>
        <time>2013-06-07T10:04:03Z</time>
      </trkpt>
      <trkpt lat="42.71003" lon="-0.05067">
        <ele>2047</ele>
        <time>2013-06-07T10:04:12Z</time>
      </trkpt>
      <trkpt lat="42.71003" lon="-0.05072">
        <ele>2048</ele>
        <time>2013-06-07T10:04:24Z</time>
      </trkpt>
      <trkpt lat="42.71003" lon="-0.05081">
        <ele>2048</ele>
        <time>2013-06-07T10:04:35Z</time>
      </trkpt>
      <trkpt lat="42.71008" lon="-0.05085">
        <ele>2050</ele>
        <time>2013-06-07T10:04:44Z</time>
      </trkpt>
      <trkpt lat="42.71018" lon="-0.05087">
        <ele>2052</ele>
        <time>2013-06-07T10:04:56Z</time>
      </trkpt>
      <trkpt lat="42.71022" lon="-0.05085">
        <ele>2052</ele>
        <time>2013-06-07T10:05:08Z</time>
      </trkpt>
      <trkpt lat="42.71028" lon="-0.05084">
        <ele>2054</ele>
        <time>2013-06-07T10:05:21Z</time>
      </trkpt>
      <trkpt lat="42.71033" lon="-0.05082">
        <ele>2056</ele>
        <time>2013-06-07T10:05:34Z</time>
      </trkpt>
      <trkpt lat="42.7104" lon="-0.05077">
        <ele>2057</ele>
        <time>2013-06-07T10:05:44Z</time>
      </trkpt>
      <trkpt lat="42.71044" lon="-0.0507">
        <ele>2058</ele>
        <time>2013-06-07T10:05:57Z</time>
      </trkpt>
      <trkpt lat="42.71046" lon="-0.05073">
        <ele>2057</ele>
        <time>2013-06-07T10:06:17Z</time>
      </trkpt>
      <trkpt lat="42.71051" lon="-0.05068">
        <ele>2058</ele>
        <time>2013-06-07T10:06:26Z</time>
      </trkpt>
      <trkpt lat="42.71053" lon="-0.05071">
        <ele>2060</ele>
        <time>2013-06-07T10:06:35Z</time>
      </trkpt>
      <trkpt lat="42.71058" lon="-0.05067">
        <ele>2061</ele>
        <time>2013-06-07T10:06:47Z</time>
      </trkpt>
      <trkpt lat="42.71064" lon="-0.05066">
        <ele>2064</ele>
        <time>2013-06-07T10:06:59Z</time>
      </trkpt>
      <trkpt lat="42.7107" lon="-0.05069">
        <ele>2066</ele>
        <time>2013-06-07T10:07:13Z</time>
      </trkpt>
      <trkpt lat="42.71072" lon="-0.05075">
        <ele>2066</ele>
        <time>2013-06-07T10:07:23Z</time>
      </trkpt>
      <trkpt lat="42.7107" lon="-0.05077">
        <ele>2068</ele>
        <time>2013-06-07T10:07:32Z</time>
      </trkpt>
      <trkpt lat="42.71071" lon="-0.05082">
        <ele>2069</ele>
        <time>2013-06-07T10:07:45Z</time>
      </trkpt>
      <trkpt lat="42.71071" lon="-0.0509">
        <ele>2070</ele>
        <time>2013-06-07T10:07:56Z</time>
      </trkpt>
      <trkpt lat="42.71072" lon="-0.05097">
        <ele>2072</ele>
        <time>2013-06-07T10:08:07Z</time>
      </trkpt>
      <trkpt lat="42.71072" lon="-0.05103">
        <ele>2073</ele>
        <time>2013-06-07T10:08:15Z</time>
      </trkpt>
      <trkpt lat="42.71071" lon="-0.05111">
        <ele>2074</ele>
        <time>2013-06-07T10:08:26Z</time>
      </trkpt>
      <trkpt lat="42.71073" lon="-0.05124">
        <ele>2075</ele>
        <time>2013-06-07T10:08:37Z</time>
      </trkpt>
      <trkpt lat="42.71073" lon="-0.05132">
        <ele>2077</ele>
        <time>2013-06-07T10:08:48Z</time>
      </trkpt>
      <trkpt lat="42.71075" lon="-0.05135">
        <ele>2078</ele>
        <time>2013-06-07T10:08:58Z</time>
      </trkpt>
      <trkpt lat="42.71078" lon="-0.05144">
        <ele>2079</ele>
        <time>2013-06-07T10:09:09Z</time>
      </trkpt>
      <trkpt lat="42.71081" lon="-0.0515">
        <ele>2081</ele>
        <time>2013-06-07T10:09:18Z</time>
      </trkpt>
      <trkpt lat="42.71084" lon="-0.05156">
        <ele>2082</ele>
        <time>2013-06-07T10:09:28Z</time>
      </trkpt>
      <trkpt lat="42.71086" lon="-0.05161">
        <ele>2083</ele>
        <time>2013-06-07T10:09:38Z</time>
      </trkpt>
      <trkpt lat="42.71089" lon="-0.05166">
        <ele>2085</ele>
        <time>2013-06-07T10:09:47Z</time>
      </trkpt>
      <trkpt lat="42.71091" lon="-0.0517">
        <ele>2086</ele>
        <time>2013-06-07T10:09:57Z</time>
      </trkpt>
      <trkpt lat="42.71091" lon="-0.05169">
        <ele>2086</ele>
        <time>2013-06-07T10:10:15Z</time>
      </trkpt>
      <trkpt lat="42.71093" lon="-0.05176">
        <ele>2088</ele>
        <time>2013-06-07T10:10:26Z</time>
      </trkpt>
      <trkpt lat="42.71095" lon="-0.05182">
        <ele>2090</ele>
        <time>2013-06-07T10:10:38Z</time>
      </trkpt>
      <trkpt lat="42.71098" lon="-0.05188">
        <ele>2091</ele>
        <time>2013-06-07T10:10:49Z</time>
      </trkpt>
      <trkpt lat="42.711" lon="-0.05192">
        <ele>2093</ele>
        <time>2013-06-07T10:10:59Z</time>
      </trkpt>
      <trkpt lat="42.71101" lon="-0.05199">
        <ele>2095</ele>
        <time>2013-06-07T10:11:09Z</time>
      </trkpt>
      <trkpt lat="42.71102" lon="-0.05205">
        <ele>2096</ele>
        <time>2013-06-07T10:11:20Z</time>
      </trkpt>
      <trkpt lat="42.71105" lon="-0.05209">
        <ele>2098</ele>
        <time>2013-06-07T10:11:32Z</time>
      </trkpt>
      <trkpt lat="42.71106" lon="-0.05214">
        <ele>2100</ele>
        <time>2013-06-07T10:11:43Z</time>
      </trkpt>
      <trkpt lat="42.71106" lon="-0.05212">
        <ele>2100</ele>
        <time>2013-06-07T10:11:56Z</time>
      </trkpt>
      <trkpt lat="42.71107" lon="-0.05213">
        <ele>2099</ele>
        <time>2013-06-07T10:12:11Z</time>
      </trkpt>
      <trkpt lat="42.71107" lon="-0.05217">
        <ele>2100</ele>
        <time>2013-06-07T10:12:20Z</time>
      </trkpt>
      <trkpt lat="42.71109" lon="-0.05224">
        <ele>2102</ele>
        <time>2013-06-07T10:12:31Z</time>
      </trkpt>
      <trkpt lat="42.7111" lon="-0.05232">
        <ele>2104</ele>
        <time>2013-06-07T10:12:42Z</time>
      </trkpt>
      <trkpt lat="42.71112" lon="-0.05237">
        <ele>2106</ele>
        <time>2013-06-07T10:12:52Z</time>
      </trkpt>
      <trkpt lat="42.71114" lon="-0.05242">
        <ele>2107</ele>
        <time>2013-06-07T10:13:01Z</time>
      </trkpt>
      <trkpt lat="42.71115" lon="-0.05248">
        <ele>2108</ele>
        <time>2013-06-07T10:13:12Z</time>
      </trkpt>
      <trkpt lat="42.71116" lon="-0.05252">
        <ele>2109</ele>
        <time>2013-06-07T10:13:21Z</time>
      </trkpt>
      <trkpt lat="42.71119" lon="-0.05261">
        <ele>2111</ele>
        <time>2013-06-07T10:13:34Z</time>
      </trkpt>
      <trkpt lat="42.7112" lon="-0.05264">
        <ele>2112</ele>
        <time>2013-06-07T10:13:44Z</time>
      </trkpt>
      <trkpt lat="42.7112" lon="-0.05271">
        <ele>2113</ele>
        <time>2013-06-07T10:13:55Z</time>
      </trkpt>
      <trkpt lat="42.71121" lon="-0.05279">
        <ele>2114</ele>
        <time>2013-06-07T10:14:05Z</time>
      </trkpt>
      <trkpt lat="42.71122" lon="-0.05285">
        <ele>2116</ele>
        <time>2013-06-07T10:14:19Z</time>
      </trkpt>
      <trkpt lat="42.71122" lon="-0.05295">
        <ele>2118</ele>
        <time>2013-06-07T10:14:32Z</time>
      </trkpt>
      <trkpt lat="42.71124" lon="-0.05302">
        <ele>2120</ele>
        <time>2013-06-07T10:14:44Z</time>
      </trkpt>
      <trkpt lat="42.71125" lon="-0.05309">
        <ele>2120</ele>
        <time>2013-06-07T10:14:55Z</time>
      </trkpt>
      <trkpt lat="42.71125" lon="-0.05315">
        <ele>2122</ele>
        <time>2013-06-07T10:15:08Z</time>
      </trkpt>
      <trkpt lat="42.71127" lon="-0.05321">
        <ele>2124</ele>
        <time>2013-06-07T10:15:21Z</time>
      </trkpt>
      <trkpt lat="42.71128" lon="-0.05323">
        <ele>2124</ele>
        <time>2013-06-07T10:15:36Z</time>
      </trkpt>
      <trkpt lat="42.71126" lon="-0.05328">
        <ele>2125</ele>
        <time>2013-06-07T10:15:50Z</time>
      </trkpt>
      <trkpt lat="42.71126" lon="-0.05334">
        <ele>2125</ele>
        <time>2013-06-07T10:15:57Z</time>
      </trkpt>
      <trkpt lat="42.71125" lon="-0.05341">
        <ele>2126</ele>
        <time>2013-06-07T10:16:07Z</time>
      </trkpt>
      <trkpt lat="42.71127" lon="-0.05346">
        <ele>2127</ele>
        <time>2013-06-07T10:16:16Z</time>
      </trkpt>
      <trkpt lat="42.71127" lon="-0.05353">
        <ele>2128</ele>
        <time>2013-06-07T10:16:29Z</time>
      </trkpt>
      <trkpt lat="42.71127" lon="-0.05362">
        <ele>2130</ele>
        <time>2013-06-07T10:16:41Z</time>
      </trkpt>
      <trkpt lat="42.71127" lon="-0.05363">
        <ele>2131</ele>
        <time>2013-06-07T10:16:43Z</time>
      </trkpt>
      <trkpt lat="42.71128" lon="-0.05368">
        <ele>2132</ele>
        <time>2013-06-07T10:16:54Z</time>
      </trkpt>
      <trkpt lat="42.71128" lon="-0.05379">
        <ele>2133</ele>
        <time>2013-06-07T10:17:08Z</time>
      </trkpt>
      <trkpt lat="42.71126" lon="-0.05389">
        <ele>2134</ele>
        <time>2013-06-07T10:17:22Z</time>
      </trkpt>
      <trkpt lat="42.71125" lon="-0.05392">
        <ele>2135</ele>
        <time>2013-06-07T10:17:30Z</time>
      </trkpt>
      <trkpt lat="42.71125" lon="-0.05398">
        <ele>2136</ele>
        <time>2013-06-07T10:17:40Z</time>
      </trkpt>
      <trkpt lat="42.71127" lon="-0.05406">
        <ele>2137</ele>
        <time>2013-06-07T10:17:52Z</time>
      </trkpt>
      <trkpt lat="42.71127" lon="-0.05412">
        <ele>2139</ele>
        <time>2013-06-07T10:18:03Z</time>
      </trkpt>
      <trkpt lat="42.7113" lon="-0.05418">
        <ele>2140</ele>
        <time>2013-06-07T10:18:14Z</time>
      </trkpt>
      <trkpt lat="42.71131" lon="-0.05422">
        <ele>2142</ele>
        <time>2013-06-07T10:18:24Z</time>
      </trkpt>
      <trkpt lat="42.71133" lon="-0.0543">
        <ele>2143</ele>
        <time>2013-06-07T10:18:35Z</time>
      </trkpt>
      <trkpt lat="42.71132" lon="-0.05433">
        <ele>2144</ele>
        <time>2013-06-07T10:18:42Z</time>
      </trkpt>
      <trkpt lat="42.71132" lon="-0.05431">
        <ele>2144</ele>
        <time>2013-06-07T10:18:56Z</time>
      </trkpt>
      <trkpt lat="42.71133" lon="-0.05431">
        <ele>2144</ele>
        <time>2013-06-07T10:19:10Z</time>
      </trkpt>
      <trkpt lat="42.71132" lon="-0.05428">
        <ele>2143</ele>
        <time>2013-06-07T10:19:24Z</time>
      </trkpt>
      <trkpt lat="42.71132" lon="-0.05431">
        <ele>2145</ele>
        <time>2013-06-07T10:19:33Z</time>
      </trkpt>
      <trkpt lat="42.71133" lon="-0.05435">
        <ele>2146</ele>
        <time>2013-06-07T10:19:42Z</time>
      </trkpt>
      <trkpt lat="42.71135" lon="-0.05441">
        <ele>2147</ele>
        <time>2013-06-07T10:19:52Z</time>
      </trkpt>
      <trkpt lat="42.71136" lon="-0.05451">
        <ele>2149</ele>
        <time>2013-06-07T10:20:05Z</time>
      </trkpt>
      <trkpt lat="42.71137" lon="-0.05457">
        <ele>2151</ele>
        <time>2013-06-07T10:20:15Z</time>
      </trkpt>
      <trkpt lat="42.71138" lon="-0.05465">
        <ele>2153</ele>
        <time>2013-06-07T10:20:25Z</time>
      </trkpt>
      <trkpt lat="42.7114" lon="-0.05468">
        <ele>2154</ele>
        <time>2013-06-07T10:20:33Z</time>
      </trkpt>
      <trkpt lat="42.71142" lon="-0.05476">
        <ele>2155</ele>
        <time>2013-06-07T10:20:44Z</time>
      </trkpt>
      <trkpt lat="42.71142" lon="-0.05483">
        <ele>2157</ele>
        <time>2013-06-07T10:20:56Z</time>
      </trkpt>
      <trkpt lat="42.71143" lon="-0.0549">
        <ele>2159</ele>
        <time>2013-06-07T10:21:06Z</time>
      </trkpt>
      <trkpt lat="42.71143" lon="-0.05498">
        <ele>2160</ele>
        <time>2013-06-07T10:21:19Z</time>
      </trkpt>
      <trkpt lat="42.71144" lon="-0.05504">
        <ele>2162</ele>
        <time>2013-06-07T10:21:31Z</time>
      </trkpt>
      <trkpt lat="42.71143" lon="-0.0551">
        <ele>2164</ele>
        <time>2013-06-07T10:21:43Z</time>
      </trkpt>
      <trkpt lat="42.71143" lon="-0.05517">
        <ele>2165</ele>
        <time>2013-06-07T10:21:56Z</time>
      </trkpt>
      <trkpt lat="42.71145" lon="-0.05521">
        <ele>2166</ele>
        <time>2013-06-07T10:22:07Z</time>
      </trkpt>
      <trkpt lat="42.71145" lon="-0.05521">
        <ele>2165</ele>
        <time>2013-06-07T10:22:25Z</time>
      </trkpt>
      <trkpt lat="42.71144" lon="-0.0552">
        <ele>2166</ele>
        <time>2013-06-07T10:22:38Z</time>
      </trkpt>
      <trkpt lat="42.71145" lon="-0.05526">
        <ele>2168</ele>
        <time>2013-06-07T10:22:50Z</time>
      </trkpt>
      <trkpt lat="42.71146" lon="-0.0553">
        <ele>2170</ele>
        <time>2013-06-07T10:23:01Z</time>
      </trkpt>
      <trkpt lat="42.71148" lon="-0.05532">
        <ele>2172</ele>
        <time>2013-06-07T10:23:14Z</time>
      </trkpt>
      <trkpt lat="42.71154" lon="-0.0553">
        <ele>2175</ele>
        <time>2013-06-07T10:23:30Z</time>
      </trkpt>
      <trkpt lat="42.71159" lon="-0.0553">
        <ele>2178</ele>
        <time>2013-06-07T10:23:46Z</time>
      </trkpt>
      <trkpt lat="42.71164" lon="-0.05531">
        <ele>2179</ele>
        <time>2013-06-07T10:23:59Z</time>
      </trkpt>
      <trkpt lat="42.71168" lon="-0.05531">
        <ele>2182</ele>
        <time>2013-06-07T10:24:15Z</time>
      </trkpt>
      <trkpt lat="42.71173" lon="-0.05531">
        <ele>2183</ele>
        <time>2013-06-07T10:24:29Z</time>
      </trkpt>
      <trkpt lat="42.71178" lon="-0.0553">
        <ele>2186</ele>
        <time>2013-06-07T10:24:44Z</time>
      </trkpt>
      <trkpt lat="42.71181" lon="-0.05529">
        <ele>2187</ele>
        <time>2013-06-07T10:24:57Z</time>
      </trkpt>
      <trkpt lat="42.71187" lon="-0.05529">
        <ele>2190</ele>
        <time>2013-06-07T10:25:12Z</time>
      </trkpt>
      <trkpt lat="42.71188" lon="-0.05527">
        <ele>2190</ele>
        <time>2013-06-07T10:25:25Z</time>
      </trkpt>
      <trkpt lat="42.71189" lon="-0.05528">
        <ele>2190</ele>
        <time>2013-06-07T10:25:42Z</time>
      </trkpt>
      <trkpt lat="42.71191" lon="-0.0553">
        <ele>2191</ele>
        <time>2013-06-07T10:25:51Z</time>
      </trkpt>
      <trkpt lat="42.71193" lon="-0.05536">
        <ele>2193</ele>
        <time>2013-06-07T10:26:02Z</time>
      </trkpt>
      <trkpt lat="42.71194" lon="-0.0554">
        <ele>2194</ele>
        <time>2013-06-07T10:26:14Z</time>
      </trkpt>
      <trkpt lat="42.71195" lon="-0.0555">
        <ele>2196</ele>
        <time>2013-06-07T10:26:26Z</time>
      </trkpt>
      <trkpt lat="42.71195" lon="-0.05555">
        <ele>2198</ele>
        <time>2013-06-07T10:26:36Z</time>
      </trkpt>
      <trkpt lat="42.71195" lon="-0.05563">
        <ele>2199</ele>
        <time>2013-06-07T10:26:46Z</time>
      </trkpt>
      <trkpt lat="42.71196" lon="-0.05568">
        <ele>2200</ele>
        <time>2013-06-07T10:26:56Z</time>
      </trkpt>
      <trkpt lat="42.71196" lon="-0.05575">
        <ele>2203</ele>
        <time>2013-06-07T10:27:09Z</time>
      </trkpt>
      <trkpt lat="42.71196" lon="-0.05575">
        <ele>2203</ele>
        <time>2013-06-07T10:27:24Z</time>
      </trkpt>
      <trkpt lat="42.71196" lon="-0.05577">
        <ele>2203</ele>
        <time>2013-06-07T10:27:34Z</time>
      </trkpt>
      <trkpt lat="42.71202" lon="-0.05572">
        <ele>2206</ele>
        <time>2013-06-07T10:27:47Z</time>
      </trkpt>
      <trkpt lat="42.71206" lon="-0.05567">
        <ele>2208</ele>
        <time>2013-06-07T10:27:59Z</time>
      </trkpt>
      <trkpt lat="42.7121" lon="-0.05564">
        <ele>2209</ele>
        <time>2013-06-07T10:28:10Z</time>
      </trkpt>
      <trkpt lat="42.71213" lon="-0.05557">
        <ele>2208</ele>
        <time>2013-06-07T10:28:22Z</time>
      </trkpt>
      <trkpt lat="42.71215" lon="-0.05554">
        <ele>2209</ele>
        <time>2013-06-07T10:28:33Z</time>
      </trkpt>
      <trkpt lat="42.71221" lon="-0.05548">
        <ele>2209</ele>
        <time>2013-06-07T10:28:43Z</time>
      </trkpt>
      <trkpt lat="42.71218" lon="-0.05547">
        <ele>2209</ele>
        <time>2013-06-07T10:28:54Z</time>
      </trkpt>
      <trkpt lat="42.71218" lon="-0.05548">
        <ele>2208</ele>
        <time>2013-06-07T10:29:06Z</time>
      </trkpt>
      <trkpt lat="42.71218" lon="-0.05548">
        <ele>2208</ele>
        <time>2013-06-07T10:29:22Z</time>
      </trkpt>
      <trkpt lat="42.71219" lon="-0.05548">
        <ele>2208</ele>
        <time>2013-06-07T10:29:37Z</time>
      </trkpt>
      <trkpt lat="42.71218" lon="-0.05547">
        <ele>2208</ele>
        <time>2013-06-07T10:29:55Z</time>
      </trkpt>
      <trkpt lat="42.71217" lon="-0.05547">
        <ele>2209</ele>
        <time>2013-06-07T10:30:12Z</time>
      </trkpt>
      <trkpt lat="42.71214" lon="-0.05548">
        <ele>2208</ele>
        <time>2013-06-07T10:30:33Z</time>
      </trkpt>
      <trkpt lat="42.71217" lon="-0.05546">
        <ele>2209</ele>
        <time>2013-06-07T10:30:51Z</time>
      </trkpt>
      <trkpt lat="42.71219" lon="-0.05547">
        <ele>2208</ele>
        <time>2013-06-07T10:31:08Z</time>
      </trkpt>
      <trkpt lat="42.71218" lon="-0.05547">
        <ele>2208</ele>
        <time>2013-06-07T10:31:29Z</time>
      </trkpt>
      <trkpt lat="42.71218" lon="-0.05546">
        <ele>2208</ele>
        <time>2013-06-07T10:31:39Z</time>
      </trkpt>
      <trkpt lat="42.71218" lon="-0.05547">
        <ele>2208</ele>
        <time>2013-06-07T10:31:54Z</time>
      </trkpt>
      <trkpt lat="42.7122" lon="-0.05547">
        <ele>2208</ele>
        <time>2013-06-07T10:32:10Z</time>
      </trkpt>
      <trkpt lat="42.71219" lon="-0.05546">
        <ele>2208</ele>
        <time>2013-06-07T10:32:20Z</time>
      </trkpt>
      <trkpt lat="42.71218" lon="-0.05547">
        <ele>2208</ele>
        <time>2013-06-07T10:32:33Z</time>
      </trkpt>
      <trkpt lat="42.71218" lon="-0.05547">
        <ele>2209</ele>
        <time>2013-06-07T10:32:47Z</time>
      </trkpt>
      <trkpt lat="42.71218" lon="-0.05546">
        <ele>2211</ele>
        <time>2013-06-07T10:33:00Z</time>
      </trkpt>
      <trkpt lat="42.7122" lon="-0.05548">
        <ele>2209</ele>
        <time>2013-06-07T10:33:11Z</time>
      </trkpt>
      <trkpt lat="42.71219" lon="-0.05548">
        <ele>2209</ele>
        <time>2013-06-07T10:33:21Z</time>
      </trkpt>
      <trkpt lat="42.71221" lon="-0.05548">
        <ele>2209</ele>
        <time>2013-06-07T10:33:32Z</time>
      </trkpt>
      <trkpt lat="42.71221" lon="-0.05548">
        <ele>2208</ele>
        <time>2013-06-07T10:33:41Z</time>
      </trkpt>
      <trkpt lat="42.71221" lon="-0.05548">
        <ele>2209</ele>
        <time>2013-06-07T10:33:53Z</time>
      </trkpt>
      <trkpt lat="42.71222" lon="-0.05547">
        <ele>2209</ele>
        <time>2013-06-07T10:34:03Z</time>
      </trkpt>
      <trkpt lat="42.71226" lon="-0.05527">
        <ele>2208</ele>
        <time>2013-06-07T10:34:14Z</time>
      </trkpt>
      <trkpt lat="42.71229" lon="-0.05507">
        <ele>2209</ele>
        <time>2013-06-07T10:34:27Z</time>
      </trkpt>
      <trkpt lat="42.71234" lon="-0.05488">
        <ele>2209</ele>
        <time>2013-06-07T10:34:39Z</time>
      </trkpt>
      <trkpt lat="42.71236" lon="-0.05473">
        <ele>2209</ele>
        <time>2013-06-07T10:34:50Z</time>
      </trkpt>
      <trkpt lat="42.7124" lon="-0.05456">
        <ele>2209</ele>
        <time>2013-06-07T10:35:00Z</time>
      </trkpt>
      <trkpt lat="42.71247" lon="-0.05435">
        <ele>2210</ele>
        <time>2013-06-07T10:35:15Z</time>
      </trkpt>
      <trkpt lat="42.7125" lon="-0.05423">
        <ele>2210</ele>
        <time>2013-06-07T10:35:25Z</time>
      </trkpt>
      <trkpt lat="42.71253" lon="-0.05411">
        <ele>2211</ele>
        <time>2013-06-07T10:35:35Z</time>
      </trkpt>
      <trkpt lat="42.71258" lon="-0.05397">
        <ele>2212</ele>
        <time>2013-06-07T10:35:44Z</time>
      </trkpt>
      <trkpt lat="42.71261" lon="-0.05377">
        <ele>2211</ele>
        <time>2013-06-07T10:35:56Z</time>
      </trkpt>
      <trkpt lat="42.71264" lon="-0.05356">
        <ele>2210</ele>
        <time>2013-06-07T10:36:05Z</time>
      </trkpt>
      <trkpt lat="42.71267" lon="-0.05342">
        <ele>2211</ele>
        <time>2013-06-07T10:36:13Z</time>
      </trkpt>
      <trkpt lat="42.71271" lon="-0.05329">
        <ele>2210</ele>
        <time>2013-06-07T10:36:22Z</time>
      </trkpt>
      <trkpt lat="42.71274" lon="-0.05316">
        <ele>2210</ele>
        <time>2013-06-07T10:36:31Z</time>
      </trkpt>
      <trkpt lat="42.71277" lon="-0.053">
        <ele>2210</ele>
        <time>2013-06-07T10:36:41Z</time>
      </trkpt>
      <trkpt lat="42.71281" lon="-0.05288">
        <ele>2210</ele>
        <time>2013-06-07T10:36:51Z</time>
      </trkpt>
      <trkpt lat="42.71284" lon="-0.05274">
        <ele>2211</ele>
        <time>2013-06-07T10:37:01Z</time>
      </trkpt>
      <trkpt lat="42.71285" lon="-0.0526">
        <ele>2212</ele>
        <time>2013-06-07T10:37:12Z</time>
      </trkpt>
      <trkpt lat="42.71288" lon="-0.05239">
        <ele>2211</ele>
        <time>2013-06-07T10:37:22Z</time>
      </trkpt>
      <trkpt lat="42.71288" lon="-0.05227">
        <ele>2210</ele>
        <time>2013-06-07T10:37:29Z</time>
      </trkpt>
      <trkpt lat="42.71291" lon="-0.05212">
        <ele>2211</ele>
        <time>2013-06-07T10:37:40Z</time>
      </trkpt>
      <trkpt lat="42.71294" lon="-0.05197">
        <ele>2210</ele>
        <time>2013-06-07T10:37:53Z</time>
      </trkpt>
      <trkpt lat="42.71296" lon="-0.05187">
        <ele>2211</ele>
        <time>2013-06-07T10:38:04Z</time>
      </trkpt>
      <trkpt lat="42.71304" lon="-0.05176">
        <ele>2212</ele>
        <time>2013-06-07T10:38:14Z</time>
      </trkpt>
      <trkpt lat="42.71313" lon="-0.0516">
        <ele>2212</ele>
        <time>2013-06-07T10:38:24Z</time>
      </trkpt>
      <trkpt lat="42.71319" lon="-0.05145">
        <ele>2212</ele>
        <time>2013-06-07T10:38:35Z</time>
      </trkpt>
      <trkpt lat="42.71323" lon="-0.05134">
        <ele>2211</ele>
        <time>2013-06-07T10:38:46Z</time>
      </trkpt>
      <trkpt lat="42.71329" lon="-0.05123">
        <ele>2212</ele>
        <time>2013-06-07T10:38:58Z</time>
      </trkpt>
      <trkpt lat="42.71334" lon="-0.05118">
        <ele>2212</ele>
        <time>2013-06-07T10:39:07Z</time>
      </trkpt>
      <trkpt lat="42.71335" lon="-0.05118">
        <ele>2212</ele>
        <time>2013-06-07T10:39:08Z</time>
      </trkpt>
      <trkpt lat="42.71336" lon="-0.05118">
        <ele>2212</ele>
        <time>2013-06-07T10:39:09Z</time>
      </trkpt>
      <trkpt lat="42.71336" lon="-0.05117">
        <ele>2212</ele>
        <time>2013-06-07T10:39:10Z</time>
      </trkpt>
      <trkpt lat="42.71337" lon="-0.05117">
        <ele>2212</ele>
        <time>2013-06-07T10:39:11Z</time>
      </trkpt>
      <trkpt lat="42.71349" lon="-0.05108">
        <ele>2211</ele>
        <time>2013-06-07T10:39:21Z</time>
      </trkpt>
      <trkpt lat="42.71358" lon="-0.05104">
        <ele>2211</ele>
        <time>2013-06-07T10:39:27Z</time>
      </trkpt>
      <trkpt lat="42.71359" lon="-0.05104">
        <ele>2211</ele>
        <time>2013-06-07T10:39:28Z</time>
      </trkpt>
      <trkpt lat="42.71368" lon="-0.05103">
        <ele>2210</ele>
        <time>2013-06-07T10:39:37Z</time>
      </trkpt>
      <trkpt lat="42.71376" lon="-0.05101">
        <ele>2210</ele>
        <time>2013-06-07T10:39:45Z</time>
      </trkpt>
      <trkpt lat="42.71386" lon="-0.051">
        <ele>2210</ele>
        <time>2013-06-07T10:39:54Z</time>
      </trkpt>
      <trkpt lat="42.71399" lon="-0.05103">
        <ele>2209</ele>
        <time>2013-06-07T10:40:03Z</time>
      </trkpt>
      <trkpt lat="42.71408" lon="-0.051">
        <ele>2207</ele>
        <time>2013-06-07T10:40:06Z</time>
      </trkpt>
      <trkpt lat="42.71421" lon="-0.05102">
        <ele>2206</ele>
        <time>2013-06-07T10:40:11Z</time>
      </trkpt>
      <trkpt lat="42.71422" lon="-0.05107">
        <ele>2206</ele>
        <time>2013-06-07T10:40:19Z</time>
      </trkpt>
      <trkpt lat="42.71426" lon="-0.05112">
        <ele>2209</ele>
        <time>2013-06-07T10:40:26Z</time>
      </trkpt>
      <trkpt lat="42.71429" lon="-0.05112">
        <ele>2208</ele>
        <time>2013-06-07T10:40:33Z</time>
      </trkpt>
      <trkpt lat="42.71432" lon="-0.05107">
        <ele>2210</ele>
        <time>2013-06-07T10:40:40Z</time>
      </trkpt>
      <trkpt lat="42.71438" lon="-0.05102">
        <ele>2210</ele>
        <time>2013-06-07T10:40:49Z</time>
      </trkpt>
      <trkpt lat="42.7144" lon="-0.05098">
        <ele>2209</ele>
        <time>2013-06-07T10:40:58Z</time>
      </trkpt>
      <trkpt lat="42.71438" lon="-0.05097">
        <ele>2210</ele>
        <time>2013-06-07T10:41:06Z</time>
      </trkpt>
      <trkpt lat="42.71438" lon="-0.05097">
        <ele>2210</ele>
        <time>2013-06-07T10:41:16Z</time>
      </trkpt>
      <trkpt lat="42.71438" lon="-0.05097">
        <ele>2210</ele>
        <time>2013-06-07T10:41:26Z</time>
      </trkpt>
      <trkpt lat="42.7144" lon="-0.05096">
        <ele>2210</ele>
        <time>2013-06-07T10:41:34Z</time>
      </trkpt>
      <trkpt lat="42.71447" lon="-0.05088">
        <ele>2206</ele>
        <time>2013-06-07T10:41:41Z</time>
      </trkpt>
      <trkpt lat="42.71449" lon="-0.05086">
        <ele>2206</ele>
        <time>2013-06-07T10:41:42Z</time>
      </trkpt>
      <trkpt lat="42.71453" lon="-0.05084">
        <ele>2205</ele>
        <time>2013-06-07T10:41:44Z</time>
      </trkpt>
      <trkpt lat="42.71456" lon="-0.05089">
        <ele>2203</ele>
        <time>2013-06-07T10:41:46Z</time>
      </trkpt>
      <trkpt lat="42.71457" lon="-0.05093">
        <ele>2202</ele>
        <time>2013-06-07T10:41:47Z</time>
      </trkpt>
      <trkpt lat="42.71459" lon="-0.051">
        <ele>2200</ele>
        <time>2013-06-07T10:41:50Z</time>
      </trkpt>
      <trkpt lat="42.7146" lon="-0.05099">
        <ele>2199</ele>
        <time>2013-06-07T10:41:51Z</time>
      </trkpt>
      <trkpt lat="42.71465" lon="-0.05098">
        <ele>2199</ele>
        <time>2013-06-07T10:41:53Z</time>
      </trkpt>
      <trkpt lat="42.71469" lon="-0.05101">
        <ele>2195</ele>
        <time>2013-06-07T10:41:55Z</time>
      </trkpt>
      <trkpt lat="42.7147" lon="-0.05101">
        <ele>2195</ele>
        <time>2013-06-07T10:41:56Z</time>
      </trkpt>
      <trkpt lat="42.71474" lon="-0.05105">
        <ele>2190</ele>
        <time>2013-06-07T10:41:57Z</time>
      </trkpt>
      <trkpt lat="42.71477" lon="-0.05105">
        <ele>2190</ele>
        <time>2013-06-07T10:41:58Z</time>
      </trkpt>
      <trkpt lat="42.71484" lon="-0.05109">
        <ele>2185</ele>
        <time>2013-06-07T10:42:00Z</time>
      </trkpt>
      <trkpt lat="42.71487" lon="-0.05111">
        <ele>2184</ele>
        <time>2013-06-07T10:42:01Z</time>
      </trkpt>
      <trkpt lat="42.71498" lon="-0.05111">
        <ele>2180</ele>
        <time>2013-06-07T10:42:04Z</time>
      </trkpt>
      <trkpt lat="42.71508" lon="-0.05112">
        <ele>2178</ele>
        <time>2013-06-07T10:42:06Z</time>
      </trkpt>
      <trkpt lat="42.71513" lon="-0.05112">
        <ele>2175</ele>
        <time>2013-06-07T10:42:07Z</time>
      </trkpt>
      <trkpt lat="42.71545" lon="-0.051">
        <ele>2171</ele>
        <time>2013-06-07T10:42:16Z</time>
      </trkpt>
      <trkpt lat="42.71576" lon="-0.05084">
        <ele>2169</ele>
        <time>2013-06-07T10:42:27Z</time>
      </trkpt>
      <trkpt lat="42.71601" lon="-0.05072">
        <ele>2165</ele>
        <time>2013-06-07T10:42:37Z</time>
      </trkpt>
      <trkpt lat="42.71612" lon="-0.05068">
        <ele>2165</ele>
        <time>2013-06-07T10:42:43Z</time>
      </trkpt>
      <trkpt lat="42.71618" lon="-0.05066">
        <ele>2165</ele>
        <time>2013-06-07T10:42:51Z</time>
      </trkpt>
      <trkpt lat="42.71619" lon="-0.05066">
        <ele>2166</ele>
        <time>2013-06-07T10:43:02Z</time>
      </trkpt>
      <trkpt lat="42.71621" lon="-0.05067">
        <ele>2166</ele>
        <time>2013-06-07T10:43:13Z</time>
      </trkpt>
      <trkpt lat="42.71625" lon="-0.05066">
        <ele>2167</ele>
        <time>2013-06-07T10:43:21Z</time>
      </trkpt>
      <trkpt lat="42.71604" lon="-0.05068">
        <ele>2167</ele>
        <time>2013-06-07T10:43:47Z</time>
      </trkpt>
      <trkpt lat="42.71604" lon="-0.05068">
        <ele>2167</ele>
        <time>2013-06-07T10:43:57Z</time>
      </trkpt>
      <trkpt lat="42.71603" lon="-0.0507">
        <ele>2168</ele>
        <time>2013-06-07T10:44:15Z</time>
      </trkpt>
      <trkpt lat="42.71604" lon="-0.05069">
        <ele>2167</ele>
        <time>2013-06-07T10:44:34Z</time>
      </trkpt>
      <trkpt lat="42.71608" lon="-0.05067">
        <ele>2167</ele>
        <time>2013-06-07T10:44:41Z</time>
      </trkpt>
      <trkpt lat="42.71623" lon="-0.05058">
        <ele>2165</ele>
        <time>2013-06-07T10:44:48Z</time>
      </trkpt>
      <trkpt lat="42.71629" lon="-0.05053">
        <ele>2165</ele>
        <time>2013-06-07T10:44:51Z</time>
      </trkpt>
      <trkpt lat="42.7164" lon="-0.05061">
        <ele>2160</ele>
        <time>2013-06-07T10:44:56Z</time>
      </trkpt>
      <trkpt lat="42.71648" lon="-0.05067">
        <ele>2156</ele>
        <time>2013-06-07T10:44:59Z</time>
      </trkpt>
      <trkpt lat="42.71654" lon="-0.0507">
        <ele>2152</ele>
        <time>2013-06-07T10:45:01Z</time>
      </trkpt>
      <trkpt lat="42.71657" lon="-0.05072">
        <ele>2152</ele>
        <time>2013-06-07T10:45:02Z</time>
      </trkpt>
      <trkpt lat="42.71663" lon="-0.05079">
        <ele>2149</ele>
        <time>2013-06-07T10:45:04Z</time>
      </trkpt>
      <trkpt lat="42.71666" lon="-0.05081">
        <ele>2148</ele>
        <time>2013-06-07T10:45:05Z</time>
      </trkpt>
      <trkpt lat="42.71673" lon="-0.05088">
        <ele>2145</ele>
        <time>2013-06-07T10:45:08Z</time>
      </trkpt>
      <trkpt lat="42.71679" lon="-0.05089">
        <ele>2144</ele>
        <time>2013-06-07T10:45:10Z</time>
      </trkpt>
      <trkpt lat="42.71684" lon="-0.05098">
        <ele>2142</ele>
        <time>2013-06-07T10:45:13Z</time>
      </trkpt>
      <trkpt lat="42.71688" lon="-0.05099">
        <ele>2140</ele>
        <time>2013-06-07T10:45:17Z</time>
      </trkpt>
      <trkpt lat="42.7169" lon="-0.05099">
        <ele>2140</ele>
        <time>2013-06-07T10:45:18Z</time>
      </trkpt>
      <trkpt lat="42.71697" lon="-0.05107">
        <ele>2135</ele>
        <time>2013-06-07T10:45:22Z</time>
      </trkpt>
      <trkpt lat="42.71708" lon="-0.05099">
        <ele>2132</ele>
        <time>2013-06-07T10:45:26Z</time>
      </trkpt>
      <trkpt lat="42.71713" lon="-0.05094">
        <ele>2130</ele>
        <time>2013-06-07T10:45:28Z</time>
      </trkpt>
      <trkpt lat="42.71722" lon="-0.05096">
        <ele>2127</ele>
        <time>2013-06-07T10:45:31Z</time>
      </trkpt>
      <trkpt lat="42.71732" lon="-0.05096">
        <ele>2122</ele>
        <time>2013-06-07T10:45:34Z</time>
      </trkpt>
      <trkpt lat="42.7174" lon="-0.05098">
        <ele>2117</ele>
        <time>2013-06-07T10:45:36Z</time>
      </trkpt>
      <trkpt lat="42.71744" lon="-0.05097">
        <ele>2117</ele>
        <time>2013-06-07T10:45:37Z</time>
      </trkpt>
      <trkpt lat="42.71754" lon="-0.05089">
        <ele>2115</ele>
        <time>2013-06-07T10:45:40Z</time>
      </trkpt>
      <trkpt lat="42.71757" lon="-0.05085">
        <ele>2114</ele>
        <time>2013-06-07T10:45:41Z</time>
      </trkpt>
      <trkpt lat="42.71763" lon="-0.05077">
        <ele>2111</ele>
        <time>2013-06-07T10:45:44Z</time>
      </trkpt>
      <trkpt lat="42.71779" lon="-0.05055">
        <ele>2106</ele>
        <time>2013-06-07T10:45:49Z</time>
      </trkpt>
      <trkpt lat="42.71788" lon="-0.05042">
        <ele>2104</ele>
        <time>2013-06-07T10:45:52Z</time>
      </trkpt>
      <trkpt lat="42.71802" lon="-0.05022">
        <ele>2102</ele>
        <time>2013-06-07T10:45:57Z</time>
      </trkpt>
      <trkpt lat="42.71813" lon="-0.05003">
        <ele>2099</ele>
        <time>2013-06-07T10:46:02Z</time>
      </trkpt>
      <trkpt lat="42.71819" lon="-0.04993">
        <ele>2098</ele>
        <time>2013-06-07T10:46:05Z</time>
      </trkpt>
      <trkpt lat="42.71827" lon="-0.04976">
        <ele>2095</ele>
        <time>2013-06-07T10:46:09Z</time>
      </trkpt>
      <trkpt lat="42.71835" lon="-0.04962">
        <ele>2092</ele>
        <time>2013-06-07T10:46:12Z</time>
      </trkpt>
      <trkpt lat="42.71844" lon="-0.04949">
        <ele>2089</ele>
        <time>2013-06-07T10:46:15Z</time>
      </trkpt>
      <trkpt lat="42.71848" lon="-0.04945">
        <ele>2087</ele>
        <time>2013-06-07T10:46:16Z</time>
      </trkpt>
      <trkpt lat="42.71859" lon="-0.04946">
        <ele>2081</ele>
        <time>2013-06-07T10:46:19Z</time>
      </trkpt>
      <trkpt lat="42.71872" lon="-0.04944">
        <ele>2075</ele>
        <time>2013-06-07T10:46:22Z</time>
      </trkpt>
      <trkpt lat="42.71879" lon="-0.04943">
        <ele>2070</ele>
        <time>2013-06-07T10:46:24Z</time>
      </trkpt>
      <trkpt lat="42.71886" lon="-0.04937">
        <ele>2066</ele>
        <time>2013-06-07T10:46:26Z</time>
      </trkpt>
      <trkpt lat="42.71894" lon="-0.04933">
        <ele>2062</ele>
        <time>2013-06-07T10:46:28Z</time>
      </trkpt>
      <trkpt lat="42.71908" lon="-0.04932">
        <ele>2054</ele>
        <time>2013-06-07T10:46:31Z</time>
      </trkpt>
      <trkpt lat="42.71922" lon="-0.04928">
        <ele>2049</ele>
        <time>2013-06-07T10:46:34Z</time>
      </trkpt>
      <trkpt lat="42.71931" lon="-0.04928">
        <ele>2046</ele>
        <time>2013-06-07T10:46:36Z</time>
      </trkpt>
      <trkpt lat="42.71948" lon="-0.04922">
        <ele>2044</ele>
        <time>2013-06-07T10:46:41Z</time>
      </trkpt>
      <trkpt lat="42.71947" lon="-0.04902">
        <ele>2042</ele>
        <time>2013-06-07T10:46:46Z</time>
      </trkpt>
      <trkpt lat="42.71958" lon="-0.0488">
        <ele>2039</ele>
        <time>2013-06-07T10:46:52Z</time>
      </trkpt>
      <trkpt lat="42.71962" lon="-0.04877">
        <ele>2038</ele>
        <time>2013-06-07T10:46:53Z</time>
      </trkpt>
      <trkpt lat="42.71969" lon="-0.0487">
        <ele>2036</ele>
        <time>2013-06-07T10:46:55Z</time>
      </trkpt>
      <trkpt lat="42.71978" lon="-0.04864">
        <ele>2034</ele>
        <time>2013-06-07T10:46:57Z</time>
      </trkpt>
      <trkpt lat="42.71987" lon="-0.04858">
        <ele>2032</ele>
        <time>2013-06-07T10:46:59Z</time>
      </trkpt>
      <trkpt lat="42.72008" lon="-0.04847">
        <ele>2027</ele>
        <time>2013-06-07T10:47:03Z</time>
      </trkpt>
      <trkpt lat="42.72027" lon="-0.04837">
        <ele>2023</ele>
        <time>2013-06-07T10:47:07Z</time>
      </trkpt>
      <trkpt lat="42.72038" lon="-0.04828">
        <ele>2021</ele>
        <time>2013-06-07T10:47:16Z</time>
      </trkpt>
      <trkpt lat="42.72048" lon="-0.04823">
        <ele>2020</ele>
        <time>2013-06-07T10:47:22Z</time>
      </trkpt>
      <trkpt lat="42.72067" lon="-0.04805">
        <ele>2018</ele>
        <time>2013-06-07T10:47:31Z</time>
      </trkpt>
      <trkpt lat="42.72083" lon="-0.0478">
        <ele>2015</ele>
        <time>2013-06-07T10:47:40Z</time>
      </trkpt>
      <trkpt lat="42.72107" lon="-0.04753">
        <ele>2010</ele>
        <time>2013-06-07T10:47:49Z</time>
      </trkpt>
      <trkpt lat="42.7211" lon="-0.0475">
        <ele>2010</ele>
        <time>2013-06-07T10:47:50Z</time>
      </trkpt>
      <trkpt lat="42.72128" lon="-0.04737">
        <ele>2010</ele>
        <time>2013-06-07T10:47:57Z</time>
      </trkpt>
      <trkpt lat="42.72142" lon="-0.04727">
        <ele>2008</ele>
        <time>2013-06-07T10:48:05Z</time>
      </trkpt>
      <trkpt lat="42.72151" lon="-0.04723">
        <ele>2007</ele>
        <time>2013-06-07T10:48:09Z</time>
      </trkpt>
      <trkpt lat="42.72161" lon="-0.04715">
        <ele>2007</ele>
        <time>2013-06-07T10:48:14Z</time>
      </trkpt>
      <trkpt lat="42.72169" lon="-0.04708">
        <ele>2007</ele>
        <time>2013-06-07T10:48:19Z</time>
      </trkpt>
      <trkpt lat="42.72174" lon="-0.04701">
        <ele>2008</ele>
        <time>2013-06-07T10:48:23Z</time>
      </trkpt>
      <trkpt lat="42.72192" lon="-0.0468">
        <ele>2005</ele>
        <time>2013-06-07T10:48:33Z</time>
      </trkpt>
      <trkpt lat="42.72213" lon="-0.04653">
        <ele>2003</ele>
        <time>2013-06-07T10:48:42Z</time>
      </trkpt>
      <trkpt lat="42.72235" lon="-0.04622">
        <ele>2000</ele>
        <time>2013-06-07T10:48:51Z</time>
      </trkpt>
      <trkpt lat="42.72253" lon="-0.04598">
        <ele>1999</ele>
        <time>2013-06-07T10:49:00Z</time>
      </trkpt>
      <trkpt lat="42.72261" lon="-0.04589">
        <ele>1998</ele>
        <time>2013-06-07T10:49:04Z</time>
      </trkpt>
      <trkpt lat="42.72267" lon="-0.04583">
        <ele>1998</ele>
        <time>2013-06-07T10:49:07Z</time>
      </trkpt>
      <trkpt lat="42.7228" lon="-0.04576">
        <ele>1997</ele>
        <time>2013-06-07T10:49:13Z</time>
      </trkpt>
      <trkpt lat="42.7229" lon="-0.04573">
        <ele>1996</ele>
        <time>2013-06-07T10:49:18Z</time>
      </trkpt>
      <trkpt lat="42.72296" lon="-0.04566">
        <ele>1997</ele>
        <time>2013-06-07T10:49:23Z</time>
      </trkpt>
      <trkpt lat="42.72298" lon="-0.04564">
        <ele>1997</ele>
        <time>2013-06-07T10:49:25Z</time>
      </trkpt>
      <trkpt lat="42.72307" lon="-0.04547">
        <ele>1996</ele>
        <time>2013-06-07T10:49:34Z</time>
      </trkpt>
      <trkpt lat="42.72319" lon="-0.0452">
        <ele>1994</ele>
        <time>2013-06-07T10:49:43Z</time>
      </trkpt>
      <trkpt lat="42.72332" lon="-0.0449">
        <ele>1991</ele>
        <time>2013-06-07T10:49:51Z</time>
      </trkpt>
      <trkpt lat="42.7234" lon="-0.04468">
        <ele>1988</ele>
        <time>2013-06-07T10:49:57Z</time>
      </trkpt>
      <trkpt lat="42.72353" lon="-0.04443">
        <ele>1986</ele>
        <time>2013-06-07T10:50:05Z</time>
      </trkpt>
      <trkpt lat="42.72359" lon="-0.0443">
        <ele>1985</ele>
        <time>2013-06-07T10:50:09Z</time>
      </trkpt>
      <trkpt lat="42.72372" lon="-0.04405">
        <ele>1984</ele>
        <time>2013-06-07T10:50:17Z</time>
      </trkpt>
      <trkpt lat="42.72379" lon="-0.04395">
        <ele>1981</ele>
        <time>2013-06-07T10:50:20Z</time>
      </trkpt>
      <trkpt lat="42.72395" lon="-0.04372">
        <ele>1979</ele>
        <time>2013-06-07T10:50:28Z</time>
      </trkpt>
      <trkpt lat="42.72416" lon="-0.04347">
        <ele>1978</ele>
        <time>2013-06-07T10:50:37Z</time>
      </trkpt>
      <trkpt lat="42.72421" lon="-0.04341">
        <ele>1977</ele>
        <time>2013-06-07T10:50:39Z</time>
      </trkpt>
      <trkpt lat="42.72439" lon="-0.04318">
        <ele>1973</ele>
        <time>2013-06-07T10:50:46Z</time>
      </trkpt>
      <trkpt lat="42.72459" lon="-0.0429">
        <ele>1970</ele>
        <time>2013-06-07T10:50:54Z</time>
      </trkpt>
      <trkpt lat="42.72481" lon="-0.0427">
        <ele>1969</ele>
        <time>2013-06-07T10:51:02Z</time>
      </trkpt>
      <trkpt lat="42.72504" lon="-0.04249">
        <ele>1966</ele>
        <time>2013-06-07T10:51:11Z</time>
      </trkpt>
      <trkpt lat="42.72525" lon="-0.04228">
        <ele>1964</ele>
        <time>2013-06-07T10:51:20Z</time>
      </trkpt>
      <trkpt lat="42.72544" lon="-0.04205">
        <ele>1962</ele>
        <time>2013-06-07T10:51:28Z</time>
      </trkpt>
      <trkpt lat="42.72559" lon="-0.04189">
        <ele>1959</ele>
        <time>2013-06-07T10:51:33Z</time>
      </trkpt>
      <trkpt lat="42.72583" lon="-0.04164">
        <ele>1955</ele>
        <time>2013-06-07T10:51:40Z</time>
      </trkpt>
      <trkpt lat="42.72607" lon="-0.04149">
        <ele>1952</ele>
        <time>2013-06-07T10:51:46Z</time>
      </trkpt>
      <trkpt lat="42.72611" lon="-0.04147">
        <ele>1952</ele>
        <time>2013-06-07T10:51:47Z</time>
      </trkpt>
      <trkpt lat="42.7263" lon="-0.0414">
        <ele>1948</ele>
        <time>2013-06-07T10:51:51Z</time>
      </trkpt>
      <trkpt lat="42.72635" lon="-0.04138">
        <ele>1948</ele>
        <time>2013-06-07T10:51:52Z</time>
      </trkpt>
      <trkpt lat="42.72656" lon="-0.04129">
        <ele>1946</ele>
        <time>2013-06-07T10:51:58Z</time>
      </trkpt>
      <trkpt lat="42.72672" lon="-0.04123">
        <ele>1944</ele>
        <time>2013-06-07T10:52:03Z</time>
      </trkpt>
      <trkpt lat="42.72686" lon="-0.04116">
        <ele>1942</ele>
        <time>2013-06-07T10:52:07Z</time>
      </trkpt>
      <trkpt lat="42.72694" lon="-0.04112">
        <ele>1939</ele>
        <time>2013-06-07T10:52:09Z</time>
      </trkpt>
      <trkpt lat="42.72705" lon="-0.04107">
        <ele>1938</ele>
        <time>2013-06-07T10:52:12Z</time>
      </trkpt>
      <trkpt lat="42.72712" lon="-0.04104">
        <ele>1936</ele>
        <time>2013-06-07T10:52:14Z</time>
      </trkpt>
      <trkpt lat="42.72715" lon="-0.04105">
        <ele>1935</ele>
        <time>2013-06-07T10:52:15Z</time>
      </trkpt>
      <trkpt lat="42.72717" lon="-0.04106">
        <ele>1934</ele>
        <time>2013-06-07T10:52:16Z</time>
      </trkpt>
      <trkpt lat="42.72719" lon="-0.04109">
        <ele>1934</ele>
        <time>2013-06-07T10:52:23Z</time>
      </trkpt>
      <trkpt lat="42.7272" lon="-0.04112">
        <ele>1934</ele>
        <time>2013-06-07T10:52:39Z</time>
      </trkpt>
      <trkpt lat="42.72719" lon="-0.04112">
        <ele>1933</ele>
        <time>2013-06-07T10:52:54Z</time>
      </trkpt>
      <trkpt lat="42.7272" lon="-0.04112">
        <ele>1933</ele>
        <time>2013-06-07T10:53:06Z</time>
      </trkpt>
      <trkpt lat="42.72722" lon="-0.04109">
        <ele>1933</ele>
        <time>2013-06-07T10:53:23Z</time>
      </trkpt>
      <trkpt lat="42.72721" lon="-0.04109">
        <ele>1933</ele>
        <time>2013-06-07T10:53:33Z</time>
      </trkpt>
      <trkpt lat="42.7272" lon="-0.0411">
        <ele>1933</ele>
        <time>2013-06-07T10:53:44Z</time>
      </trkpt>
      <trkpt lat="42.72721" lon="-0.04108">
        <ele>1932</ele>
        <time>2013-06-07T10:53:56Z</time>
      </trkpt>
      <trkpt lat="42.72722" lon="-0.04108">
        <ele>1932</ele>
        <time>2013-06-07T10:53:58Z</time>
      </trkpt>
      <trkpt lat="42.72725" lon="-0.04108">
        <ele>1932</ele>
        <time>2013-06-07T10:54:04Z</time>
      </trkpt>
      <trkpt lat="42.72726" lon="-0.04109">
        <ele>1932</ele>
        <time>2013-06-07T10:54:15Z</time>
      </trkpt>
      <trkpt lat="42.72727" lon="-0.04112">
        <ele>1932</ele>
        <time>2013-06-07T10:54:26Z</time>
      </trkpt>
      <trkpt lat="42.72726" lon="-0.04113">
        <ele>1932</ele>
        <time>2013-06-07T10:54:37Z</time>
      </trkpt>
      <trkpt lat="42.72724" lon="-0.0411">
        <ele>1932</ele>
        <time>2013-06-07T10:54:55Z</time>
      </trkpt>
      <trkpt lat="42.72724" lon="-0.0411">
        <ele>1931</ele>
        <time>2013-06-07T10:55:13Z</time>
      </trkpt>
      <trkpt lat="42.72725" lon="-0.04109">
        <ele>1932</ele>
        <time>2013-06-07T10:55:34Z</time>
      </trkpt>
      <trkpt lat="42.72726" lon="-0.04108">
        <ele>1932</ele>
        <time>2013-06-07T10:55:58Z</time>
      </trkpt>
      <trkpt lat="42.72726" lon="-0.04109">
        <ele>1932</ele>
        <time>2013-06-07T10:56:17Z</time>
      </trkpt>
      <trkpt lat="42.72727" lon="-0.0411">
        <ele>1931</ele>
        <time>2013-06-07T10:56:36Z</time>
      </trkpt>
      <trkpt lat="42.72726" lon="-0.04108">
        <ele>1931</ele>
        <time>2013-06-07T10:56:56Z</time>
      </trkpt>
      <trkpt lat="42.72726" lon="-0.04109">
        <ele>1932</ele>
        <time>2013-06-07T10:57:17Z</time>
      </trkpt>
      <trkpt lat="42.72726" lon="-0.04111">
        <ele>1931</ele>
        <time>2013-06-07T10:57:40Z</time>
      </trkpt>
      <trkpt lat="42.72726" lon="-0.0411">
        <ele>1931</ele>
        <time>2013-06-07T10:58:03Z</time>
      </trkpt>
      <trkpt lat="42.72727" lon="-0.04111">
        <ele>1930</ele>
        <time>2013-06-07T10:58:30Z</time>
      </trkpt>
      <trkpt lat="42.72725" lon="-0.04111">
        <ele>1930</ele>
        <time>2013-06-07T10:58:58Z</time>
      </trkpt>
      <trkpt lat="42.72726" lon="-0.04109">
        <ele>1930</ele>
        <time>2013-06-07T10:59:23Z</time>
      </trkpt>
      <trkpt lat="42.72725" lon="-0.04108">
        <ele>1930</ele>
        <time>2013-06-07T10:59:45Z</time>
      </trkpt>
      <trkpt lat="42.72725" lon="-0.04108">
        <ele>1930</ele>
        <time>2013-06-07T11:00:09Z</time>
      </trkpt>
      <trkpt lat="42.72725" lon="-0.0411">
        <ele>1929</ele>
        <time>2013-06-07T11:00:34Z</time>
      </trkpt>
      <trkpt lat="42.72726" lon="-0.0411">
        <ele>1929</ele>
        <time>2013-06-07T11:00:57Z</time>
      </trkpt>
      <trkpt lat="42.72726" lon="-0.04108">
        <ele>1929</ele>
        <time>2013-06-07T11:01:19Z</time>
      </trkpt>
      <trkpt lat="42.72726" lon="-0.04109">
        <ele>1930</ele>
        <time>2013-06-07T11:01:39Z</time>
      </trkpt>
      <trkpt lat="42.72727" lon="-0.0411">
        <ele>1929</ele>
        <time>2013-06-07T11:01:58Z</time>
      </trkpt>
      <trkpt lat="42.72726" lon="-0.04109">
        <ele>1930</ele>
        <time>2013-06-07T11:02:14Z</time>
      </trkpt>
      <trkpt lat="42.72726" lon="-0.04109">
        <ele>1930</ele>
        <time>2013-06-07T11:02:36Z</time>
      </trkpt>
      <trkpt lat="42.72726" lon="-0.0411">
        <ele>1930</ele>
        <time>2013-06-07T11:02:57Z</time>
      </trkpt>
      <trkpt lat="42.72723" lon="-0.04109">
        <ele>1930</ele>
        <time>2013-06-07T11:03:18Z</time>
      </trkpt>
      <trkpt lat="42.72724" lon="-0.0411">
        <ele>1929</ele>
        <time>2013-06-07T11:03:41Z</time>
      </trkpt>
      <trkpt lat="42.72725" lon="-0.04109">
        <ele>1929</ele>
        <time>2013-06-07T11:04:03Z</time>
      </trkpt>
      <trkpt lat="42.72724" lon="-0.0411">
        <ele>1929</ele>
        <time>2013-06-07T11:04:27Z</time>
      </trkpt>
      <trkpt lat="42.72723" lon="-0.04109">
        <ele>1929</ele>
        <time>2013-06-07T11:04:48Z</time>
      </trkpt>
      <trkpt lat="42.72727" lon="-0.04106">
        <ele>1929</ele>
        <time>2013-06-07T11:05:05Z</time>
      </trkpt>
      <trkpt lat="42.72728" lon="-0.04108">
        <ele>1929</ele>
        <time>2013-06-07T11:05:22Z</time>
      </trkpt>
      <trkpt lat="42.72729" lon="-0.04107">
        <ele>1929</ele>
        <time>2013-06-07T11:05:42Z</time>
      </trkpt>
      <trkpt lat="42.72731" lon="-0.04111">
        <ele>1930</ele>
        <time>2013-06-07T11:05:59Z</time>
      </trkpt>
      <trkpt lat="42.72727" lon="-0.04109">
        <ele>1930</ele>
        <time>2013-06-07T11:06:09Z</time>
      </trkpt>
    </trkseg>
  </trk>
</gpx>